<?xml version='1.0' encoding='UTF-8'?>
<gpx version="1.1" creator="https://www.komoot.de" xmlns="http://www.topografix.com/GPX/1/1" xmlns:xsi="http://www.w3.org/2001/XMLSchema-instance" xsi:schemaLocation="http://www.topografix.com/GPX/1/1 http://www.topografix.com/GPX/1/1/gpx.xsd">
  <metadata>
    <name>Radtour 10, Spielwiese Hobersdorf - Schloss Niederabsdorf - Runde über Drösing, Zistersdorf</name>
    <author>
      <link href="https://www.komoot.de">
        <text>komoot</text>
        <type>text/html</type>
      </link>
    </author>
  </metadata>
  <trk>
    <name>Radtour 10, Spielwiese Hobersdorf - Schloss Niederabsdorf - Runde über Drösing, Zistersdorf</name>
    <trkseg>
      <trkpt lat="48.583973" lon="16.648922">
        <ele>245.760682</ele>
        <time>2020-07-04T03:37:59.051Z</time>
      </trkpt>
      <trkpt lat="48.584034" lon="16.649036">
        <ele>245.760682</ele>
        <time>2020-07-04T03:38:26.700Z</time>
      </trkpt>
      <trkpt lat="48.584111" lon="16.648947">
        <ele>245.760682</ele>
        <time>2020-07-04T03:38:29.698Z</time>
      </trkpt>
      <trkpt lat="48.584225" lon="16.648856">
        <ele>245.760682</ele>
        <time>2020-07-04T03:38:32.684Z</time>
      </trkpt>
      <trkpt lat="48.584336" lon="16.648757">
        <ele>245.760682</ele>
        <time>2020-07-04T03:38:35.686Z</time>
      </trkpt>
      <trkpt lat="48.584446" lon="16.648686">
        <ele>245.760682</ele>
        <time>2020-07-04T03:38:38.675Z</time>
      </trkpt>
      <trkpt lat="48.584529" lon="16.648744">
        <ele>245.760682</ele>
        <time>2020-07-04T03:38:40.703Z</time>
      </trkpt>
      <trkpt lat="48.584622" lon="16.648887">
        <ele>245.760682</ele>
        <time>2020-07-04T03:38:43.687Z</time>
      </trkpt>
      <trkpt lat="48.584690" lon="16.648982">
        <ele>245.760682</ele>
        <time>2020-07-04T03:38:45.681Z</time>
      </trkpt>
      <trkpt lat="48.584760" lon="16.649081">
        <ele>245.664568</ele>
        <time>2020-07-04T03:38:47.708Z</time>
      </trkpt>
      <trkpt lat="48.584831" lon="16.649190">
        <ele>245.549540</ele>
        <time>2020-07-04T03:38:49.681Z</time>
      </trkpt>
      <trkpt lat="48.584906" lon="16.649293">
        <ele>245.434359</ele>
        <time>2020-07-04T03:38:51.665Z</time>
      </trkpt>
      <trkpt lat="48.584986" lon="16.649396">
        <ele>245.314909</ele>
        <time>2020-07-04T03:38:53.686Z</time>
      </trkpt>
      <trkpt lat="48.585074" lon="16.649493">
        <ele>245.191110</ele>
        <time>2020-07-04T03:38:55.695Z</time>
      </trkpt>
      <trkpt lat="48.585167" lon="16.649584">
        <ele>245.065183</ele>
        <time>2020-07-04T03:38:57.691Z</time>
      </trkpt>
      <trkpt lat="48.585258" lon="16.649679">
        <ele>244.939473</ele>
        <time>2020-07-04T03:38:59.699Z</time>
      </trkpt>
      <trkpt lat="48.585352" lon="16.649770">
        <ele>244.812590</ele>
        <time>2020-07-04T03:39:01.679Z</time>
      </trkpt>
      <trkpt lat="48.585454" lon="16.649854">
        <ele>244.680557</ele>
        <time>2020-07-04T03:39:03.691Z</time>
      </trkpt>
      <trkpt lat="48.585561" lon="16.649939">
        <ele>244.543158</ele>
        <time>2020-07-04T03:39:05.671Z</time>
      </trkpt>
      <trkpt lat="48.585671" lon="16.650026">
        <ele>244.402040</ele>
        <time>2020-07-04T03:39:07.682Z</time>
      </trkpt>
      <trkpt lat="48.585779" lon="16.650101">
        <ele>244.266942</ele>
        <time>2020-07-04T03:39:09.684Z</time>
      </trkpt>
      <trkpt lat="48.585888" lon="16.650186">
        <ele>244.127526</ele>
        <time>2020-07-04T03:39:11.680Z</time>
      </trkpt>
      <trkpt lat="48.585997" lon="16.650273">
        <ele>243.987415</ele>
        <time>2020-07-04T03:39:13.670Z</time>
      </trkpt>
      <trkpt lat="48.586101" lon="16.650357">
        <ele>243.853382</ele>
        <time>2020-07-04T03:39:15.677Z</time>
      </trkpt>
      <trkpt lat="48.586204" lon="16.650440">
        <ele>243.720705</ele>
        <time>2020-07-04T03:39:17.671Z</time>
      </trkpt>
      <trkpt lat="48.586307" lon="16.650525">
        <ele>243.635426</ele>
        <time>2020-07-04T03:39:19.669Z</time>
      </trkpt>
      <trkpt lat="48.586411" lon="16.650616">
        <ele>243.549846</ele>
        <time>2020-07-04T03:39:21.682Z</time>
      </trkpt>
      <trkpt lat="48.586513" lon="16.650714">
        <ele>243.463772</ele>
        <time>2020-07-04T03:39:23.669Z</time>
      </trkpt>
      <trkpt lat="48.586614" lon="16.650818">
        <ele>243.376740</ele>
        <time>2020-07-04T03:39:25.682Z</time>
      </trkpt>
      <trkpt lat="48.586711" lon="16.650935">
        <ele>243.288362</ele>
        <time>2020-07-04T03:39:27.688Z</time>
      </trkpt>
      <trkpt lat="48.586803" lon="16.651055">
        <ele>243.201823</ele>
        <time>2020-07-04T03:39:29.681Z</time>
      </trkpt>
      <trkpt lat="48.586891" lon="16.651175">
        <ele>243.117420</ele>
        <time>2020-07-04T03:39:31.669Z</time>
      </trkpt>
      <trkpt lat="48.586969" lon="16.651307">
        <ele>243.034036</ele>
        <time>2020-07-04T03:39:33.677Z</time>
      </trkpt>
      <trkpt lat="48.587047" lon="16.651439">
        <ele>242.950651</ele>
        <time>2020-07-04T03:39:35.703Z</time>
      </trkpt>
      <trkpt lat="48.587126" lon="16.651573">
        <ele>242.866090</ele>
        <time>2020-07-04T03:39:37.710Z</time>
      </trkpt>
      <trkpt lat="48.587207" lon="16.651700">
        <ele>242.782978</ele>
        <time>2020-07-04T03:39:39.682Z</time>
      </trkpt>
      <trkpt lat="48.587286" lon="16.651823">
        <ele>242.702212</ele>
        <time>2020-07-04T03:39:41.701Z</time>
      </trkpt>
      <trkpt lat="48.587364" lon="16.651948">
        <ele>242.621257</ele>
        <time>2020-07-04T03:39:43.712Z</time>
      </trkpt>
      <trkpt lat="48.587439" lon="16.652073">
        <ele>242.541753</ele>
        <time>2020-07-04T03:39:45.701Z</time>
      </trkpt>
      <trkpt lat="48.587514" lon="16.652199">
        <ele>242.461900</ele>
        <time>2020-07-04T03:39:47.695Z</time>
      </trkpt>
      <trkpt lat="48.587586" lon="16.652322">
        <ele>242.374821</ele>
        <time>2020-07-04T03:39:49.721Z</time>
      </trkpt>
      <trkpt lat="48.587661" lon="16.652442">
        <ele>242.282143</ele>
        <time>2020-07-04T03:39:51.675Z</time>
      </trkpt>
      <trkpt lat="48.587736" lon="16.652567">
        <ele>242.187405</ele>
        <time>2020-07-04T03:39:53.687Z</time>
      </trkpt>
      <trkpt lat="48.587814" lon="16.652684">
        <ele>242.094154</ele>
        <time>2020-07-04T03:39:55.687Z</time>
      </trkpt>
      <trkpt lat="48.587891" lon="16.652801">
        <ele>242.001503</ele>
        <time>2020-07-04T03:39:57.669Z</time>
      </trkpt>
      <trkpt lat="48.587967" lon="16.652911">
        <ele>241.912211</ele>
        <time>2020-07-04T03:39:59.686Z</time>
      </trkpt>
      <trkpt lat="48.588033" lon="16.653018">
        <ele>241.830081</ele>
        <time>2020-07-04T03:40:01.711Z</time>
      </trkpt>
      <trkpt lat="48.588082" lon="16.653145">
        <ele>241.747546</ele>
        <time>2020-07-04T03:40:03.697Z</time>
      </trkpt>
      <trkpt lat="48.588131" lon="16.653290">
        <ele>241.656141</ele>
        <time>2020-07-04T03:40:05.693Z</time>
      </trkpt>
      <trkpt lat="48.588181" lon="16.653451">
        <ele>241.556296</ele>
        <time>2020-07-04T03:40:07.688Z</time>
      </trkpt>
      <trkpt lat="48.588246" lon="16.653618">
        <ele>241.447523</ele>
        <time>2020-07-04T03:40:09.696Z</time>
      </trkpt>
      <trkpt lat="48.588305" lon="16.653782">
        <ele>241.342724</ele>
        <time>2020-07-04T03:40:11.661Z</time>
      </trkpt>
      <trkpt lat="48.588357" lon="16.653953">
        <ele>241.237073</ele>
        <time>2020-07-04T03:40:13.689Z</time>
      </trkpt>
      <trkpt lat="48.588411" lon="16.654124">
        <ele>241.130701</ele>
        <time>2020-07-04T03:40:15.692Z</time>
      </trkpt>
      <trkpt lat="48.588439" lon="16.654306">
        <ele>241.025807</ele>
        <time>2020-07-04T03:40:17.683Z</time>
      </trkpt>
      <trkpt lat="48.588468" lon="16.654482">
        <ele>240.923988</ele>
        <time>2020-07-04T03:40:19.679Z</time>
      </trkpt>
      <trkpt lat="48.588489" lon="16.654652">
        <ele>240.809949</ele>
        <time>2020-07-04T03:40:21.670Z</time>
      </trkpt>
      <trkpt lat="48.588506" lon="16.654823">
        <ele>240.692756</ele>
        <time>2020-07-04T03:40:23.695Z</time>
      </trkpt>
      <trkpt lat="48.588515" lon="16.654996">
        <ele>240.575147</ele>
        <time>2020-07-04T03:40:25.695Z</time>
      </trkpt>
      <trkpt lat="48.588517" lon="16.655165">
        <ele>240.460593</ele>
        <time>2020-07-04T03:40:27.674Z</time>
      </trkpt>
      <trkpt lat="48.588522" lon="16.655331">
        <ele>240.347974</ele>
        <time>2020-07-04T03:40:29.678Z</time>
      </trkpt>
      <trkpt lat="48.588530" lon="16.655503">
        <ele>240.231117</ele>
        <time>2020-07-04T03:40:31.710Z</time>
      </trkpt>
      <trkpt lat="48.588541" lon="16.655678">
        <ele>240.111980</ele>
        <time>2020-07-04T03:40:33.698Z</time>
      </trkpt>
      <trkpt lat="48.588552" lon="16.655853">
        <ele>239.992844</ele>
        <time>2020-07-04T03:40:35.708Z</time>
      </trkpt>
      <trkpt lat="48.588559" lon="16.656033">
        <ele>239.870642</ele>
        <time>2020-07-04T03:40:37.684Z</time>
      </trkpt>
      <trkpt lat="48.588566" lon="16.656213">
        <ele>239.748441</ele>
        <time>2020-07-04T03:40:39.694Z</time>
      </trkpt>
      <trkpt lat="48.588573" lon="16.656388">
        <ele>239.629622</ele>
        <time>2020-07-04T03:40:41.695Z</time>
      </trkpt>
      <trkpt lat="48.588579" lon="16.656563">
        <ele>239.510861</ele>
        <time>2020-07-04T03:40:43.711Z</time>
      </trkpt>
      <trkpt lat="48.588588" lon="16.656740">
        <ele>239.390549</ele>
        <time>2020-07-04T03:40:45.705Z</time>
      </trkpt>
      <trkpt lat="48.588602" lon="16.656917">
        <ele>239.269737</ele>
        <time>2020-07-04T03:40:47.730Z</time>
      </trkpt>
      <trkpt lat="48.588612" lon="16.657092">
        <ele>239.150693</ele>
        <time>2020-07-04T03:40:49.682Z</time>
      </trkpt>
      <trkpt lat="48.588621" lon="16.657265">
        <ele>239.049967</ele>
        <time>2020-07-04T03:40:51.674Z</time>
      </trkpt>
      <trkpt lat="48.588631" lon="16.657439">
        <ele>238.992606</ele>
        <time>2020-07-04T03:40:53.693Z</time>
      </trkpt>
      <trkpt lat="48.588642" lon="16.657613">
        <ele>238.935198</ele>
        <time>2020-07-04T03:40:55.687Z</time>
      </trkpt>
      <trkpt lat="48.588660" lon="16.657790">
        <ele>238.876384</ele>
        <time>2020-07-04T03:40:57.693Z</time>
      </trkpt>
      <trkpt lat="48.588685" lon="16.657962">
        <ele>238.818546</ele>
        <time>2020-07-04T03:40:59.689Z</time>
      </trkpt>
      <trkpt lat="48.588714" lon="16.658131">
        <ele>238.761204</ele>
        <time>2020-07-04T03:41:01.692Z</time>
      </trkpt>
      <trkpt lat="48.588744" lon="16.658300">
        <ele>238.703736</ele>
        <time>2020-07-04T03:41:03.667Z</time>
      </trkpt>
      <trkpt lat="48.588775" lon="16.658468">
        <ele>238.646453</ele>
        <time>2020-07-04T03:41:05.678Z</time>
      </trkpt>
      <trkpt lat="48.588809" lon="16.658634">
        <ele>238.589380</ele>
        <time>2020-07-04T03:41:07.675Z</time>
      </trkpt>
      <trkpt lat="48.588856" lon="16.658796">
        <ele>238.531282</ele>
        <time>2020-07-04T03:41:09.703Z</time>
      </trkpt>
      <trkpt lat="48.588901" lon="16.658956">
        <ele>238.474181</ele>
        <time>2020-07-04T03:41:11.686Z</time>
      </trkpt>
      <trkpt lat="48.588948" lon="16.659107">
        <ele>238.419372</ele>
        <time>2020-07-04T03:41:13.667Z</time>
      </trkpt>
      <trkpt lat="48.588999" lon="16.659257">
        <ele>238.363981</ele>
        <time>2020-07-04T03:41:15.710Z</time>
      </trkpt>
      <trkpt lat="48.589052" lon="16.659398">
        <ele>238.310718</ele>
        <time>2020-07-04T03:41:17.685Z</time>
      </trkpt>
      <trkpt lat="48.589111" lon="16.659540">
        <ele>238.255644</ele>
        <time>2020-07-04T03:41:19.698Z</time>
      </trkpt>
      <trkpt lat="48.589173" lon="16.659680">
        <ele>238.200310</ele>
        <time>2020-07-04T03:41:21.680Z</time>
      </trkpt>
      <trkpt lat="48.589233" lon="16.659826">
        <ele>238.160553</ele>
        <time>2020-07-04T03:41:23.697Z</time>
      </trkpt>
      <trkpt lat="48.589289" lon="16.659967">
        <ele>238.137720</ele>
        <time>2020-07-04T03:41:25.689Z</time>
      </trkpt>
      <trkpt lat="48.589352" lon="16.660107">
        <ele>238.114212</ele>
        <time>2020-07-04T03:41:27.710Z</time>
      </trkpt>
      <trkpt lat="48.589418" lon="16.660244">
        <ele>238.090681</ele>
        <time>2020-07-04T03:41:29.687Z</time>
      </trkpt>
      <trkpt lat="48.589490" lon="16.660370">
        <ele>238.067564</ele>
        <time>2020-07-04T03:41:31.704Z</time>
      </trkpt>
      <trkpt lat="48.589562" lon="16.660489">
        <ele>238.045174</ele>
        <time>2020-07-04T03:41:33.692Z</time>
      </trkpt>
      <trkpt lat="48.589629" lon="16.660605">
        <ele>238.023794</ele>
        <time>2020-07-04T03:41:35.694Z</time>
      </trkpt>
      <trkpt lat="48.589710" lon="16.660741">
        <ele>237.998386</ele>
        <time>2020-07-04T03:41:38.674Z</time>
      </trkpt>
      <trkpt lat="48.589768" lon="16.660847">
        <ele>237.979287</ele>
        <time>2020-07-04T03:41:41.683Z</time>
      </trkpt>
      <trkpt lat="48.589785" lon="16.660994">
        <ele>237.958569</ele>
        <time>2020-07-04T03:41:44.682Z</time>
      </trkpt>
      <trkpt lat="48.589751" lon="16.661154">
        <ele>237.935238</ele>
        <time>2020-07-04T03:41:47.687Z</time>
      </trkpt>
      <trkpt lat="48.589730" lon="16.661333">
        <ele>237.909999</ele>
        <time>2020-07-04T03:41:50.675Z</time>
      </trkpt>
      <trkpt lat="48.589722" lon="16.661522">
        <ele>237.883706</ele>
        <time>2020-07-04T03:41:53.712Z</time>
      </trkpt>
      <trkpt lat="48.589727" lon="16.661731">
        <ele>237.854671</ele>
        <time>2020-07-04T03:41:56.684Z</time>
      </trkpt>
      <trkpt lat="48.589746" lon="16.661889">
        <ele>237.832375</ele>
        <time>2020-07-04T03:41:58.694Z</time>
      </trkpt>
      <trkpt lat="48.589777" lon="16.662055">
        <ele>237.808428</ele>
        <time>2020-07-04T03:42:00.684Z</time>
      </trkpt>
      <trkpt lat="48.589816" lon="16.662233">
        <ele>237.791338</ele>
        <time>2020-07-04T03:42:02.691Z</time>
      </trkpt>
      <trkpt lat="48.589864" lon="16.662410">
        <ele>237.783248</ele>
        <time>2020-07-04T03:42:04.705Z</time>
      </trkpt>
      <trkpt lat="48.589912" lon="16.662592">
        <ele>237.774961</ele>
        <time>2020-07-04T03:42:06.690Z</time>
      </trkpt>
      <trkpt lat="48.589964" lon="16.662765">
        <ele>237.766925</ele>
        <time>2020-07-04T03:42:08.678Z</time>
      </trkpt>
      <trkpt lat="48.590010" lon="16.662936">
        <ele>237.759117</ele>
        <time>2020-07-04T03:42:10.674Z</time>
      </trkpt>
      <trkpt lat="48.590064" lon="16.663101">
        <ele>237.751332</ele>
        <time>2020-07-04T03:42:12.712Z</time>
      </trkpt>
      <trkpt lat="48.590121" lon="16.663265">
        <ele>237.743497</ele>
        <time>2020-07-04T03:42:14.692Z</time>
      </trkpt>
      <trkpt lat="48.590171" lon="16.663431">
        <ele>237.735783</ele>
        <time>2020-07-04T03:42:16.685Z</time>
      </trkpt>
      <trkpt lat="48.590217" lon="16.663598">
        <ele>237.728132</ele>
        <time>2020-07-04T03:42:18.688Z</time>
      </trkpt>
      <trkpt lat="48.590266" lon="16.663761">
        <ele>237.720560</ele>
        <time>2020-07-04T03:42:20.707Z</time>
      </trkpt>
      <trkpt lat="48.590313" lon="16.663921">
        <ele>237.713156</ele>
        <time>2020-07-04T03:42:22.696Z</time>
      </trkpt>
      <trkpt lat="48.590359" lon="16.664082">
        <ele>237.705739</ele>
        <time>2020-07-04T03:42:24.689Z</time>
      </trkpt>
      <trkpt lat="48.590401" lon="16.664242">
        <ele>237.698459</ele>
        <time>2020-07-04T03:42:26.690Z</time>
      </trkpt>
      <trkpt lat="48.590449" lon="16.664399">
        <ele>237.691144</ele>
        <time>2020-07-04T03:42:28.701Z</time>
      </trkpt>
      <trkpt lat="48.590499" lon="16.664558">
        <ele>237.683698</ele>
        <time>2020-07-04T03:42:30.715Z</time>
      </trkpt>
      <trkpt lat="48.590551" lon="16.664718">
        <ele>237.703655</ele>
        <time>2020-07-04T03:42:32.709Z</time>
      </trkpt>
      <trkpt lat="48.590604" lon="16.664877">
        <ele>237.746708</ele>
        <time>2020-07-04T03:42:34.701Z</time>
      </trkpt>
      <trkpt lat="48.590659" lon="16.665034">
        <ele>237.789668</ele>
        <time>2020-07-04T03:42:36.680Z</time>
      </trkpt>
      <trkpt lat="48.590710" lon="16.665185">
        <ele>237.830665</ele>
        <time>2020-07-04T03:42:38.699Z</time>
      </trkpt>
      <trkpt lat="48.590755" lon="16.665337">
        <ele>237.870933</ele>
        <time>2020-07-04T03:42:40.696Z</time>
      </trkpt>
      <trkpt lat="48.590797" lon="16.665484">
        <ele>237.909653</ele>
        <time>2020-07-04T03:42:42.678Z</time>
      </trkpt>
      <trkpt lat="48.590839" lon="16.665629">
        <ele>237.947929</ele>
        <time>2020-07-04T03:42:44.691Z</time>
      </trkpt>
      <trkpt lat="48.590885" lon="16.665763">
        <ele>237.984435</ele>
        <time>2020-07-04T03:42:46.713Z</time>
      </trkpt>
      <trkpt lat="48.590926" lon="16.665896">
        <ele>238.019916</ele>
        <time>2020-07-04T03:42:48.691Z</time>
      </trkpt>
      <trkpt lat="48.590969" lon="16.666022">
        <ele>238.054200</ele>
        <time>2020-07-04T03:42:50.689Z</time>
      </trkpt>
      <trkpt lat="48.591012" lon="16.666151">
        <ele>238.089130</ele>
        <time>2020-07-04T03:42:52.685Z</time>
      </trkpt>
      <trkpt lat="48.591057" lon="16.666277">
        <ele>238.123755</ele>
        <time>2020-07-04T03:42:54.688Z</time>
      </trkpt>
      <trkpt lat="48.591098" lon="16.666403">
        <ele>238.157710</ele>
        <time>2020-07-04T03:42:56.690Z</time>
      </trkpt>
      <trkpt lat="48.591174" lon="16.666569">
        <ele>238.206527</ele>
        <time>2020-07-04T03:42:59.677Z</time>
      </trkpt>
      <trkpt lat="48.591266" lon="16.666703">
        <ele>238.253229</ele>
        <time>2020-07-04T03:43:02.704Z</time>
      </trkpt>
      <trkpt lat="48.591369" lon="16.666810">
        <ele>238.298915</ele>
        <time>2020-07-04T03:43:05.691Z</time>
      </trkpt>
      <trkpt lat="48.591481" lon="16.666900">
        <ele>238.344084</ele>
        <time>2020-07-04T03:43:08.681Z</time>
      </trkpt>
      <trkpt lat="48.591597" lon="16.666990">
        <ele>238.384107</ele>
        <time>2020-07-04T03:43:11.689Z</time>
      </trkpt>
      <trkpt lat="48.591705" lon="16.667092">
        <ele>238.423197</ele>
        <time>2020-07-04T03:43:14.721Z</time>
      </trkpt>
      <trkpt lat="48.591821" lon="16.667183">
        <ele>238.463313</ele>
        <time>2020-07-04T03:43:17.684Z</time>
      </trkpt>
      <trkpt lat="48.591898" lon="16.667262">
        <ele>238.491878</ele>
        <time>2020-07-04T03:43:19.691Z</time>
      </trkpt>
      <trkpt lat="48.591977" lon="16.667354">
        <ele>238.522489</ele>
        <time>2020-07-04T03:43:21.679Z</time>
      </trkpt>
      <trkpt lat="48.592072" lon="16.667458">
        <ele>238.558493</ele>
        <time>2020-07-04T03:43:23.684Z</time>
      </trkpt>
      <trkpt lat="48.592177" lon="16.667565">
        <ele>238.597362</ele>
        <time>2020-07-04T03:43:25.684Z</time>
      </trkpt>
      <trkpt lat="48.592282" lon="16.667666">
        <ele>238.635564</ele>
        <time>2020-07-04T03:43:27.702Z</time>
      </trkpt>
      <trkpt lat="48.592378" lon="16.667775">
        <ele>238.672418</ele>
        <time>2020-07-04T03:43:29.684Z</time>
      </trkpt>
      <trkpt lat="48.592469" lon="16.667881">
        <ele>238.707681</ele>
        <time>2020-07-04T03:43:31.688Z</time>
      </trkpt>
      <trkpt lat="48.592539" lon="16.667989">
        <ele>238.738382</ele>
        <time>2020-07-04T03:43:33.694Z</time>
      </trkpt>
      <trkpt lat="48.592598" lon="16.668101">
        <ele>238.767453</ele>
        <time>2020-07-04T03:43:35.673Z</time>
      </trkpt>
      <trkpt lat="48.592665" lon="16.668261">
        <ele>238.805901</ele>
        <time>2020-07-04T03:43:38.703Z</time>
      </trkpt>
      <trkpt lat="48.592719" lon="16.668426">
        <ele>238.843278</ele>
        <time>2020-07-04T03:43:41.701Z</time>
      </trkpt>
      <trkpt lat="48.592770" lon="16.668602">
        <ele>238.882291</ele>
        <time>2020-07-04T03:43:44.665Z</time>
      </trkpt>
      <trkpt lat="48.592819" lon="16.668732">
        <ele>238.875004</ele>
        <time>2020-07-04T03:43:46.703Z</time>
      </trkpt>
      <trkpt lat="48.592873" lon="16.668866">
        <ele>238.854107</ele>
        <time>2020-07-04T03:43:48.705Z</time>
      </trkpt>
      <trkpt lat="48.592922" lon="16.669009">
        <ele>238.832659</ele>
        <time>2020-07-04T03:43:50.676Z</time>
      </trkpt>
      <trkpt lat="48.592964" lon="16.669165">
        <ele>238.810228</ele>
        <time>2020-07-04T03:43:52.693Z</time>
      </trkpt>
      <trkpt lat="48.593023" lon="16.669324">
        <ele>238.785948</ele>
        <time>2020-07-04T03:43:54.676Z</time>
      </trkpt>
      <trkpt lat="48.593080" lon="16.669491">
        <ele>238.760920</ele>
        <time>2020-07-04T03:43:56.693Z</time>
      </trkpt>
      <trkpt lat="48.593143" lon="16.669664">
        <ele>238.734619</ele>
        <time>2020-07-04T03:43:58.678Z</time>
      </trkpt>
      <trkpt lat="48.593218" lon="16.669833">
        <ele>238.707515</ele>
        <time>2020-07-04T03:44:00.689Z</time>
      </trkpt>
      <trkpt lat="48.593300" lon="16.670000">
        <ele>238.679816</ele>
        <time>2020-07-04T03:44:02.691Z</time>
      </trkpt>
      <trkpt lat="48.593376" lon="16.670171">
        <ele>238.652379</ele>
        <time>2020-07-04T03:44:04.682Z</time>
      </trkpt>
      <trkpt lat="48.593448" lon="16.670342">
        <ele>238.625383</ele>
        <time>2020-07-04T03:44:06.678Z</time>
      </trkpt>
      <trkpt lat="48.593509" lon="16.670518">
        <ele>238.598921</ele>
        <time>2020-07-04T03:44:08.696Z</time>
      </trkpt>
      <trkpt lat="48.593556" lon="16.670702">
        <ele>238.572652</ele>
        <time>2020-07-04T03:44:10.674Z</time>
      </trkpt>
      <trkpt lat="48.593582" lon="16.670889">
        <ele>238.547204</ele>
        <time>2020-07-04T03:44:12.672Z</time>
      </trkpt>
      <trkpt lat="48.593593" lon="16.671071">
        <ele>238.508729</ele>
        <time>2020-07-04T03:44:14.702Z</time>
      </trkpt>
      <trkpt lat="48.593606" lon="16.671248">
        <ele>238.416492</ele>
        <time>2020-07-04T03:44:16.679Z</time>
      </trkpt>
      <trkpt lat="48.593634" lon="16.671408">
        <ele>238.330771</ele>
        <time>2020-07-04T03:44:18.725Z</time>
      </trkpt>
      <trkpt lat="48.593664" lon="16.671555">
        <ele>238.251093</ele>
        <time>2020-07-04T03:44:20.684Z</time>
      </trkpt>
      <trkpt lat="48.593692" lon="16.671699">
        <ele>238.173355</ele>
        <time>2020-07-04T03:44:22.673Z</time>
      </trkpt>
      <trkpt lat="48.593720" lon="16.671838">
        <ele>238.098097</ele>
        <time>2020-07-04T03:44:24.680Z</time>
      </trkpt>
      <trkpt lat="48.593739" lon="16.671976">
        <ele>238.025091</ele>
        <time>2020-07-04T03:44:26.693Z</time>
      </trkpt>
      <trkpt lat="48.593757" lon="16.672112">
        <ele>237.953256</ele>
        <time>2020-07-04T03:44:28.700Z</time>
      </trkpt>
      <trkpt lat="48.593778" lon="16.672246">
        <ele>237.881932</ele>
        <time>2020-07-04T03:44:30.693Z</time>
      </trkpt>
      <trkpt lat="48.593753" lon="16.672444">
        <ele>237.777529</ele>
        <time>2020-07-04T03:44:33.676Z</time>
      </trkpt>
      <trkpt lat="48.593715" lon="16.672570">
        <ele>237.705806</ele>
        <time>2020-07-04T03:44:35.670Z</time>
      </trkpt>
      <trkpt lat="48.593717" lon="16.672707">
        <ele>237.634832</ele>
        <time>2020-07-04T03:44:37.683Z</time>
      </trkpt>
      <trkpt lat="48.593725" lon="16.672857">
        <ele>237.556890</ele>
        <time>2020-07-04T03:44:39.680Z</time>
      </trkpt>
      <trkpt lat="48.593733" lon="16.673003">
        <ele>237.481014</ele>
        <time>2020-07-04T03:44:41.675Z</time>
      </trkpt>
      <trkpt lat="48.593750" lon="16.673143">
        <ele>237.407291</ele>
        <time>2020-07-04T03:44:43.691Z</time>
      </trkpt>
      <trkpt lat="48.593775" lon="16.673283">
        <ele>237.332185</ele>
        <time>2020-07-04T03:44:45.681Z</time>
      </trkpt>
      <trkpt lat="48.593804" lon="16.673428">
        <ele>237.253726</ele>
        <time>2020-07-04T03:44:47.695Z</time>
      </trkpt>
      <trkpt lat="48.593829" lon="16.673575">
        <ele>237.175114</ele>
        <time>2020-07-04T03:44:49.683Z</time>
      </trkpt>
      <trkpt lat="48.593859" lon="16.673718">
        <ele>237.117611</ele>
        <time>2020-07-04T03:44:51.686Z</time>
      </trkpt>
      <trkpt lat="48.593894" lon="16.673859">
        <ele>237.111720</ele>
        <time>2020-07-04T03:44:53.686Z</time>
      </trkpt>
      <trkpt lat="48.593922" lon="16.674000">
        <ele>237.105962</ele>
        <time>2020-07-04T03:44:55.677Z</time>
      </trkpt>
      <trkpt lat="48.593947" lon="16.674145">
        <ele>237.100101</ele>
        <time>2020-07-04T03:44:57.676Z</time>
      </trkpt>
      <trkpt lat="48.593972" lon="16.674297">
        <ele>237.093975</ele>
        <time>2020-07-04T03:44:59.707Z</time>
      </trkpt>
      <trkpt lat="48.593997" lon="16.674446">
        <ele>237.087963</ele>
        <time>2020-07-04T03:45:01.710Z</time>
      </trkpt>
      <trkpt lat="48.594022" lon="16.674593">
        <ele>237.082026</ele>
        <time>2020-07-04T03:45:03.675Z</time>
      </trkpt>
      <trkpt lat="48.594047" lon="16.674744">
        <ele>237.075938</ele>
        <time>2020-07-04T03:45:05.705Z</time>
      </trkpt>
      <trkpt lat="48.594076" lon="16.674892">
        <ele>237.069901</ele>
        <time>2020-07-04T03:45:07.675Z</time>
      </trkpt>
      <trkpt lat="48.594105" lon="16.675034">
        <ele>237.064088</ele>
        <time>2020-07-04T03:45:09.681Z</time>
      </trkpt>
      <trkpt lat="48.594135" lon="16.675179">
        <ele>237.058146</ele>
        <time>2020-07-04T03:45:11.674Z</time>
      </trkpt>
      <trkpt lat="48.594154" lon="16.675316">
        <ele>237.052671</ele>
        <time>2020-07-04T03:45:13.690Z</time>
      </trkpt>
      <trkpt lat="48.594175" lon="16.675449">
        <ele>237.047323</ele>
        <time>2020-07-04T03:45:15.684Z</time>
      </trkpt>
      <trkpt lat="48.594198" lon="16.675649">
        <ele>237.039383</ele>
        <time>2020-07-04T03:45:18.699Z</time>
      </trkpt>
      <trkpt lat="48.594218" lon="16.675790">
        <ele>237.033743</ele>
        <time>2020-07-04T03:45:20.678Z</time>
      </trkpt>
      <trkpt lat="48.594232" lon="16.675933">
        <ele>237.028089</ele>
        <time>2020-07-04T03:45:22.681Z</time>
      </trkpt>
      <trkpt lat="48.594248" lon="16.676079">
        <ele>237.022301</ele>
        <time>2020-07-04T03:45:24.711Z</time>
      </trkpt>
      <trkpt lat="48.594260" lon="16.676234">
        <ele>237.016197</ele>
        <time>2020-07-04T03:45:26.709Z</time>
      </trkpt>
      <trkpt lat="48.594268" lon="16.676399">
        <ele>237.032555</ele>
        <time>2020-07-04T03:45:28.710Z</time>
      </trkpt>
      <trkpt lat="48.594283" lon="16.676558">
        <ele>237.071527</ele>
        <time>2020-07-04T03:45:30.696Z</time>
      </trkpt>
      <trkpt lat="48.594300" lon="16.676731">
        <ele>237.113965</ele>
        <time>2020-07-04T03:45:32.686Z</time>
      </trkpt>
      <trkpt lat="48.594317" lon="16.676903">
        <ele>237.156164</ele>
        <time>2020-07-04T03:45:34.687Z</time>
      </trkpt>
      <trkpt lat="48.594328" lon="16.677076">
        <ele>237.198336</ele>
        <time>2020-07-04T03:45:36.692Z</time>
      </trkpt>
      <trkpt lat="48.594330" lon="16.677251">
        <ele>237.240805</ele>
        <time>2020-07-04T03:45:38.704Z</time>
      </trkpt>
      <trkpt lat="48.594329" lon="16.677425">
        <ele>237.283027</ele>
        <time>2020-07-04T03:45:40.703Z</time>
      </trkpt>
      <trkpt lat="48.594323" lon="16.677600">
        <ele>237.325547</ele>
        <time>2020-07-04T03:45:42.664Z</time>
      </trkpt>
      <trkpt lat="48.594323" lon="16.677771">
        <ele>237.367040</ele>
        <time>2020-07-04T03:45:44.677Z</time>
      </trkpt>
      <trkpt lat="48.594340" lon="16.677929">
        <ele>237.405882</ele>
        <time>2020-07-04T03:45:46.672Z</time>
      </trkpt>
      <trkpt lat="48.594351" lon="16.678098">
        <ele>237.447088</ele>
        <time>2020-07-04T03:45:48.693Z</time>
      </trkpt>
      <trkpt lat="48.594370" lon="16.678270">
        <ele>237.489401</ele>
        <time>2020-07-04T03:45:50.692Z</time>
      </trkpt>
      <trkpt lat="48.594401" lon="16.678428">
        <ele>237.529390</ele>
        <time>2020-07-04T03:45:52.681Z</time>
      </trkpt>
      <trkpt lat="48.594439" lon="16.678582">
        <ele>237.569274</ele>
        <time>2020-07-04T03:45:54.687Z</time>
      </trkpt>
      <trkpt lat="48.594479" lon="16.678748">
        <ele>237.612143</ele>
        <time>2020-07-04T03:45:56.706Z</time>
      </trkpt>
      <trkpt lat="48.594516" lon="16.678898">
        <ele>237.650989</ele>
        <time>2020-07-04T03:45:58.689Z</time>
      </trkpt>
      <trkpt lat="48.594560" lon="16.679043">
        <ele>237.663094</ele>
        <time>2020-07-04T03:46:00.696Z</time>
      </trkpt>
      <trkpt lat="48.594601" lon="16.679195">
        <ele>237.640313</ele>
        <time>2020-07-04T03:46:02.707Z</time>
      </trkpt>
      <trkpt lat="48.594655" lon="16.679346">
        <ele>237.616490</ele>
        <time>2020-07-04T03:46:04.701Z</time>
      </trkpt>
      <trkpt lat="48.594703" lon="16.679500">
        <ele>237.592863</ele>
        <time>2020-07-04T03:46:06.713Z</time>
      </trkpt>
      <trkpt lat="48.594744" lon="16.679658">
        <ele>237.569309</ele>
        <time>2020-07-04T03:46:08.693Z</time>
      </trkpt>
      <trkpt lat="48.594782" lon="16.679831">
        <ele>237.544010</ele>
        <time>2020-07-04T03:46:10.685Z</time>
      </trkpt>
      <trkpt lat="48.594798" lon="16.679993">
        <ele>237.521279</ele>
        <time>2020-07-04T03:46:12.693Z</time>
      </trkpt>
      <trkpt lat="48.594803" lon="16.680168">
        <ele>237.496970</ele>
        <time>2020-07-04T03:46:14.680Z</time>
      </trkpt>
      <trkpt lat="48.594814" lon="16.680342">
        <ele>237.472712</ele>
        <time>2020-07-04T03:46:16.698Z</time>
      </trkpt>
      <trkpt lat="48.594817" lon="16.680509">
        <ele>237.449527</ele>
        <time>2020-07-04T03:46:18.708Z</time>
      </trkpt>
      <trkpt lat="48.594821" lon="16.680678">
        <ele>237.426059</ele>
        <time>2020-07-04T03:46:20.698Z</time>
      </trkpt>
      <trkpt lat="48.594822" lon="16.680842">
        <ele>237.403298</ele>
        <time>2020-07-04T03:46:22.679Z</time>
      </trkpt>
      <trkpt lat="48.594820" lon="16.681001">
        <ele>237.381228</ele>
        <time>2020-07-04T03:46:24.681Z</time>
      </trkpt>
      <trkpt lat="48.594819" lon="16.681158">
        <ele>237.359438</ele>
        <time>2020-07-04T03:46:26.684Z</time>
      </trkpt>
      <trkpt lat="48.594821" lon="16.681312">
        <ele>237.338062</ele>
        <time>2020-07-04T03:46:28.687Z</time>
      </trkpt>
      <trkpt lat="48.594830" lon="16.681468">
        <ele>237.316330</ele>
        <time>2020-07-04T03:46:30.696Z</time>
      </trkpt>
      <trkpt lat="48.594844" lon="16.681623">
        <ele>237.294784</ele>
        <time>2020-07-04T03:46:32.723Z</time>
      </trkpt>
      <trkpt lat="48.594860" lon="16.681771">
        <ele>237.278593</ele>
        <time>2020-07-04T03:46:34.677Z</time>
      </trkpt>
      <trkpt lat="48.594895" lon="16.681916">
        <ele>237.261927</ele>
        <time>2020-07-04T03:46:36.680Z</time>
      </trkpt>
      <trkpt lat="48.594946" lon="16.682059">
        <ele>237.244386</ele>
        <time>2020-07-04T03:46:38.691Z</time>
      </trkpt>
      <trkpt lat="48.594999" lon="16.682215">
        <ele>237.225450</ele>
        <time>2020-07-04T03:46:40.685Z</time>
      </trkpt>
      <trkpt lat="48.595048" lon="16.682373">
        <ele>237.206609</ele>
        <time>2020-07-04T03:46:42.672Z</time>
      </trkpt>
      <trkpt lat="48.595093" lon="16.682536">
        <ele>237.187538</ele>
        <time>2020-07-04T03:46:44.677Z</time>
      </trkpt>
      <trkpt lat="48.595134" lon="16.682704">
        <ele>237.168204</ele>
        <time>2020-07-04T03:46:46.679Z</time>
      </trkpt>
      <trkpt lat="48.595172" lon="16.682884">
        <ele>237.147803</ele>
        <time>2020-07-04T03:46:48.700Z</time>
      </trkpt>
      <trkpt lat="48.595197" lon="16.683063">
        <ele>237.128050</ele>
        <time>2020-07-04T03:46:50.697Z</time>
      </trkpt>
      <trkpt lat="48.595211" lon="16.683246">
        <ele>237.108160</ele>
        <time>2020-07-04T03:46:52.690Z</time>
      </trkpt>
      <trkpt lat="48.595212" lon="16.683420">
        <ele>237.089373</ele>
        <time>2020-07-04T03:46:54.691Z</time>
      </trkpt>
      <trkpt lat="48.595213" lon="16.683596">
        <ele>237.070370</ele>
        <time>2020-07-04T03:46:56.682Z</time>
      </trkpt>
      <trkpt lat="48.595207" lon="16.683772">
        <ele>237.051342</ele>
        <time>2020-07-04T03:46:58.706Z</time>
      </trkpt>
      <trkpt lat="48.595197" lon="16.683951">
        <ele>237.031947</ele>
        <time>2020-07-04T03:47:00.690Z</time>
      </trkpt>
      <trkpt lat="48.595184" lon="16.684128">
        <ele>237.012719</ele>
        <time>2020-07-04T03:47:02.679Z</time>
      </trkpt>
      <trkpt lat="48.595182" lon="16.684299">
        <ele>237.016183</ele>
        <time>2020-07-04T03:47:04.683Z</time>
      </trkpt>
      <trkpt lat="48.595176" lon="16.684466">
        <ele>237.051074</ele>
        <time>2020-07-04T03:47:06.701Z</time>
      </trkpt>
      <trkpt lat="48.595172" lon="16.684637">
        <ele>237.086771</ele>
        <time>2020-07-04T03:47:08.695Z</time>
      </trkpt>
      <trkpt lat="48.595169" lon="16.684803">
        <ele>237.121415</ele>
        <time>2020-07-04T03:47:10.688Z</time>
      </trkpt>
      <trkpt lat="48.595166" lon="16.684964">
        <ele>237.155017</ele>
        <time>2020-07-04T03:47:12.684Z</time>
      </trkpt>
      <trkpt lat="48.595161" lon="16.685123">
        <ele>237.188225</ele>
        <time>2020-07-04T03:47:14.703Z</time>
      </trkpt>
      <trkpt lat="48.595157" lon="16.685282">
        <ele>237.221420</ele>
        <time>2020-07-04T03:47:16.679Z</time>
      </trkpt>
      <trkpt lat="48.595155" lon="16.685438">
        <ele>237.253971</ele>
        <time>2020-07-04T03:47:18.700Z</time>
      </trkpt>
      <trkpt lat="48.595157" lon="16.685592">
        <ele>237.286105</ele>
        <time>2020-07-04T03:47:20.687Z</time>
      </trkpt>
      <trkpt lat="48.595170" lon="16.685748">
        <ele>237.318908</ele>
        <time>2020-07-04T03:47:22.668Z</time>
      </trkpt>
      <trkpt lat="48.595196" lon="16.685905">
        <ele>237.352673</ele>
        <time>2020-07-04T03:47:24.697Z</time>
      </trkpt>
      <trkpt lat="48.595229" lon="16.686065">
        <ele>237.387638</ele>
        <time>2020-07-04T03:47:26.717Z</time>
      </trkpt>
      <trkpt lat="48.595268" lon="16.686230">
        <ele>237.424193</ele>
        <time>2020-07-04T03:47:28.680Z</time>
      </trkpt>
      <trkpt lat="48.595307" lon="16.686396">
        <ele>237.460944</ele>
        <time>2020-07-04T03:47:30.694Z</time>
      </trkpt>
      <trkpt lat="48.595344" lon="16.686556">
        <ele>237.496305</ele>
        <time>2020-07-04T03:47:32.692Z</time>
      </trkpt>
      <trkpt lat="48.595393" lon="16.686699">
        <ele>237.529904</ele>
        <time>2020-07-04T03:47:34.698Z</time>
      </trkpt>
      <trkpt lat="48.595446" lon="16.686829">
        <ele>237.561764</ele>
        <time>2020-07-04T03:47:36.706Z</time>
      </trkpt>
      <trkpt lat="48.595499" lon="16.686953">
        <ele>237.580012</ele>
        <time>2020-07-04T03:47:38.667Z</time>
      </trkpt>
      <trkpt lat="48.595555" lon="16.687076">
        <ele>237.594505</ele>
        <time>2020-07-04T03:47:40.686Z</time>
      </trkpt>
      <trkpt lat="48.595608" lon="16.687202">
        <ele>237.608999</ele>
        <time>2020-07-04T03:47:42.692Z</time>
      </trkpt>
      <trkpt lat="48.595658" lon="16.687335">
        <ele>237.623847</ele>
        <time>2020-07-04T03:47:44.687Z</time>
      </trkpt>
      <trkpt lat="48.595710" lon="16.687463">
        <ele>237.638427</ele>
        <time>2020-07-04T03:47:46.710Z</time>
      </trkpt>
      <trkpt lat="48.595766" lon="16.687602">
        <ele>237.654224</ele>
        <time>2020-07-04T03:47:48.693Z</time>
      </trkpt>
      <trkpt lat="48.595824" lon="16.687749">
        <ele>237.670838</ele>
        <time>2020-07-04T03:47:50.684Z</time>
      </trkpt>
      <trkpt lat="48.595880" lon="16.687913">
        <ele>237.688752</ele>
        <time>2020-07-04T03:47:52.678Z</time>
      </trkpt>
      <trkpt lat="48.595942" lon="16.688080">
        <ele>237.707340</ele>
        <time>2020-07-04T03:47:54.688Z</time>
      </trkpt>
      <trkpt lat="48.596007" lon="16.688251">
        <ele>237.726483</ele>
        <time>2020-07-04T03:47:56.674Z</time>
      </trkpt>
      <trkpt lat="48.596070" lon="16.688422">
        <ele>237.745481</ele>
        <time>2020-07-04T03:47:58.692Z</time>
      </trkpt>
      <trkpt lat="48.596136" lon="16.688589">
        <ele>237.764363</ele>
        <time>2020-07-04T03:48:00.696Z</time>
      </trkpt>
      <trkpt lat="48.596198" lon="16.688753">
        <ele>237.782697</ele>
        <time>2020-07-04T03:48:02.682Z</time>
      </trkpt>
      <trkpt lat="48.596258" lon="16.688922">
        <ele>237.801314</ele>
        <time>2020-07-04T03:48:04.672Z</time>
      </trkpt>
      <trkpt lat="48.596314" lon="16.689098">
        <ele>237.820270</ele>
        <time>2020-07-04T03:48:06.715Z</time>
      </trkpt>
      <trkpt lat="48.596357" lon="16.689278">
        <ele>237.839617</ele>
        <time>2020-07-04T03:48:08.697Z</time>
      </trkpt>
      <trkpt lat="48.596404" lon="16.689457">
        <ele>237.860797</ele>
        <time>2020-07-04T03:48:10.703Z</time>
      </trkpt>
      <trkpt lat="48.596440" lon="16.689640">
        <ele>237.881794</ele>
        <time>2020-07-04T03:48:12.675Z</time>
      </trkpt>
      <trkpt lat="48.596462" lon="16.689826">
        <ele>237.902574</ele>
        <time>2020-07-04T03:48:14.678Z</time>
      </trkpt>
      <trkpt lat="48.596483" lon="16.690005">
        <ele>237.922566</ele>
        <time>2020-07-04T03:48:16.684Z</time>
      </trkpt>
      <trkpt lat="48.596500" lon="16.690177">
        <ele>237.941692</ele>
        <time>2020-07-04T03:48:18.676Z</time>
      </trkpt>
      <trkpt lat="48.596516" lon="16.690342">
        <ele>237.960032</ele>
        <time>2020-07-04T03:48:20.690Z</time>
      </trkpt>
      <trkpt lat="48.596533" lon="16.690501">
        <ele>237.977745</ele>
        <time>2020-07-04T03:48:22.674Z</time>
      </trkpt>
      <trkpt lat="48.596541" lon="16.690652">
        <ele>237.994404</ele>
        <time>2020-07-04T03:48:24.694Z</time>
      </trkpt>
      <trkpt lat="48.596532" lon="16.690800">
        <ele>238.010749</ele>
        <time>2020-07-04T03:48:26.682Z</time>
      </trkpt>
      <trkpt lat="48.596509" lon="16.690941">
        <ele>238.026720</ele>
        <time>2020-07-04T03:48:28.672Z</time>
      </trkpt>
      <trkpt lat="48.596486" lon="16.691082">
        <ele>238.042691</ele>
        <time>2020-07-04T03:48:30.699Z</time>
      </trkpt>
      <trkpt lat="48.596464" lon="16.691219">
        <ele>238.058196</ele>
        <time>2020-07-04T03:48:32.712Z</time>
      </trkpt>
      <trkpt lat="48.596441" lon="16.691356">
        <ele>238.073740</ele>
        <time>2020-07-04T03:48:34.679Z</time>
      </trkpt>
      <trkpt lat="48.596417" lon="16.691493">
        <ele>238.089326</ele>
        <time>2020-07-04T03:48:36.687Z</time>
      </trkpt>
      <trkpt lat="48.596393" lon="16.691684">
        <ele>238.110707</ele>
        <time>2020-07-04T03:48:39.681Z</time>
      </trkpt>
      <trkpt lat="48.596388" lon="16.691877">
        <ele>238.131949</ele>
        <time>2020-07-04T03:48:42.671Z</time>
      </trkpt>
      <trkpt lat="48.596395" lon="16.692013">
        <ele>238.105745</ele>
        <time>2020-07-04T03:48:44.676Z</time>
      </trkpt>
      <trkpt lat="48.596399" lon="16.692159">
        <ele>238.077109</ele>
        <time>2020-07-04T03:48:46.724Z</time>
      </trkpt>
      <trkpt lat="48.596399" lon="16.692311">
        <ele>238.047322</ele>
        <time>2020-07-04T03:48:48.680Z</time>
      </trkpt>
      <trkpt lat="48.596403" lon="16.692463">
        <ele>238.017511</ele>
        <time>2020-07-04T03:48:50.694Z</time>
      </trkpt>
      <trkpt lat="48.596410" lon="16.692611">
        <ele>237.988434</ele>
        <time>2020-07-04T03:48:52.709Z</time>
      </trkpt>
      <trkpt lat="48.596443" lon="16.692754">
        <ele>237.958753</ele>
        <time>2020-07-04T03:48:54.679Z</time>
      </trkpt>
      <trkpt lat="48.596478" lon="16.692883">
        <ele>237.931429</ele>
        <time>2020-07-04T03:48:56.671Z</time>
      </trkpt>
      <trkpt lat="48.596540" lon="16.692995">
        <ele>237.902807</ele>
        <time>2020-07-04T03:48:58.686Z</time>
      </trkpt>
      <trkpt lat="48.596626" lon="16.693078">
        <ele>237.872576</ele>
        <time>2020-07-04T03:49:00.694Z</time>
      </trkpt>
      <trkpt lat="48.596731" lon="16.693128">
        <ele>237.839957</ele>
        <time>2020-07-04T03:49:02.671Z</time>
      </trkpt>
      <trkpt lat="48.596840" lon="16.693172">
        <ele>237.806528</ele>
        <time>2020-07-04T03:49:04.691Z</time>
      </trkpt>
      <trkpt lat="48.596954" lon="16.693200">
        <ele>237.772305</ele>
        <time>2020-07-04T03:49:06.683Z</time>
      </trkpt>
      <trkpt lat="48.597061" lon="16.693244">
        <ele>237.739449</ele>
        <time>2020-07-04T03:49:08.682Z</time>
      </trkpt>
      <trkpt lat="48.597168" lon="16.693299">
        <ele>237.705961</ele>
        <time>2020-07-04T03:49:10.669Z</time>
      </trkpt>
      <trkpt lat="48.597256" lon="16.693390">
        <ele>237.674371</ele>
        <time>2020-07-04T03:49:12.688Z</time>
      </trkpt>
      <trkpt lat="48.597333" lon="16.693500">
        <ele>237.642983</ele>
        <time>2020-07-04T03:49:14.720Z</time>
      </trkpt>
      <trkpt lat="48.597419" lon="16.693619">
        <ele>237.608441</ele>
        <time>2020-07-04T03:49:16.687Z</time>
      </trkpt>
      <trkpt lat="48.597507" lon="16.693731">
        <ele>237.646396</ele>
        <time>2020-07-04T03:49:18.711Z</time>
      </trkpt>
      <trkpt lat="48.597592" lon="16.693835">
        <ele>237.708019</ele>
        <time>2020-07-04T03:49:20.712Z</time>
      </trkpt>
      <trkpt lat="48.597669" lon="16.693928">
        <ele>237.763560</ele>
        <time>2020-07-04T03:49:22.678Z</time>
      </trkpt>
      <trkpt lat="48.597768" lon="16.694062">
        <ele>237.838444</ele>
        <time>2020-07-04T03:49:25.695Z</time>
      </trkpt>
      <trkpt lat="48.597831" lon="16.694214">
        <ele>237.905304</ele>
        <time>2020-07-04T03:49:28.692Z</time>
      </trkpt>
      <trkpt lat="48.597884" lon="16.694387">
        <ele>237.976367</ele>
        <time>2020-07-04T03:49:31.676Z</time>
      </trkpt>
      <trkpt lat="48.597919" lon="16.694584">
        <ele>238.052397</ele>
        <time>2020-07-04T03:49:34.689Z</time>
      </trkpt>
      <trkpt lat="48.597947" lon="16.694713">
        <ele>238.103001</ele>
        <time>2020-07-04T03:49:36.728Z</time>
      </trkpt>
      <trkpt lat="48.597996" lon="16.694899">
        <ele>238.177625</ele>
        <time>2020-07-04T03:49:39.688Z</time>
      </trkpt>
      <trkpt lat="48.598028" lon="16.695030">
        <ele>238.229676</ele>
        <time>2020-07-04T03:49:41.729Z</time>
      </trkpt>
      <trkpt lat="48.598060" lon="16.695168">
        <ele>238.284181</ele>
        <time>2020-07-04T03:49:43.721Z</time>
      </trkpt>
      <trkpt lat="48.598093" lon="16.695316">
        <ele>238.342394</ele>
        <time>2020-07-04T03:49:45.668Z</time>
      </trkpt>
      <trkpt lat="48.598137" lon="16.695472">
        <ele>238.405606</ele>
        <time>2020-07-04T03:49:47.689Z</time>
      </trkpt>
      <trkpt lat="48.598184" lon="16.695627">
        <ele>238.469160</ele>
        <time>2020-07-04T03:49:49.671Z</time>
      </trkpt>
      <trkpt lat="48.598230" lon="16.695804">
        <ele>238.540043</ele>
        <time>2020-07-04T03:49:51.686Z</time>
      </trkpt>
      <trkpt lat="48.598280" lon="16.695981">
        <ele>238.611780</ele>
        <time>2020-07-04T03:49:53.698Z</time>
      </trkpt>
      <trkpt lat="48.598340" lon="16.696145">
        <ele>238.627944</ele>
        <time>2020-07-04T03:49:55.675Z</time>
      </trkpt>
      <trkpt lat="48.598412" lon="16.696303">
        <ele>238.643621</ele>
        <time>2020-07-04T03:49:57.681Z</time>
      </trkpt>
      <trkpt lat="48.598485" lon="16.696449">
        <ele>238.658575</ele>
        <time>2020-07-04T03:49:59.696Z</time>
      </trkpt>
      <trkpt lat="48.598559" lon="16.696573">
        <ele>238.672221</ele>
        <time>2020-07-04T03:50:01.677Z</time>
      </trkpt>
      <trkpt lat="48.598651" lon="16.696660">
        <ele>238.685626</ele>
        <time>2020-07-04T03:50:03.679Z</time>
      </trkpt>
      <trkpt lat="48.598712" lon="16.696792">
        <ele>238.698783</ele>
        <time>2020-07-04T03:50:05.733Z</time>
      </trkpt>
      <trkpt lat="48.598699" lon="16.696965">
        <ele>238.713009</ele>
        <time>2020-07-04T03:50:07.691Z</time>
      </trkpt>
      <trkpt lat="48.598726" lon="16.697120">
        <ele>238.726104</ele>
        <time>2020-07-04T03:50:09.666Z</time>
      </trkpt>
      <trkpt lat="48.598758" lon="16.697267">
        <ele>238.738748</ele>
        <time>2020-07-04T03:50:11.683Z</time>
      </trkpt>
      <trkpt lat="48.598785" lon="16.697402">
        <ele>238.750272</ele>
        <time>2020-07-04T03:50:13.682Z</time>
      </trkpt>
      <trkpt lat="48.598799" lon="16.697576">
        <ele>238.764593</ele>
        <time>2020-07-04T03:50:16.675Z</time>
      </trkpt>
      <trkpt lat="48.598777" lon="16.697712">
        <ele>238.776032</ele>
        <time>2020-07-04T03:50:19.677Z</time>
      </trkpt>
      <trkpt lat="48.598764" lon="16.697871">
        <ele>238.789121</ele>
        <time>2020-07-04T03:50:23.690Z</time>
      </trkpt>
      <trkpt lat="48.598751" lon="16.698006">
        <ele>238.800267</ele>
        <time>2020-07-04T03:50:27.689Z</time>
      </trkpt>
      <trkpt lat="48.598738" lon="16.698164">
        <ele>238.813276</ele>
        <time>2020-07-04T03:50:31.682Z</time>
      </trkpt>
      <trkpt lat="48.598721" lon="16.698300">
        <ele>238.824584</ele>
        <time>2020-07-04T03:50:34.686Z</time>
      </trkpt>
      <trkpt lat="48.598699" lon="16.698437">
        <ele>238.843184</ele>
        <time>2020-07-04T03:50:37.691Z</time>
      </trkpt>
      <trkpt lat="48.598671" lon="16.698579">
        <ele>238.938998</ele>
        <time>2020-07-04T03:50:40.698Z</time>
      </trkpt>
      <trkpt lat="48.598629" lon="16.698710">
        <ele>239.033136</ele>
        <time>2020-07-04T03:50:43.709Z</time>
      </trkpt>
      <trkpt lat="48.598577" lon="16.698827">
        <ele>239.124288</ele>
        <time>2020-07-04T03:50:46.672Z</time>
      </trkpt>
      <trkpt lat="48.598529" lon="16.698948">
        <ele>239.215526</ele>
        <time>2020-07-04T03:50:49.710Z</time>
      </trkpt>
      <trkpt lat="48.598477" lon="16.699078">
        <ele>239.313767</ele>
        <time>2020-07-04T03:50:52.697Z</time>
      </trkpt>
      <trkpt lat="48.598424" lon="16.699227">
        <ele>239.423167</ele>
        <time>2020-07-04T03:50:55.671Z</time>
      </trkpt>
      <trkpt lat="48.598367" lon="16.699385">
        <ele>239.539546</ele>
        <time>2020-07-04T03:50:58.694Z</time>
      </trkpt>
      <trkpt lat="48.598320" lon="16.699504">
        <ele>239.629173</ele>
        <time>2020-07-04T03:51:00.712Z</time>
      </trkpt>
      <trkpt lat="48.598286" lon="16.699643">
        <ele>239.725005</ele>
        <time>2020-07-04T03:51:02.669Z</time>
      </trkpt>
      <trkpt lat="48.598260" lon="16.699807">
        <ele>239.834056</ele>
        <time>2020-07-04T03:51:04.684Z</time>
      </trkpt>
      <trkpt lat="48.598240" lon="16.699982">
        <ele>239.948894</ele>
        <time>2020-07-04T03:51:06.679Z</time>
      </trkpt>
      <trkpt lat="48.598212" lon="16.700208">
        <ele>240.097574</ele>
        <time>2020-07-04T03:51:08.708Z</time>
      </trkpt>
      <trkpt lat="48.598198" lon="16.700463">
        <ele>240.263031</ele>
        <time>2020-07-04T03:51:10.689Z</time>
      </trkpt>
      <trkpt lat="48.598189" lon="16.700723">
        <ele>240.431385</ele>
        <time>2020-07-04T03:51:12.706Z</time>
      </trkpt>
      <trkpt lat="48.598184" lon="16.700964">
        <ele>240.587299</ele>
        <time>2020-07-04T03:51:14.685Z</time>
      </trkpt>
      <trkpt lat="48.598180" lon="16.701174">
        <ele>240.460702</ele>
        <time>2020-07-04T03:51:16.678Z</time>
      </trkpt>
      <trkpt lat="48.598176" lon="16.701353">
        <ele>240.341671</ele>
        <time>2020-07-04T03:51:18.678Z</time>
      </trkpt>
      <trkpt lat="48.598172" lon="16.701518">
        <ele>240.231939</ele>
        <time>2020-07-04T03:51:20.679Z</time>
      </trkpt>
      <trkpt lat="48.598168" lon="16.701680">
        <ele>240.124200</ele>
        <time>2020-07-04T03:51:22.667Z</time>
      </trkpt>
      <trkpt lat="48.598164" lon="16.701852">
        <ele>240.009819</ele>
        <time>2020-07-04T03:51:24.672Z</time>
      </trkpt>
      <trkpt lat="48.598157" lon="16.702053">
        <ele>239.876050</ele>
        <time>2020-07-04T03:51:26.677Z</time>
      </trkpt>
      <trkpt lat="48.598153" lon="16.702272">
        <ele>239.730448</ele>
        <time>2020-07-04T03:51:28.669Z</time>
      </trkpt>
      <trkpt lat="48.598165" lon="16.702491">
        <ele>239.584402</ele>
        <time>2020-07-04T03:51:30.688Z</time>
      </trkpt>
      <trkpt lat="48.598182" lon="16.702680">
        <ele>239.457637</ele>
        <time>2020-07-04T03:51:32.686Z</time>
      </trkpt>
      <trkpt lat="48.598195" lon="16.702844">
        <ele>239.347863</ele>
        <time>2020-07-04T03:51:34.695Z</time>
      </trkpt>
      <trkpt lat="48.598199" lon="16.702986">
        <ele>239.253405</ele>
        <time>2020-07-04T03:51:36.693Z</time>
      </trkpt>
      <trkpt lat="48.598196" lon="16.703122">
        <ele>239.162970</ele>
        <time>2020-07-04T03:51:38.682Z</time>
      </trkpt>
      <trkpt lat="48.598200" lon="16.703327">
        <ele>239.026668</ele>
        <time>2020-07-04T03:51:41.684Z</time>
      </trkpt>
      <trkpt lat="48.598207" lon="16.703473">
        <ele>238.929383</ele>
        <time>2020-07-04T03:51:43.695Z</time>
      </trkpt>
      <trkpt lat="48.598219" lon="16.703643">
        <ele>238.815760</ele>
        <time>2020-07-04T03:51:45.715Z</time>
      </trkpt>
      <trkpt lat="48.598232" lon="16.703857">
        <ele>238.586460</ele>
        <time>2020-07-04T03:51:47.696Z</time>
      </trkpt>
      <trkpt lat="48.598307" lon="16.704092">
        <ele>238.280655</ele>
        <time>2020-07-04T03:51:49.679Z</time>
      </trkpt>
      <trkpt lat="48.598353" lon="16.704214">
        <ele>238.116070</ele>
        <time>2020-07-04T03:51:50.672Z</time>
      </trkpt>
      <trkpt lat="48.598395" lon="16.704340">
        <ele>237.950706</ele>
        <time>2020-07-04T03:51:51.671Z</time>
      </trkpt>
      <trkpt lat="48.598430" lon="16.704470">
        <ele>237.786209</ele>
        <time>2020-07-04T03:51:52.695Z</time>
      </trkpt>
      <trkpt lat="48.598456" lon="16.704602">
        <ele>237.624794</ele>
        <time>2020-07-04T03:51:53.676Z</time>
      </trkpt>
      <trkpt lat="48.598483" lon="16.704732">
        <ele>237.465103</ele>
        <time>2020-07-04T03:51:54.687Z</time>
      </trkpt>
      <trkpt lat="48.598534" lon="16.704983">
        <ele>237.157370</ele>
        <time>2020-07-04T03:51:56.695Z</time>
      </trkpt>
      <trkpt lat="48.598582" lon="16.705222">
        <ele>236.864640</ele>
        <time>2020-07-04T03:51:58.692Z</time>
      </trkpt>
      <trkpt lat="48.598633" lon="16.705452">
        <ele>236.580341</ele>
        <time>2020-07-04T03:52:00.690Z</time>
      </trkpt>
      <trkpt lat="48.598671" lon="16.705675">
        <ele>236.310458</ele>
        <time>2020-07-04T03:52:02.672Z</time>
      </trkpt>
      <trkpt lat="48.598688" lon="16.705901">
        <ele>236.043888</ele>
        <time>2020-07-04T03:52:04.676Z</time>
      </trkpt>
      <trkpt lat="48.598701" lon="16.706120">
        <ele>235.786198</ele>
        <time>2020-07-04T03:52:06.675Z</time>
      </trkpt>
      <trkpt lat="48.598714" lon="16.706322">
        <ele>235.579126</ele>
        <time>2020-07-04T03:52:08.692Z</time>
      </trkpt>
      <trkpt lat="48.598735" lon="16.706512">
        <ele>235.491111</ele>
        <time>2020-07-04T03:52:10.711Z</time>
      </trkpt>
      <trkpt lat="48.598771" lon="16.706699">
        <ele>235.402124</ele>
        <time>2020-07-04T03:52:12.695Z</time>
      </trkpt>
      <trkpt lat="48.598811" lon="16.706887">
        <ele>235.311891</ele>
        <time>2020-07-04T03:52:14.684Z</time>
      </trkpt>
      <trkpt lat="48.598850" lon="16.707079">
        <ele>235.220121</ele>
        <time>2020-07-04T03:52:16.694Z</time>
      </trkpt>
      <trkpt lat="48.598887" lon="16.707281">
        <ele>235.124353</ele>
        <time>2020-07-04T03:52:18.692Z</time>
      </trkpt>
      <trkpt lat="48.598917" lon="16.707495">
        <ele>235.024404</ele>
        <time>2020-07-04T03:52:20.698Z</time>
      </trkpt>
      <trkpt lat="48.598945" lon="16.707713">
        <ele>234.922939</ele>
        <time>2020-07-04T03:52:22.672Z</time>
      </trkpt>
      <trkpt lat="48.598979" lon="16.707926">
        <ele>234.822825</ele>
        <time>2020-07-04T03:52:24.668Z</time>
      </trkpt>
      <trkpt lat="48.599037" lon="16.708122">
        <ele>234.724716</ele>
        <time>2020-07-04T03:52:26.678Z</time>
      </trkpt>
      <trkpt lat="48.599097" lon="16.708318">
        <ele>234.626035</ele>
        <time>2020-07-04T03:52:28.702Z</time>
      </trkpt>
      <trkpt lat="48.599154" lon="16.708515">
        <ele>234.527789</ele>
        <time>2020-07-04T03:52:30.693Z</time>
      </trkpt>
      <trkpt lat="48.599207" lon="16.708711">
        <ele>234.431040</ele>
        <time>2020-07-04T03:52:32.679Z</time>
      </trkpt>
      <trkpt lat="48.599260" lon="16.708900">
        <ele>234.356486</ele>
        <time>2020-07-04T03:52:34.701Z</time>
      </trkpt>
      <trkpt lat="48.599308" lon="16.709090">
        <ele>234.358176</ele>
        <time>2020-07-04T03:52:36.681Z</time>
      </trkpt>
      <trkpt lat="48.599341" lon="16.709283">
        <ele>234.359832</ele>
        <time>2020-07-04T03:52:38.684Z</time>
      </trkpt>
      <trkpt lat="48.599352" lon="16.709478">
        <ele>234.361458</ele>
        <time>2020-07-04T03:52:40.690Z</time>
      </trkpt>
      <trkpt lat="48.599367" lon="16.709663">
        <ele>234.363007</ele>
        <time>2020-07-04T03:52:42.684Z</time>
      </trkpt>
      <trkpt lat="48.599383" lon="16.709845">
        <ele>234.364532</ele>
        <time>2020-07-04T03:52:44.716Z</time>
      </trkpt>
      <trkpt lat="48.599396" lon="16.710029">
        <ele>234.366070</ele>
        <time>2020-07-04T03:52:46.686Z</time>
      </trkpt>
      <trkpt lat="48.599409" lon="16.710205">
        <ele>234.367541</ele>
        <time>2020-07-04T03:52:48.682Z</time>
      </trkpt>
      <trkpt lat="48.599419" lon="16.710381">
        <ele>234.369009</ele>
        <time>2020-07-04T03:52:50.683Z</time>
      </trkpt>
      <trkpt lat="48.599427" lon="16.710553">
        <ele>234.370442</ele>
        <time>2020-07-04T03:52:52.709Z</time>
      </trkpt>
      <trkpt lat="48.599433" lon="16.710722">
        <ele>234.371848</ele>
        <time>2020-07-04T03:52:54.697Z</time>
      </trkpt>
      <trkpt lat="48.599443" lon="16.710889">
        <ele>234.373241</ele>
        <time>2020-07-04T03:52:56.693Z</time>
      </trkpt>
      <trkpt lat="48.599452" lon="16.711053">
        <ele>234.374608</ele>
        <time>2020-07-04T03:52:58.700Z</time>
      </trkpt>
      <trkpt lat="48.599458" lon="16.711208">
        <ele>234.375898</ele>
        <time>2020-07-04T03:53:00.695Z</time>
      </trkpt>
      <trkpt lat="48.599462" lon="16.711366">
        <ele>234.377212</ele>
        <time>2020-07-04T03:53:02.725Z</time>
      </trkpt>
      <trkpt lat="48.599465" lon="16.711523">
        <ele>234.378517</ele>
        <time>2020-07-04T03:53:04.721Z</time>
      </trkpt>
      <trkpt lat="48.599468" lon="16.711675">
        <ele>234.372754</ele>
        <time>2020-07-04T03:53:06.668Z</time>
      </trkpt>
      <trkpt lat="48.599469" lon="16.711815">
        <ele>234.366062</ele>
        <time>2020-07-04T03:53:08.713Z</time>
      </trkpt>
      <trkpt lat="48.599486" lon="16.711987">
        <ele>234.357749</ele>
        <time>2020-07-04T03:53:11.725Z</time>
      </trkpt>
      <trkpt lat="48.599493" lon="16.712188">
        <ele>234.348129</ele>
        <time>2020-07-04T03:53:14.682Z</time>
      </trkpt>
      <trkpt lat="48.599513" lon="16.712337">
        <ele>234.340862</ele>
        <time>2020-07-04T03:53:16.696Z</time>
      </trkpt>
      <trkpt lat="48.599548" lon="16.712493">
        <ele>234.332988</ele>
        <time>2020-07-04T03:53:18.668Z</time>
      </trkpt>
      <trkpt lat="48.599585" lon="16.712647">
        <ele>234.325156</ele>
        <time>2020-07-04T03:53:20.686Z</time>
      </trkpt>
      <trkpt lat="48.599623" lon="16.712811">
        <ele>234.316850</ele>
        <time>2020-07-04T03:53:22.719Z</time>
      </trkpt>
      <trkpt lat="48.599662" lon="16.712976">
        <ele>234.308475</ele>
        <time>2020-07-04T03:53:24.691Z</time>
      </trkpt>
      <trkpt lat="48.599700" lon="16.713139">
        <ele>234.300214</ele>
        <time>2020-07-04T03:53:26.696Z</time>
      </trkpt>
      <trkpt lat="48.599736" lon="16.713305">
        <ele>234.291864</ele>
        <time>2020-07-04T03:53:28.684Z</time>
      </trkpt>
      <trkpt lat="48.599774" lon="16.713471">
        <ele>234.283467</ele>
        <time>2020-07-04T03:53:30.667Z</time>
      </trkpt>
      <trkpt lat="48.599810" lon="16.713633">
        <ele>234.275299</ele>
        <time>2020-07-04T03:53:32.696Z</time>
      </trkpt>
      <trkpt lat="48.599843" lon="16.713807">
        <ele>234.266647</ele>
        <time>2020-07-04T03:53:34.704Z</time>
      </trkpt>
      <trkpt lat="48.599874" lon="16.713975">
        <ele>234.258310</ele>
        <time>2020-07-04T03:53:36.672Z</time>
      </trkpt>
      <trkpt lat="48.599900" lon="16.714142">
        <ele>234.250110</ele>
        <time>2020-07-04T03:53:38.685Z</time>
      </trkpt>
      <trkpt lat="48.599928" lon="16.714303">
        <ele>234.214045</ele>
        <time>2020-07-04T03:53:40.681Z</time>
      </trkpt>
      <trkpt lat="48.599953" lon="16.714467">
        <ele>234.171679</ele>
        <time>2020-07-04T03:53:42.676Z</time>
      </trkpt>
      <trkpt lat="48.599978" lon="16.714630">
        <ele>234.129557</ele>
        <time>2020-07-04T03:53:44.703Z</time>
      </trkpt>
      <trkpt lat="48.600004" lon="16.714793">
        <ele>234.087348</ele>
        <time>2020-07-04T03:53:46.693Z</time>
      </trkpt>
      <trkpt lat="48.600024" lon="16.714959">
        <ele>234.044873</ele>
        <time>2020-07-04T03:53:48.684Z</time>
      </trkpt>
      <trkpt lat="48.600037" lon="16.715127">
        <ele>234.002293</ele>
        <time>2020-07-04T03:53:50.685Z</time>
      </trkpt>
      <trkpt lat="48.600044" lon="16.715295">
        <ele>233.959918</ele>
        <time>2020-07-04T03:53:52.668Z</time>
      </trkpt>
      <trkpt lat="48.600048" lon="16.715459">
        <ele>233.918606</ele>
        <time>2020-07-04T03:53:54.720Z</time>
      </trkpt>
      <trkpt lat="48.600054" lon="16.715621">
        <ele>233.877762</ele>
        <time>2020-07-04T03:53:56.689Z</time>
      </trkpt>
      <trkpt lat="48.600056" lon="16.715784">
        <ele>233.836722</ele>
        <time>2020-07-04T03:53:58.678Z</time>
      </trkpt>
      <trkpt lat="48.600046" lon="16.715946">
        <ele>233.795764</ele>
        <time>2020-07-04T03:54:00.695Z</time>
      </trkpt>
      <trkpt lat="48.600019" lon="16.716112">
        <ele>233.752731</ele>
        <time>2020-07-04T03:54:02.704Z</time>
      </trkpt>
      <trkpt lat="48.599976" lon="16.716266">
        <ele>233.710651</ele>
        <time>2020-07-04T03:54:04.692Z</time>
      </trkpt>
      <trkpt lat="48.599966" lon="16.716425">
        <ele>233.670445</ele>
        <time>2020-07-04T03:54:06.682Z</time>
      </trkpt>
      <trkpt lat="48.599980" lon="16.716578">
        <ele>233.631563</ele>
        <time>2020-07-04T03:54:08.679Z</time>
      </trkpt>
      <trkpt lat="48.599996" lon="16.716739">
        <ele>233.590579</ele>
        <time>2020-07-04T03:54:10.718Z</time>
      </trkpt>
      <trkpt lat="48.599989" lon="16.716885">
        <ele>233.562188</ele>
        <time>2020-07-04T03:54:12.687Z</time>
      </trkpt>
      <trkpt lat="48.599963" lon="16.717025">
        <ele>233.555507</ele>
        <time>2020-07-04T03:54:14.683Z</time>
      </trkpt>
      <trkpt lat="48.599928" lon="16.717160">
        <ele>233.548845</ele>
        <time>2020-07-04T03:54:16.704Z</time>
      </trkpt>
      <trkpt lat="48.599879" lon="16.717292">
        <ele>233.541891</ele>
        <time>2020-07-04T03:54:18.683Z</time>
      </trkpt>
      <trkpt lat="48.599829" lon="16.717415">
        <ele>233.535258</ele>
        <time>2020-07-04T03:54:20.670Z</time>
      </trkpt>
      <trkpt lat="48.599810" lon="16.717614">
        <ele>233.526020</ele>
        <time>2020-07-04T03:54:23.720Z</time>
      </trkpt>
      <trkpt lat="48.599805" lon="16.717758">
        <ele>233.519396</ele>
        <time>2020-07-04T03:54:25.697Z</time>
      </trkpt>
      <trkpt lat="48.599803" lon="16.717901">
        <ele>233.512824</ele>
        <time>2020-07-04T03:54:27.691Z</time>
      </trkpt>
      <trkpt lat="48.599815" lon="16.718042">
        <ele>233.506293</ele>
        <time>2020-07-04T03:54:29.686Z</time>
      </trkpt>
      <trkpt lat="48.599819" lon="16.718186">
        <ele>233.499672</ele>
        <time>2020-07-04T03:54:31.674Z</time>
      </trkpt>
      <trkpt lat="48.599817" lon="16.718327">
        <ele>233.493192</ele>
        <time>2020-07-04T03:54:33.689Z</time>
      </trkpt>
      <trkpt lat="48.599822" lon="16.718462">
        <ele>233.486980</ele>
        <time>2020-07-04T03:54:35.692Z</time>
      </trkpt>
      <trkpt lat="48.599820" lon="16.718601">
        <ele>233.480593</ele>
        <time>2020-07-04T03:54:37.694Z</time>
      </trkpt>
      <trkpt lat="48.599819" lon="16.718743">
        <ele>233.474069</ele>
        <time>2020-07-04T03:54:39.691Z</time>
      </trkpt>
      <trkpt lat="48.599815" lon="16.718884">
        <ele>233.467585</ele>
        <time>2020-07-04T03:54:41.699Z</time>
      </trkpt>
      <trkpt lat="48.599810" lon="16.719029">
        <ele>233.460914</ele>
        <time>2020-07-04T03:54:43.699Z</time>
      </trkpt>
      <trkpt lat="48.599815" lon="16.719169">
        <ele>233.454473</ele>
        <time>2020-07-04T03:54:45.698Z</time>
      </trkpt>
      <trkpt lat="48.599827" lon="16.719310">
        <ele>233.447942</ele>
        <time>2020-07-04T03:54:47.693Z</time>
      </trkpt>
      <trkpt lat="48.599838" lon="16.719450">
        <ele>233.441465</ele>
        <time>2020-07-04T03:54:49.692Z</time>
      </trkpt>
      <trkpt lat="48.599849" lon="16.719594">
        <ele>233.453468</ele>
        <time>2020-07-04T03:54:51.729Z</time>
      </trkpt>
      <trkpt lat="48.599855" lon="16.719737">
        <ele>233.475340</ele>
        <time>2020-07-04T03:54:53.709Z</time>
      </trkpt>
      <trkpt lat="48.599865" lon="16.719880">
        <ele>233.497290</ele>
        <time>2020-07-04T03:54:55.688Z</time>
      </trkpt>
      <trkpt lat="48.599881" lon="16.720020">
        <ele>233.518977</ele>
        <time>2020-07-04T03:54:57.679Z</time>
      </trkpt>
      <trkpt lat="48.599896" lon="16.720160">
        <ele>233.540626</ele>
        <time>2020-07-04T03:54:59.691Z</time>
      </trkpt>
      <trkpt lat="48.599902" lon="16.720299">
        <ele>233.561889</ele>
        <time>2020-07-04T03:55:01.686Z</time>
      </trkpt>
      <trkpt lat="48.599908" lon="16.720439">
        <ele>233.583304</ele>
        <time>2020-07-04T03:55:03.704Z</time>
      </trkpt>
      <trkpt lat="48.599918" lon="16.720579">
        <ele>233.604798</ele>
        <time>2020-07-04T03:55:05.701Z</time>
      </trkpt>
      <trkpt lat="48.599929" lon="16.720718">
        <ele>233.626167</ele>
        <time>2020-07-04T03:55:07.701Z</time>
      </trkpt>
      <trkpt lat="48.599938" lon="16.720854">
        <ele>233.647031</ele>
        <time>2020-07-04T03:55:09.681Z</time>
      </trkpt>
      <trkpt lat="48.599945" lon="16.720991">
        <ele>233.668006</ele>
        <time>2020-07-04T03:55:11.711Z</time>
      </trkpt>
      <trkpt lat="48.599958" lon="16.721127">
        <ele>233.688981</ele>
        <time>2020-07-04T03:55:13.682Z</time>
      </trkpt>
      <trkpt lat="48.599973" lon="16.721261">
        <ele>233.709726</ele>
        <time>2020-07-04T03:55:15.698Z</time>
      </trkpt>
      <trkpt lat="48.599990" lon="16.721398">
        <ele>233.731004</ele>
        <time>2020-07-04T03:55:17.684Z</time>
      </trkpt>
      <trkpt lat="48.600004" lon="16.721539">
        <ele>233.752768</ele>
        <time>2020-07-04T03:55:19.675Z</time>
      </trkpt>
      <trkpt lat="48.600048" lon="16.721728">
        <ele>233.783353</ele>
        <time>2020-07-04T03:55:22.675Z</time>
      </trkpt>
      <trkpt lat="48.600087" lon="16.721855">
        <ele>233.804727</ele>
        <time>2020-07-04T03:55:24.694Z</time>
      </trkpt>
      <trkpt lat="48.600124" lon="16.722004">
        <ele>233.829022</ele>
        <time>2020-07-04T03:55:26.676Z</time>
      </trkpt>
      <trkpt lat="48.600168" lon="16.722162">
        <ele>233.853731</ele>
        <time>2020-07-04T03:55:28.681Z</time>
      </trkpt>
      <trkpt lat="48.600229" lon="16.722323">
        <ele>233.836274</ele>
        <time>2020-07-04T03:55:30.691Z</time>
      </trkpt>
      <trkpt lat="48.600292" lon="16.722490">
        <ele>233.818185</ele>
        <time>2020-07-04T03:55:32.698Z</time>
      </trkpt>
      <trkpt lat="48.600350" lon="16.722665">
        <ele>233.799768</ele>
        <time>2020-07-04T03:55:34.699Z</time>
      </trkpt>
      <trkpt lat="48.600398" lon="16.722851">
        <ele>233.780983</ele>
        <time>2020-07-04T03:55:36.701Z</time>
      </trkpt>
      <trkpt lat="48.600437" lon="16.723040">
        <ele>233.762356</ele>
        <time>2020-07-04T03:55:38.671Z</time>
      </trkpt>
      <trkpt lat="48.600473" lon="16.723227">
        <ele>233.744032</ele>
        <time>2020-07-04T03:55:40.671Z</time>
      </trkpt>
      <trkpt lat="48.600499" lon="16.723419">
        <ele>233.725593</ele>
        <time>2020-07-04T03:55:42.676Z</time>
      </trkpt>
      <trkpt lat="48.600517" lon="16.723614">
        <ele>233.707068</ele>
        <time>2020-07-04T03:55:44.697Z</time>
      </trkpt>
      <trkpt lat="48.600539" lon="16.723801">
        <ele>233.689199</ele>
        <time>2020-07-04T03:55:46.679Z</time>
      </trkpt>
      <trkpt lat="48.600564" lon="16.723983">
        <ele>233.671710</ele>
        <time>2020-07-04T03:55:48.718Z</time>
      </trkpt>
      <trkpt lat="48.600581" lon="16.724163">
        <ele>233.654603</ele>
        <time>2020-07-04T03:55:50.715Z</time>
      </trkpt>
      <trkpt lat="48.600600" lon="16.724337">
        <ele>233.638011</ele>
        <time>2020-07-04T03:55:52.688Z</time>
      </trkpt>
      <trkpt lat="48.600621" lon="16.724506">
        <ele>233.621832</ele>
        <time>2020-07-04T03:55:54.687Z</time>
      </trkpt>
      <trkpt lat="48.600646" lon="16.724665">
        <ele>233.606456</ele>
        <time>2020-07-04T03:55:56.684Z</time>
      </trkpt>
      <trkpt lat="48.600676" lon="16.724817">
        <ele>233.622841</ele>
        <time>2020-07-04T03:55:58.716Z</time>
      </trkpt>
      <trkpt lat="48.600701" lon="16.724971">
        <ele>233.675984</ele>
        <time>2020-07-04T03:56:00.683Z</time>
      </trkpt>
      <trkpt lat="48.600728" lon="16.725120">
        <ele>233.727759</ele>
        <time>2020-07-04T03:56:02.669Z</time>
      </trkpt>
      <trkpt lat="48.600754" lon="16.725263">
        <ele>233.777461</ele>
        <time>2020-07-04T03:56:04.680Z</time>
      </trkpt>
      <trkpt lat="48.600783" lon="16.725410">
        <ele>233.828871</ele>
        <time>2020-07-04T03:56:06.700Z</time>
      </trkpt>
      <trkpt lat="48.600809" lon="16.725553">
        <ele>233.878573</ele>
        <time>2020-07-04T03:56:08.705Z</time>
      </trkpt>
      <trkpt lat="48.600841" lon="16.725692">
        <ele>233.927898</ele>
        <time>2020-07-04T03:56:10.729Z</time>
      </trkpt>
      <trkpt lat="48.600886" lon="16.725828">
        <ele>233.978863</ele>
        <time>2020-07-04T03:56:12.683Z</time>
      </trkpt>
      <trkpt lat="48.600932" lon="16.725964">
        <ele>234.030056</ele>
        <time>2020-07-04T03:56:14.664Z</time>
      </trkpt>
      <trkpt lat="48.600978" lon="16.726102">
        <ele>234.081847</ele>
        <time>2020-07-04T03:56:16.682Z</time>
      </trkpt>
      <trkpt lat="48.601021" lon="16.726241">
        <ele>234.133275</ele>
        <time>2020-07-04T03:56:18.674Z</time>
      </trkpt>
      <trkpt lat="48.601068" lon="16.726374">
        <ele>234.183812</ele>
        <time>2020-07-04T03:56:20.679Z</time>
      </trkpt>
      <trkpt lat="48.601123" lon="16.726500">
        <ele>234.234408</ele>
        <time>2020-07-04T03:56:22.677Z</time>
      </trkpt>
      <trkpt lat="48.601184" lon="16.726623">
        <ele>234.285932</ele>
        <time>2020-07-04T03:56:24.677Z</time>
      </trkpt>
      <trkpt lat="48.601250" lon="16.726738">
        <ele>234.336962</ele>
        <time>2020-07-04T03:56:26.672Z</time>
      </trkpt>
      <trkpt lat="48.601316" lon="16.726853">
        <ele>234.387992</ele>
        <time>2020-07-04T03:56:28.690Z</time>
      </trkpt>
      <trkpt lat="48.601374" lon="16.726971">
        <ele>234.437264</ele>
        <time>2020-07-04T03:56:30.702Z</time>
      </trkpt>
      <trkpt lat="48.601434" lon="16.727092">
        <ele>234.487948</ele>
        <time>2020-07-04T03:56:32.673Z</time>
      </trkpt>
      <trkpt lat="48.601485" lon="16.727216">
        <ele>234.553816</ele>
        <time>2020-07-04T03:56:34.666Z</time>
      </trkpt>
      <trkpt lat="48.601531" lon="16.727336">
        <ele>234.629465</ele>
        <time>2020-07-04T03:56:36.684Z</time>
      </trkpt>
      <trkpt lat="48.601604" lon="16.727500">
        <ele>234.737285</ele>
        <time>2020-07-04T03:56:39.707Z</time>
      </trkpt>
      <trkpt lat="48.601654" lon="16.727613">
        <ele>234.811439</ele>
        <time>2020-07-04T03:56:41.696Z</time>
      </trkpt>
      <trkpt lat="48.601719" lon="16.727777">
        <ele>234.915719</ele>
        <time>2020-07-04T03:56:44.710Z</time>
      </trkpt>
      <trkpt lat="48.601764" lon="16.727896">
        <ele>234.990483</ele>
        <time>2020-07-04T03:56:46.682Z</time>
      </trkpt>
      <trkpt lat="48.601829" lon="16.728007">
        <ele>235.071346</ele>
        <time>2020-07-04T03:56:48.683Z</time>
      </trkpt>
      <trkpt lat="48.601891" lon="16.728128">
        <ele>235.154831</ele>
        <time>2020-07-04T03:56:50.716Z</time>
      </trkpt>
      <trkpt lat="48.601946" lon="16.728249">
        <ele>235.234910</ele>
        <time>2020-07-04T03:56:52.684Z</time>
      </trkpt>
      <trkpt lat="48.602002" lon="16.728362">
        <ele>235.311925</ele>
        <time>2020-07-04T03:56:54.687Z</time>
      </trkpt>
      <trkpt lat="48.602062" lon="16.728472">
        <ele>235.389693</ele>
        <time>2020-07-04T03:56:56.695Z</time>
      </trkpt>
      <trkpt lat="48.602127" lon="16.728573">
        <ele>235.466558</ele>
        <time>2020-07-04T03:56:58.668Z</time>
      </trkpt>
      <trkpt lat="48.602197" lon="16.728669">
        <ele>235.544496</ele>
        <time>2020-07-04T03:57:00.676Z</time>
      </trkpt>
      <trkpt lat="48.602269" lon="16.728760">
        <ele>235.621887</ele>
        <time>2020-07-04T03:57:02.699Z</time>
      </trkpt>
      <trkpt lat="48.602337" lon="16.728848">
        <ele>235.695703</ele>
        <time>2020-07-04T03:57:04.690Z</time>
      </trkpt>
      <trkpt lat="48.602419" lon="16.728995">
        <ele>235.800589</ele>
        <time>2020-07-04T03:57:07.672Z</time>
      </trkpt>
      <trkpt lat="48.602494" lon="16.729159">
        <ele>235.909338</ele>
        <time>2020-07-04T03:57:10.683Z</time>
      </trkpt>
      <trkpt lat="48.602558" lon="16.729282">
        <ele>235.994154</ele>
        <time>2020-07-04T03:57:12.673Z</time>
      </trkpt>
      <trkpt lat="48.602643" lon="16.729413">
        <ele>236.054566</ele>
        <time>2020-07-04T03:57:14.690Z</time>
      </trkpt>
      <trkpt lat="48.602762" lon="16.729519">
        <ele>236.123315</ele>
        <time>2020-07-04T03:57:16.699Z</time>
      </trkpt>
      <trkpt lat="48.602895" lon="16.729621">
        <ele>236.197546</ele>
        <time>2020-07-04T03:57:18.684Z</time>
      </trkpt>
      <trkpt lat="48.603038" lon="16.729669">
        <ele>236.270461</ele>
        <time>2020-07-04T03:57:20.689Z</time>
      </trkpt>
      <trkpt lat="48.603173" lon="16.729601">
        <ele>236.341291</ele>
        <time>2020-07-04T03:57:22.693Z</time>
      </trkpt>
      <trkpt lat="48.603297" lon="16.729487">
        <ele>236.413527</ele>
        <time>2020-07-04T03:57:24.696Z</time>
      </trkpt>
      <trkpt lat="48.603407" lon="16.729385">
        <ele>236.477757</ele>
        <time>2020-07-04T03:57:26.683Z</time>
      </trkpt>
      <trkpt lat="48.603531" lon="16.729339">
        <ele>236.541311</ele>
        <time>2020-07-04T03:57:29.672Z</time>
      </trkpt>
      <trkpt lat="48.603612" lon="16.729492">
        <ele>236.605825</ele>
        <time>2020-07-04T03:57:32.682Z</time>
      </trkpt>
      <trkpt lat="48.603674" lon="16.729652">
        <ele>236.666868</ele>
        <time>2020-07-04T03:57:35.701Z</time>
      </trkpt>
      <trkpt lat="48.603738" lon="16.729811">
        <ele>236.728138</ele>
        <time>2020-07-04T03:57:38.704Z</time>
      </trkpt>
      <trkpt lat="48.603799" lon="16.729967">
        <ele>236.787793</ele>
        <time>2020-07-04T03:57:41.704Z</time>
      </trkpt>
      <trkpt lat="48.603860" lon="16.730121">
        <ele>236.846883</ele>
        <time>2020-07-04T03:57:44.694Z</time>
      </trkpt>
      <trkpt lat="48.603917" lon="16.730275">
        <ele>236.845283</ele>
        <time>2020-07-04T03:57:47.684Z</time>
      </trkpt>
      <trkpt lat="48.603966" lon="16.730431">
        <ele>236.694236</ele>
        <time>2020-07-04T03:57:50.704Z</time>
      </trkpt>
      <trkpt lat="48.604018" lon="16.730587">
        <ele>236.541445</ele>
        <time>2020-07-04T03:57:53.687Z</time>
      </trkpt>
      <trkpt lat="48.604126" lon="16.730561">
        <ele>236.396804</ele>
        <time>2020-07-04T03:57:56.673Z</time>
      </trkpt>
      <trkpt lat="48.604230" lon="16.730490">
        <ele>236.245885</ele>
        <time>2020-07-04T03:57:58.694Z</time>
      </trkpt>
      <trkpt lat="48.604356" lon="16.730428">
        <ele>236.070635</ele>
        <time>2020-07-04T03:58:00.683Z</time>
      </trkpt>
      <trkpt lat="48.604497" lon="16.730378">
        <ele>235.879087</ele>
        <time>2020-07-04T03:58:02.703Z</time>
      </trkpt>
      <trkpt lat="48.604644" lon="16.730322">
        <ele>235.678588</ele>
        <time>2020-07-04T03:58:04.690Z</time>
      </trkpt>
      <trkpt lat="48.604788" lon="16.730263">
        <ele>235.481265</ele>
        <time>2020-07-04T03:58:06.721Z</time>
      </trkpt>
      <trkpt lat="48.604929" lon="16.730203">
        <ele>235.287534</ele>
        <time>2020-07-04T03:58:08.683Z</time>
      </trkpt>
      <trkpt lat="48.605069" lon="16.730144">
        <ele>235.095312</ele>
        <time>2020-07-04T03:58:10.702Z</time>
      </trkpt>
      <trkpt lat="48.605211" lon="16.730089">
        <ele>234.901438</ele>
        <time>2020-07-04T03:58:12.700Z</time>
      </trkpt>
      <trkpt lat="48.605352" lon="16.730029">
        <ele>234.707707</ele>
        <time>2020-07-04T03:58:14.707Z</time>
      </trkpt>
      <trkpt lat="48.605494" lon="16.729977">
        <ele>234.514467</ele>
        <time>2020-07-04T03:58:16.708Z</time>
      </trkpt>
      <trkpt lat="48.605630" lon="16.729923">
        <ele>234.451869</ele>
        <time>2020-07-04T03:58:18.686Z</time>
      </trkpt>
      <trkpt lat="48.605762" lon="16.729870">
        <ele>234.394198</ele>
        <time>2020-07-04T03:58:20.686Z</time>
      </trkpt>
      <trkpt lat="48.605888" lon="16.729823">
        <ele>234.339397</ele>
        <time>2020-07-04T03:58:22.676Z</time>
      </trkpt>
      <trkpt lat="48.606009" lon="16.729770">
        <ele>234.286202</ele>
        <time>2020-07-04T03:58:24.719Z</time>
      </trkpt>
      <trkpt lat="48.606126" lon="16.729729">
        <ele>234.235487</ele>
        <time>2020-07-04T03:58:26.714Z</time>
      </trkpt>
      <trkpt lat="48.606229" lon="16.729683">
        <ele>234.190137</ele>
        <time>2020-07-04T03:58:28.706Z</time>
      </trkpt>
      <trkpt lat="48.606291" lon="16.729519">
        <ele>234.137389</ele>
        <time>2020-07-04T03:58:31.691Z</time>
      </trkpt>
      <trkpt lat="48.606263" lon="16.729351">
        <ele>234.089013</ele>
        <time>2020-07-04T03:58:34.668Z</time>
      </trkpt>
      <trkpt lat="48.606269" lon="16.729177">
        <ele>234.040363</ele>
        <time>2020-07-04T03:58:37.677Z</time>
      </trkpt>
      <trkpt lat="48.606386" lon="16.729134">
        <ele>233.989519</ele>
        <time>2020-07-04T03:58:40.682Z</time>
      </trkpt>
      <trkpt lat="48.606476" lon="16.729112">
        <ele>233.951021</ele>
        <time>2020-07-04T03:58:42.691Z</time>
      </trkpt>
      <trkpt lat="48.606602" lon="16.729062">
        <ele>233.896014</ele>
        <time>2020-07-04T03:58:45.724Z</time>
      </trkpt>
      <trkpt lat="48.606705" lon="16.728993">
        <ele>233.848444</ele>
        <time>2020-07-04T03:58:48.707Z</time>
      </trkpt>
      <trkpt lat="48.606805" lon="16.728929">
        <ele>233.802591</ele>
        <time>2020-07-04T03:58:51.702Z</time>
      </trkpt>
      <trkpt lat="48.606916" lon="16.728845">
        <ele>233.750213</ele>
        <time>2020-07-04T03:58:54.667Z</time>
      </trkpt>
      <trkpt lat="48.607006" lon="16.728746">
        <ele>233.746004</ele>
        <time>2020-07-04T03:58:56.691Z</time>
      </trkpt>
      <trkpt lat="48.607096" lon="16.728624">
        <ele>233.741433</ele>
        <time>2020-07-04T03:58:58.681Z</time>
      </trkpt>
      <trkpt lat="48.607174" lon="16.728509">
        <ele>233.737313</ele>
        <time>2020-07-04T03:59:00.688Z</time>
      </trkpt>
      <trkpt lat="48.607261" lon="16.728438">
        <ele>233.733575</ele>
        <time>2020-07-04T03:59:02.702Z</time>
      </trkpt>
      <trkpt lat="48.607354" lon="16.728365">
        <ele>233.729612</ele>
        <time>2020-07-04T03:59:04.682Z</time>
      </trkpt>
      <trkpt lat="48.607444" lon="16.728257">
        <ele>233.725267</ele>
        <time>2020-07-04T03:59:06.677Z</time>
      </trkpt>
      <trkpt lat="48.607527" lon="16.728146">
        <ele>233.721077</ele>
        <time>2020-07-04T03:59:08.664Z</time>
      </trkpt>
      <trkpt lat="48.607613" lon="16.728048">
        <ele>233.717005</ele>
        <time>2020-07-04T03:59:10.694Z</time>
      </trkpt>
      <trkpt lat="48.607716" lon="16.728037">
        <ele>233.713100</ele>
        <time>2020-07-04T03:59:12.682Z</time>
      </trkpt>
      <trkpt lat="48.607812" lon="16.728118">
        <ele>233.708942</ele>
        <time>2020-07-04T03:59:14.693Z</time>
      </trkpt>
      <trkpt lat="48.607895" lon="16.728199">
        <ele>233.705207</ele>
        <time>2020-07-04T03:59:16.665Z</time>
      </trkpt>
      <trkpt lat="48.607977" lon="16.728290">
        <ele>233.701360</ele>
        <time>2020-07-04T03:59:18.675Z</time>
      </trkpt>
      <trkpt lat="48.608051" lon="16.728384">
        <ele>233.697706</ele>
        <time>2020-07-04T03:59:20.688Z</time>
      </trkpt>
      <trkpt lat="48.608125" lon="16.728481">
        <ele>233.694002</ele>
        <time>2020-07-04T03:59:22.698Z</time>
      </trkpt>
      <trkpt lat="48.608200" lon="16.728577">
        <ele>233.690286</ele>
        <time>2020-07-04T03:59:24.693Z</time>
      </trkpt>
      <trkpt lat="48.608272" lon="16.728675">
        <ele>233.686623</ele>
        <time>2020-07-04T03:59:26.681Z</time>
      </trkpt>
      <trkpt lat="48.608347" lon="16.728774">
        <ele>233.682858</ele>
        <time>2020-07-04T03:59:28.684Z</time>
      </trkpt>
      <trkpt lat="48.608422" lon="16.728870">
        <ele>233.707819</ele>
        <time>2020-07-04T03:59:30.685Z</time>
      </trkpt>
      <trkpt lat="48.608497" lon="16.728958">
        <ele>233.737962</ele>
        <time>2020-07-04T03:59:32.700Z</time>
      </trkpt>
      <trkpt lat="48.608572" lon="16.729034">
        <ele>233.766630</ele>
        <time>2020-07-04T03:59:34.666Z</time>
      </trkpt>
      <trkpt lat="48.608677" lon="16.729137">
        <ele>233.806373</ele>
        <time>2020-07-04T03:59:37.669Z</time>
      </trkpt>
      <trkpt lat="48.608783" lon="16.729250">
        <ele>233.847555</ele>
        <time>2020-07-04T03:59:40.676Z</time>
      </trkpt>
      <trkpt lat="48.608859" lon="16.729331">
        <ele>233.877080</ele>
        <time>2020-07-04T03:59:42.678Z</time>
      </trkpt>
      <trkpt lat="48.608938" lon="16.729416">
        <ele>233.907867</ele>
        <time>2020-07-04T03:59:44.710Z</time>
      </trkpt>
      <trkpt lat="48.609016" lon="16.729510">
        <ele>233.939538</ele>
        <time>2020-07-04T03:59:46.686Z</time>
      </trkpt>
      <trkpt lat="48.609097" lon="16.729606">
        <ele>233.972217</ele>
        <time>2020-07-04T03:59:48.701Z</time>
      </trkpt>
      <trkpt lat="48.609185" lon="16.729695">
        <ele>234.005834</ele>
        <time>2020-07-04T03:59:50.679Z</time>
      </trkpt>
      <trkpt lat="48.609272" lon="16.729785">
        <ele>234.039306</ele>
        <time>2020-07-04T03:59:52.686Z</time>
      </trkpt>
      <trkpt lat="48.609359" lon="16.729885">
        <ele>234.074006</ele>
        <time>2020-07-04T03:59:54.695Z</time>
      </trkpt>
      <trkpt lat="48.609445" lon="16.729987">
        <ele>234.108711</ele>
        <time>2020-07-04T03:59:56.671Z</time>
      </trkpt>
      <trkpt lat="48.609528" lon="16.730086">
        <ele>234.142279</ele>
        <time>2020-07-04T03:59:58.678Z</time>
      </trkpt>
      <trkpt lat="48.609612" lon="16.730182">
        <ele>234.175712</ele>
        <time>2020-07-04T04:00:00.700Z</time>
      </trkpt>
      <trkpt lat="48.609700" lon="16.730276">
        <ele>234.209924</ele>
        <time>2020-07-04T04:00:02.701Z</time>
      </trkpt>
      <trkpt lat="48.609804" lon="16.730279">
        <ele>234.242956</ele>
        <time>2020-07-04T04:00:04.682Z</time>
      </trkpt>
      <trkpt lat="48.609899" lon="16.730177">
        <ele>234.228185</ele>
        <time>2020-07-04T04:00:06.699Z</time>
      </trkpt>
      <trkpt lat="48.609997" lon="16.730221">
        <ele>234.197452</ele>
        <time>2020-07-04T04:00:08.690Z</time>
      </trkpt>
      <trkpt lat="48.610085" lon="16.730339">
        <ele>234.162095</ele>
        <time>2020-07-04T04:00:10.677Z</time>
      </trkpt>
      <trkpt lat="48.610170" lon="16.730468">
        <ele>234.125894</ele>
        <time>2020-07-04T04:00:12.677Z</time>
      </trkpt>
      <trkpt lat="48.610263" lon="16.730607">
        <ele>234.086586</ele>
        <time>2020-07-04T04:00:14.680Z</time>
      </trkpt>
      <trkpt lat="48.610353" lon="16.730752">
        <ele>234.047053</ele>
        <time>2020-07-04T04:00:16.679Z</time>
      </trkpt>
      <trkpt lat="48.610447" lon="16.730912">
        <ele>234.004507</ele>
        <time>2020-07-04T04:00:18.706Z</time>
      </trkpt>
      <trkpt lat="48.610540" lon="16.731082">
        <ele>233.960648</ele>
        <time>2020-07-04T04:00:20.668Z</time>
      </trkpt>
      <trkpt lat="48.610625" lon="16.731270">
        <ele>233.915377</ele>
        <time>2020-07-04T04:00:22.687Z</time>
      </trkpt>
      <trkpt lat="48.610702" lon="16.731463">
        <ele>233.870570</ele>
        <time>2020-07-04T04:00:24.683Z</time>
      </trkpt>
      <trkpt lat="48.610774" lon="16.731650">
        <ele>233.827556</ele>
        <time>2020-07-04T04:00:26.682Z</time>
      </trkpt>
      <trkpt lat="48.610839" lon="16.731827">
        <ele>233.787310</ele>
        <time>2020-07-04T04:00:28.696Z</time>
      </trkpt>
      <trkpt lat="48.610902" lon="16.731993">
        <ele>233.749264</ele>
        <time>2020-07-04T04:00:30.686Z</time>
      </trkpt>
      <trkpt lat="48.610969" lon="16.732148">
        <ele>233.711761</ele>
        <time>2020-07-04T04:00:32.683Z</time>
      </trkpt>
      <trkpt lat="48.611038" lon="16.732300">
        <ele>233.520120</ele>
        <time>2020-07-04T04:00:34.715Z</time>
      </trkpt>
      <trkpt lat="48.611108" lon="16.732450">
        <ele>233.329288</ele>
        <time>2020-07-04T04:00:36.710Z</time>
      </trkpt>
      <trkpt lat="48.611172" lon="16.732590">
        <ele>233.152377</ele>
        <time>2020-07-04T04:00:38.689Z</time>
      </trkpt>
      <trkpt lat="48.611234" lon="16.732717">
        <ele>232.988290</ele>
        <time>2020-07-04T04:00:41.685Z</time>
      </trkpt>
      <trkpt lat="48.611286" lon="16.732838">
        <ele>232.838292</ele>
        <time>2020-07-04T04:00:45.671Z</time>
      </trkpt>
      <trkpt lat="48.611219" lon="16.732961">
        <ele>232.672647</ele>
        <time>2020-07-04T04:00:49.678Z</time>
      </trkpt>
      <trkpt lat="48.611189" lon="16.733134">
        <ele>232.486751</ele>
        <time>2020-07-04T04:00:52.686Z</time>
      </trkpt>
      <trkpt lat="48.611182" lon="16.733320">
        <ele>232.293111</ele>
        <time>2020-07-04T04:00:55.660Z</time>
      </trkpt>
      <trkpt lat="48.611179" lon="16.733513">
        <ele>232.092454</ele>
        <time>2020-07-04T04:00:58.693Z</time>
      </trkpt>
      <trkpt lat="48.611176" lon="16.733701">
        <ele>231.896992</ele>
        <time>2020-07-04T04:01:01.722Z</time>
      </trkpt>
      <trkpt lat="48.611177" lon="16.733887">
        <ele>231.703659</ele>
        <time>2020-07-04T04:01:04.690Z</time>
      </trkpt>
      <trkpt lat="48.611178" lon="16.734058">
        <ele>231.525917</ele>
        <time>2020-07-04T04:01:07.666Z</time>
      </trkpt>
      <trkpt lat="48.611177" lon="16.734218">
        <ele>231.359607</ele>
        <time>2020-07-04T04:01:10.702Z</time>
      </trkpt>
      <trkpt lat="48.611174" lon="16.734371">
        <ele>231.200510</ele>
        <time>2020-07-04T04:01:13.702Z</time>
      </trkpt>
      <trkpt lat="48.611161" lon="16.734523">
        <ele>231.041207</ele>
        <time>2020-07-04T04:01:16.684Z</time>
      </trkpt>
      <trkpt lat="48.611138" lon="16.734680">
        <ele>230.881232</ele>
        <time>2020-07-04T04:01:19.661Z</time>
      </trkpt>
      <trkpt lat="48.611111" lon="16.734842">
        <ele>230.820875</ele>
        <time>2020-07-04T04:01:22.686Z</time>
      </trkpt>
      <trkpt lat="48.611066" lon="16.734998">
        <ele>230.759386</ele>
        <time>2020-07-04T04:01:25.679Z</time>
      </trkpt>
      <trkpt lat="48.611020" lon="16.735155">
        <ele>230.697346</ele>
        <time>2020-07-04T04:01:28.692Z</time>
      </trkpt>
      <trkpt lat="48.610972" lon="16.735315">
        <ele>230.633870</ele>
        <time>2020-07-04T04:01:31.677Z</time>
      </trkpt>
      <trkpt lat="48.610916" lon="16.735468">
        <ele>230.570691</ele>
        <time>2020-07-04T04:01:34.687Z</time>
      </trkpt>
      <trkpt lat="48.610851" lon="16.735607">
        <ele>230.509182</ele>
        <time>2020-07-04T04:01:37.682Z</time>
      </trkpt>
      <trkpt lat="48.610784" lon="16.735749">
        <ele>230.446158</ele>
        <time>2020-07-04T04:01:40.700Z</time>
      </trkpt>
      <trkpt lat="48.610712" lon="16.735880">
        <ele>230.384614</ele>
        <time>2020-07-04T04:01:43.709Z</time>
      </trkpt>
      <trkpt lat="48.610625" lon="16.736003">
        <ele>230.319541</ele>
        <time>2020-07-04T04:01:46.692Z</time>
      </trkpt>
      <trkpt lat="48.610524" lon="16.736122">
        <ele>230.249583</ele>
        <time>2020-07-04T04:01:49.679Z</time>
      </trkpt>
      <trkpt lat="48.610448" lon="16.736215">
        <ele>230.196165</ele>
        <time>2020-07-04T04:01:51.720Z</time>
      </trkpt>
      <trkpt lat="48.610363" lon="16.736318">
        <ele>230.136652</ele>
        <time>2020-07-04T04:01:53.700Z</time>
      </trkpt>
      <trkpt lat="48.610267" lon="16.736423">
        <ele>230.071916</ele>
        <time>2020-07-04T04:01:55.671Z</time>
      </trkpt>
      <trkpt lat="48.610167" lon="16.736529">
        <ele>230.005191</ele>
        <time>2020-07-04T04:01:57.680Z</time>
      </trkpt>
      <trkpt lat="48.610065" lon="16.736640">
        <ele>229.936528</ele>
        <time>2020-07-04T04:01:59.675Z</time>
      </trkpt>
      <trkpt lat="48.609961" lon="16.736758">
        <ele>229.839834</ele>
        <time>2020-07-04T04:02:01.678Z</time>
      </trkpt>
      <trkpt lat="48.609861" lon="16.736879">
        <ele>229.721010</ele>
        <time>2020-07-04T04:02:03.663Z</time>
      </trkpt>
      <trkpt lat="48.609766" lon="16.737014">
        <ele>229.600062</ele>
        <time>2020-07-04T04:02:05.677Z</time>
      </trkpt>
      <trkpt lat="48.609666" lon="16.737138">
        <ele>229.480080</ele>
        <time>2020-07-04T04:02:07.670Z</time>
      </trkpt>
      <trkpt lat="48.609560" lon="16.737242">
        <ele>229.362847</ele>
        <time>2020-07-04T04:02:09.728Z</time>
      </trkpt>
      <trkpt lat="48.609447" lon="16.737351">
        <ele>229.238492</ele>
        <time>2020-07-04T04:02:11.733Z</time>
      </trkpt>
      <trkpt lat="48.609335" lon="16.737472">
        <ele>229.110784</ele>
        <time>2020-07-04T04:02:13.684Z</time>
      </trkpt>
      <trkpt lat="48.609226" lon="16.737609">
        <ele>228.979285</ele>
        <time>2020-07-04T04:02:15.677Z</time>
      </trkpt>
      <trkpt lat="48.609116" lon="16.737752">
        <ele>228.844700</ele>
        <time>2020-07-04T04:02:17.681Z</time>
      </trkpt>
      <trkpt lat="48.609006" lon="16.737899">
        <ele>228.708504</ele>
        <time>2020-07-04T04:02:19.716Z</time>
      </trkpt>
      <trkpt lat="48.608896" lon="16.738038">
        <ele>228.575506</ele>
        <time>2020-07-04T04:02:21.678Z</time>
      </trkpt>
      <trkpt lat="48.608790" lon="16.738166">
        <ele>228.449651</ele>
        <time>2020-07-04T04:02:23.672Z</time>
      </trkpt>
      <trkpt lat="48.608686" lon="16.738289">
        <ele>228.327155</ele>
        <time>2020-07-04T04:02:25.720Z</time>
      </trkpt>
      <trkpt lat="48.608588" lon="16.738409">
        <ele>228.235440</ele>
        <time>2020-07-04T04:02:27.673Z</time>
      </trkpt>
      <trkpt lat="48.608494" lon="16.738524">
        <ele>228.245377</ele>
        <time>2020-07-04T04:02:29.686Z</time>
      </trkpt>
      <trkpt lat="48.608402" lon="16.738638">
        <ele>228.255152</ele>
        <time>2020-07-04T04:02:31.706Z</time>
      </trkpt>
      <trkpt lat="48.608311" lon="16.738753">
        <ele>228.264898</ele>
        <time>2020-07-04T04:02:33.690Z</time>
      </trkpt>
      <trkpt lat="48.608220" lon="16.738867">
        <ele>228.274610</ele>
        <time>2020-07-04T04:02:35.718Z</time>
      </trkpt>
      <trkpt lat="48.608129" lon="16.738976">
        <ele>228.284150</ele>
        <time>2020-07-04T04:02:37.668Z</time>
      </trkpt>
      <trkpt lat="48.608038" lon="16.739086">
        <ele>228.293725</ele>
        <time>2020-07-04T04:02:39.665Z</time>
      </trkpt>
      <trkpt lat="48.607950" lon="16.739192">
        <ele>228.302971</ele>
        <time>2020-07-04T04:02:41.670Z</time>
      </trkpt>
      <trkpt lat="48.607864" lon="16.739290">
        <ele>228.311821</ele>
        <time>2020-07-04T04:02:43.664Z</time>
      </trkpt>
      <trkpt lat="48.607783" lon="16.739383">
        <ele>228.320179</ele>
        <time>2020-07-04T04:02:45.674Z</time>
      </trkpt>
      <trkpt lat="48.607709" lon="16.739471">
        <ele>228.327916</ele>
        <time>2020-07-04T04:02:47.693Z</time>
      </trkpt>
      <trkpt lat="48.607614" lon="16.739608">
        <ele>228.338705</ele>
        <time>2020-07-04T04:02:50.676Z</time>
      </trkpt>
      <trkpt lat="48.607531" lon="16.739753">
        <ele>228.349127</ele>
        <time>2020-07-04T04:02:53.711Z</time>
      </trkpt>
      <trkpt lat="48.607459" lon="16.739896">
        <ele>228.358895</ele>
        <time>2020-07-04T04:02:56.696Z</time>
      </trkpt>
      <trkpt lat="48.607394" lon="16.740024">
        <ele>228.367665</ele>
        <time>2020-07-04T04:02:59.677Z</time>
      </trkpt>
      <trkpt lat="48.607339" lon="16.740133">
        <ele>228.375117</ele>
        <time>2020-07-04T04:03:02.696Z</time>
      </trkpt>
      <trkpt lat="48.607265" lon="16.740280">
        <ele>228.379560</ele>
        <time>2020-07-04T04:03:06.663Z</time>
      </trkpt>
      <trkpt lat="48.607206" lon="16.740383">
        <ele>228.376465</ele>
        <time>2020-07-04T04:03:09.669Z</time>
      </trkpt>
      <trkpt lat="48.607138" lon="16.740491">
        <ele>228.373078</ele>
        <time>2020-07-04T04:03:12.687Z</time>
      </trkpt>
      <trkpt lat="48.607071" lon="16.740614">
        <ele>228.369459</ele>
        <time>2020-07-04T04:03:15.666Z</time>
      </trkpt>
      <trkpt lat="48.606998" lon="16.740750">
        <ele>228.365481</ele>
        <time>2020-07-04T04:03:18.704Z</time>
      </trkpt>
      <trkpt lat="48.606923" lon="16.740891">
        <ele>228.361371</ele>
        <time>2020-07-04T04:03:21.688Z</time>
      </trkpt>
      <trkpt lat="48.606860" lon="16.741046">
        <ele>228.357239</ele>
        <time>2020-07-04T04:03:24.687Z</time>
      </trkpt>
      <trkpt lat="48.606798" lon="16.741190">
        <ele>228.353337</ele>
        <time>2020-07-04T04:03:27.685Z</time>
      </trkpt>
      <trkpt lat="48.606734" lon="16.741331">
        <ele>228.349453</ele>
        <time>2020-07-04T04:03:30.675Z</time>
      </trkpt>
      <trkpt lat="48.606669" lon="16.741473">
        <ele>228.345531</ele>
        <time>2020-07-04T04:03:33.681Z</time>
      </trkpt>
      <trkpt lat="48.606614" lon="16.741620">
        <ele>228.341695</ele>
        <time>2020-07-04T04:03:36.700Z</time>
      </trkpt>
      <trkpt lat="48.606552" lon="16.741771">
        <ele>228.337658</ele>
        <time>2020-07-04T04:03:39.682Z</time>
      </trkpt>
      <trkpt lat="48.606486" lon="16.741936">
        <ele>228.333279</ele>
        <time>2020-07-04T04:03:42.703Z</time>
      </trkpt>
      <trkpt lat="48.606435" lon="16.742050">
        <ele>228.330153</ele>
        <time>2020-07-04T04:03:44.688Z</time>
      </trkpt>
      <trkpt lat="48.606385" lon="16.742171">
        <ele>228.326913</ele>
        <time>2020-07-04T04:03:46.696Z</time>
      </trkpt>
      <trkpt lat="48.606331" lon="16.742305">
        <ele>228.323349</ele>
        <time>2020-07-04T04:03:48.692Z</time>
      </trkpt>
      <trkpt lat="48.606263" lon="16.742446">
        <ele>228.318218</ele>
        <time>2020-07-04T04:03:50.690Z</time>
      </trkpt>
      <trkpt lat="48.606183" lon="16.742601">
        <ele>228.205884</ele>
        <time>2020-07-04T04:03:52.669Z</time>
      </trkpt>
      <trkpt lat="48.606097" lon="16.742758">
        <ele>228.089410</ele>
        <time>2020-07-04T04:03:54.674Z</time>
      </trkpt>
      <trkpt lat="48.606009" lon="16.742942">
        <ele>227.959676</ele>
        <time>2020-07-04T04:03:56.704Z</time>
      </trkpt>
      <trkpt lat="48.605936" lon="16.743148">
        <ele>227.826152</ele>
        <time>2020-07-04T04:03:58.701Z</time>
      </trkpt>
      <trkpt lat="48.605870" lon="16.743357">
        <ele>227.693831</ele>
        <time>2020-07-04T04:04:00.665Z</time>
      </trkpt>
      <trkpt lat="48.605820" lon="16.743576">
        <ele>227.561467</ele>
        <time>2020-07-04T04:04:02.683Z</time>
      </trkpt>
      <trkpt lat="48.605786" lon="16.743796">
        <ele>227.432392</ele>
        <time>2020-07-04T04:04:04.708Z</time>
      </trkpt>
      <trkpt lat="48.605773" lon="16.743991">
        <ele>227.320423</ele>
        <time>2020-07-04T04:04:06.686Z</time>
      </trkpt>
      <trkpt lat="48.605766" lon="16.744145">
        <ele>227.232234</ele>
        <time>2020-07-04T04:04:08.683Z</time>
      </trkpt>
      <trkpt lat="48.605758" lon="16.744336">
        <ele>227.122896</ele>
        <time>2020-07-04T04:04:11.694Z</time>
      </trkpt>
      <trkpt lat="48.605751" lon="16.744526">
        <ele>227.014179</ele>
        <time>2020-07-04T04:04:14.693Z</time>
      </trkpt>
      <trkpt lat="48.605745" lon="16.744669">
        <ele>226.932318</ele>
        <time>2020-07-04T04:04:16.686Z</time>
      </trkpt>
      <trkpt lat="48.605743" lon="16.744843">
        <ele>226.832895</ele>
        <time>2020-07-04T04:04:18.685Z</time>
      </trkpt>
      <trkpt lat="48.605743" lon="16.745037">
        <ele>226.744895</ele>
        <time>2020-07-04T04:04:20.677Z</time>
      </trkpt>
      <trkpt lat="48.605760" lon="16.745232">
        <ele>226.691714</ele>
        <time>2020-07-04T04:04:22.680Z</time>
      </trkpt>
      <trkpt lat="48.605793" lon="16.745415">
        <ele>226.640427</ele>
        <time>2020-07-04T04:04:24.704Z</time>
      </trkpt>
      <trkpt lat="48.605838" lon="16.745578">
        <ele>226.592668</ele>
        <time>2020-07-04T04:04:26.680Z</time>
      </trkpt>
      <trkpt lat="48.605884" lon="16.745742">
        <ele>226.544501</ele>
        <time>2020-07-04T04:04:28.694Z</time>
      </trkpt>
      <trkpt lat="48.605933" lon="16.745905">
        <ele>226.496089</ele>
        <time>2020-07-04T04:04:30.684Z</time>
      </trkpt>
      <trkpt lat="48.605991" lon="16.746072">
        <ele>226.445086</ele>
        <time>2020-07-04T04:04:32.683Z</time>
      </trkpt>
      <trkpt lat="48.606067" lon="16.746238">
        <ele>226.390494</ele>
        <time>2020-07-04T04:04:34.696Z</time>
      </trkpt>
      <trkpt lat="48.606149" lon="16.746399">
        <ele>226.335547</ele>
        <time>2020-07-04T04:04:36.711Z</time>
      </trkpt>
      <trkpt lat="48.606239" lon="16.746545">
        <ele>226.281578</ele>
        <time>2020-07-04T04:04:38.707Z</time>
      </trkpt>
      <trkpt lat="48.606334" lon="16.746683">
        <ele>226.227715</ele>
        <time>2020-07-04T04:04:40.679Z</time>
      </trkpt>
      <trkpt lat="48.606436" lon="16.746803">
        <ele>226.174873</ele>
        <time>2020-07-04T04:04:42.690Z</time>
      </trkpt>
      <trkpt lat="48.606538" lon="16.746913">
        <ele>226.123647</ele>
        <time>2020-07-04T04:04:44.685Z</time>
      </trkpt>
      <trkpt lat="48.606643" lon="16.747008">
        <ele>226.073615</ele>
        <time>2020-07-04T04:04:46.691Z</time>
      </trkpt>
      <trkpt lat="48.606752" lon="16.747098">
        <ele>226.046216</ele>
        <time>2020-07-04T04:04:48.700Z</time>
      </trkpt>
      <trkpt lat="48.606865" lon="16.747189">
        <ele>226.166125</ele>
        <time>2020-07-04T04:04:50.674Z</time>
      </trkpt>
      <trkpt lat="48.606984" lon="16.747262">
        <ele>226.286404</ele>
        <time>2020-07-04T04:04:52.711Z</time>
      </trkpt>
      <trkpt lat="48.607103" lon="16.747314">
        <ele>226.402422</ele>
        <time>2020-07-04T04:04:54.688Z</time>
      </trkpt>
      <trkpt lat="48.607221" lon="16.747360">
        <ele>226.516557</ele>
        <time>2020-07-04T04:04:56.686Z</time>
      </trkpt>
      <trkpt lat="48.607341" lon="16.747393">
        <ele>226.630795</ele>
        <time>2020-07-04T04:04:58.702Z</time>
      </trkpt>
      <trkpt lat="48.607460" lon="16.747415">
        <ele>226.743084</ele>
        <time>2020-07-04T04:05:00.670Z</time>
      </trkpt>
      <trkpt lat="48.607576" lon="16.747432">
        <ele>226.852242</ele>
        <time>2020-07-04T04:05:02.699Z</time>
      </trkpt>
      <trkpt lat="48.607691" lon="16.747456">
        <ele>226.960975</ele>
        <time>2020-07-04T04:05:04.683Z</time>
      </trkpt>
      <trkpt lat="48.607803" lon="16.747476">
        <ele>227.066606</ele>
        <time>2020-07-04T04:05:06.670Z</time>
      </trkpt>
      <trkpt lat="48.607911" lon="16.747495">
        <ele>227.168444</ele>
        <time>2020-07-04T04:05:08.727Z</time>
      </trkpt>
      <trkpt lat="48.608013" lon="16.747512">
        <ele>227.264558</ele>
        <time>2020-07-04T04:05:10.682Z</time>
      </trkpt>
      <trkpt lat="48.608116" lon="16.747529">
        <ele>227.361604</ele>
        <time>2020-07-04T04:05:12.693Z</time>
      </trkpt>
      <trkpt lat="48.608216" lon="16.747548">
        <ele>227.456003</ele>
        <time>2020-07-04T04:05:14.681Z</time>
      </trkpt>
      <trkpt lat="48.608315" lon="16.747569">
        <ele>227.549637</ele>
        <time>2020-07-04T04:05:16.692Z</time>
      </trkpt>
      <trkpt lat="48.608412" lon="16.747584">
        <ele>227.640964</ele>
        <time>2020-07-04T04:05:18.724Z</time>
      </trkpt>
      <trkpt lat="48.608510" lon="16.747600">
        <ele>227.714804</ele>
        <time>2020-07-04T04:05:20.691Z</time>
      </trkpt>
      <trkpt lat="48.608613" lon="16.747620">
        <ele>227.715856</ele>
        <time>2020-07-04T04:05:22.700Z</time>
      </trkpt>
      <trkpt lat="48.608719" lon="16.747645">
        <ele>227.716943</ele>
        <time>2020-07-04T04:05:24.714Z</time>
      </trkpt>
      <trkpt lat="48.608829" lon="16.747667">
        <ele>227.718067</ele>
        <time>2020-07-04T04:05:26.682Z</time>
      </trkpt>
      <trkpt lat="48.608943" lon="16.747687">
        <ele>227.719230</ele>
        <time>2020-07-04T04:05:28.690Z</time>
      </trkpt>
      <trkpt lat="48.609059" lon="16.747708">
        <ele>227.720413</ele>
        <time>2020-07-04T04:05:30.670Z</time>
      </trkpt>
      <trkpt lat="48.609178" lon="16.747728">
        <ele>227.721626</ele>
        <time>2020-07-04T04:05:32.663Z</time>
      </trkpt>
      <trkpt lat="48.609300" lon="16.747764">
        <ele>227.722885</ele>
        <time>2020-07-04T04:05:34.718Z</time>
      </trkpt>
      <trkpt lat="48.609419" lon="16.747809">
        <ele>227.724128</ele>
        <time>2020-07-04T04:05:36.668Z</time>
      </trkpt>
      <trkpt lat="48.609535" lon="16.747856">
        <ele>227.725344</ele>
        <time>2020-07-04T04:05:38.678Z</time>
      </trkpt>
      <trkpt lat="48.609648" lon="16.747902">
        <ele>227.726530</ele>
        <time>2020-07-04T04:05:40.683Z</time>
      </trkpt>
      <trkpt lat="48.609759" lon="16.747957">
        <ele>227.727713</ele>
        <time>2020-07-04T04:05:42.676Z</time>
      </trkpt>
      <trkpt lat="48.609867" lon="16.748013">
        <ele>227.728870</ele>
        <time>2020-07-04T04:05:44.695Z</time>
      </trkpt>
      <trkpt lat="48.609974" lon="16.748064">
        <ele>227.730006</ele>
        <time>2020-07-04T04:05:46.684Z</time>
      </trkpt>
      <trkpt lat="48.610077" lon="16.748117">
        <ele>227.731108</ele>
        <time>2020-07-04T04:05:48.686Z</time>
      </trkpt>
      <trkpt lat="48.610182" lon="16.748179">
        <ele>227.732250</ele>
        <time>2020-07-04T04:05:50.718Z</time>
      </trkpt>
      <trkpt lat="48.610296" lon="16.748243">
        <ele>227.708936</ele>
        <time>2020-07-04T04:05:52.700Z</time>
      </trkpt>
      <trkpt lat="48.610418" lon="16.748320">
        <ele>227.660408</ele>
        <time>2020-07-04T04:05:54.664Z</time>
      </trkpt>
      <trkpt lat="48.610546" lon="16.748397">
        <ele>227.609840</ele>
        <time>2020-07-04T04:05:56.709Z</time>
      </trkpt>
      <trkpt lat="48.610673" lon="16.748481">
        <ele>227.558957</ele>
        <time>2020-07-04T04:05:58.728Z</time>
      </trkpt>
      <trkpt lat="48.610806" lon="16.748518">
        <ele>227.509314</ele>
        <time>2020-07-04T04:06:00.683Z</time>
      </trkpt>
      <trkpt lat="48.610928" lon="16.748448">
        <ele>227.461415</ele>
        <time>2020-07-04T04:06:02.677Z</time>
      </trkpt>
      <trkpt lat="48.611015" lon="16.748313">
        <ele>227.415659</ele>
        <time>2020-07-04T04:06:04.667Z</time>
      </trkpt>
      <trkpt lat="48.611106" lon="16.748187">
        <ele>227.370370</ele>
        <time>2020-07-04T04:06:06.709Z</time>
      </trkpt>
      <trkpt lat="48.611225" lon="16.748111">
        <ele>227.322951</ele>
        <time>2020-07-04T04:06:08.663Z</time>
      </trkpt>
      <trkpt lat="48.611357" lon="16.748119">
        <ele>227.274456</ele>
        <time>2020-07-04T04:06:10.667Z</time>
      </trkpt>
      <trkpt lat="48.611472" lon="16.748185">
        <ele>227.229304</ele>
        <time>2020-07-04T04:06:12.672Z</time>
      </trkpt>
      <trkpt lat="48.611581" lon="16.748246">
        <ele>227.186640</ele>
        <time>2020-07-04T04:06:14.713Z</time>
      </trkpt>
      <trkpt lat="48.611687" lon="16.748310">
        <ele>227.144742</ele>
        <time>2020-07-04T04:06:16.688Z</time>
      </trkpt>
      <trkpt lat="48.611789" lon="16.748375">
        <ele>227.104111</ele>
        <time>2020-07-04T04:06:18.681Z</time>
      </trkpt>
      <trkpt lat="48.611888" lon="16.748438">
        <ele>227.064752</ele>
        <time>2020-07-04T04:06:20.688Z</time>
      </trkpt>
      <trkpt lat="48.611987" lon="16.748497">
        <ele>227.026031</ele>
        <time>2020-07-04T04:06:22.680Z</time>
      </trkpt>
      <trkpt lat="48.612086" lon="16.748555">
        <ele>226.987396</ele>
        <time>2020-07-04T04:06:24.685Z</time>
      </trkpt>
      <trkpt lat="48.612185" lon="16.748611">
        <ele>226.948934</ele>
        <time>2020-07-04T04:06:26.687Z</time>
      </trkpt>
      <trkpt lat="48.612289" lon="16.748668">
        <ele>226.908680</ele>
        <time>2020-07-04T04:06:28.686Z</time>
      </trkpt>
      <trkpt lat="48.612395" lon="16.748725">
        <ele>226.867742</ele>
        <time>2020-07-04T04:06:30.707Z</time>
      </trkpt>
      <trkpt lat="48.612501" lon="16.748778">
        <ele>226.827116</ele>
        <time>2020-07-04T04:06:32.673Z</time>
      </trkpt>
      <trkpt lat="48.612609" lon="16.748831">
        <ele>226.785798</ele>
        <time>2020-07-04T04:06:34.691Z</time>
      </trkpt>
      <trkpt lat="48.612714" lon="16.748887">
        <ele>226.745283</ele>
        <time>2020-07-04T04:06:36.685Z</time>
      </trkpt>
      <trkpt lat="48.612815" lon="16.748946">
        <ele>226.705883</ele>
        <time>2020-07-04T04:06:38.686Z</time>
      </trkpt>
      <trkpt lat="48.612917" lon="16.748996">
        <ele>226.666865</ele>
        <time>2020-07-04T04:06:40.701Z</time>
      </trkpt>
      <trkpt lat="48.613015" lon="16.749049">
        <ele>226.628992</ele>
        <time>2020-07-04T04:06:42.684Z</time>
      </trkpt>
      <trkpt lat="48.613114" lon="16.749108">
        <ele>226.590270</ele>
        <time>2020-07-04T04:06:44.694Z</time>
      </trkpt>
      <trkpt lat="48.613217" lon="16.749165">
        <ele>226.550359</ele>
        <time>2020-07-04T04:06:46.683Z</time>
      </trkpt>
      <trkpt lat="48.613322" lon="16.749219">
        <ele>226.510001</ele>
        <time>2020-07-04T04:06:48.686Z</time>
      </trkpt>
      <trkpt lat="48.613429" lon="16.749286">
        <ele>226.467859</ele>
        <time>2020-07-04T04:06:50.681Z</time>
      </trkpt>
      <trkpt lat="48.613537" lon="16.749358">
        <ele>226.424910</ele>
        <time>2020-07-04T04:06:52.684Z</time>
      </trkpt>
      <trkpt lat="48.613642" lon="16.749431">
        <ele>226.392188</ele>
        <time>2020-07-04T04:06:54.686Z</time>
      </trkpt>
      <trkpt lat="48.613743" lon="16.749504">
        <ele>226.362257</ele>
        <time>2020-07-04T04:06:56.708Z</time>
      </trkpt>
      <trkpt lat="48.613843" lon="16.749580">
        <ele>226.332333</ele>
        <time>2020-07-04T04:06:58.709Z</time>
      </trkpt>
      <trkpt lat="48.613945" lon="16.749661">
        <ele>226.301530</ele>
        <time>2020-07-04T04:07:00.683Z</time>
      </trkpt>
      <trkpt lat="48.614039" lon="16.749753">
        <ele>226.271593</ele>
        <time>2020-07-04T04:07:02.697Z</time>
      </trkpt>
      <trkpt lat="48.614138" lon="16.749826">
        <ele>226.242144</ele>
        <time>2020-07-04T04:07:04.686Z</time>
      </trkpt>
      <trkpt lat="48.614233" lon="16.749907">
        <ele>226.212985</ele>
        <time>2020-07-04T04:07:06.662Z</time>
      </trkpt>
      <trkpt lat="48.614323" lon="16.749991">
        <ele>226.184708</ele>
        <time>2020-07-04T04:07:08.684Z</time>
      </trkpt>
      <trkpt lat="48.614416" lon="16.750058">
        <ele>226.157165</ele>
        <time>2020-07-04T04:07:10.667Z</time>
      </trkpt>
      <trkpt lat="48.614514" lon="16.750112">
        <ele>226.129277</ele>
        <time>2020-07-04T04:07:12.698Z</time>
      </trkpt>
      <trkpt lat="48.614608" lon="16.750176">
        <ele>226.101714</ele>
        <time>2020-07-04T04:07:14.696Z</time>
      </trkpt>
      <trkpt lat="48.614707" lon="16.750238">
        <ele>226.073064</ele>
        <time>2020-07-04T04:07:16.715Z</time>
      </trkpt>
      <trkpt lat="48.614812" lon="16.750284">
        <ele>226.043835</ele>
        <time>2020-07-04T04:07:18.682Z</time>
      </trkpt>
      <trkpt lat="48.614917" lon="16.750336">
        <ele>226.014293</ele>
        <time>2020-07-04T04:07:20.686Z</time>
      </trkpt>
      <trkpt lat="48.615027" lon="16.750395">
        <ele>225.983087</ele>
        <time>2020-07-04T04:07:22.705Z</time>
      </trkpt>
      <trkpt lat="48.615139" lon="16.750464">
        <ele>225.950751</ele>
        <time>2020-07-04T04:07:24.684Z</time>
      </trkpt>
      <trkpt lat="48.615258" lon="16.750540">
        <ele>225.879713</ele>
        <time>2020-07-04T04:07:26.696Z</time>
      </trkpt>
      <trkpt lat="48.615377" lon="16.750625">
        <ele>225.783059</ele>
        <time>2020-07-04T04:07:28.679Z</time>
      </trkpt>
      <trkpt lat="48.615477" lon="16.750734">
        <ele>225.692532</ele>
        <time>2020-07-04T04:07:30.681Z</time>
      </trkpt>
      <trkpt lat="48.615565" lon="16.750855">
        <ele>225.605188</ele>
        <time>2020-07-04T04:07:32.670Z</time>
      </trkpt>
      <trkpt lat="48.615650" lon="16.750972">
        <ele>225.520781</ele>
        <time>2020-07-04T04:07:34.674Z</time>
      </trkpt>
      <trkpt lat="48.615730" lon="16.751090">
        <ele>225.438715</ele>
        <time>2020-07-04T04:07:36.668Z</time>
      </trkpt>
      <trkpt lat="48.615794" lon="16.751216">
        <ele>225.361564</ele>
        <time>2020-07-04T04:07:38.674Z</time>
      </trkpt>
      <trkpt lat="48.615858" lon="16.751342">
        <ele>225.284412</ele>
        <time>2020-07-04T04:07:40.680Z</time>
      </trkpt>
      <trkpt lat="48.615917" lon="16.751471">
        <ele>225.208249</ele>
        <time>2020-07-04T04:07:42.671Z</time>
      </trkpt>
      <trkpt lat="48.615970" lon="16.751612">
        <ele>225.129495</ele>
        <time>2020-07-04T04:07:44.705Z</time>
      </trkpt>
      <trkpt lat="48.616019" lon="16.751762">
        <ele>225.048257</ele>
        <time>2020-07-04T04:07:46.661Z</time>
      </trkpt>
      <trkpt lat="48.616067" lon="16.751917">
        <ele>224.965150</ele>
        <time>2020-07-04T04:07:48.677Z</time>
      </trkpt>
      <trkpt lat="48.616116" lon="16.752067">
        <ele>224.883912</ele>
        <time>2020-07-04T04:07:50.691Z</time>
      </trkpt>
      <trkpt lat="48.616170" lon="16.752214">
        <ele>224.802258</ele>
        <time>2020-07-04T04:07:52.672Z</time>
      </trkpt>
      <trkpt lat="48.616219" lon="16.752358">
        <ele>224.723622</ele>
        <time>2020-07-04T04:07:54.695Z</time>
      </trkpt>
      <trkpt lat="48.616265" lon="16.752505">
        <ele>224.644655</ele>
        <time>2020-07-04T04:07:56.674Z</time>
      </trkpt>
      <trkpt lat="48.616312" lon="16.752650">
        <ele>224.602714</ele>
        <time>2020-07-04T04:07:58.698Z</time>
      </trkpt>
      <trkpt lat="48.616355" lon="16.752807">
        <ele>224.580561</ele>
        <time>2020-07-04T04:08:00.688Z</time>
      </trkpt>
      <trkpt lat="48.616391" lon="16.752971">
        <ele>224.558036</ele>
        <time>2020-07-04T04:08:02.679Z</time>
      </trkpt>
      <trkpt lat="48.616430" lon="16.753129">
        <ele>224.536051</ele>
        <time>2020-07-04T04:08:04.681Z</time>
      </trkpt>
      <trkpt lat="48.616473" lon="16.753287">
        <ele>224.513778</ele>
        <time>2020-07-04T04:08:06.666Z</time>
      </trkpt>
      <trkpt lat="48.616514" lon="16.753451">
        <ele>224.490922</ele>
        <time>2020-07-04T04:08:08.711Z</time>
      </trkpt>
      <trkpt lat="48.616554" lon="16.753620">
        <ele>224.467523</ele>
        <time>2020-07-04T04:08:10.681Z</time>
      </trkpt>
      <trkpt lat="48.616595" lon="16.753787">
        <ele>224.444301</ele>
        <time>2020-07-04T04:08:12.671Z</time>
      </trkpt>
      <trkpt lat="48.616626" lon="16.753960">
        <ele>224.420937</ele>
        <time>2020-07-04T04:08:14.686Z</time>
      </trkpt>
      <trkpt lat="48.616658" lon="16.754129">
        <ele>224.398021</ele>
        <time>2020-07-04T04:08:16.671Z</time>
      </trkpt>
      <trkpt lat="48.616693" lon="16.754293">
        <ele>224.375557</ele>
        <time>2020-07-04T04:08:18.694Z</time>
      </trkpt>
      <trkpt lat="48.616736" lon="16.754452">
        <ele>224.353163</ele>
        <time>2020-07-04T04:08:20.671Z</time>
      </trkpt>
      <trkpt lat="48.616778" lon="16.754606">
        <ele>224.331448</ele>
        <time>2020-07-04T04:08:22.670Z</time>
      </trkpt>
      <trkpt lat="48.616801" lon="16.754757">
        <ele>224.311249</ele>
        <time>2020-07-04T04:08:24.682Z</time>
      </trkpt>
      <trkpt lat="48.616745" lon="16.754870">
        <ele>224.292840</ele>
        <time>2020-07-04T04:08:26.684Z</time>
      </trkpt>
      <trkpt lat="48.616663" lon="16.754930">
        <ele>224.274879</ele>
        <time>2020-07-04T04:08:28.689Z</time>
      </trkpt>
      <trkpt lat="48.616570" lon="16.755008">
        <ele>224.244885</ele>
        <time>2020-07-04T04:08:30.685Z</time>
      </trkpt>
      <trkpt lat="48.616472" lon="16.755080">
        <ele>224.197664</ele>
        <time>2020-07-04T04:08:32.680Z</time>
      </trkpt>
      <trkpt lat="48.616369" lon="16.755154">
        <ele>224.148241</ele>
        <time>2020-07-04T04:08:34.676Z</time>
      </trkpt>
      <trkpt lat="48.616269" lon="16.755232">
        <ele>224.099475</ele>
        <time>2020-07-04T04:08:36.685Z</time>
      </trkpt>
      <trkpt lat="48.616171" lon="16.755312">
        <ele>224.051209</ele>
        <time>2020-07-04T04:08:38.687Z</time>
      </trkpt>
      <trkpt lat="48.616068" lon="16.755391">
        <ele>224.001155</ele>
        <time>2020-07-04T04:08:40.671Z</time>
      </trkpt>
      <trkpt lat="48.615974" lon="16.755475">
        <ele>223.953834</ele>
        <time>2020-07-04T04:08:42.672Z</time>
      </trkpt>
      <trkpt lat="48.615873" lon="16.755565">
        <ele>223.903026</ele>
        <time>2020-07-04T04:08:44.678Z</time>
      </trkpt>
      <trkpt lat="48.615775" lon="16.755652">
        <ele>223.853775</ele>
        <time>2020-07-04T04:08:46.704Z</time>
      </trkpt>
      <trkpt lat="48.615676" lon="16.755730">
        <ele>223.805394</ele>
        <time>2020-07-04T04:08:48.723Z</time>
      </trkpt>
      <trkpt lat="48.615583" lon="16.755810">
        <ele>223.759023</ele>
        <time>2020-07-04T04:08:50.682Z</time>
      </trkpt>
      <trkpt lat="48.615483" lon="16.755889">
        <ele>223.710125</ele>
        <time>2020-07-04T04:08:52.693Z</time>
      </trkpt>
      <trkpt lat="48.615384" lon="16.755976">
        <ele>223.660500</ele>
        <time>2020-07-04T04:08:54.684Z</time>
      </trkpt>
      <trkpt lat="48.615284" lon="16.756057">
        <ele>223.611334</ele>
        <time>2020-07-04T04:08:56.708Z</time>
      </trkpt>
      <trkpt lat="48.615187" lon="16.756137">
        <ele>223.563448</ele>
        <time>2020-07-04T04:08:58.671Z</time>
      </trkpt>
      <trkpt lat="48.615085" lon="16.756218">
        <ele>223.513516</ele>
        <time>2020-07-04T04:09:00.686Z</time>
      </trkpt>
      <trkpt lat="48.614986" lon="16.756300">
        <ele>223.481272</ele>
        <time>2020-07-04T04:09:02.692Z</time>
      </trkpt>
      <trkpt lat="48.614888" lon="16.756384">
        <ele>223.479598</ele>
        <time>2020-07-04T04:09:04.685Z</time>
      </trkpt>
      <trkpt lat="48.614792" lon="16.756472">
        <ele>223.477930</ele>
        <time>2020-07-04T04:09:06.666Z</time>
      </trkpt>
      <trkpt lat="48.614698" lon="16.756554">
        <ele>223.476318</ele>
        <time>2020-07-04T04:09:08.664Z</time>
      </trkpt>
      <trkpt lat="48.614557" lon="16.756696">
        <ele>223.473801</ele>
        <time>2020-07-04T04:10:08.673Z</time>
      </trkpt>
      <trkpt lat="48.614474" lon="16.756759">
        <ele>223.472422</ele>
        <time>2020-07-04T04:10:11.664Z</time>
      </trkpt>
      <trkpt lat="48.614374" lon="16.756836">
        <ele>223.470755</ele>
        <time>2020-07-04T04:10:14.662Z</time>
      </trkpt>
      <trkpt lat="48.614265" lon="16.756933">
        <ele>223.468876</ele>
        <time>2020-07-04T04:10:17.663Z</time>
      </trkpt>
      <trkpt lat="48.614153" lon="16.757027">
        <ele>223.466973</ele>
        <time>2020-07-04T04:10:20.660Z</time>
      </trkpt>
      <trkpt lat="48.614074" lon="16.757091">
        <ele>223.465641</ele>
        <time>2020-07-04T04:10:22.666Z</time>
      </trkpt>
      <trkpt lat="48.613988" lon="16.757159">
        <ele>223.464199</ele>
        <time>2020-07-04T04:10:24.694Z</time>
      </trkpt>
      <trkpt lat="48.613901" lon="16.757235">
        <ele>223.462707</ele>
        <time>2020-07-04T04:10:26.660Z</time>
      </trkpt>
      <trkpt lat="48.613815" lon="16.757310">
        <ele>223.461232</ele>
        <time>2020-07-04T04:10:28.668Z</time>
      </trkpt>
      <trkpt lat="48.613722" lon="16.757384">
        <ele>223.459671</ele>
        <time>2020-07-04T04:10:30.668Z</time>
      </trkpt>
      <trkpt lat="48.613630" lon="16.757457">
        <ele>223.458127</ele>
        <time>2020-07-04T04:10:32.662Z</time>
      </trkpt>
      <trkpt lat="48.613539" lon="16.757533">
        <ele>223.456583</ele>
        <time>2020-07-04T04:10:34.673Z</time>
      </trkpt>
      <trkpt lat="48.613450" lon="16.757616">
        <ele>223.455292</ele>
        <time>2020-07-04T04:10:36.699Z</time>
      </trkpt>
      <trkpt lat="48.613363" lon="16.757696">
        <ele>223.457341</ele>
        <time>2020-07-04T04:10:38.665Z</time>
      </trkpt>
      <trkpt lat="48.613277" lon="16.757770">
        <ele>223.459332</ele>
        <time>2020-07-04T04:10:40.661Z</time>
      </trkpt>
      <trkpt lat="48.613193" lon="16.757841">
        <ele>223.461268</ele>
        <time>2020-07-04T04:10:42.659Z</time>
      </trkpt>
      <trkpt lat="48.613109" lon="16.757907">
        <ele>223.463173</ele>
        <time>2020-07-04T04:10:44.668Z</time>
      </trkpt>
      <trkpt lat="48.613018" lon="16.757944">
        <ele>223.465070</ele>
        <time>2020-07-04T04:10:46.671Z</time>
      </trkpt>
      <trkpt lat="48.612919" lon="16.757895">
        <ele>223.467166</ele>
        <time>2020-07-04T04:10:48.695Z</time>
      </trkpt>
      <trkpt lat="48.612865" lon="16.757770">
        <ele>223.469152</ele>
        <time>2020-07-04T04:10:50.667Z</time>
      </trkpt>
      <trkpt lat="48.612825" lon="16.757646">
        <ele>223.470988</ele>
        <time>2020-07-04T04:10:52.666Z</time>
      </trkpt>
      <trkpt lat="48.612785" lon="16.757519">
        <ele>223.472860</ele>
        <time>2020-07-04T04:10:54.668Z</time>
      </trkpt>
      <trkpt lat="48.612742" lon="16.757391">
        <ele>223.474770</ele>
        <time>2020-07-04T04:10:56.668Z</time>
      </trkpt>
      <trkpt lat="48.612694" lon="16.757263">
        <ele>223.476728</ele>
        <time>2020-07-04T04:10:58.666Z</time>
      </trkpt>
      <trkpt lat="48.612641" lon="16.757134">
        <ele>223.478749</ele>
        <time>2020-07-04T04:11:00.691Z</time>
      </trkpt>
      <trkpt lat="48.612587" lon="16.756997">
        <ele>223.480871</ele>
        <time>2020-07-04T04:11:02.687Z</time>
      </trkpt>
      <trkpt lat="48.612536" lon="16.756852">
        <ele>223.483056</ele>
        <time>2020-07-04T04:11:04.665Z</time>
      </trkpt>
      <trkpt lat="48.612485" lon="16.756708">
        <ele>223.485230</ele>
        <time>2020-07-04T04:11:06.660Z</time>
      </trkpt>
      <trkpt lat="48.612431" lon="16.756565">
        <ele>223.487421</ele>
        <time>2020-07-04T04:11:08.660Z</time>
      </trkpt>
      <trkpt lat="48.612375" lon="16.756425">
        <ele>223.489598</ele>
        <time>2020-07-04T04:11:10.683Z</time>
      </trkpt>
      <trkpt lat="48.612322" lon="16.756290">
        <ele>223.490304</ele>
        <time>2020-07-04T04:11:12.680Z</time>
      </trkpt>
      <trkpt lat="48.612269" lon="16.756154">
        <ele>223.484104</ele>
        <time>2020-07-04T04:11:14.667Z</time>
      </trkpt>
      <trkpt lat="48.612219" lon="16.756016">
        <ele>223.477924</ele>
        <time>2020-07-04T04:11:16.666Z</time>
      </trkpt>
      <trkpt lat="48.612173" lon="16.755884">
        <ele>223.472064</ele>
        <time>2020-07-04T04:11:18.663Z</time>
      </trkpt>
      <trkpt lat="48.612120" lon="16.755762">
        <ele>223.466331</ele>
        <time>2020-07-04T04:11:20.673Z</time>
      </trkpt>
      <trkpt lat="48.612068" lon="16.755644">
        <ele>223.460761</ele>
        <time>2020-07-04T04:11:22.666Z</time>
      </trkpt>
      <trkpt lat="48.611973" lon="16.755536">
        <ele>223.453702</ele>
        <time>2020-07-04T04:11:25.690Z</time>
      </trkpt>
      <trkpt lat="48.611877" lon="16.755612">
        <ele>223.447265</ele>
        <time>2020-07-04T04:11:28.664Z</time>
      </trkpt>
      <trkpt lat="48.611786" lon="16.755768">
        <ele>223.439095</ele>
        <time>2020-07-04T04:11:31.667Z</time>
      </trkpt>
      <trkpt lat="48.611730" lon="16.755895">
        <ele>223.433100</ele>
        <time>2020-07-04T04:11:33.656Z</time>
      </trkpt>
      <trkpt lat="48.611678" lon="16.756029">
        <ele>223.426998</ele>
        <time>2020-07-04T04:11:35.662Z</time>
      </trkpt>
      <trkpt lat="48.611624" lon="16.756167">
        <ele>223.420700</ele>
        <time>2020-07-04T04:11:37.659Z</time>
      </trkpt>
      <trkpt lat="48.611571" lon="16.756301">
        <ele>223.414568</ele>
        <time>2020-07-04T04:11:39.677Z</time>
      </trkpt>
      <trkpt lat="48.611517" lon="16.756431">
        <ele>223.408538</ele>
        <time>2020-07-04T04:11:41.663Z</time>
      </trkpt>
      <trkpt lat="48.611451" lon="16.756548">
        <ele>223.402498</ele>
        <time>2020-07-04T04:11:43.672Z</time>
      </trkpt>
      <trkpt lat="48.611377" lon="16.756658">
        <ele>223.396335</ele>
        <time>2020-07-04T04:11:45.670Z</time>
      </trkpt>
      <trkpt lat="48.611271" lon="16.756730">
        <ele>223.389432</ele>
        <time>2020-07-04T04:11:47.661Z</time>
      </trkpt>
      <trkpt lat="48.611162" lon="16.756785">
        <ele>223.379321</ele>
        <time>2020-07-04T04:11:49.664Z</time>
      </trkpt>
      <trkpt lat="48.611055" lon="16.756839">
        <ele>223.360964</ele>
        <time>2020-07-04T04:11:51.664Z</time>
      </trkpt>
      <trkpt lat="48.610950" lon="16.756895">
        <ele>223.342846</ele>
        <time>2020-07-04T04:11:53.669Z</time>
      </trkpt>
      <trkpt lat="48.610848" lon="16.756948">
        <ele>223.325295</ele>
        <time>2020-07-04T04:11:55.698Z</time>
      </trkpt>
      <trkpt lat="48.610741" lon="16.756999">
        <ele>223.307038</ele>
        <time>2020-07-04T04:11:57.677Z</time>
      </trkpt>
      <trkpt lat="48.610643" lon="16.757050">
        <ele>223.290173</ele>
        <time>2020-07-04T04:11:59.681Z</time>
      </trkpt>
      <trkpt lat="48.610547" lon="16.757118">
        <ele>223.272922</ele>
        <time>2020-07-04T04:12:01.683Z</time>
      </trkpt>
      <trkpt lat="48.610450" lon="16.757184">
        <ele>223.255613</ele>
        <time>2020-07-04T04:12:03.691Z</time>
      </trkpt>
      <trkpt lat="48.610350" lon="16.757239">
        <ele>223.238297</ele>
        <time>2020-07-04T04:12:05.670Z</time>
      </trkpt>
      <trkpt lat="48.610255" lon="16.757304">
        <ele>223.221329</ele>
        <time>2020-07-04T04:12:07.661Z</time>
      </trkpt>
      <trkpt lat="48.610151" lon="16.757366">
        <ele>223.203137</ele>
        <time>2020-07-04T04:12:09.658Z</time>
      </trkpt>
      <trkpt lat="48.610041" lon="16.757412">
        <ele>223.184565</ele>
        <time>2020-07-04T04:12:11.659Z</time>
      </trkpt>
      <trkpt lat="48.609926" lon="16.757449">
        <ele>223.165431</ele>
        <time>2020-07-04T04:12:13.660Z</time>
      </trkpt>
      <trkpt lat="48.609813" lon="16.757471">
        <ele>223.146891</ele>
        <time>2020-07-04T04:12:15.659Z</time>
      </trkpt>
      <trkpt lat="48.609703" lon="16.757474">
        <ele>223.128987</ele>
        <time>2020-07-04T04:12:17.661Z</time>
      </trkpt>
      <trkpt lat="48.609594" lon="16.757459">
        <ele>223.111176</ele>
        <time>2020-07-04T04:12:19.657Z</time>
      </trkpt>
      <trkpt lat="48.609468" lon="16.757535">
        <ele>223.089971</ele>
        <time>2020-07-04T04:12:22.659Z</time>
      </trkpt>
      <trkpt lat="48.609354" lon="16.757548">
        <ele>223.077372</ele>
        <time>2020-07-04T04:12:24.663Z</time>
      </trkpt>
      <trkpt lat="48.609228" lon="16.757584">
        <ele>223.063241</ele>
        <time>2020-07-04T04:12:26.660Z</time>
      </trkpt>
      <trkpt lat="48.609104" lon="16.757624">
        <ele>223.049269</ele>
        <time>2020-07-04T04:12:28.677Z</time>
      </trkpt>
      <trkpt lat="48.608987" lon="16.757661">
        <ele>223.036097</ele>
        <time>2020-07-04T04:12:30.683Z</time>
      </trkpt>
      <trkpt lat="48.608872" lon="16.757693">
        <ele>223.023212</ele>
        <time>2020-07-04T04:12:32.658Z</time>
      </trkpt>
      <trkpt lat="48.608767" lon="16.757715">
        <ele>223.011530</ele>
        <time>2020-07-04T04:12:34.658Z</time>
      </trkpt>
      <trkpt lat="48.608663" lon="16.757727">
        <ele>223.000036</ele>
        <time>2020-07-04T04:12:36.661Z</time>
      </trkpt>
      <trkpt lat="48.608561" lon="16.757746">
        <ele>222.988711</ele>
        <time>2020-07-04T04:12:38.667Z</time>
      </trkpt>
      <trkpt lat="48.608464" lon="16.757773">
        <ele>222.977842</ele>
        <time>2020-07-04T04:12:40.672Z</time>
      </trkpt>
      <trkpt lat="48.608363" lon="16.757822">
        <ele>222.966153</ele>
        <time>2020-07-04T04:12:42.707Z</time>
      </trkpt>
      <trkpt lat="48.608264" lon="16.757878">
        <ele>222.954506</ele>
        <time>2020-07-04T04:12:44.692Z</time>
      </trkpt>
      <trkpt lat="48.608167" lon="16.757936">
        <ele>222.943011</ele>
        <time>2020-07-04T04:12:46.672Z</time>
      </trkpt>
      <trkpt lat="48.608066" lon="16.757993">
        <ele>222.931131</ele>
        <time>2020-07-04T04:12:48.688Z</time>
      </trkpt>
      <trkpt lat="48.607964" lon="16.758061">
        <ele>222.918848</ele>
        <time>2020-07-04T04:12:50.680Z</time>
      </trkpt>
      <trkpt lat="48.607871" lon="16.758111">
        <ele>222.907971</ele>
        <time>2020-07-04T04:12:52.685Z</time>
      </trkpt>
      <trkpt lat="48.607784" lon="16.758149">
        <ele>222.897992</ele>
        <time>2020-07-04T04:12:54.679Z</time>
      </trkpt>
      <trkpt lat="48.607686" lon="16.758226">
        <ele>222.900015</ele>
        <time>2020-07-04T04:12:56.681Z</time>
      </trkpt>
      <trkpt lat="48.607578" lon="16.758317">
        <ele>222.911295</ele>
        <time>2020-07-04T04:12:58.673Z</time>
      </trkpt>
      <trkpt lat="48.607469" lon="16.758428">
        <ele>222.923285</ele>
        <time>2020-07-04T04:13:00.687Z</time>
      </trkpt>
      <trkpt lat="48.607363" lon="16.758566">
        <ele>222.936046</ele>
        <time>2020-07-04T04:13:02.672Z</time>
      </trkpt>
      <trkpt lat="48.607263" lon="16.758686">
        <ele>222.947693</ele>
        <time>2020-07-04T04:13:04.668Z</time>
      </trkpt>
      <trkpt lat="48.607170" lon="16.758806">
        <ele>222.958847</ele>
        <time>2020-07-04T04:13:06.659Z</time>
      </trkpt>
      <trkpt lat="48.607083" lon="16.758931">
        <ele>222.969797</ele>
        <time>2020-07-04T04:13:08.686Z</time>
      </trkpt>
      <trkpt lat="48.607000" lon="16.759054">
        <ele>222.980399</ele>
        <time>2020-07-04T04:13:10.696Z</time>
      </trkpt>
      <trkpt lat="48.606916" lon="16.759165">
        <ele>222.990577</ele>
        <time>2020-07-04T04:13:12.705Z</time>
      </trkpt>
      <trkpt lat="48.606844" lon="16.759268">
        <ele>222.999620</ele>
        <time>2020-07-04T04:13:14.681Z</time>
      </trkpt>
      <trkpt lat="48.606782" lon="16.759377">
        <ele>223.008294</ele>
        <time>2020-07-04T04:13:16.688Z</time>
      </trkpt>
      <trkpt lat="48.606701" lon="16.759530">
        <ele>223.020119</ele>
        <time>2020-07-04T04:13:19.661Z</time>
      </trkpt>
      <trkpt lat="48.606646" lon="16.759637">
        <ele>223.028295</ele>
        <time>2020-07-04T04:13:21.662Z</time>
      </trkpt>
      <trkpt lat="48.606585" lon="16.759759">
        <ele>223.037523</ele>
        <time>2020-07-04T04:13:23.664Z</time>
      </trkpt>
      <trkpt lat="48.606523" lon="16.759893">
        <ele>223.047390</ele>
        <time>2020-07-04T04:13:25.667Z</time>
      </trkpt>
      <trkpt lat="48.606463" lon="16.760021">
        <ele>223.056856</ele>
        <time>2020-07-04T04:13:27.664Z</time>
      </trkpt>
      <trkpt lat="48.606396" lon="16.760170">
        <ele>223.059911</ele>
        <time>2020-07-04T04:13:29.679Z</time>
      </trkpt>
      <trkpt lat="48.606331" lon="16.760334">
        <ele>223.062459</ele>
        <time>2020-07-04T04:13:31.664Z</time>
      </trkpt>
      <trkpt lat="48.606277" lon="16.760495">
        <ele>223.064864</ele>
        <time>2020-07-04T04:13:33.718Z</time>
      </trkpt>
      <trkpt lat="48.606230" lon="16.760660">
        <ele>223.067258</ele>
        <time>2020-07-04T04:13:35.668Z</time>
      </trkpt>
      <trkpt lat="48.606194" lon="16.760835">
        <ele>223.069700</ele>
        <time>2020-07-04T04:13:37.673Z</time>
      </trkpt>
      <trkpt lat="48.606164" lon="16.761014">
        <ele>223.072161</ele>
        <time>2020-07-04T04:13:39.657Z</time>
      </trkpt>
      <trkpt lat="48.606142" lon="16.761190">
        <ele>223.074548</ele>
        <time>2020-07-04T04:13:41.679Z</time>
      </trkpt>
      <trkpt lat="48.606129" lon="16.761362">
        <ele>223.076855</ele>
        <time>2020-07-04T04:13:43.661Z</time>
      </trkpt>
      <trkpt lat="48.606119" lon="16.761522">
        <ele>223.078996</ele>
        <time>2020-07-04T04:13:45.670Z</time>
      </trkpt>
      <trkpt lat="48.606112" lon="16.761682">
        <ele>223.081133</ele>
        <time>2020-07-04T04:13:47.668Z</time>
      </trkpt>
      <trkpt lat="48.606111" lon="16.761839">
        <ele>223.083225</ele>
        <time>2020-07-04T04:13:49.703Z</time>
      </trkpt>
      <trkpt lat="48.606107" lon="16.761995">
        <ele>223.085305</ele>
        <time>2020-07-04T04:13:51.688Z</time>
      </trkpt>
      <trkpt lat="48.606106" lon="16.762150">
        <ele>223.087371</ele>
        <time>2020-07-04T04:13:53.676Z</time>
      </trkpt>
      <trkpt lat="48.606110" lon="16.762309">
        <ele>223.089491</ele>
        <time>2020-07-04T04:13:55.695Z</time>
      </trkpt>
      <trkpt lat="48.606114" lon="16.762474">
        <ele>223.091691</ele>
        <time>2020-07-04T04:13:57.674Z</time>
      </trkpt>
      <trkpt lat="48.606111" lon="16.762646">
        <ele>223.094330</ele>
        <time>2020-07-04T04:13:59.684Z</time>
      </trkpt>
      <trkpt lat="48.606108" lon="16.762825">
        <ele>223.116324</ele>
        <time>2020-07-04T04:14:01.688Z</time>
      </trkpt>
      <trkpt lat="48.606105" lon="16.763014">
        <ele>223.139546</ele>
        <time>2020-07-04T04:14:03.673Z</time>
      </trkpt>
      <trkpt lat="48.606093" lon="16.763215">
        <ele>223.164336</ele>
        <time>2020-07-04T04:14:05.663Z</time>
      </trkpt>
      <trkpt lat="48.606081" lon="16.763406">
        <ele>223.187902</ele>
        <time>2020-07-04T04:14:07.668Z</time>
      </trkpt>
      <trkpt lat="48.606075" lon="16.763593">
        <ele>223.210899</ele>
        <time>2020-07-04T04:14:09.664Z</time>
      </trkpt>
      <trkpt lat="48.606066" lon="16.763779">
        <ele>223.233807</ele>
        <time>2020-07-04T04:14:11.657Z</time>
      </trkpt>
      <trkpt lat="48.606059" lon="16.763966">
        <ele>223.256813</ele>
        <time>2020-07-04T04:14:13.664Z</time>
      </trkpt>
      <trkpt lat="48.606054" lon="16.764151">
        <ele>223.279556</ele>
        <time>2020-07-04T04:14:15.665Z</time>
      </trkpt>
      <trkpt lat="48.606048" lon="16.764335">
        <ele>223.302184</ele>
        <time>2020-07-04T04:14:17.679Z</time>
      </trkpt>
      <trkpt lat="48.606044" lon="16.764521">
        <ele>223.325043</ele>
        <time>2020-07-04T04:14:19.700Z</time>
      </trkpt>
      <trkpt lat="48.606040" lon="16.764705">
        <ele>223.347657</ele>
        <time>2020-07-04T04:14:21.677Z</time>
      </trkpt>
      <trkpt lat="48.606036" lon="16.764883">
        <ele>223.369533</ele>
        <time>2020-07-04T04:14:23.661Z</time>
      </trkpt>
      <trkpt lat="48.606032" lon="16.765061">
        <ele>223.391410</ele>
        <time>2020-07-04T04:14:25.674Z</time>
      </trkpt>
      <trkpt lat="48.606025" lon="16.765241">
        <ele>223.413558</ele>
        <time>2020-07-04T04:14:27.664Z</time>
      </trkpt>
      <trkpt lat="48.606014" lon="16.765418">
        <ele>223.438406</ele>
        <time>2020-07-04T04:14:29.662Z</time>
      </trkpt>
      <trkpt lat="48.606003" lon="16.765596">
        <ele>223.469380</ele>
        <time>2020-07-04T04:14:31.662Z</time>
      </trkpt>
      <trkpt lat="48.605991" lon="16.765775">
        <ele>223.500552</ele>
        <time>2020-07-04T04:14:33.677Z</time>
      </trkpt>
      <trkpt lat="48.605980" lon="16.765956">
        <ele>223.532044</ele>
        <time>2020-07-04T04:14:35.678Z</time>
      </trkpt>
      <trkpt lat="48.605977" lon="16.766139">
        <ele>223.563760</ele>
        <time>2020-07-04T04:14:37.696Z</time>
      </trkpt>
      <trkpt lat="48.605972" lon="16.766319">
        <ele>223.594974</ele>
        <time>2020-07-04T04:14:39.696Z</time>
      </trkpt>
      <trkpt lat="48.605957" lon="16.766497">
        <ele>223.626063</ele>
        <time>2020-07-04T04:14:41.663Z</time>
      </trkpt>
      <trkpt lat="48.605946" lon="16.766674">
        <ele>223.656864</ele>
        <time>2020-07-04T04:14:43.674Z</time>
      </trkpt>
      <trkpt lat="48.605928" lon="16.766851">
        <ele>223.687892</ele>
        <time>2020-07-04T04:14:45.669Z</time>
      </trkpt>
      <trkpt lat="48.605896" lon="16.767022">
        <ele>223.718682</ele>
        <time>2020-07-04T04:14:47.659Z</time>
      </trkpt>
      <trkpt lat="48.605844" lon="16.767173">
        <ele>223.748180</ele>
        <time>2020-07-04T04:14:49.665Z</time>
      </trkpt>
      <trkpt lat="48.605780" lon="16.767304">
        <ele>223.776399</ele>
        <time>2020-07-04T04:14:51.676Z</time>
      </trkpt>
      <trkpt lat="48.605723" lon="16.767432">
        <ele>223.803137</ele>
        <time>2020-07-04T04:14:53.696Z</time>
      </trkpt>
      <trkpt lat="48.605665" lon="16.767565">
        <ele>223.830740</ele>
        <time>2020-07-04T04:14:55.663Z</time>
      </trkpt>
      <trkpt lat="48.605618" lon="16.767697">
        <ele>223.856715</ele>
        <time>2020-07-04T04:14:57.667Z</time>
      </trkpt>
      <trkpt lat="48.605591" lon="16.767836">
        <ele>223.881816</ele>
        <time>2020-07-04T04:14:59.669Z</time>
      </trkpt>
      <trkpt lat="48.605570" lon="16.767976">
        <ele>223.901039</ele>
        <time>2020-07-04T04:15:01.678Z</time>
      </trkpt>
      <trkpt lat="48.605556" lon="16.768128">
        <ele>223.907174</ele>
        <time>2020-07-04T04:15:03.673Z</time>
      </trkpt>
      <trkpt lat="48.605547" lon="16.768287">
        <ele>223.913554</ele>
        <time>2020-07-04T04:15:05.699Z</time>
      </trkpt>
      <trkpt lat="48.605546" lon="16.768454">
        <ele>223.920230</ele>
        <time>2020-07-04T04:15:07.705Z</time>
      </trkpt>
      <trkpt lat="48.605559" lon="16.768617">
        <ele>223.926794</ele>
        <time>2020-07-04T04:15:09.668Z</time>
      </trkpt>
      <trkpt lat="48.605570" lon="16.768785">
        <ele>223.933543</ele>
        <time>2020-07-04T04:15:11.666Z</time>
      </trkpt>
      <trkpt lat="48.605572" lon="16.768955">
        <ele>223.940341</ele>
        <time>2020-07-04T04:15:13.683Z</time>
      </trkpt>
      <trkpt lat="48.605576" lon="16.769122">
        <ele>223.947021</ele>
        <time>2020-07-04T04:15:15.672Z</time>
      </trkpt>
      <trkpt lat="48.605579" lon="16.769293">
        <ele>223.953860</ele>
        <time>2020-07-04T04:15:17.700Z</time>
      </trkpt>
      <trkpt lat="48.605586" lon="16.769466">
        <ele>223.960789</ele>
        <time>2020-07-04T04:15:19.665Z</time>
      </trkpt>
      <trkpt lat="48.605599" lon="16.769636">
        <ele>223.967631</ele>
        <time>2020-07-04T04:15:21.701Z</time>
      </trkpt>
      <trkpt lat="48.605611" lon="16.769799">
        <ele>223.974187</ele>
        <time>2020-07-04T04:15:23.685Z</time>
      </trkpt>
      <trkpt lat="48.605621" lon="16.769962">
        <ele>223.980732</ele>
        <time>2020-07-04T04:15:25.669Z</time>
      </trkpt>
      <trkpt lat="48.605625" lon="16.770128">
        <ele>223.987373</ele>
        <time>2020-07-04T04:15:27.669Z</time>
      </trkpt>
      <trkpt lat="48.605629" lon="16.770291">
        <ele>223.993893</ele>
        <time>2020-07-04T04:15:29.674Z</time>
      </trkpt>
      <trkpt lat="48.605631" lon="16.770454">
        <ele>224.000411</ele>
        <time>2020-07-04T04:15:31.680Z</time>
      </trkpt>
      <trkpt lat="48.605635" lon="16.770616">
        <ele>224.006892</ele>
        <time>2020-07-04T04:15:33.679Z</time>
      </trkpt>
      <trkpt lat="48.605639" lon="16.770779">
        <ele>224.011846</ele>
        <time>2020-07-04T04:15:35.673Z</time>
      </trkpt>
      <trkpt lat="48.605644" lon="16.770941">
        <ele>224.016421</ele>
        <time>2020-07-04T04:15:37.667Z</time>
      </trkpt>
      <trkpt lat="48.605648" lon="16.771101">
        <ele>224.020939</ele>
        <time>2020-07-04T04:15:39.698Z</time>
      </trkpt>
      <trkpt lat="48.605644" lon="16.771261">
        <ele>224.025456</ele>
        <time>2020-07-04T04:15:41.679Z</time>
      </trkpt>
      <trkpt lat="48.605626" lon="16.771416">
        <ele>224.029896</ele>
        <time>2020-07-04T04:15:43.667Z</time>
      </trkpt>
      <trkpt lat="48.605601" lon="16.771570">
        <ele>224.034369</ele>
        <time>2020-07-04T04:15:45.665Z</time>
      </trkpt>
      <trkpt lat="48.605571" lon="16.771733">
        <ele>224.039143</ele>
        <time>2020-07-04T04:15:47.664Z</time>
      </trkpt>
      <trkpt lat="48.605542" lon="16.771897">
        <ele>224.043932</ele>
        <time>2020-07-04T04:15:49.672Z</time>
      </trkpt>
      <trkpt lat="48.605508" lon="16.772058">
        <ele>224.048700</ele>
        <time>2020-07-04T04:15:51.666Z</time>
      </trkpt>
      <trkpt lat="48.605477" lon="16.772224">
        <ele>224.053567</ele>
        <time>2020-07-04T04:15:53.665Z</time>
      </trkpt>
      <trkpt lat="48.605451" lon="16.772393">
        <ele>224.058462</ele>
        <time>2020-07-04T04:15:55.684Z</time>
      </trkpt>
      <trkpt lat="48.605432" lon="16.772564">
        <ele>224.063354</ele>
        <time>2020-07-04T04:15:57.699Z</time>
      </trkpt>
      <trkpt lat="48.605415" lon="16.772732">
        <ele>224.068149</ele>
        <time>2020-07-04T04:15:59.709Z</time>
      </trkpt>
      <trkpt lat="48.605393" lon="16.772903">
        <ele>224.073064</ele>
        <time>2020-07-04T04:16:01.670Z</time>
      </trkpt>
      <trkpt lat="48.605373" lon="16.773067">
        <ele>224.077768</ele>
        <time>2020-07-04T04:16:03.661Z</time>
      </trkpt>
      <trkpt lat="48.605362" lon="16.773219">
        <ele>224.082082</ele>
        <time>2020-07-04T04:16:05.666Z</time>
      </trkpt>
      <trkpt lat="48.605347" lon="16.773366">
        <ele>224.079535</ele>
        <time>2020-07-04T04:16:07.692Z</time>
      </trkpt>
      <trkpt lat="48.605331" lon="16.773512">
        <ele>224.064280</ele>
        <time>2020-07-04T04:16:09.719Z</time>
      </trkpt>
      <trkpt lat="48.605313" lon="16.773672">
        <ele>224.047549</ele>
        <time>2020-07-04T04:16:11.678Z</time>
      </trkpt>
      <trkpt lat="48.605293" lon="16.773843">
        <ele>224.029649</ele>
        <time>2020-07-04T04:16:13.688Z</time>
      </trkpt>
      <trkpt lat="48.605276" lon="16.774017">
        <ele>224.011518</ele>
        <time>2020-07-04T04:16:15.665Z</time>
      </trkpt>
      <trkpt lat="48.605254" lon="16.774188">
        <ele>223.993560</ele>
        <time>2020-07-04T04:16:17.718Z</time>
      </trkpt>
      <trkpt lat="48.605228" lon="16.774358">
        <ele>223.975574</ele>
        <time>2020-07-04T04:16:19.670Z</time>
      </trkpt>
      <trkpt lat="48.605183" lon="16.774525">
        <ele>223.956984</ele>
        <time>2020-07-04T04:16:21.663Z</time>
      </trkpt>
      <trkpt lat="48.605128" lon="16.774676">
        <ele>223.939214</ele>
        <time>2020-07-04T04:16:23.676Z</time>
      </trkpt>
      <trkpt lat="48.605073" lon="16.774815">
        <ele>223.922516</ele>
        <time>2020-07-04T04:16:25.670Z</time>
      </trkpt>
      <trkpt lat="48.605019" lon="16.774952">
        <ele>223.906075</ele>
        <time>2020-07-04T04:16:27.674Z</time>
      </trkpt>
      <trkpt lat="48.604970" lon="16.775094">
        <ele>223.889564</ele>
        <time>2020-07-04T04:16:29.672Z</time>
      </trkpt>
      <trkpt lat="48.604925" lon="16.775234">
        <ele>223.873518</ele>
        <time>2020-07-04T04:16:31.686Z</time>
      </trkpt>
      <trkpt lat="48.604879" lon="16.775368">
        <ele>223.857954</ele>
        <time>2020-07-04T04:16:33.671Z</time>
      </trkpt>
      <trkpt lat="48.604832" lon="16.775498">
        <ele>223.842681</ele>
        <time>2020-07-04T04:16:35.667Z</time>
      </trkpt>
      <trkpt lat="48.604788" lon="16.775625">
        <ele>223.827901</ele>
        <time>2020-07-04T04:16:37.668Z</time>
      </trkpt>
      <trkpt lat="48.604746" lon="16.775753">
        <ele>223.813172</ele>
        <time>2020-07-04T04:16:39.670Z</time>
      </trkpt>
      <trkpt lat="48.604705" lon="16.775880">
        <ele>223.808779</ele>
        <time>2020-07-04T04:16:41.669Z</time>
      </trkpt>
      <trkpt lat="48.604669" lon="16.776007">
        <ele>223.819384</ele>
        <time>2020-07-04T04:16:43.683Z</time>
      </trkpt>
      <trkpt lat="48.604620" lon="16.776195">
        <ele>223.834893</ele>
        <time>2020-07-04T04:16:46.671Z</time>
      </trkpt>
      <trkpt lat="48.604593" lon="16.776327">
        <ele>223.845498</ele>
        <time>2020-07-04T04:16:48.669Z</time>
      </trkpt>
      <trkpt lat="48.604568" lon="16.776467">
        <ele>223.856628</ele>
        <time>2020-07-04T04:16:50.690Z</time>
      </trkpt>
      <trkpt lat="48.604546" lon="16.776616">
        <ele>223.868345</ele>
        <time>2020-07-04T04:16:52.702Z</time>
      </trkpt>
      <trkpt lat="48.604533" lon="16.776777">
        <ele>223.880793</ele>
        <time>2020-07-04T04:16:54.692Z</time>
      </trkpt>
      <trkpt lat="48.604500" lon="16.776946">
        <ele>223.894317</ele>
        <time>2020-07-04T04:16:56.670Z</time>
      </trkpt>
      <trkpt lat="48.604460" lon="16.777122">
        <ele>223.908601</ele>
        <time>2020-07-04T04:16:58.664Z</time>
      </trkpt>
      <trkpt lat="48.604433" lon="16.777301">
        <ele>223.922692</ele>
        <time>2020-07-04T04:17:00.691Z</time>
      </trkpt>
      <trkpt lat="48.604398" lon="16.777493">
        <ele>223.937977</ele>
        <time>2020-07-04T04:17:02.669Z</time>
      </trkpt>
      <trkpt lat="48.604359" lon="16.777670">
        <ele>223.952296</ele>
        <time>2020-07-04T04:17:04.668Z</time>
      </trkpt>
      <trkpt lat="48.604311" lon="16.777821">
        <ele>223.965155</ele>
        <time>2020-07-04T04:17:06.680Z</time>
      </trkpt>
      <trkpt lat="48.604268" lon="16.777972">
        <ele>223.977773</ele>
        <time>2020-07-04T04:17:08.664Z</time>
      </trkpt>
      <trkpt lat="48.604280" lon="16.778139">
        <ele>223.990666</ele>
        <time>2020-07-04T04:17:10.662Z</time>
      </trkpt>
      <trkpt lat="48.604293" lon="16.778317">
        <ele>224.004410</ele>
        <time>2020-07-04T04:17:12.672Z</time>
      </trkpt>
      <trkpt lat="48.604310" lon="16.778504">
        <ele>224.015974</ele>
        <time>2020-07-04T04:17:14.667Z</time>
      </trkpt>
      <trkpt lat="48.604292" lon="16.778706">
        <ele>224.023594</ele>
        <time>2020-07-04T04:17:16.668Z</time>
      </trkpt>
      <trkpt lat="48.604254" lon="16.778906">
        <ele>224.031374</ele>
        <time>2020-07-04T04:17:18.665Z</time>
      </trkpt>
      <trkpt lat="48.604185" lon="16.779093">
        <ele>224.039380</ele>
        <time>2020-07-04T04:17:20.696Z</time>
      </trkpt>
      <trkpt lat="48.604107" lon="16.779277">
        <ele>224.047552</ele>
        <time>2020-07-04T04:17:22.670Z</time>
      </trkpt>
      <trkpt lat="48.604017" lon="16.779453">
        <ele>224.055870</ele>
        <time>2020-07-04T04:17:24.679Z</time>
      </trkpt>
      <trkpt lat="48.603918" lon="16.779622">
        <ele>224.064311</ele>
        <time>2020-07-04T04:17:26.673Z</time>
      </trkpt>
      <trkpt lat="48.603814" lon="16.779786">
        <ele>224.072806</ele>
        <time>2020-07-04T04:17:28.664Z</time>
      </trkpt>
      <trkpt lat="48.603721" lon="16.779965">
        <ele>224.081317</ele>
        <time>2020-07-04T04:17:30.667Z</time>
      </trkpt>
      <trkpt lat="48.603634" lon="16.780153">
        <ele>224.089896</ele>
        <time>2020-07-04T04:17:32.692Z</time>
      </trkpt>
      <trkpt lat="48.603536" lon="16.780328">
        <ele>224.098469</ele>
        <time>2020-07-04T04:17:34.671Z</time>
      </trkpt>
      <trkpt lat="48.603439" lon="16.780502">
        <ele>224.106978</ele>
        <time>2020-07-04T04:17:36.680Z</time>
      </trkpt>
      <trkpt lat="48.603340" lon="16.780676">
        <ele>224.116019</ele>
        <time>2020-07-04T04:17:38.658Z</time>
      </trkpt>
      <trkpt lat="48.603250" lon="16.780864">
        <ele>224.130644</ele>
        <time>2020-07-04T04:17:40.671Z</time>
      </trkpt>
      <trkpt lat="48.603171" lon="16.781059">
        <ele>224.145055</ele>
        <time>2020-07-04T04:17:42.664Z</time>
      </trkpt>
      <trkpt lat="48.603092" lon="16.781253">
        <ele>224.159412</ele>
        <time>2020-07-04T04:17:44.662Z</time>
      </trkpt>
      <trkpt lat="48.603013" lon="16.781440">
        <ele>224.173395</ele>
        <time>2020-07-04T04:17:46.665Z</time>
      </trkpt>
      <trkpt lat="48.602938" lon="16.781629">
        <ele>224.187285</ele>
        <time>2020-07-04T04:17:48.668Z</time>
      </trkpt>
      <trkpt lat="48.602854" lon="16.781796">
        <ele>224.200507</ele>
        <time>2020-07-04T04:17:50.676Z</time>
      </trkpt>
      <trkpt lat="48.602751" lon="16.781945">
        <ele>224.214090</ele>
        <time>2020-07-04T04:17:52.687Z</time>
      </trkpt>
      <trkpt lat="48.602649" lon="16.782090">
        <ele>224.227430</ele>
        <time>2020-07-04T04:17:54.667Z</time>
      </trkpt>
      <trkpt lat="48.602546" lon="16.782226">
        <ele>224.240460</ele>
        <time>2020-07-04T04:17:56.687Z</time>
      </trkpt>
      <trkpt lat="48.602437" lon="16.782354">
        <ele>224.253611</ele>
        <time>2020-07-04T04:17:58.693Z</time>
      </trkpt>
      <trkpt lat="48.602335" lon="16.782487">
        <ele>224.266445</ele>
        <time>2020-07-04T04:18:00.677Z</time>
      </trkpt>
      <trkpt lat="48.602239" lon="16.782626">
        <ele>224.279111</ele>
        <time>2020-07-04T04:18:02.670Z</time>
      </trkpt>
      <trkpt lat="48.602149" lon="16.782771">
        <ele>224.242725</ele>
        <time>2020-07-04T04:18:04.672Z</time>
      </trkpt>
      <trkpt lat="48.602066" lon="16.782922">
        <ele>224.142031</ele>
        <time>2020-07-04T04:18:06.699Z</time>
      </trkpt>
      <trkpt lat="48.601989" lon="16.783080">
        <ele>224.041379</ele>
        <time>2020-07-04T04:18:08.666Z</time>
      </trkpt>
      <trkpt lat="48.601922" lon="16.783243">
        <ele>223.942957</ele>
        <time>2020-07-04T04:18:10.675Z</time>
      </trkpt>
      <trkpt lat="48.601861" lon="16.783411">
        <ele>223.844670</ele>
        <time>2020-07-04T04:18:12.675Z</time>
      </trkpt>
      <trkpt lat="48.601819" lon="16.783586">
        <ele>223.749199</ele>
        <time>2020-07-04T04:18:14.664Z</time>
      </trkpt>
      <trkpt lat="48.601781" lon="16.783764">
        <ele>223.653277</ele>
        <time>2020-07-04T04:18:16.664Z</time>
      </trkpt>
      <trkpt lat="48.601751" lon="16.783943">
        <ele>223.558579</ele>
        <time>2020-07-04T04:18:18.664Z</time>
      </trkpt>
      <trkpt lat="48.601712" lon="16.784115">
        <ele>223.465332</ele>
        <time>2020-07-04T04:18:20.667Z</time>
      </trkpt>
      <trkpt lat="48.601673" lon="16.784291">
        <ele>223.370143</ele>
        <time>2020-07-04T04:18:22.682Z</time>
      </trkpt>
      <trkpt lat="48.601632" lon="16.784466">
        <ele>223.274933</ele>
        <time>2020-07-04T04:18:24.682Z</time>
      </trkpt>
      <trkpt lat="48.601580" lon="16.784633">
        <ele>223.180272</ele>
        <time>2020-07-04T04:18:26.672Z</time>
      </trkpt>
      <trkpt lat="48.601541" lon="16.784806">
        <ele>223.086539</ele>
        <time>2020-07-04T04:18:28.684Z</time>
      </trkpt>
      <trkpt lat="48.601495" lon="16.784967">
        <ele>222.996597</ele>
        <time>2020-07-04T04:18:30.671Z</time>
      </trkpt>
      <trkpt lat="48.601445" lon="16.785131">
        <ele>222.903986</ele>
        <time>2020-07-04T04:18:32.663Z</time>
      </trkpt>
      <trkpt lat="48.601393" lon="16.785302">
        <ele>222.922136</ele>
        <time>2020-07-04T04:18:34.667Z</time>
      </trkpt>
      <trkpt lat="48.601338" lon="16.785477">
        <ele>222.958431</ele>
        <time>2020-07-04T04:18:36.687Z</time>
      </trkpt>
      <trkpt lat="48.601291" lon="16.785649">
        <ele>222.993293</ele>
        <time>2020-07-04T04:18:38.680Z</time>
      </trkpt>
      <trkpt lat="48.601256" lon="16.785823">
        <ele>223.027362</ele>
        <time>2020-07-04T04:18:40.684Z</time>
      </trkpt>
      <trkpt lat="48.601226" lon="16.785997">
        <ele>223.061046</ele>
        <time>2020-07-04T04:18:42.668Z</time>
      </trkpt>
      <trkpt lat="48.601214" lon="16.786173">
        <ele>223.094189</ele>
        <time>2020-07-04T04:18:44.666Z</time>
      </trkpt>
      <trkpt lat="48.601285" lon="16.786297">
        <ele>223.124914</ele>
        <time>2020-07-04T04:18:46.662Z</time>
      </trkpt>
      <trkpt lat="48.601398" lon="16.786327">
        <ele>223.157413</ele>
        <time>2020-07-04T04:18:48.669Z</time>
      </trkpt>
      <trkpt lat="48.601517" lon="16.786363">
        <ele>223.191790</ele>
        <time>2020-07-04T04:18:50.660Z</time>
      </trkpt>
      <trkpt lat="48.601631" lon="16.786419">
        <ele>223.225743</ele>
        <time>2020-07-04T04:18:52.666Z</time>
      </trkpt>
      <trkpt lat="48.601746" lon="16.786464">
        <ele>223.259392</ele>
        <time>2020-07-04T04:18:54.671Z</time>
      </trkpt>
      <trkpt lat="48.601860" lon="16.786516">
        <ele>223.293122</ele>
        <time>2020-07-04T04:18:56.679Z</time>
      </trkpt>
      <trkpt lat="48.601967" lon="16.786584">
        <ele>223.325999</ele>
        <time>2020-07-04T04:18:58.712Z</time>
      </trkpt>
      <trkpt lat="48.602068" lon="16.786635">
        <ele>223.356162</ele>
        <time>2020-07-04T04:19:00.674Z</time>
      </trkpt>
      <trkpt lat="48.602167" lon="16.786687">
        <ele>223.385849</ele>
        <time>2020-07-04T04:19:02.664Z</time>
      </trkpt>
      <trkpt lat="48.602278" lon="16.786719">
        <ele>223.400839</ele>
        <time>2020-07-04T04:19:04.662Z</time>
      </trkpt>
      <trkpt lat="48.602383" lon="16.786753">
        <ele>223.400636</ele>
        <time>2020-07-04T04:19:06.667Z</time>
      </trkpt>
      <trkpt lat="48.602476" lon="16.786782">
        <ele>223.400456</ele>
        <time>2020-07-04T04:19:08.671Z</time>
      </trkpt>
      <trkpt lat="48.602612" lon="16.786826">
        <ele>223.400192</ele>
        <time>2020-07-04T04:19:11.667Z</time>
      </trkpt>
      <trkpt lat="48.602720" lon="16.786863">
        <ele>223.399983</ele>
        <time>2020-07-04T04:19:13.701Z</time>
      </trkpt>
      <trkpt lat="48.602841" lon="16.786894">
        <ele>223.399750</ele>
        <time>2020-07-04T04:19:15.665Z</time>
      </trkpt>
      <trkpt lat="48.602954" lon="16.786920">
        <ele>223.399533</ele>
        <time>2020-07-04T04:19:17.688Z</time>
      </trkpt>
      <trkpt lat="48.603064" lon="16.786953">
        <ele>223.399321</ele>
        <time>2020-07-04T04:19:19.669Z</time>
      </trkpt>
      <trkpt lat="48.603166" lon="16.786986">
        <ele>223.399123</ele>
        <time>2020-07-04T04:19:21.667Z</time>
      </trkpt>
      <trkpt lat="48.603278" lon="16.787014">
        <ele>223.398908</ele>
        <time>2020-07-04T04:19:23.676Z</time>
      </trkpt>
      <trkpt lat="48.603396" lon="16.787039">
        <ele>223.398682</ele>
        <time>2020-07-04T04:19:25.677Z</time>
      </trkpt>
      <trkpt lat="48.603502" lon="16.787070">
        <ele>223.398478</ele>
        <time>2020-07-04T04:19:27.660Z</time>
      </trkpt>
      <trkpt lat="48.603603" lon="16.787097">
        <ele>223.398284</ele>
        <time>2020-07-04T04:19:29.689Z</time>
      </trkpt>
      <trkpt lat="48.603700" lon="16.787127">
        <ele>223.398096</ele>
        <time>2020-07-04T04:19:31.679Z</time>
      </trkpt>
      <trkpt lat="48.603827" lon="16.787161">
        <ele>223.397852</ele>
        <time>2020-07-04T04:19:34.677Z</time>
      </trkpt>
      <trkpt lat="48.603948" lon="16.787205">
        <ele>223.397616</ele>
        <time>2020-07-04T04:19:37.679Z</time>
      </trkpt>
      <trkpt lat="48.604068" lon="16.787252">
        <ele>223.271494</ele>
        <time>2020-07-04T04:19:40.666Z</time>
      </trkpt>
      <trkpt lat="48.604168" lon="16.787300">
        <ele>223.118177</ele>
        <time>2020-07-04T04:19:43.673Z</time>
      </trkpt>
      <trkpt lat="48.604272" lon="16.787344">
        <ele>222.960363</ele>
        <time>2020-07-04T04:19:46.671Z</time>
      </trkpt>
      <trkpt lat="48.604387" lon="16.787429">
        <ele>222.773312</ele>
        <time>2020-07-04T04:19:49.678Z</time>
      </trkpt>
      <trkpt lat="48.604329" lon="16.787632">
        <ele>222.559624</ele>
        <time>2020-07-04T04:19:52.669Z</time>
      </trkpt>
      <trkpt lat="48.604277" lon="16.787821">
        <ele>222.361813</ele>
        <time>2020-07-04T04:19:54.675Z</time>
      </trkpt>
      <trkpt lat="48.604223" lon="16.788016">
        <ele>222.157526</ele>
        <time>2020-07-04T04:19:56.674Z</time>
      </trkpt>
      <trkpt lat="48.604177" lon="16.788208">
        <ele>221.960192</ele>
        <time>2020-07-04T04:19:58.683Z</time>
      </trkpt>
      <trkpt lat="48.604132" lon="16.788395">
        <ele>221.767898</ele>
        <time>2020-07-04T04:20:00.667Z</time>
      </trkpt>
      <trkpt lat="48.604085" lon="16.788581">
        <ele>221.575488</ele>
        <time>2020-07-04T04:20:02.672Z</time>
      </trkpt>
      <trkpt lat="48.604034" lon="16.788764">
        <ele>221.383589</ele>
        <time>2020-07-04T04:20:04.662Z</time>
      </trkpt>
      <trkpt lat="48.603985" lon="16.788948">
        <ele>221.191909</ele>
        <time>2020-07-04T04:20:06.713Z</time>
      </trkpt>
      <trkpt lat="48.603945" lon="16.789135">
        <ele>221.001989</ele>
        <time>2020-07-04T04:20:08.676Z</time>
      </trkpt>
      <trkpt lat="48.603905" lon="16.789321">
        <ele>220.812988</ele>
        <time>2020-07-04T04:20:10.699Z</time>
      </trkpt>
      <trkpt lat="48.603865" lon="16.789508">
        <ele>220.714903</ele>
        <time>2020-07-04T04:20:12.680Z</time>
      </trkpt>
      <trkpt lat="48.603829" lon="16.789695">
        <ele>220.645022</ele>
        <time>2020-07-04T04:20:14.671Z</time>
      </trkpt>
      <trkpt lat="48.603792" lon="16.789883">
        <ele>220.574645</ele>
        <time>2020-07-04T04:20:16.675Z</time>
      </trkpt>
      <trkpt lat="48.603760" lon="16.790072">
        <ele>220.504645</ele>
        <time>2020-07-04T04:20:18.664Z</time>
      </trkpt>
      <trkpt lat="48.603731" lon="16.790257">
        <ele>220.436428</ele>
        <time>2020-07-04T04:20:20.702Z</time>
      </trkpt>
      <trkpt lat="48.603703" lon="16.790441">
        <ele>220.368684</ele>
        <time>2020-07-04T04:20:22.692Z</time>
      </trkpt>
      <trkpt lat="48.603676" lon="16.790625">
        <ele>220.301059</ele>
        <time>2020-07-04T04:20:24.687Z</time>
      </trkpt>
      <trkpt lat="48.603650" lon="16.790806">
        <ele>220.234602</ele>
        <time>2020-07-04T04:20:26.690Z</time>
      </trkpt>
      <trkpt lat="48.603623" lon="16.790988">
        <ele>220.167678</ele>
        <time>2020-07-04T04:20:28.675Z</time>
      </trkpt>
      <trkpt lat="48.603600" lon="16.791170">
        <ele>220.101195</ele>
        <time>2020-07-04T04:20:30.676Z</time>
      </trkpt>
      <trkpt lat="48.603580" lon="16.791352">
        <ele>220.034999</ele>
        <time>2020-07-04T04:20:32.687Z</time>
      </trkpt>
      <trkpt lat="48.603561" lon="16.791534">
        <ele>219.968889</ele>
        <time>2020-07-04T04:20:34.684Z</time>
      </trkpt>
      <trkpt lat="48.603546" lon="16.791715">
        <ele>219.903439</ele>
        <time>2020-07-04T04:20:36.681Z</time>
      </trkpt>
      <trkpt lat="48.603531" lon="16.791892">
        <ele>219.839412</ele>
        <time>2020-07-04T04:20:38.679Z</time>
      </trkpt>
      <trkpt lat="48.603517" lon="16.792069">
        <ele>219.782892</ele>
        <time>2020-07-04T04:20:40.675Z</time>
      </trkpt>
      <trkpt lat="48.603508" lon="16.792249">
        <ele>219.745258</ele>
        <time>2020-07-04T04:20:42.673Z</time>
      </trkpt>
      <trkpt lat="48.603496" lon="16.792424">
        <ele>219.708578</ele>
        <time>2020-07-04T04:20:44.697Z</time>
      </trkpt>
      <trkpt lat="48.603483" lon="16.792600">
        <ele>219.671657</ele>
        <time>2020-07-04T04:20:46.695Z</time>
      </trkpt>
      <trkpt lat="48.603474" lon="16.792775">
        <ele>219.635063</ele>
        <time>2020-07-04T04:20:48.667Z</time>
      </trkpt>
      <trkpt lat="48.603465" lon="16.792949">
        <ele>219.598677</ele>
        <time>2020-07-04T04:20:50.665Z</time>
      </trkpt>
      <trkpt lat="48.603457" lon="16.793122">
        <ele>219.562521</ele>
        <time>2020-07-04T04:20:52.680Z</time>
      </trkpt>
      <trkpt lat="48.603447" lon="16.793294">
        <ele>219.526524</ele>
        <time>2020-07-04T04:20:54.703Z</time>
      </trkpt>
      <trkpt lat="48.603437" lon="16.793465">
        <ele>219.490735</ele>
        <time>2020-07-04T04:20:56.684Z</time>
      </trkpt>
      <trkpt lat="48.603426" lon="16.793638">
        <ele>219.454501</ele>
        <time>2020-07-04T04:20:58.702Z</time>
      </trkpt>
      <trkpt lat="48.603416" lon="16.793810">
        <ele>219.418504</ele>
        <time>2020-07-04T04:21:00.725Z</time>
      </trkpt>
      <trkpt lat="48.603408" lon="16.793980">
        <ele>219.382973</ele>
        <time>2020-07-04T04:21:02.655Z</time>
      </trkpt>
      <trkpt lat="48.603401" lon="16.794148">
        <ele>219.347879</ele>
        <time>2020-07-04T04:21:04.709Z</time>
      </trkpt>
      <trkpt lat="48.603395" lon="16.794312">
        <ele>219.313635</ele>
        <time>2020-07-04T04:21:06.677Z</time>
      </trkpt>
      <trkpt lat="48.603387" lon="16.794475">
        <ele>219.279560</ele>
        <time>2020-07-04T04:21:08.667Z</time>
      </trkpt>
      <trkpt lat="48.603380" lon="16.794636">
        <ele>219.245922</ele>
        <time>2020-07-04T04:21:10.663Z</time>
      </trkpt>
      <trkpt lat="48.603374" lon="16.794802">
        <ele>219.218365</ele>
        <time>2020-07-04T04:21:12.668Z</time>
      </trkpt>
      <trkpt lat="48.603364" lon="16.794972">
        <ele>219.199768</ele>
        <time>2020-07-04T04:21:14.685Z</time>
      </trkpt>
      <trkpt lat="48.603354" lon="16.795136">
        <ele>219.181823</ele>
        <time>2020-07-04T04:21:16.672Z</time>
      </trkpt>
      <trkpt lat="48.603343" lon="16.795300">
        <ele>219.163861</ele>
        <time>2020-07-04T04:21:18.675Z</time>
      </trkpt>
      <trkpt lat="48.603336" lon="16.795470">
        <ele>219.145302</ele>
        <time>2020-07-04T04:21:20.681Z</time>
      </trkpt>
      <trkpt lat="48.603331" lon="16.795643">
        <ele>219.126434</ele>
        <time>2020-07-04T04:21:22.670Z</time>
      </trkpt>
      <trkpt lat="48.603327" lon="16.795814">
        <ele>219.107789</ele>
        <time>2020-07-04T04:21:24.702Z</time>
      </trkpt>
      <trkpt lat="48.603318" lon="16.795985">
        <ele>219.089098</ele>
        <time>2020-07-04T04:21:26.673Z</time>
      </trkpt>
      <trkpt lat="48.603307" lon="16.796157">
        <ele>219.070269</ele>
        <time>2020-07-04T04:21:28.686Z</time>
      </trkpt>
      <trkpt lat="48.603297" lon="16.796327">
        <ele>219.051672</ele>
        <time>2020-07-04T04:21:30.678Z</time>
      </trkpt>
      <trkpt lat="48.603286" lon="16.796494">
        <ele>219.033386</ele>
        <time>2020-07-04T04:21:32.708Z</time>
      </trkpt>
      <trkpt lat="48.603279" lon="16.796665">
        <ele>219.014717</ele>
        <time>2020-07-04T04:21:34.676Z</time>
      </trkpt>
      <trkpt lat="48.603272" lon="16.796836">
        <ele>218.996049</ele>
        <time>2020-07-04T04:21:36.691Z</time>
      </trkpt>
      <trkpt lat="48.603261" lon="16.797003">
        <ele>218.977762</ele>
        <time>2020-07-04T04:21:38.681Z</time>
      </trkpt>
      <trkpt lat="48.603253" lon="16.797173">
        <ele>218.959192</ele>
        <time>2020-07-04T04:21:40.685Z</time>
      </trkpt>
      <trkpt lat="48.603244" lon="16.797340">
        <ele>218.940935</ele>
        <time>2020-07-04T04:21:42.679Z</time>
      </trkpt>
      <trkpt lat="48.603239" lon="16.797502">
        <ele>218.926745</ele>
        <time>2020-07-04T04:21:44.684Z</time>
      </trkpt>
      <trkpt lat="48.603236" lon="16.797667">
        <ele>218.918387</ele>
        <time>2020-07-04T04:21:46.677Z</time>
      </trkpt>
      <trkpt lat="48.603229" lon="16.797829">
        <ele>218.910166</ele>
        <time>2020-07-04T04:21:48.676Z</time>
      </trkpt>
      <trkpt lat="48.603225" lon="16.797993">
        <ele>218.901856</ele>
        <time>2020-07-04T04:21:50.674Z</time>
      </trkpt>
      <trkpt lat="48.603220" lon="16.798154">
        <ele>218.893695</ele>
        <time>2020-07-04T04:21:52.688Z</time>
      </trkpt>
      <trkpt lat="48.603218" lon="16.798317">
        <ele>218.885440</ele>
        <time>2020-07-04T04:21:54.676Z</time>
      </trkpt>
      <trkpt lat="48.603214" lon="16.798483">
        <ele>218.877029</ele>
        <time>2020-07-04T04:21:56.694Z</time>
      </trkpt>
      <trkpt lat="48.603210" lon="16.798647">
        <ele>218.868719</ele>
        <time>2020-07-04T04:21:58.681Z</time>
      </trkpt>
      <trkpt lat="48.603203" lon="16.798811">
        <ele>218.860398</ele>
        <time>2020-07-04T04:22:00.689Z</time>
      </trkpt>
      <trkpt lat="48.603197" lon="16.798973">
        <ele>218.852182</ele>
        <time>2020-07-04T04:22:02.686Z</time>
      </trkpt>
      <trkpt lat="48.603191" lon="16.799132">
        <ele>218.844118</ele>
        <time>2020-07-04T04:22:04.681Z</time>
      </trkpt>
      <trkpt lat="48.603185" lon="16.799294">
        <ele>218.835902</ele>
        <time>2020-07-04T04:22:06.691Z</time>
      </trkpt>
      <trkpt lat="48.603179" lon="16.799463">
        <ele>218.827333</ele>
        <time>2020-07-04T04:22:08.678Z</time>
      </trkpt>
      <trkpt lat="48.603175" lon="16.799636">
        <ele>218.818567</ele>
        <time>2020-07-04T04:22:10.666Z</time>
      </trkpt>
      <trkpt lat="48.603169" lon="16.799816">
        <ele>218.809441</ele>
        <time>2020-07-04T04:22:12.685Z</time>
      </trkpt>
      <trkpt lat="48.603166" lon="16.799985">
        <ele>218.800881</ele>
        <time>2020-07-04T04:22:14.696Z</time>
      </trkpt>
      <trkpt lat="48.603161" lon="16.800154">
        <ele>218.792315</ele>
        <time>2020-07-04T04:22:16.668Z</time>
      </trkpt>
      <trkpt lat="48.603155" lon="16.800326">
        <ele>218.775785</ele>
        <time>2020-07-04T04:22:18.678Z</time>
      </trkpt>
      <trkpt lat="48.603144" lon="16.800497">
        <ele>218.759041</ele>
        <time>2020-07-04T04:22:20.682Z</time>
      </trkpt>
      <trkpt lat="48.603133" lon="16.800665">
        <ele>218.742589</ele>
        <time>2020-07-04T04:22:22.672Z</time>
      </trkpt>
      <trkpt lat="48.603125" lon="16.800834">
        <ele>218.726077</ele>
        <time>2020-07-04T04:22:24.696Z</time>
      </trkpt>
      <trkpt lat="48.603120" lon="16.801003">
        <ele>218.709591</ele>
        <time>2020-07-04T04:22:26.672Z</time>
      </trkpt>
      <trkpt lat="48.603118" lon="16.801166">
        <ele>218.693703</ele>
        <time>2020-07-04T04:22:28.671Z</time>
      </trkpt>
      <trkpt lat="48.603114" lon="16.801329">
        <ele>218.677807</ele>
        <time>2020-07-04T04:22:30.678Z</time>
      </trkpt>
      <trkpt lat="48.603110" lon="16.801495">
        <ele>218.661619</ele>
        <time>2020-07-04T04:22:32.681Z</time>
      </trkpt>
      <trkpt lat="48.603102" lon="16.801660">
        <ele>218.645496</ele>
        <time>2020-07-04T04:22:34.721Z</time>
      </trkpt>
      <trkpt lat="48.603086" lon="16.801830">
        <ele>218.628762</ele>
        <time>2020-07-04T04:22:36.712Z</time>
      </trkpt>
      <trkpt lat="48.603071" lon="16.801997">
        <ele>218.612337</ele>
        <time>2020-07-04T04:22:38.689Z</time>
      </trkpt>
      <trkpt lat="48.603053" lon="16.802161">
        <ele>218.596136</ele>
        <time>2020-07-04T04:22:40.677Z</time>
      </trkpt>
      <trkpt lat="48.603032" lon="16.802328">
        <ele>218.579570</ele>
        <time>2020-07-04T04:22:42.673Z</time>
      </trkpt>
      <trkpt lat="48.603015" lon="16.802497">
        <ele>218.562910</ele>
        <time>2020-07-04T04:22:44.669Z</time>
      </trkpt>
      <trkpt lat="48.602999" lon="16.802664">
        <ele>218.546466</ele>
        <time>2020-07-04T04:22:46.689Z</time>
      </trkpt>
      <trkpt lat="48.602982" lon="16.802828">
        <ele>218.530288</ele>
        <time>2020-07-04T04:22:48.689Z</time>
      </trkpt>
      <trkpt lat="48.602962" lon="16.802992">
        <ele>218.514105</ele>
        <time>2020-07-04T04:22:50.679Z</time>
      </trkpt>
      <trkpt lat="48.602939" lon="16.803162">
        <ele>218.497285</ele>
        <time>2020-07-04T04:22:52.682Z</time>
      </trkpt>
      <trkpt lat="48.602916" lon="16.803329">
        <ele>218.480749</ele>
        <time>2020-07-04T04:22:54.684Z</time>
      </trkpt>
      <trkpt lat="48.602892" lon="16.803496">
        <ele>218.464183</ele>
        <time>2020-07-04T04:22:56.673Z</time>
      </trkpt>
      <trkpt lat="48.602874" lon="16.803664">
        <ele>218.447686</ele>
        <time>2020-07-04T04:22:58.700Z</time>
      </trkpt>
      <trkpt lat="48.602856" lon="16.803832">
        <ele>218.431189</ele>
        <time>2020-07-04T04:23:00.689Z</time>
      </trkpt>
      <trkpt lat="48.602838" lon="16.803996">
        <ele>218.415074</ele>
        <time>2020-07-04T04:23:02.683Z</time>
      </trkpt>
      <trkpt lat="48.602819" lon="16.804162">
        <ele>218.398744</ele>
        <time>2020-07-04T04:23:04.674Z</time>
      </trkpt>
      <trkpt lat="48.602798" lon="16.804324">
        <ele>218.382741</ele>
        <time>2020-07-04T04:23:06.714Z</time>
      </trkpt>
      <trkpt lat="48.602775" lon="16.804486">
        <ele>218.366680</ele>
        <time>2020-07-04T04:23:08.662Z</time>
      </trkpt>
      <trkpt lat="48.602752" lon="16.804646">
        <ele>218.350808</ele>
        <time>2020-07-04T04:23:10.701Z</time>
      </trkpt>
      <trkpt lat="48.602729" lon="16.804806">
        <ele>218.334937</ele>
        <time>2020-07-04T04:23:12.699Z</time>
      </trkpt>
      <trkpt lat="48.602706" lon="16.804967">
        <ele>218.318970</ele>
        <time>2020-07-04T04:23:14.711Z</time>
      </trkpt>
      <trkpt lat="48.602683" lon="16.805130">
        <ele>218.302814</ele>
        <time>2020-07-04T04:23:16.713Z</time>
      </trkpt>
      <trkpt lat="48.602661" lon="16.805295">
        <ele>218.286498</ele>
        <time>2020-07-04T04:23:18.692Z</time>
      </trkpt>
      <trkpt lat="48.602642" lon="16.805463">
        <ele>218.269976</ele>
        <time>2020-07-04T04:23:20.713Z</time>
      </trkpt>
      <trkpt lat="48.602625" lon="16.805628">
        <ele>218.256267</ele>
        <time>2020-07-04T04:23:22.686Z</time>
      </trkpt>
      <trkpt lat="48.602608" lon="16.805793">
        <ele>218.244292</ele>
        <time>2020-07-04T04:23:24.695Z</time>
      </trkpt>
      <trkpt lat="48.602590" lon="16.805959">
        <ele>218.232230</ele>
        <time>2020-07-04T04:23:26.693Z</time>
      </trkpt>
      <trkpt lat="48.602570" lon="16.806123">
        <ele>218.220272</ele>
        <time>2020-07-04T04:23:28.693Z</time>
      </trkpt>
      <trkpt lat="48.602549" lon="16.806291">
        <ele>218.208012</ele>
        <time>2020-07-04T04:23:30.671Z</time>
      </trkpt>
      <trkpt lat="48.602529" lon="16.806461">
        <ele>218.195630</ele>
        <time>2020-07-04T04:23:32.679Z</time>
      </trkpt>
      <trkpt lat="48.602512" lon="16.806636">
        <ele>218.182947</ele>
        <time>2020-07-04T04:23:34.674Z</time>
      </trkpt>
      <trkpt lat="48.602492" lon="16.806812">
        <ele>218.170142</ele>
        <time>2020-07-04T04:23:36.676Z</time>
      </trkpt>
      <trkpt lat="48.602474" lon="16.806991">
        <ele>218.157159</ele>
        <time>2020-07-04T04:23:38.684Z</time>
      </trkpt>
      <trkpt lat="48.602456" lon="16.807166">
        <ele>218.144459</ele>
        <time>2020-07-04T04:23:40.735Z</time>
      </trkpt>
      <trkpt lat="48.602435" lon="16.807341">
        <ele>218.131706</ele>
        <time>2020-07-04T04:23:42.705Z</time>
      </trkpt>
      <trkpt lat="48.602414" lon="16.807518">
        <ele>218.118811</ele>
        <time>2020-07-04T04:23:44.687Z</time>
      </trkpt>
      <trkpt lat="48.602392" lon="16.807694">
        <ele>218.105967</ele>
        <time>2020-07-04T04:23:46.686Z</time>
      </trkpt>
      <trkpt lat="48.602366" lon="16.807869">
        <ele>218.093106</ele>
        <time>2020-07-04T04:23:48.680Z</time>
      </trkpt>
      <trkpt lat="48.602341" lon="16.808044">
        <ele>218.080267</ele>
        <time>2020-07-04T04:23:50.690Z</time>
      </trkpt>
      <trkpt lat="48.602316" lon="16.808215">
        <ele>218.067153</ele>
        <time>2020-07-04T04:23:52.696Z</time>
      </trkpt>
      <trkpt lat="48.602291" lon="16.808387">
        <ele>218.041994</ele>
        <time>2020-07-04T04:23:54.683Z</time>
      </trkpt>
      <trkpt lat="48.602267" lon="16.808558">
        <ele>218.017019</ele>
        <time>2020-07-04T04:23:56.690Z</time>
      </trkpt>
      <trkpt lat="48.602249" lon="16.808723">
        <ele>217.993128</ele>
        <time>2020-07-04T04:23:58.678Z</time>
      </trkpt>
      <trkpt lat="48.602232" lon="16.808881">
        <ele>217.970258</ele>
        <time>2020-07-04T04:24:00.681Z</time>
      </trkpt>
      <trkpt lat="48.602213" lon="16.809029">
        <ele>217.948720</ele>
        <time>2020-07-04T04:24:02.688Z</time>
      </trkpt>
      <trkpt lat="48.602195" lon="16.809173">
        <ele>217.927783</ele>
        <time>2020-07-04T04:24:04.676Z</time>
      </trkpt>
      <trkpt lat="48.602172" lon="16.809319">
        <ele>217.906341</ele>
        <time>2020-07-04T04:24:06.685Z</time>
      </trkpt>
      <trkpt lat="48.602146" lon="16.809468">
        <ele>217.884325</ele>
        <time>2020-07-04T04:24:08.686Z</time>
      </trkpt>
      <trkpt lat="48.602115" lon="16.809622">
        <ele>217.861327</ele>
        <time>2020-07-04T04:24:10.705Z</time>
      </trkpt>
      <trkpt lat="48.602076" lon="16.809779">
        <ele>217.837367</ele>
        <time>2020-07-04T04:24:12.697Z</time>
      </trkpt>
      <trkpt lat="48.602029" lon="16.809939">
        <ele>217.812354</ele>
        <time>2020-07-04T04:24:14.672Z</time>
      </trkpt>
      <trkpt lat="48.601966" lon="16.810113">
        <ele>217.784013</ele>
        <time>2020-07-04T04:24:16.690Z</time>
      </trkpt>
      <trkpt lat="48.601916" lon="16.810273">
        <ele>217.758731</ele>
        <time>2020-07-04T04:24:18.668Z</time>
      </trkpt>
      <trkpt lat="48.601867" lon="16.810432">
        <ele>217.733670</ele>
        <time>2020-07-04T04:24:20.692Z</time>
      </trkpt>
      <trkpt lat="48.601819" lon="16.810590">
        <ele>217.708829</ele>
        <time>2020-07-04T04:24:22.703Z</time>
      </trkpt>
      <trkpt lat="48.601757" lon="16.810770">
        <ele>217.679833</ele>
        <time>2020-07-04T04:24:24.678Z</time>
      </trkpt>
      <trkpt lat="48.601712" lon="16.810933">
        <ele>217.647346</ele>
        <time>2020-07-04T04:24:26.679Z</time>
      </trkpt>
      <trkpt lat="48.601667" lon="16.811093">
        <ele>217.615325</ele>
        <time>2020-07-04T04:24:28.686Z</time>
      </trkpt>
      <trkpt lat="48.601620" lon="16.811251">
        <ele>217.583418</ele>
        <time>2020-07-04T04:24:30.682Z</time>
      </trkpt>
      <trkpt lat="48.601571" lon="16.811414">
        <ele>217.550443</ele>
        <time>2020-07-04T04:24:32.689Z</time>
      </trkpt>
      <trkpt lat="48.601523" lon="16.811573">
        <ele>217.518253</ele>
        <time>2020-07-04T04:24:34.712Z</time>
      </trkpt>
      <trkpt lat="48.601478" lon="16.811734">
        <ele>217.486062</ele>
        <time>2020-07-04T04:24:36.680Z</time>
      </trkpt>
      <trkpt lat="48.601438" lon="16.811896">
        <ele>217.454215</ele>
        <time>2020-07-04T04:24:38.692Z</time>
      </trkpt>
      <trkpt lat="48.601399" lon="16.812056">
        <ele>217.422811</ele>
        <time>2020-07-04T04:24:40.690Z</time>
      </trkpt>
      <trkpt lat="48.601364" lon="16.812205">
        <ele>217.393690</ele>
        <time>2020-07-04T04:24:42.704Z</time>
      </trkpt>
      <trkpt lat="48.601332" lon="16.812376">
        <ele>217.360960</ele>
        <time>2020-07-04T04:24:45.696Z</time>
      </trkpt>
      <trkpt lat="48.601311" lon="16.812516">
        <ele>217.334522</ele>
        <time>2020-07-04T04:24:48.675Z</time>
      </trkpt>
      <trkpt lat="48.601294" lon="16.812683">
        <ele>217.303404</ele>
        <time>2020-07-04T04:24:51.678Z</time>
      </trkpt>
      <trkpt lat="48.601280" lon="16.812855">
        <ele>217.271488</ele>
        <time>2020-07-04T04:24:53.663Z</time>
      </trkpt>
      <trkpt lat="48.601265" lon="16.813054">
        <ele>217.234601</ele>
        <time>2020-07-04T04:24:55.709Z</time>
      </trkpt>
      <trkpt lat="48.601244" lon="16.813268">
        <ele>217.194757</ele>
        <time>2020-07-04T04:24:57.676Z</time>
      </trkpt>
      <trkpt lat="48.601219" lon="16.813466">
        <ele>217.160650</ele>
        <time>2020-07-04T04:24:59.690Z</time>
      </trkpt>
      <trkpt lat="48.601196" lon="16.813655">
        <ele>217.130310</ele>
        <time>2020-07-04T04:25:01.684Z</time>
      </trkpt>
      <trkpt lat="48.601174" lon="16.813842">
        <ele>217.100322</ele>
        <time>2020-07-04T04:25:03.701Z</time>
      </trkpt>
      <trkpt lat="48.601154" lon="16.814026">
        <ele>217.070882</ele>
        <time>2020-07-04T04:25:05.674Z</time>
      </trkpt>
      <trkpt lat="48.601139" lon="16.814205">
        <ele>217.042395</ele>
        <time>2020-07-04T04:25:07.690Z</time>
      </trkpt>
      <trkpt lat="48.601122" lon="16.814382">
        <ele>217.014156</ele>
        <time>2020-07-04T04:25:09.700Z</time>
      </trkpt>
      <trkpt lat="48.601102" lon="16.814559">
        <ele>216.985806</ele>
        <time>2020-07-04T04:25:11.678Z</time>
      </trkpt>
      <trkpt lat="48.601086" lon="16.814735">
        <ele>216.957757</ele>
        <time>2020-07-04T04:25:13.669Z</time>
      </trkpt>
      <trkpt lat="48.601071" lon="16.814910">
        <ele>216.929897</ele>
        <time>2020-07-04T04:25:15.697Z</time>
      </trkpt>
      <trkpt lat="48.601061" lon="16.815087">
        <ele>216.901850</ele>
        <time>2020-07-04T04:25:17.694Z</time>
      </trkpt>
      <trkpt lat="48.601051" lon="16.815263">
        <ele>216.873960</ele>
        <time>2020-07-04T04:25:19.670Z</time>
      </trkpt>
      <trkpt lat="48.601041" lon="16.815441">
        <ele>216.845756</ele>
        <time>2020-07-04T04:25:21.672Z</time>
      </trkpt>
      <trkpt lat="48.601022" lon="16.815620">
        <ele>216.817133</ele>
        <time>2020-07-04T04:25:23.682Z</time>
      </trkpt>
      <trkpt lat="48.601009" lon="16.815799">
        <ele>216.788702</ele>
        <time>2020-07-04T04:25:25.680Z</time>
      </trkpt>
      <trkpt lat="48.600998" lon="16.815978">
        <ele>216.760319</ele>
        <time>2020-07-04T04:25:27.687Z</time>
      </trkpt>
      <trkpt lat="48.600986" lon="16.816154">
        <ele>216.734059</ele>
        <time>2020-07-04T04:25:29.694Z</time>
      </trkpt>
      <trkpt lat="48.600971" lon="16.816329">
        <ele>216.708949</ele>
        <time>2020-07-04T04:25:31.679Z</time>
      </trkpt>
      <trkpt lat="48.600957" lon="16.816507">
        <ele>216.683442</ele>
        <time>2020-07-04T04:25:33.699Z</time>
      </trkpt>
      <trkpt lat="48.600942" lon="16.816684">
        <ele>216.658049</ele>
        <time>2020-07-04T04:25:35.712Z</time>
      </trkpt>
      <trkpt lat="48.600926" lon="16.816857">
        <ele>216.633192</ele>
        <time>2020-07-04T04:25:37.690Z</time>
      </trkpt>
      <trkpt lat="48.600912" lon="16.817036">
        <ele>216.607544</ele>
        <time>2020-07-04T04:25:39.704Z</time>
      </trkpt>
      <trkpt lat="48.600897" lon="16.817212">
        <ele>216.582292</ele>
        <time>2020-07-04T04:25:41.675Z</time>
      </trkpt>
      <trkpt lat="48.600880" lon="16.817386">
        <ele>216.557264</ele>
        <time>2020-07-04T04:25:43.689Z</time>
      </trkpt>
      <trkpt lat="48.600885" lon="16.817553">
        <ele>216.533476</ele>
        <time>2020-07-04T04:25:45.675Z</time>
      </trkpt>
      <trkpt lat="48.600955" lon="16.817688">
        <ele>216.509065</ele>
        <time>2020-07-04T04:25:47.670Z</time>
      </trkpt>
      <trkpt lat="48.601047" lon="16.817785">
        <ele>216.484931</ele>
        <time>2020-07-04T04:25:49.671Z</time>
      </trkpt>
      <trkpt lat="48.601132" lon="16.817892">
        <ele>216.461133</ele>
        <time>2020-07-04T04:25:51.690Z</time>
      </trkpt>
      <trkpt lat="48.601203" lon="16.817995">
        <ele>216.439962</ele>
        <time>2020-07-04T04:25:53.676Z</time>
      </trkpt>
      <trkpt lat="48.601292" lon="16.818065">
        <ele>216.418376</ele>
        <time>2020-07-04T04:25:55.671Z</time>
      </trkpt>
      <trkpt lat="48.601384" lon="16.818127">
        <ele>216.396703</ele>
        <time>2020-07-04T04:25:57.668Z</time>
      </trkpt>
      <trkpt lat="48.601482" lon="16.818181">
        <ele>216.374259</ele>
        <time>2020-07-04T04:25:59.683Z</time>
      </trkpt>
      <trkpt lat="48.601576" lon="16.818238">
        <ele>216.365929</ele>
        <time>2020-07-04T04:26:01.677Z</time>
      </trkpt>
      <trkpt lat="48.601663" lon="16.818325">
        <ele>216.374139</ele>
        <time>2020-07-04T04:26:03.683Z</time>
      </trkpt>
      <trkpt lat="48.601649" lon="16.818467">
        <ele>216.381613</ele>
        <time>2020-07-04T04:26:05.691Z</time>
      </trkpt>
      <trkpt lat="48.601611" lon="16.818604">
        <ele>216.389347</ele>
        <time>2020-07-04T04:26:07.677Z</time>
      </trkpt>
      <trkpt lat="48.601567" lon="16.818740">
        <ele>216.397229</ele>
        <time>2020-07-04T04:26:09.680Z</time>
      </trkpt>
      <trkpt lat="48.601501" lon="16.818845">
        <ele>216.404770</ele>
        <time>2020-07-04T04:26:11.663Z</time>
      </trkpt>
      <trkpt lat="48.601425" lon="16.818929">
        <ele>216.412180</ele>
        <time>2020-07-04T04:26:13.685Z</time>
      </trkpt>
      <trkpt lat="48.601328" lon="16.819004">
        <ele>216.420756</ele>
        <time>2020-07-04T04:26:15.668Z</time>
      </trkpt>
      <trkpt lat="48.601232" lon="16.819080">
        <ele>216.429286</ele>
        <time>2020-07-04T04:26:17.685Z</time>
      </trkpt>
      <trkpt lat="48.601142" lon="16.819163">
        <ele>216.437585</ele>
        <time>2020-07-04T04:26:19.692Z</time>
      </trkpt>
      <trkpt lat="48.601049" lon="16.819241">
        <ele>216.445956</ele>
        <time>2020-07-04T04:26:21.695Z</time>
      </trkpt>
      <trkpt lat="48.600956" lon="16.819314">
        <ele>216.454205</ele>
        <time>2020-07-04T04:26:23.689Z</time>
      </trkpt>
      <trkpt lat="48.600864" lon="16.819391">
        <ele>216.462482</ele>
        <time>2020-07-04T04:26:25.678Z</time>
      </trkpt>
      <trkpt lat="48.600776" lon="16.819477">
        <ele>216.470730</ele>
        <time>2020-07-04T04:26:27.687Z</time>
      </trkpt>
      <trkpt lat="48.600691" lon="16.819573">
        <ele>216.479082</ele>
        <time>2020-07-04T04:26:29.687Z</time>
      </trkpt>
      <trkpt lat="48.600606" lon="16.819676">
        <ele>216.487656</ele>
        <time>2020-07-04T04:26:31.686Z</time>
      </trkpt>
      <trkpt lat="48.600525" lon="16.819772">
        <ele>216.495758</ele>
        <time>2020-07-04T04:26:33.686Z</time>
      </trkpt>
      <trkpt lat="48.600442" lon="16.819869">
        <ele>216.503736</ele>
        <time>2020-07-04T04:26:35.680Z</time>
      </trkpt>
      <trkpt lat="48.600355" lon="16.819967">
        <ele>216.489196</ele>
        <time>2020-07-04T04:26:37.682Z</time>
      </trkpt>
      <trkpt lat="48.600259" lon="16.820047">
        <ele>216.474505</ele>
        <time>2020-07-04T04:26:39.684Z</time>
      </trkpt>
      <trkpt lat="48.600154" lon="16.820108">
        <ele>216.459429</ele>
        <time>2020-07-04T04:26:41.667Z</time>
      </trkpt>
      <trkpt lat="48.600047" lon="16.820164">
        <ele>216.444253</ele>
        <time>2020-07-04T04:26:43.700Z</time>
      </trkpt>
      <trkpt lat="48.599946" lon="16.820220">
        <ele>216.429835</ele>
        <time>2020-07-04T04:26:45.682Z</time>
      </trkpt>
      <trkpt lat="48.599839" lon="16.820281">
        <ele>216.414509</ele>
        <time>2020-07-04T04:26:47.695Z</time>
      </trkpt>
      <trkpt lat="48.599734" lon="16.820341">
        <ele>216.399465</ele>
        <time>2020-07-04T04:26:49.683Z</time>
      </trkpt>
      <trkpt lat="48.599628" lon="16.820389">
        <ele>216.384635</ele>
        <time>2020-07-04T04:26:51.694Z</time>
      </trkpt>
      <trkpt lat="48.599512" lon="16.820436">
        <ele>216.368539</ele>
        <time>2020-07-04T04:26:53.679Z</time>
      </trkpt>
      <trkpt lat="48.599398" lon="16.820479">
        <ele>216.352792</ele>
        <time>2020-07-04T04:26:55.682Z</time>
      </trkpt>
      <trkpt lat="48.599288" lon="16.820525">
        <ele>216.337495</ele>
        <time>2020-07-04T04:26:57.689Z</time>
      </trkpt>
      <trkpt lat="48.599181" lon="16.820559">
        <ele>216.322841</ele>
        <time>2020-07-04T04:26:59.683Z</time>
      </trkpt>
      <trkpt lat="48.599076" lon="16.820593">
        <ele>216.308449</ele>
        <time>2020-07-04T04:27:01.683Z</time>
      </trkpt>
      <trkpt lat="48.598971" lon="16.820634">
        <ele>216.293915</ele>
        <time>2020-07-04T04:27:03.687Z</time>
      </trkpt>
      <trkpt lat="48.598864" lon="16.820680">
        <ele>216.279006</ele>
        <time>2020-07-04T04:27:05.672Z</time>
      </trkpt>
      <trkpt lat="48.598758" lon="16.820725">
        <ele>216.264250</ele>
        <time>2020-07-04T04:27:07.674Z</time>
      </trkpt>
      <trkpt lat="48.598655" lon="16.820772">
        <ele>216.250919</ele>
        <time>2020-07-04T04:27:09.696Z</time>
      </trkpt>
      <trkpt lat="48.598556" lon="16.820817">
        <ele>216.238223</ele>
        <time>2020-07-04T04:27:11.678Z</time>
      </trkpt>
      <trkpt lat="48.598458" lon="16.820864">
        <ele>216.225596</ele>
        <time>2020-07-04T04:27:13.681Z</time>
      </trkpt>
      <trkpt lat="48.598359" lon="16.820917">
        <ele>216.212698</ele>
        <time>2020-07-04T04:27:15.667Z</time>
      </trkpt>
      <trkpt lat="48.598262" lon="16.820968">
        <ele>216.200086</ele>
        <time>2020-07-04T04:27:17.676Z</time>
      </trkpt>
      <trkpt lat="48.598156" lon="16.821022">
        <ele>216.186349</ele>
        <time>2020-07-04T04:27:19.711Z</time>
      </trkpt>
      <trkpt lat="48.598052" lon="16.821077">
        <ele>216.172818</ele>
        <time>2020-07-04T04:27:21.686Z</time>
      </trkpt>
      <trkpt lat="48.597948" lon="16.821141">
        <ele>216.159028</ele>
        <time>2020-07-04T04:27:23.686Z</time>
      </trkpt>
      <trkpt lat="48.597848" lon="16.821219">
        <ele>216.145209</ele>
        <time>2020-07-04T04:27:25.680Z</time>
      </trkpt>
      <trkpt lat="48.597749" lon="16.821310">
        <ele>216.130980</ele>
        <time>2020-07-04T04:27:27.680Z</time>
      </trkpt>
      <trkpt lat="48.597650" lon="16.821405">
        <ele>216.116580</ele>
        <time>2020-07-04T04:27:29.702Z</time>
      </trkpt>
      <trkpt lat="48.597549" lon="16.821500">
        <ele>216.101972</ele>
        <time>2020-07-04T04:27:31.691Z</time>
      </trkpt>
      <trkpt lat="48.597450" lon="16.821582">
        <ele>216.088109</ele>
        <time>2020-07-04T04:27:33.687Z</time>
      </trkpt>
      <trkpt lat="48.597354" lon="16.821658">
        <ele>216.074801</ele>
        <time>2020-07-04T04:27:35.670Z</time>
      </trkpt>
      <trkpt lat="48.597260" lon="16.821732">
        <ele>216.061785</ele>
        <time>2020-07-04T04:27:37.689Z</time>
      </trkpt>
      <trkpt lat="48.597160" lon="16.821818">
        <ele>216.047657</ele>
        <time>2020-07-04T04:27:39.670Z</time>
      </trkpt>
      <trkpt lat="48.597061" lon="16.821910">
        <ele>216.039199</ele>
        <time>2020-07-04T04:27:41.676Z</time>
      </trkpt>
      <trkpt lat="48.596965" lon="16.822001">
        <ele>216.034732</ele>
        <time>2020-07-04T04:27:43.679Z</time>
      </trkpt>
      <trkpt lat="48.596870" lon="16.822092">
        <ele>216.030298</ele>
        <time>2020-07-04T04:27:45.678Z</time>
      </trkpt>
      <trkpt lat="48.596776" lon="16.822185">
        <ele>216.025868</ele>
        <time>2020-07-04T04:27:47.668Z</time>
      </trkpt>
      <trkpt lat="48.596686" lon="16.822278">
        <ele>216.021570</ele>
        <time>2020-07-04T04:27:49.687Z</time>
      </trkpt>
      <trkpt lat="48.596590" lon="16.822378">
        <ele>216.016973</ele>
        <time>2020-07-04T04:27:51.689Z</time>
      </trkpt>
      <trkpt lat="48.596495" lon="16.822474">
        <ele>216.012468</ele>
        <time>2020-07-04T04:27:53.694Z</time>
      </trkpt>
      <trkpt lat="48.596396" lon="16.822588">
        <ele>216.007561</ele>
        <time>2020-07-04T04:27:55.713Z</time>
      </trkpt>
      <trkpt lat="48.596300" lon="16.822691">
        <ele>216.002920</ele>
        <time>2020-07-04T04:27:57.679Z</time>
      </trkpt>
      <trkpt lat="48.596201" lon="16.822794">
        <ele>215.998182</ele>
        <time>2020-07-04T04:27:59.672Z</time>
      </trkpt>
      <trkpt lat="48.596101" lon="16.822898">
        <ele>215.993396</ele>
        <time>2020-07-04T04:28:01.680Z</time>
      </trkpt>
      <trkpt lat="48.596003" lon="16.822993">
        <ele>215.988806</ele>
        <time>2020-07-04T04:28:03.678Z</time>
      </trkpt>
      <trkpt lat="48.595904" lon="16.823083">
        <ele>215.984251</ele>
        <time>2020-07-04T04:28:05.667Z</time>
      </trkpt>
      <trkpt lat="48.595800" lon="16.823164">
        <ele>215.979638</ele>
        <time>2020-07-04T04:28:07.678Z</time>
      </trkpt>
      <trkpt lat="48.595700" lon="16.823240">
        <ele>215.975225</ele>
        <time>2020-07-04T04:28:09.671Z</time>
      </trkpt>
      <trkpt lat="48.595610" lon="16.823317">
        <ele>215.971148</ele>
        <time>2020-07-04T04:28:11.687Z</time>
      </trkpt>
      <trkpt lat="48.595525" lon="16.823404">
        <ele>215.960676</ele>
        <time>2020-07-04T04:28:13.683Z</time>
      </trkpt>
      <trkpt lat="48.595421" lon="16.823483">
        <ele>215.948580</ele>
        <time>2020-07-04T04:28:16.677Z</time>
      </trkpt>
      <trkpt lat="48.595328" lon="16.823396">
        <ele>215.937215</ele>
        <time>2020-07-04T04:28:19.666Z</time>
      </trkpt>
      <trkpt lat="48.595240" lon="16.823307">
        <ele>215.926212</ele>
        <time>2020-07-04T04:28:22.673Z</time>
      </trkpt>
      <trkpt lat="48.595132" lon="16.823253">
        <ele>215.914390</ele>
        <time>2020-07-04T04:28:25.681Z</time>
      </trkpt>
      <trkpt lat="48.595011" lon="16.823406">
        <ele>215.897997</ele>
        <time>2020-07-04T04:28:28.672Z</time>
      </trkpt>
      <trkpt lat="48.594924" lon="16.823560">
        <ele>215.884076</ele>
        <time>2020-07-04T04:28:30.678Z</time>
      </trkpt>
      <trkpt lat="48.594827" lon="16.823712">
        <ele>215.869558</ele>
        <time>2020-07-04T04:28:32.673Z</time>
      </trkpt>
      <trkpt lat="48.594726" lon="16.823880">
        <ele>215.853953</ele>
        <time>2020-07-04T04:28:34.715Z</time>
      </trkpt>
      <trkpt lat="48.594624" lon="16.824041">
        <ele>215.838629</ele>
        <time>2020-07-04T04:28:36.679Z</time>
      </trkpt>
      <trkpt lat="48.594519" lon="16.824190">
        <ele>215.823663</ele>
        <time>2020-07-04T04:28:38.677Z</time>
      </trkpt>
      <trkpt lat="48.594422" lon="16.824336">
        <ele>215.809439</ele>
        <time>2020-07-04T04:28:40.669Z</time>
      </trkpt>
      <trkpt lat="48.594336" lon="16.824490">
        <ele>215.795585</ele>
        <time>2020-07-04T04:28:42.700Z</time>
      </trkpt>
      <trkpt lat="48.594258" lon="16.824643">
        <ele>215.777319</ele>
        <time>2020-07-04T04:28:44.682Z</time>
      </trkpt>
      <trkpt lat="48.594179" lon="16.824789">
        <ele>215.728329</ele>
        <time>2020-07-04T04:28:46.673Z</time>
      </trkpt>
      <trkpt lat="48.594099" lon="16.824931">
        <ele>215.679885</ele>
        <time>2020-07-04T04:28:48.694Z</time>
      </trkpt>
      <trkpt lat="48.594026" lon="16.825081">
        <ele>215.631520</ele>
        <time>2020-07-04T04:28:50.697Z</time>
      </trkpt>
      <trkpt lat="48.593949" lon="16.825225">
        <ele>215.583428</ele>
        <time>2020-07-04T04:28:52.697Z</time>
      </trkpt>
      <trkpt lat="48.593868" lon="16.825364">
        <ele>215.535316</ele>
        <time>2020-07-04T04:28:54.679Z</time>
      </trkpt>
      <trkpt lat="48.593789" lon="16.825506">
        <ele>215.487125</ele>
        <time>2020-07-04T04:28:56.706Z</time>
      </trkpt>
      <trkpt lat="48.593719" lon="16.825658">
        <ele>215.439023</ele>
        <time>2020-07-04T04:28:58.710Z</time>
      </trkpt>
      <trkpt lat="48.593649" lon="16.825803">
        <ele>215.392400</ele>
        <time>2020-07-04T04:29:00.687Z</time>
      </trkpt>
      <trkpt lat="48.593581" lon="16.825953">
        <ele>215.345171</ele>
        <time>2020-07-04T04:29:02.711Z</time>
      </trkpt>
      <trkpt lat="48.593514" lon="16.826107">
        <ele>215.297299</ele>
        <time>2020-07-04T04:29:04.690Z</time>
      </trkpt>
      <trkpt lat="48.593451" lon="16.826263">
        <ele>215.249829</ele>
        <time>2020-07-04T04:29:06.694Z</time>
      </trkpt>
      <trkpt lat="48.593394" lon="16.826417">
        <ele>215.203996</ele>
        <time>2020-07-04T04:29:08.682Z</time>
      </trkpt>
      <trkpt lat="48.593336" lon="16.826573">
        <ele>215.157519</ele>
        <time>2020-07-04T04:29:10.684Z</time>
      </trkpt>
      <trkpt lat="48.593276" lon="16.826730">
        <ele>215.110427</ele>
        <time>2020-07-04T04:29:12.661Z</time>
      </trkpt>
      <trkpt lat="48.593217" lon="16.826883">
        <ele>215.066264</ele>
        <time>2020-07-04T04:29:14.661Z</time>
      </trkpt>
      <trkpt lat="48.593158" lon="16.827033">
        <ele>215.027138</ele>
        <time>2020-07-04T04:29:16.671Z</time>
      </trkpt>
      <trkpt lat="48.593098" lon="16.827181">
        <ele>214.988221</ele>
        <time>2020-07-04T04:29:18.683Z</time>
      </trkpt>
      <trkpt lat="48.593039" lon="16.827332">
        <ele>214.948903</ele>
        <time>2020-07-04T04:29:20.671Z</time>
      </trkpt>
      <trkpt lat="48.592986" lon="16.827484">
        <ele>214.910380</ele>
        <time>2020-07-04T04:29:22.683Z</time>
      </trkpt>
      <trkpt lat="48.592933" lon="16.827636">
        <ele>214.871858</ele>
        <time>2020-07-04T04:29:24.677Z</time>
      </trkpt>
      <trkpt lat="48.592873" lon="16.827787">
        <ele>214.832366</ele>
        <time>2020-07-04T04:29:26.693Z</time>
      </trkpt>
      <trkpt lat="48.592812" lon="16.827937">
        <ele>214.792890</ele>
        <time>2020-07-04T04:29:28.681Z</time>
      </trkpt>
      <trkpt lat="48.592753" lon="16.828088">
        <ele>214.753571</ele>
        <time>2020-07-04T04:29:30.670Z</time>
      </trkpt>
      <trkpt lat="48.592695" lon="16.828237">
        <ele>214.714811</ele>
        <time>2020-07-04T04:29:32.688Z</time>
      </trkpt>
      <trkpt lat="48.592637" lon="16.828387">
        <ele>214.675857</ele>
        <time>2020-07-04T04:29:34.700Z</time>
      </trkpt>
      <trkpt lat="48.592579" lon="16.828537">
        <ele>214.636903</ele>
        <time>2020-07-04T04:29:36.684Z</time>
      </trkpt>
      <trkpt lat="48.592522" lon="16.828685">
        <ele>214.598508</ele>
        <time>2020-07-04T04:29:38.703Z</time>
      </trkpt>
      <trkpt lat="48.592466" lon="16.828839">
        <ele>214.559108</ele>
        <time>2020-07-04T04:29:40.709Z</time>
      </trkpt>
      <trkpt lat="48.592411" lon="16.828996">
        <ele>214.519278</ele>
        <time>2020-07-04T04:29:42.693Z</time>
      </trkpt>
      <trkpt lat="48.592349" lon="16.829147">
        <ele>214.479432</ele>
        <time>2020-07-04T04:29:44.668Z</time>
      </trkpt>
      <trkpt lat="48.592291" lon="16.829303">
        <ele>214.449615</ele>
        <time>2020-07-04T04:29:46.669Z</time>
      </trkpt>
      <trkpt lat="48.592230" lon="16.829447">
        <ele>214.424969</ele>
        <time>2020-07-04T04:29:48.671Z</time>
      </trkpt>
      <trkpt lat="48.592176" lon="16.829598">
        <ele>214.400228</ele>
        <time>2020-07-04T04:29:50.669Z</time>
      </trkpt>
      <trkpt lat="48.592114" lon="16.829749">
        <ele>214.374613</ele>
        <time>2020-07-04T04:29:52.676Z</time>
      </trkpt>
      <trkpt lat="48.592053" lon="16.829905">
        <ele>214.348493</ele>
        <time>2020-07-04T04:29:54.710Z</time>
      </trkpt>
      <trkpt lat="48.591994" lon="16.830052">
        <ele>214.323711</ele>
        <time>2020-07-04T04:29:56.694Z</time>
      </trkpt>
      <trkpt lat="48.591935" lon="16.830201">
        <ele>214.298682</ele>
        <time>2020-07-04T04:29:58.683Z</time>
      </trkpt>
      <trkpt lat="48.591875" lon="16.830352">
        <ele>214.273293</ele>
        <time>2020-07-04T04:30:00.675Z</time>
      </trkpt>
      <trkpt lat="48.591816" lon="16.830505">
        <ele>214.247767</ele>
        <time>2020-07-04T04:30:02.706Z</time>
      </trkpt>
      <trkpt lat="48.591761" lon="16.830658">
        <ele>214.222669</ele>
        <time>2020-07-04T04:30:04.683Z</time>
      </trkpt>
      <trkpt lat="48.591705" lon="16.830802">
        <ele>214.198593</ele>
        <time>2020-07-04T04:30:06.685Z</time>
      </trkpt>
      <trkpt lat="48.591647" lon="16.830947">
        <ele>214.174170</ele>
        <time>2020-07-04T04:30:08.696Z</time>
      </trkpt>
      <trkpt lat="48.591591" lon="16.831091">
        <ele>214.150094</ele>
        <time>2020-07-04T04:30:10.699Z</time>
      </trkpt>
      <trkpt lat="48.591536" lon="16.831241">
        <ele>214.125375</ele>
        <time>2020-07-04T04:30:12.675Z</time>
      </trkpt>
      <trkpt lat="48.591480" lon="16.831393">
        <ele>214.100298</ele>
        <time>2020-07-04T04:30:14.689Z</time>
      </trkpt>
      <trkpt lat="48.591415" lon="16.831539">
        <ele>214.074856</ele>
        <time>2020-07-04T04:30:16.691Z</time>
      </trkpt>
      <trkpt lat="48.591321" lon="16.831619">
        <ele>214.049959</ele>
        <time>2020-07-04T04:30:18.680Z</time>
      </trkpt>
      <trkpt lat="48.591208" lon="16.831552">
        <ele>214.021945</ele>
        <time>2020-07-04T04:30:20.678Z</time>
      </trkpt>
      <trkpt lat="48.591121" lon="16.831462">
        <ele>213.997615</ele>
        <time>2020-07-04T04:30:22.678Z</time>
      </trkpt>
      <trkpt lat="48.591033" lon="16.831373">
        <ele>213.973180</ele>
        <time>2020-07-04T04:30:24.690Z</time>
      </trkpt>
      <trkpt lat="48.590944" lon="16.831292">
        <ele>213.949204</ele>
        <time>2020-07-04T04:30:26.681Z</time>
      </trkpt>
      <trkpt lat="48.590856" lon="16.831206">
        <ele>213.925020</ele>
        <time>2020-07-04T04:30:28.675Z</time>
      </trkpt>
      <trkpt lat="48.590765" lon="16.831122">
        <ele>213.900412</ele>
        <time>2020-07-04T04:30:30.674Z</time>
      </trkpt>
      <trkpt lat="48.590669" lon="16.831038">
        <ele>213.874812</ele>
        <time>2020-07-04T04:30:32.694Z</time>
      </trkpt>
      <trkpt lat="48.590571" lon="16.830955">
        <ele>213.848886</ele>
        <time>2020-07-04T04:30:34.685Z</time>
      </trkpt>
      <trkpt lat="48.590474" lon="16.830904">
        <ele>213.825184</ele>
        <time>2020-07-04T04:30:36.682Z</time>
      </trkpt>
      <trkpt lat="48.590383" lon="16.831007">
        <ele>213.798947</ele>
        <time>2020-07-04T04:30:38.676Z</time>
      </trkpt>
      <trkpt lat="48.590322" lon="16.831153">
        <ele>213.772585</ele>
        <time>2020-07-04T04:30:40.676Z</time>
      </trkpt>
      <trkpt lat="48.590260" lon="16.831299">
        <ele>213.746098</ele>
        <time>2020-07-04T04:30:42.666Z</time>
      </trkpt>
      <trkpt lat="48.590196" lon="16.831447">
        <ele>213.719105</ele>
        <time>2020-07-04T04:30:44.687Z</time>
      </trkpt>
      <trkpt lat="48.590128" lon="16.831584">
        <ele>213.692957</ele>
        <time>2020-07-04T04:30:46.683Z</time>
      </trkpt>
      <trkpt lat="48.590056" lon="16.831719">
        <ele>213.666483</ele>
        <time>2020-07-04T04:30:48.676Z</time>
      </trkpt>
      <trkpt lat="48.589990" lon="16.831858">
        <ele>213.655084</ele>
        <time>2020-07-04T04:30:50.686Z</time>
      </trkpt>
      <trkpt lat="48.589925" lon="16.831998">
        <ele>213.647509</ele>
        <time>2020-07-04T04:30:52.684Z</time>
      </trkpt>
      <trkpt lat="48.589861" lon="16.832141">
        <ele>213.639862</ele>
        <time>2020-07-04T04:30:54.704Z</time>
      </trkpt>
      <trkpt lat="48.589799" lon="16.832282">
        <ele>213.632364</ele>
        <time>2020-07-04T04:30:56.672Z</time>
      </trkpt>
      <trkpt lat="48.589733" lon="16.832422">
        <ele>213.624750</ele>
        <time>2020-07-04T04:30:58.699Z</time>
      </trkpt>
      <trkpt lat="48.589665" lon="16.832562">
        <ele>213.617058</ele>
        <time>2020-07-04T04:31:00.690Z</time>
      </trkpt>
      <trkpt lat="48.589597" lon="16.832702">
        <ele>213.609365</ele>
        <time>2020-07-04T04:31:02.699Z</time>
      </trkpt>
      <trkpt lat="48.589528" lon="16.832833">
        <ele>213.601949</ele>
        <time>2020-07-04T04:31:04.680Z</time>
      </trkpt>
      <trkpt lat="48.589460" lon="16.832972">
        <ele>213.594293</ele>
        <time>2020-07-04T04:31:06.676Z</time>
      </trkpt>
      <trkpt lat="48.589395" lon="16.833109">
        <ele>213.586826</ele>
        <time>2020-07-04T04:31:08.695Z</time>
      </trkpt>
      <trkpt lat="48.589331" lon="16.833247">
        <ele>213.579362</ele>
        <time>2020-07-04T04:31:10.691Z</time>
      </trkpt>
      <trkpt lat="48.589267" lon="16.833388">
        <ele>213.571788</ele>
        <time>2020-07-04T04:31:12.689Z</time>
      </trkpt>
      <trkpt lat="48.589203" lon="16.833534">
        <ele>213.564031</ele>
        <time>2020-07-04T04:31:14.678Z</time>
      </trkpt>
      <trkpt lat="48.589134" lon="16.833676">
        <ele>213.556228</ele>
        <time>2020-07-04T04:31:16.672Z</time>
      </trkpt>
      <trkpt lat="48.589064" lon="16.833814">
        <ele>213.548526</ele>
        <time>2020-07-04T04:31:18.682Z</time>
      </trkpt>
      <trkpt lat="48.588994" lon="16.833954">
        <ele>213.540754</ele>
        <time>2020-07-04T04:31:20.673Z</time>
      </trkpt>
      <trkpt lat="48.588923" lon="16.834093">
        <ele>213.532090</ele>
        <time>2020-07-04T04:31:22.692Z</time>
      </trkpt>
      <trkpt lat="48.588858" lon="16.834233">
        <ele>213.523642</ele>
        <time>2020-07-04T04:31:24.689Z</time>
      </trkpt>
      <trkpt lat="48.588795" lon="16.834389">
        <ele>213.514615</ele>
        <time>2020-07-04T04:31:26.682Z</time>
      </trkpt>
      <trkpt lat="48.588752" lon="16.834558">
        <ele>213.505672</ele>
        <time>2020-07-04T04:31:28.674Z</time>
      </trkpt>
      <trkpt lat="48.588716" lon="16.834725">
        <ele>213.496997</ele>
        <time>2020-07-04T04:31:30.698Z</time>
      </trkpt>
      <trkpt lat="48.588687" lon="16.834889">
        <ele>213.488613</ele>
        <time>2020-07-04T04:31:32.669Z</time>
      </trkpt>
      <trkpt lat="48.588649" lon="16.835058">
        <ele>213.479797</ele>
        <time>2020-07-04T04:31:34.669Z</time>
      </trkpt>
      <trkpt lat="48.588617" lon="16.835223">
        <ele>213.471305</ele>
        <time>2020-07-04T04:31:36.692Z</time>
      </trkpt>
      <trkpt lat="48.588584" lon="16.835387">
        <ele>213.462838</ele>
        <time>2020-07-04T04:31:38.682Z</time>
      </trkpt>
      <trkpt lat="48.588540" lon="16.835550">
        <ele>213.454143</ele>
        <time>2020-07-04T04:31:40.676Z</time>
      </trkpt>
      <trkpt lat="48.588506" lon="16.835713">
        <ele>213.445702</ele>
        <time>2020-07-04T04:31:42.680Z</time>
      </trkpt>
      <trkpt lat="48.588472" lon="16.835884">
        <ele>213.436883</ele>
        <time>2020-07-04T04:31:44.672Z</time>
      </trkpt>
      <trkpt lat="48.588441" lon="16.836047">
        <ele>213.428507</ele>
        <time>2020-07-04T04:31:46.701Z</time>
      </trkpt>
      <trkpt lat="48.588409" lon="16.836211">
        <ele>213.420062</ele>
        <time>2020-07-04T04:31:48.673Z</time>
      </trkpt>
      <trkpt lat="48.588377" lon="16.836376">
        <ele>213.411570</ele>
        <time>2020-07-04T04:31:50.718Z</time>
      </trkpt>
      <trkpt lat="48.588344" lon="16.836545">
        <ele>213.405491</ele>
        <time>2020-07-04T04:31:52.694Z</time>
      </trkpt>
      <trkpt lat="48.588308" lon="16.836713">
        <ele>213.403296</ele>
        <time>2020-07-04T04:31:54.685Z</time>
      </trkpt>
      <trkpt lat="48.588271" lon="16.836879">
        <ele>213.401118</ele>
        <time>2020-07-04T04:31:56.701Z</time>
      </trkpt>
      <trkpt lat="48.588233" lon="16.837044">
        <ele>213.398945</ele>
        <time>2020-07-04T04:31:58.680Z</time>
      </trkpt>
      <trkpt lat="48.588199" lon="16.837211">
        <ele>213.396773</ele>
        <time>2020-07-04T04:32:00.700Z</time>
      </trkpt>
      <trkpt lat="48.588167" lon="16.837375">
        <ele>213.394647</ele>
        <time>2020-07-04T04:32:02.696Z</time>
      </trkpt>
      <trkpt lat="48.588139" lon="16.837539">
        <ele>213.392541</ele>
        <time>2020-07-04T04:32:04.702Z</time>
      </trkpt>
      <trkpt lat="48.588112" lon="16.837697">
        <ele>213.390512</ele>
        <time>2020-07-04T04:32:06.686Z</time>
      </trkpt>
      <trkpt lat="48.588083" lon="16.837856">
        <ele>213.388462</ele>
        <time>2020-07-04T04:32:08.681Z</time>
      </trkpt>
      <trkpt lat="48.588051" lon="16.838015">
        <ele>213.386395</ele>
        <time>2020-07-04T04:32:10.708Z</time>
      </trkpt>
      <trkpt lat="48.588019" lon="16.838180">
        <ele>213.384257</ele>
        <time>2020-07-04T04:32:12.692Z</time>
      </trkpt>
      <trkpt lat="48.587984" lon="16.838342">
        <ele>213.382138</ele>
        <time>2020-07-04T04:32:14.684Z</time>
      </trkpt>
      <trkpt lat="48.587949" lon="16.838504">
        <ele>213.380020</ele>
        <time>2020-07-04T04:32:16.676Z</time>
      </trkpt>
      <trkpt lat="48.587914" lon="16.838670">
        <ele>213.377853</ele>
        <time>2020-07-04T04:32:18.683Z</time>
      </trkpt>
      <trkpt lat="48.587880" lon="16.838837">
        <ele>213.375681</ele>
        <time>2020-07-04T04:32:20.681Z</time>
      </trkpt>
      <trkpt lat="48.587846" lon="16.839006">
        <ele>213.373485</ele>
        <time>2020-07-04T04:32:22.694Z</time>
      </trkpt>
      <trkpt lat="48.587814" lon="16.839172">
        <ele>213.369542</ele>
        <time>2020-07-04T04:32:24.704Z</time>
      </trkpt>
      <trkpt lat="48.587780" lon="16.839341">
        <ele>213.364149</ele>
        <time>2020-07-04T04:32:26.685Z</time>
      </trkpt>
      <trkpt lat="48.587744" lon="16.839508">
        <ele>213.358786</ele>
        <time>2020-07-04T04:32:28.678Z</time>
      </trkpt>
      <trkpt lat="48.587708" lon="16.839673">
        <ele>213.353481</ele>
        <time>2020-07-04T04:32:30.688Z</time>
      </trkpt>
      <trkpt lat="48.587672" lon="16.839844">
        <ele>213.348002</ele>
        <time>2020-07-04T04:32:32.683Z</time>
      </trkpt>
      <trkpt lat="48.587638" lon="16.840014">
        <ele>213.342580</ele>
        <time>2020-07-04T04:32:34.678Z</time>
      </trkpt>
      <trkpt lat="48.587606" lon="16.840185">
        <ele>213.337154</ele>
        <time>2020-07-04T04:32:36.686Z</time>
      </trkpt>
      <trkpt lat="48.587577" lon="16.840356">
        <ele>213.331764</ele>
        <time>2020-07-04T04:32:38.675Z</time>
      </trkpt>
      <trkpt lat="48.587545" lon="16.840525">
        <ele>213.326396</ele>
        <time>2020-07-04T04:32:40.688Z</time>
      </trkpt>
      <trkpt lat="48.587511" lon="16.840693">
        <ele>213.321032</ele>
        <time>2020-07-04T04:32:42.677Z</time>
      </trkpt>
      <trkpt lat="48.587476" lon="16.840860">
        <ele>213.315683</ele>
        <time>2020-07-04T04:32:44.695Z</time>
      </trkpt>
      <trkpt lat="48.587441" lon="16.841026">
        <ele>213.310364</ele>
        <time>2020-07-04T04:32:46.699Z</time>
      </trkpt>
      <trkpt lat="48.587408" lon="16.841189">
        <ele>213.305159</ele>
        <time>2020-07-04T04:32:48.687Z</time>
      </trkpt>
      <trkpt lat="48.587367" lon="16.841344">
        <ele>213.300062</ele>
        <time>2020-07-04T04:32:50.682Z</time>
      </trkpt>
      <trkpt lat="48.587297" lon="16.841473">
        <ele>213.294968</ele>
        <time>2020-07-04T04:32:52.682Z</time>
      </trkpt>
      <trkpt lat="48.587195" lon="16.841556">
        <ele>213.289621</ele>
        <time>2020-07-04T04:32:54.682Z</time>
      </trkpt>
      <trkpt lat="48.587091" lon="16.841631">
        <ele>213.271651</ele>
        <time>2020-07-04T04:32:56.697Z</time>
      </trkpt>
      <trkpt lat="48.586993" lon="16.841705">
        <ele>213.254391</ele>
        <time>2020-07-04T04:32:58.675Z</time>
      </trkpt>
      <trkpt lat="48.586896" lon="16.841787">
        <ele>213.236881</ele>
        <time>2020-07-04T04:33:00.686Z</time>
      </trkpt>
      <trkpt lat="48.586794" lon="16.841870">
        <ele>213.218629</ele>
        <time>2020-07-04T04:33:02.691Z</time>
      </trkpt>
      <trkpt lat="48.586690" lon="16.841948">
        <ele>213.200337</ele>
        <time>2020-07-04T04:33:04.684Z</time>
      </trkpt>
      <trkpt lat="48.586586" lon="16.842034">
        <ele>213.181659</ele>
        <time>2020-07-04T04:33:06.711Z</time>
      </trkpt>
      <trkpt lat="48.586481" lon="16.842121">
        <ele>213.162794</ele>
        <time>2020-07-04T04:33:08.689Z</time>
      </trkpt>
      <trkpt lat="48.586374" lon="16.842218">
        <ele>213.143136</ele>
        <time>2020-07-04T04:33:10.690Z</time>
      </trkpt>
      <trkpt lat="48.586266" lon="16.842316">
        <ele>213.123289</ele>
        <time>2020-07-04T04:33:12.698Z</time>
      </trkpt>
      <trkpt lat="48.586156" lon="16.842416">
        <ele>213.103065</ele>
        <time>2020-07-04T04:33:14.690Z</time>
      </trkpt>
      <trkpt lat="48.586045" lon="16.842509">
        <ele>213.083069</ele>
        <time>2020-07-04T04:33:16.685Z</time>
      </trkpt>
      <trkpt lat="48.585933" lon="16.842598">
        <ele>213.063133</ele>
        <time>2020-07-04T04:33:18.702Z</time>
      </trkpt>
      <trkpt lat="48.585826" lon="16.842693">
        <ele>213.043581</ele>
        <time>2020-07-04T04:33:20.688Z</time>
      </trkpt>
      <trkpt lat="48.585721" lon="16.842784">
        <ele>213.024511</ele>
        <time>2020-07-04T04:33:22.673Z</time>
      </trkpt>
      <trkpt lat="48.585619" lon="16.842873">
        <ele>213.006184</ele>
        <time>2020-07-04T04:33:24.686Z</time>
      </trkpt>
      <trkpt lat="48.585520" lon="16.842961">
        <ele>213.009595</ele>
        <time>2020-07-04T04:33:26.681Z</time>
      </trkpt>
      <trkpt lat="48.585423" lon="16.843045">
        <ele>213.012915</ele>
        <time>2020-07-04T04:33:28.681Z</time>
      </trkpt>
      <trkpt lat="48.585331" lon="16.843125">
        <ele>213.016067</ele>
        <time>2020-07-04T04:33:30.689Z</time>
      </trkpt>
      <trkpt lat="48.585234" lon="16.843202">
        <ele>213.019321</ele>
        <time>2020-07-04T04:33:32.672Z</time>
      </trkpt>
      <trkpt lat="48.585138" lon="16.843281">
        <ele>213.022567</ele>
        <time>2020-07-04T04:33:34.695Z</time>
      </trkpt>
      <trkpt lat="48.585039" lon="16.843364">
        <ele>213.025929</ele>
        <time>2020-07-04T04:33:36.690Z</time>
      </trkpt>
      <trkpt lat="48.584937" lon="16.843447">
        <ele>213.029370</ele>
        <time>2020-07-04T04:33:38.693Z</time>
      </trkpt>
      <trkpt lat="48.584835" lon="16.843525">
        <ele>213.032764</ele>
        <time>2020-07-04T04:33:40.700Z</time>
      </trkpt>
      <trkpt lat="48.584735" lon="16.843609">
        <ele>213.036162</ele>
        <time>2020-07-04T04:33:42.681Z</time>
      </trkpt>
      <trkpt lat="48.584637" lon="16.843693">
        <ele>213.039508</ele>
        <time>2020-07-04T04:33:44.686Z</time>
      </trkpt>
      <trkpt lat="48.584538" lon="16.843778">
        <ele>213.042889</ele>
        <time>2020-07-04T04:33:46.677Z</time>
      </trkpt>
      <trkpt lat="48.584443" lon="16.843863">
        <ele>213.046168</ele>
        <time>2020-07-04T04:33:48.690Z</time>
      </trkpt>
      <trkpt lat="48.584350" lon="16.843946">
        <ele>213.049375</ele>
        <time>2020-07-04T04:33:50.674Z</time>
      </trkpt>
      <trkpt lat="48.584246" lon="16.844025">
        <ele>213.052832</ele>
        <time>2020-07-04T04:33:52.691Z</time>
      </trkpt>
      <trkpt lat="48.584150" lon="16.844106">
        <ele>213.056097</ele>
        <time>2020-07-04T04:33:54.688Z</time>
      </trkpt>
      <trkpt lat="48.584051" lon="16.844188">
        <ele>213.059450</ele>
        <time>2020-07-04T04:33:56.709Z</time>
      </trkpt>
      <trkpt lat="48.583949" lon="16.844274">
        <ele>213.031805</ele>
        <time>2020-07-04T04:33:58.697Z</time>
      </trkpt>
      <trkpt lat="48.583847" lon="16.844361">
        <ele>213.003002</ele>
        <time>2020-07-04T04:34:00.682Z</time>
      </trkpt>
      <trkpt lat="48.583744" lon="16.844448">
        <ele>212.973985</ele>
        <time>2020-07-04T04:34:02.675Z</time>
      </trkpt>
      <trkpt lat="48.583640" lon="16.844534">
        <ele>212.944832</ele>
        <time>2020-07-04T04:34:04.674Z</time>
      </trkpt>
      <trkpt lat="48.583535" lon="16.844619">
        <ele>212.915539</ele>
        <time>2020-07-04T04:34:06.678Z</time>
      </trkpt>
      <trkpt lat="48.583431" lon="16.844705">
        <ele>212.886386</ele>
        <time>2020-07-04T04:34:08.679Z</time>
      </trkpt>
      <trkpt lat="48.583331" lon="16.844791">
        <ele>212.858091</ele>
        <time>2020-07-04T04:34:10.682Z</time>
      </trkpt>
      <trkpt lat="48.583230" lon="16.844875">
        <ele>212.829741</ele>
        <time>2020-07-04T04:34:12.676Z</time>
      </trkpt>
      <trkpt lat="48.583129" lon="16.844959">
        <ele>212.801390</ele>
        <time>2020-07-04T04:34:14.682Z</time>
      </trkpt>
      <trkpt lat="48.583033" lon="16.845048">
        <ele>212.773695</ele>
        <time>2020-07-04T04:34:16.681Z</time>
      </trkpt>
      <trkpt lat="48.582942" lon="16.845132">
        <ele>212.747472</ele>
        <time>2020-07-04T04:34:18.687Z</time>
      </trkpt>
      <trkpt lat="48.582863" lon="16.845218">
        <ele>212.723530</ele>
        <time>2020-07-04T04:34:20.689Z</time>
      </trkpt>
      <trkpt lat="48.582775" lon="16.845247">
        <ele>212.701380</ele>
        <time>2020-07-04T04:34:26.672Z</time>
      </trkpt>
      <trkpt lat="48.582657" lon="16.845118">
        <ele>212.665566</ele>
        <time>2020-07-04T04:37:15.702Z</time>
      </trkpt>
      <trkpt lat="48.582553" lon="16.845005">
        <ele>212.634067</ele>
        <time>2020-07-04T04:37:18.675Z</time>
      </trkpt>
      <trkpt lat="48.582444" lon="16.844893">
        <ele>212.611497</ele>
        <time>2020-07-04T04:37:21.678Z</time>
      </trkpt>
      <trkpt lat="48.582335" lon="16.844789">
        <ele>212.599838</ele>
        <time>2020-07-04T04:37:24.688Z</time>
      </trkpt>
      <trkpt lat="48.582251" lon="16.844723">
        <ele>212.591274</ele>
        <time>2020-07-04T04:37:26.680Z</time>
      </trkpt>
      <trkpt lat="48.582170" lon="16.844641">
        <ele>212.582456</ele>
        <time>2020-07-04T04:37:28.699Z</time>
      </trkpt>
      <trkpt lat="48.582087" lon="16.844562">
        <ele>212.573584</ele>
        <time>2020-07-04T04:37:30.729Z</time>
      </trkpt>
      <trkpt lat="48.582002" lon="16.844486">
        <ele>212.564651</ele>
        <time>2020-07-04T04:37:32.674Z</time>
      </trkpt>
      <trkpt lat="48.581917" lon="16.844407">
        <ele>212.555625</ele>
        <time>2020-07-04T04:37:34.680Z</time>
      </trkpt>
      <trkpt lat="48.581835" lon="16.844327">
        <ele>212.546797</ele>
        <time>2020-07-04T04:37:36.692Z</time>
      </trkpt>
      <trkpt lat="48.581749" lon="16.844246">
        <ele>212.537631</ele>
        <time>2020-07-04T04:37:38.675Z</time>
      </trkpt>
      <trkpt lat="48.581663" lon="16.844164">
        <ele>212.528434</ele>
        <time>2020-07-04T04:37:40.682Z</time>
      </trkpt>
      <trkpt lat="48.581578" lon="16.844085">
        <ele>212.519408</ele>
        <time>2020-07-04T04:37:42.683Z</time>
      </trkpt>
      <trkpt lat="48.581491" lon="16.844002">
        <ele>212.510102</ele>
        <time>2020-07-04T04:37:44.671Z</time>
      </trkpt>
      <trkpt lat="48.581404" lon="16.843919">
        <ele>212.500796</ele>
        <time>2020-07-04T04:37:46.674Z</time>
      </trkpt>
      <trkpt lat="48.581320" lon="16.843832">
        <ele>212.491586</ele>
        <time>2020-07-04T04:37:48.676Z</time>
      </trkpt>
      <trkpt lat="48.581230" lon="16.843750">
        <ele>212.482080</ele>
        <time>2020-07-04T04:37:50.669Z</time>
      </trkpt>
      <trkpt lat="48.581139" lon="16.843669">
        <ele>212.472528</ele>
        <time>2020-07-04T04:37:52.694Z</time>
      </trkpt>
      <trkpt lat="48.581048" lon="16.843586">
        <ele>212.462914</ele>
        <time>2020-07-04T04:37:54.698Z</time>
      </trkpt>
      <trkpt lat="48.580957" lon="16.843498">
        <ele>212.451681</ele>
        <time>2020-07-04T04:37:56.693Z</time>
      </trkpt>
      <trkpt lat="48.580868" lon="16.843411">
        <ele>212.431977</ele>
        <time>2020-07-04T04:37:58.701Z</time>
      </trkpt>
      <trkpt lat="48.580781" lon="16.843321">
        <ele>212.412378</ele>
        <time>2020-07-04T04:38:00.705Z</time>
      </trkpt>
      <trkpt lat="48.580690" lon="16.843235">
        <ele>212.392427</ele>
        <time>2020-07-04T04:38:02.695Z</time>
      </trkpt>
      <trkpt lat="48.580597" lon="16.843153">
        <ele>212.372411</ele>
        <time>2020-07-04T04:38:04.681Z</time>
      </trkpt>
      <trkpt lat="48.580503" lon="16.843064">
        <ele>212.351791</ele>
        <time>2020-07-04T04:38:06.693Z</time>
      </trkpt>
      <trkpt lat="48.580414" lon="16.842963">
        <ele>212.331102</ele>
        <time>2020-07-04T04:38:08.672Z</time>
      </trkpt>
      <trkpt lat="48.580325" lon="16.842873">
        <ele>212.311196</ele>
        <time>2020-07-04T04:38:10.672Z</time>
      </trkpt>
      <trkpt lat="48.580242" lon="16.842795">
        <ele>212.293027</ele>
        <time>2020-07-04T04:38:12.689Z</time>
      </trkpt>
      <trkpt lat="48.580124" lon="16.842826">
        <ele>212.270761</ele>
        <time>2020-07-04T04:38:15.670Z</time>
      </trkpt>
      <trkpt lat="48.580052" lon="16.842925">
        <ele>212.252667</ele>
        <time>2020-07-04T04:38:17.672Z</time>
      </trkpt>
      <trkpt lat="48.579964" lon="16.843036">
        <ele>212.231359</ele>
        <time>2020-07-04T04:38:19.692Z</time>
      </trkpt>
      <trkpt lat="48.579878" lon="16.843149">
        <ele>212.210176</ele>
        <time>2020-07-04T04:38:21.673Z</time>
      </trkpt>
      <trkpt lat="48.579790" lon="16.843266">
        <ele>212.188388</ele>
        <time>2020-07-04T04:38:23.692Z</time>
      </trkpt>
      <trkpt lat="48.579703" lon="16.843381">
        <ele>212.166902</ele>
        <time>2020-07-04T04:38:25.677Z</time>
      </trkpt>
      <trkpt lat="48.579615" lon="16.843497">
        <ele>212.145196</ele>
        <time>2020-07-04T04:38:27.679Z</time>
      </trkpt>
      <trkpt lat="48.579527" lon="16.843610">
        <ele>212.123730</ele>
        <time>2020-07-04T04:38:29.681Z</time>
      </trkpt>
      <trkpt lat="48.579439" lon="16.843726">
        <ele>212.105905</ele>
        <time>2020-07-04T04:38:31.676Z</time>
      </trkpt>
      <trkpt lat="48.579352" lon="16.843833">
        <ele>212.089518</ele>
        <time>2020-07-04T04:38:33.698Z</time>
      </trkpt>
      <trkpt lat="48.579266" lon="16.843939">
        <ele>212.073305</ele>
        <time>2020-07-04T04:38:35.670Z</time>
      </trkpt>
      <trkpt lat="48.579178" lon="16.844052">
        <ele>212.056435</ele>
        <time>2020-07-04T04:38:37.682Z</time>
      </trkpt>
      <trkpt lat="48.579088" lon="16.844178">
        <ele>212.038512</ele>
        <time>2020-07-04T04:38:39.689Z</time>
      </trkpt>
      <trkpt lat="48.579000" lon="16.844301">
        <ele>212.021001</ele>
        <time>2020-07-04T04:38:41.683Z</time>
      </trkpt>
      <trkpt lat="48.578914" lon="16.844421">
        <ele>212.003901</ele>
        <time>2020-07-04T04:38:43.665Z</time>
      </trkpt>
      <trkpt lat="48.578829" lon="16.844537">
        <ele>211.987169</ele>
        <time>2020-07-04T04:38:45.693Z</time>
      </trkpt>
      <trkpt lat="48.578745" lon="16.844653">
        <ele>211.970546</ele>
        <time>2020-07-04T04:38:47.670Z</time>
      </trkpt>
      <trkpt lat="48.578661" lon="16.844767">
        <ele>211.954052</ele>
        <time>2020-07-04T04:38:49.681Z</time>
      </trkpt>
      <trkpt lat="48.578577" lon="16.844876">
        <ele>211.937877</ele>
        <time>2020-07-04T04:38:51.690Z</time>
      </trkpt>
      <trkpt lat="48.578487" lon="16.844991">
        <ele>211.920659</ele>
        <time>2020-07-04T04:38:53.692Z</time>
      </trkpt>
      <trkpt lat="48.578398" lon="16.845104">
        <ele>211.903677</ele>
        <time>2020-07-04T04:38:55.680Z</time>
      </trkpt>
      <trkpt lat="48.578310" lon="16.845213">
        <ele>211.887054</ele>
        <time>2020-07-04T04:38:57.676Z</time>
      </trkpt>
      <trkpt lat="48.578223" lon="16.845333">
        <ele>211.869846</ele>
        <time>2020-07-04T04:38:59.687Z</time>
      </trkpt>
      <trkpt lat="48.578137" lon="16.845451">
        <ele>211.853932</ele>
        <time>2020-07-04T04:39:01.685Z</time>
      </trkpt>
      <trkpt lat="48.578052" lon="16.845563">
        <ele>211.841326</ele>
        <time>2020-07-04T04:39:03.679Z</time>
      </trkpt>
      <trkpt lat="48.577968" lon="16.845673">
        <ele>211.828903</ele>
        <time>2020-07-04T04:39:05.670Z</time>
      </trkpt>
      <trkpt lat="48.577886" lon="16.845786">
        <ele>211.816499</ele>
        <time>2020-07-04T04:39:07.691Z</time>
      </trkpt>
      <trkpt lat="48.577800" lon="16.845899">
        <ele>211.803760</ele>
        <time>2020-07-04T04:39:09.687Z</time>
      </trkpt>
      <trkpt lat="48.577715" lon="16.846007">
        <ele>211.791348</ele>
        <time>2020-07-04T04:39:11.680Z</time>
      </trkpt>
      <trkpt lat="48.577628" lon="16.846122">
        <ele>211.778428</ele>
        <time>2020-07-04T04:39:13.712Z</time>
      </trkpt>
      <trkpt lat="48.577541" lon="16.846238">
        <ele>211.765460</ele>
        <time>2020-07-04T04:39:15.675Z</time>
      </trkpt>
      <trkpt lat="48.577455" lon="16.846349">
        <ele>211.752818</ele>
        <time>2020-07-04T04:39:17.679Z</time>
      </trkpt>
      <trkpt lat="48.577368" lon="16.846462">
        <ele>211.739995</ele>
        <time>2020-07-04T04:39:19.703Z</time>
      </trkpt>
      <trkpt lat="48.577282" lon="16.846577">
        <ele>211.727160</ele>
        <time>2020-07-04T04:39:21.708Z</time>
      </trkpt>
      <trkpt lat="48.577197" lon="16.846696">
        <ele>211.714208</ele>
        <time>2020-07-04T04:39:23.677Z</time>
      </trkpt>
      <trkpt lat="48.577110" lon="16.846809">
        <ele>211.701386</ele>
        <time>2020-07-04T04:39:25.689Z</time>
      </trkpt>
      <trkpt lat="48.577022" lon="16.846923">
        <ele>211.688430</ele>
        <time>2020-07-04T04:39:27.686Z</time>
      </trkpt>
      <trkpt lat="48.576935" lon="16.847037">
        <ele>211.675559</ele>
        <time>2020-07-04T04:39:29.717Z</time>
      </trkpt>
      <trkpt lat="48.576849" lon="16.847152">
        <ele>211.662723</ele>
        <time>2020-07-04T04:39:31.678Z</time>
      </trkpt>
      <trkpt lat="48.576763" lon="16.847270">
        <ele>211.649432</ele>
        <time>2020-07-04T04:39:33.710Z</time>
      </trkpt>
      <trkpt lat="48.576681" lon="16.847386">
        <ele>211.636290</ele>
        <time>2020-07-04T04:39:35.677Z</time>
      </trkpt>
      <trkpt lat="48.576600" lon="16.847503">
        <ele>211.623180</ele>
        <time>2020-07-04T04:39:37.678Z</time>
      </trkpt>
      <trkpt lat="48.576518" lon="16.847617">
        <ele>211.610144</ele>
        <time>2020-07-04T04:39:39.687Z</time>
      </trkpt>
      <trkpt lat="48.576435" lon="16.847730">
        <ele>211.597073</ele>
        <time>2020-07-04T04:39:41.685Z</time>
      </trkpt>
      <trkpt lat="48.576351" lon="16.847844">
        <ele>211.583863</ele>
        <time>2020-07-04T04:39:43.702Z</time>
      </trkpt>
      <trkpt lat="48.576264" lon="16.847958">
        <ele>211.570390</ele>
        <time>2020-07-04T04:39:45.687Z</time>
      </trkpt>
      <trkpt lat="48.576170" lon="16.848066">
        <ele>211.556573</ele>
        <time>2020-07-04T04:39:47.697Z</time>
      </trkpt>
      <trkpt lat="48.576075" lon="16.848171">
        <ele>211.542802</ele>
        <time>2020-07-04T04:39:49.693Z</time>
      </trkpt>
      <trkpt lat="48.575983" lon="16.848270">
        <ele>211.529588</ele>
        <time>2020-07-04T04:39:51.680Z</time>
      </trkpt>
      <trkpt lat="48.575889" lon="16.848373">
        <ele>211.516002</ele>
        <time>2020-07-04T04:39:53.674Z</time>
      </trkpt>
      <trkpt lat="48.575799" lon="16.848474">
        <ele>211.502886</ele>
        <time>2020-07-04T04:39:55.703Z</time>
      </trkpt>
      <trkpt lat="48.575708" lon="16.848575">
        <ele>211.489675</ele>
        <time>2020-07-04T04:39:57.684Z</time>
      </trkpt>
      <trkpt lat="48.575617" lon="16.848671">
        <ele>211.476690</ele>
        <time>2020-07-04T04:39:59.704Z</time>
      </trkpt>
      <trkpt lat="48.575525" lon="16.848761">
        <ele>211.463866</ele>
        <time>2020-07-04T04:40:01.708Z</time>
      </trkpt>
      <trkpt lat="48.575432" lon="16.848854">
        <ele>211.450818</ele>
        <time>2020-07-04T04:40:03.676Z</time>
      </trkpt>
      <trkpt lat="48.575334" lon="16.848940">
        <ele>211.443019</ele>
        <time>2020-07-04T04:40:05.689Z</time>
      </trkpt>
      <trkpt lat="48.575240" lon="16.849024">
        <ele>211.438662</ele>
        <time>2020-07-04T04:40:07.689Z</time>
      </trkpt>
      <trkpt lat="48.575144" lon="16.849098">
        <ele>211.434361</ele>
        <time>2020-07-04T04:40:09.668Z</time>
      </trkpt>
      <trkpt lat="48.575041" lon="16.849163">
        <ele>211.429907</ele>
        <time>2020-07-04T04:40:11.694Z</time>
      </trkpt>
      <trkpt lat="48.574942" lon="16.849233">
        <ele>211.425545</ele>
        <time>2020-07-04T04:40:13.691Z</time>
      </trkpt>
      <trkpt lat="48.574841" lon="16.849306">
        <ele>211.421078</ele>
        <time>2020-07-04T04:40:15.701Z</time>
      </trkpt>
      <trkpt lat="48.574735" lon="16.849388">
        <ele>211.416326</ele>
        <time>2020-07-04T04:40:17.673Z</time>
      </trkpt>
      <trkpt lat="48.574631" lon="16.849464">
        <ele>211.411716</ele>
        <time>2020-07-04T04:40:19.677Z</time>
      </trkpt>
      <trkpt lat="48.574527" lon="16.849531">
        <ele>211.407204</ele>
        <time>2020-07-04T04:40:21.675Z</time>
      </trkpt>
      <trkpt lat="48.574424" lon="16.849597">
        <ele>211.402740</ele>
        <time>2020-07-04T04:40:23.680Z</time>
      </trkpt>
      <trkpt lat="48.574320" lon="16.849660">
        <ele>211.398268</ele>
        <time>2020-07-04T04:40:25.676Z</time>
      </trkpt>
      <trkpt lat="48.574212" lon="16.849719">
        <ele>211.393686</ele>
        <time>2020-07-04T04:40:27.690Z</time>
      </trkpt>
      <trkpt lat="48.574102" lon="16.849782">
        <ele>211.388991</ele>
        <time>2020-07-04T04:40:29.685Z</time>
      </trkpt>
      <trkpt lat="48.573998" lon="16.849838">
        <ele>211.384585</ele>
        <time>2020-07-04T04:40:31.698Z</time>
      </trkpt>
      <trkpt lat="48.573894" lon="16.849896">
        <ele>211.380162</ele>
        <time>2020-07-04T04:40:33.696Z</time>
      </trkpt>
      <trkpt lat="48.573790" lon="16.849959">
        <ele>211.375690</ele>
        <time>2020-07-04T04:40:35.681Z</time>
      </trkpt>
      <trkpt lat="48.573687" lon="16.850020">
        <ele>211.374410</ele>
        <time>2020-07-04T04:40:37.669Z</time>
      </trkpt>
      <trkpt lat="48.573583" lon="16.850084">
        <ele>211.374957</ele>
        <time>2020-07-04T04:40:39.675Z</time>
      </trkpt>
      <trkpt lat="48.573475" lon="16.850152">
        <ele>211.375528</ele>
        <time>2020-07-04T04:40:41.681Z</time>
      </trkpt>
      <trkpt lat="48.573367" lon="16.850216">
        <ele>211.376093</ele>
        <time>2020-07-04T04:40:43.682Z</time>
      </trkpt>
      <trkpt lat="48.573261" lon="16.850286">
        <ele>211.376657</ele>
        <time>2020-07-04T04:40:45.690Z</time>
      </trkpt>
      <trkpt lat="48.573156" lon="16.850349">
        <ele>211.377208</ele>
        <time>2020-07-04T04:40:47.706Z</time>
      </trkpt>
      <trkpt lat="48.573051" lon="16.850410">
        <ele>211.377756</ele>
        <time>2020-07-04T04:40:49.680Z</time>
      </trkpt>
      <trkpt lat="48.572945" lon="16.850471">
        <ele>211.378309</ele>
        <time>2020-07-04T04:40:51.682Z</time>
      </trkpt>
      <trkpt lat="48.572837" lon="16.850534">
        <ele>211.378873</ele>
        <time>2020-07-04T04:40:53.681Z</time>
      </trkpt>
      <trkpt lat="48.572728" lon="16.850593">
        <ele>211.379437</ele>
        <time>2020-07-04T04:40:55.672Z</time>
      </trkpt>
      <trkpt lat="48.572624" lon="16.850653">
        <ele>211.379980</ele>
        <time>2020-07-04T04:40:57.701Z</time>
      </trkpt>
      <trkpt lat="48.572514" lon="16.850719">
        <ele>211.380557</ele>
        <time>2020-07-04T04:40:59.681Z</time>
      </trkpt>
      <trkpt lat="48.572406" lon="16.850794">
        <ele>211.381136</ele>
        <time>2020-07-04T04:41:01.678Z</time>
      </trkpt>
      <trkpt lat="48.572305" lon="16.850874">
        <ele>211.381692</ele>
        <time>2020-07-04T04:41:03.684Z</time>
      </trkpt>
      <trkpt lat="48.572205" lon="16.850961">
        <ele>211.382255</ele>
        <time>2020-07-04T04:41:05.684Z</time>
      </trkpt>
      <trkpt lat="48.572116" lon="16.851051">
        <ele>211.382777</ele>
        <time>2020-07-04T04:41:07.680Z</time>
      </trkpt>
      <trkpt lat="48.572027" lon="16.851069">
        <ele>211.374305</ele>
        <time>2020-07-04T04:41:09.674Z</time>
      </trkpt>
      <trkpt lat="48.571923" lon="16.850971">
        <ele>211.360825</ele>
        <time>2020-07-04T04:41:12.682Z</time>
      </trkpt>
      <trkpt lat="48.571807" lon="16.850848">
        <ele>211.345240</ele>
        <time>2020-07-04T04:41:15.676Z</time>
      </trkpt>
      <trkpt lat="48.571716" lon="16.850749">
        <ele>211.332908</ele>
        <time>2020-07-04T04:41:17.682Z</time>
      </trkpt>
      <trkpt lat="48.571629" lon="16.850650">
        <ele>211.320930</ele>
        <time>2020-07-04T04:41:19.700Z</time>
      </trkpt>
      <trkpt lat="48.571538" lon="16.850550">
        <ele>211.308555</ele>
        <time>2020-07-04T04:41:21.700Z</time>
      </trkpt>
      <trkpt lat="48.571449" lon="16.850453">
        <ele>211.296486</ele>
        <time>2020-07-04T04:41:23.683Z</time>
      </trkpt>
      <trkpt lat="48.571366" lon="16.850361">
        <ele>211.285165</ele>
        <time>2020-07-04T04:41:25.702Z</time>
      </trkpt>
      <trkpt lat="48.571280" lon="16.850294">
        <ele>211.274524</ele>
        <time>2020-07-04T04:41:27.675Z</time>
      </trkpt>
      <trkpt lat="48.571187" lon="16.850283">
        <ele>211.264264</ele>
        <time>2020-07-04T04:41:29.689Z</time>
      </trkpt>
      <trkpt lat="48.571101" lon="16.850328">
        <ele>211.254254</ele>
        <time>2020-07-04T04:41:31.681Z</time>
      </trkpt>
      <trkpt lat="48.571024" lon="16.850410">
        <ele>211.243894</ele>
        <time>2020-07-04T04:41:33.680Z</time>
      </trkpt>
      <trkpt lat="48.570947" lon="16.850501">
        <ele>211.233143</ele>
        <time>2020-07-04T04:41:35.680Z</time>
      </trkpt>
      <trkpt lat="48.570866" lon="16.850599">
        <ele>211.221731</ele>
        <time>2020-07-04T04:41:37.695Z</time>
      </trkpt>
      <trkpt lat="48.570782" lon="16.850699">
        <ele>211.209970</ele>
        <time>2020-07-04T04:41:39.683Z</time>
      </trkpt>
      <trkpt lat="48.570699" lon="16.850801">
        <ele>211.198204</ele>
        <time>2020-07-04T04:41:41.680Z</time>
      </trkpt>
      <trkpt lat="48.570623" lon="16.850895">
        <ele>211.187402</ele>
        <time>2020-07-04T04:41:43.679Z</time>
      </trkpt>
      <trkpt lat="48.570556" lon="16.851001">
        <ele>211.184674</ele>
        <time>2020-07-04T04:41:45.676Z</time>
      </trkpt>
      <trkpt lat="48.570490" lon="16.851129">
        <ele>211.184193</ele>
        <time>2020-07-04T04:41:47.685Z</time>
      </trkpt>
      <trkpt lat="48.570427" lon="16.851255">
        <ele>211.183725</ele>
        <time>2020-07-04T04:41:49.684Z</time>
      </trkpt>
      <trkpt lat="48.570363" lon="16.851384">
        <ele>211.183247</ele>
        <time>2020-07-04T04:41:51.686Z</time>
      </trkpt>
      <trkpt lat="48.570301" lon="16.851508">
        <ele>211.182786</ele>
        <time>2020-07-04T04:41:53.694Z</time>
      </trkpt>
      <trkpt lat="48.570239" lon="16.851622">
        <ele>211.182348</ele>
        <time>2020-07-04T04:41:55.668Z</time>
      </trkpt>
      <trkpt lat="48.570178" lon="16.851758">
        <ele>211.181861</ele>
        <time>2020-07-04T04:41:57.683Z</time>
      </trkpt>
      <trkpt lat="48.570119" lon="16.851883">
        <ele>211.181406</ele>
        <time>2020-07-04T04:41:59.703Z</time>
      </trkpt>
      <trkpt lat="48.570058" lon="16.852016">
        <ele>211.180926</ele>
        <time>2020-07-04T04:42:01.692Z</time>
      </trkpt>
      <trkpt lat="48.569995" lon="16.852148">
        <ele>211.180443</ele>
        <time>2020-07-04T04:42:03.674Z</time>
      </trkpt>
      <trkpt lat="48.569935" lon="16.852270">
        <ele>211.179993</ele>
        <time>2020-07-04T04:42:05.691Z</time>
      </trkpt>
      <trkpt lat="48.569864" lon="16.852372">
        <ele>211.179554</ele>
        <time>2020-07-04T04:42:07.684Z</time>
      </trkpt>
      <trkpt lat="48.569784" lon="16.852453">
        <ele>211.179122</ele>
        <time>2020-07-04T04:42:09.691Z</time>
      </trkpt>
      <trkpt lat="48.569704" lon="16.852535">
        <ele>211.178689</ele>
        <time>2020-07-04T04:42:11.716Z</time>
      </trkpt>
      <trkpt lat="48.569642" lon="16.852648">
        <ele>211.178254</ele>
        <time>2020-07-04T04:42:13.673Z</time>
      </trkpt>
      <trkpt lat="48.569590" lon="16.852780">
        <ele>211.177798</ele>
        <time>2020-07-04T04:42:15.712Z</time>
      </trkpt>
      <trkpt lat="48.569538" lon="16.852913">
        <ele>211.177340</ele>
        <time>2020-07-04T04:42:17.669Z</time>
      </trkpt>
      <trkpt lat="48.569491" lon="16.853047">
        <ele>211.179335</ele>
        <time>2020-07-04T04:42:19.688Z</time>
      </trkpt>
      <trkpt lat="48.569445" lon="16.853183">
        <ele>211.197020</ele>
        <time>2020-07-04T04:42:21.683Z</time>
      </trkpt>
      <trkpt lat="48.569401" lon="16.853314">
        <ele>211.214030</ele>
        <time>2020-07-04T04:42:23.698Z</time>
      </trkpt>
      <trkpt lat="48.569353" lon="16.853447">
        <ele>211.231571</ele>
        <time>2020-07-04T04:42:25.673Z</time>
      </trkpt>
      <trkpt lat="48.569301" lon="16.853578">
        <ele>211.249259</ele>
        <time>2020-07-04T04:42:27.686Z</time>
      </trkpt>
      <trkpt lat="48.569252" lon="16.853710">
        <ele>211.266783</ele>
        <time>2020-07-04T04:42:29.712Z</time>
      </trkpt>
      <trkpt lat="48.569211" lon="16.853851">
        <ele>211.284616</ele>
        <time>2020-07-04T04:42:31.691Z</time>
      </trkpt>
      <trkpt lat="48.569191" lon="16.854034">
        <ele>211.306092</ele>
        <time>2020-07-04T04:42:33.678Z</time>
      </trkpt>
      <trkpt lat="48.569197" lon="16.854235">
        <ele>211.329388</ele>
        <time>2020-07-04T04:42:35.672Z</time>
      </trkpt>
      <trkpt lat="48.569214" lon="16.854431">
        <ele>211.352276</ele>
        <time>2020-07-04T04:42:37.712Z</time>
      </trkpt>
      <trkpt lat="48.569202" lon="16.854638">
        <ele>211.376336</ele>
        <time>2020-07-04T04:42:39.691Z</time>
      </trkpt>
      <trkpt lat="48.569155" lon="16.854824">
        <ele>211.399389</ele>
        <time>2020-07-04T04:42:41.681Z</time>
      </trkpt>
      <trkpt lat="48.569096" lon="16.854991">
        <ele>211.421308</ele>
        <time>2020-07-04T04:42:43.682Z</time>
      </trkpt>
      <trkpt lat="48.569041" lon="16.855157">
        <ele>211.442804</ele>
        <time>2020-07-04T04:42:45.674Z</time>
      </trkpt>
      <trkpt lat="48.568982" lon="16.855318">
        <ele>211.464113</ele>
        <time>2020-07-04T04:42:47.696Z</time>
      </trkpt>
      <trkpt lat="48.568931" lon="16.855465">
        <ele>211.483331</ele>
        <time>2020-07-04T04:42:49.709Z</time>
      </trkpt>
      <trkpt lat="48.568875" lon="16.855618">
        <ele>211.533254</ele>
        <time>2020-07-04T04:42:51.694Z</time>
      </trkpt>
      <trkpt lat="48.568815" lon="16.855770">
        <ele>211.604854</ele>
        <time>2020-07-04T04:42:53.694Z</time>
      </trkpt>
      <trkpt lat="48.568759" lon="16.855914">
        <ele>211.672423</ele>
        <time>2020-07-04T04:42:55.684Z</time>
      </trkpt>
      <trkpt lat="48.568703" lon="16.856060">
        <ele>211.740691</ele>
        <time>2020-07-04T04:42:57.706Z</time>
      </trkpt>
      <trkpt lat="48.568653" lon="16.856209">
        <ele>211.808276</ele>
        <time>2020-07-04T04:42:59.694Z</time>
      </trkpt>
      <trkpt lat="48.568606" lon="16.856359">
        <ele>211.875416</ele>
        <time>2020-07-04T04:43:01.704Z</time>
      </trkpt>
      <trkpt lat="48.568563" lon="16.856510">
        <ele>211.941918</ele>
        <time>2020-07-04T04:43:03.674Z</time>
      </trkpt>
      <trkpt lat="48.568521" lon="16.856667">
        <ele>212.010426</ele>
        <time>2020-07-04T04:43:05.679Z</time>
      </trkpt>
      <trkpt lat="48.568477" lon="16.856822">
        <ele>212.078656</ele>
        <time>2020-07-04T04:43:07.672Z</time>
      </trkpt>
      <trkpt lat="48.568428" lon="16.856972">
        <ele>212.146329</ele>
        <time>2020-07-04T04:43:09.681Z</time>
      </trkpt>
      <trkpt lat="48.568385" lon="16.857119">
        <ele>212.211349</ele>
        <time>2020-07-04T04:43:11.683Z</time>
      </trkpt>
      <trkpt lat="48.568348" lon="16.857258">
        <ele>212.271959</ele>
        <time>2020-07-04T04:43:13.677Z</time>
      </trkpt>
      <trkpt lat="48.568304" lon="16.857410">
        <ele>212.339077</ele>
        <time>2020-07-04T04:43:18.685Z</time>
      </trkpt>
      <trkpt lat="48.568280" lon="16.857575">
        <ele>212.407420</ele>
        <time>2020-07-04T04:43:21.672Z</time>
      </trkpt>
      <trkpt lat="48.568282" lon="16.857717">
        <ele>212.464879</ele>
        <time>2020-07-04T04:43:23.692Z</time>
      </trkpt>
      <trkpt lat="48.568286" lon="16.857865">
        <ele>212.524801</ele>
        <time>2020-07-04T04:43:25.683Z</time>
      </trkpt>
      <trkpt lat="48.568292" lon="16.858018">
        <ele>212.586805</ele>
        <time>2020-07-04T04:43:27.677Z</time>
      </trkpt>
      <trkpt lat="48.568301" lon="16.858177">
        <ele>212.497170</ele>
        <time>2020-07-04T04:43:29.674Z</time>
      </trkpt>
      <trkpt lat="48.568305" lon="16.858337">
        <ele>212.395731</ele>
        <time>2020-07-04T04:43:31.673Z</time>
      </trkpt>
      <trkpt lat="48.568303" lon="16.858499">
        <ele>212.293079</ele>
        <time>2020-07-04T04:43:33.676Z</time>
      </trkpt>
      <trkpt lat="48.568302" lon="16.858663">
        <ele>212.189174</ele>
        <time>2020-07-04T04:43:35.675Z</time>
      </trkpt>
      <trkpt lat="48.568304" lon="16.858824">
        <ele>212.087155</ele>
        <time>2020-07-04T04:43:37.683Z</time>
      </trkpt>
      <trkpt lat="48.568314" lon="16.858986">
        <ele>211.984076</ele>
        <time>2020-07-04T04:43:39.717Z</time>
      </trkpt>
      <trkpt lat="48.568325" lon="16.859143">
        <ele>211.884054</ele>
        <time>2020-07-04T04:43:41.686Z</time>
      </trkpt>
      <trkpt lat="48.568330" lon="16.859301">
        <ele>211.783839</ele>
        <time>2020-07-04T04:43:43.666Z</time>
      </trkpt>
      <trkpt lat="48.568333" lon="16.859460">
        <ele>211.683065</ele>
        <time>2020-07-04T04:43:45.681Z</time>
      </trkpt>
      <trkpt lat="48.568336" lon="16.859627">
        <ele>211.577225</ele>
        <time>2020-07-04T04:43:47.708Z</time>
      </trkpt>
      <trkpt lat="48.568340" lon="16.859794">
        <ele>211.471354</ele>
        <time>2020-07-04T04:43:49.687Z</time>
      </trkpt>
      <trkpt lat="48.568339" lon="16.859953">
        <ele>211.370616</ele>
        <time>2020-07-04T04:43:51.672Z</time>
      </trkpt>
      <trkpt lat="48.568341" lon="16.860113">
        <ele>211.269231</ele>
        <time>2020-07-04T04:43:53.691Z</time>
      </trkpt>
      <trkpt lat="48.568343" lon="16.860273">
        <ele>211.167846</ele>
        <time>2020-07-04T04:43:55.684Z</time>
      </trkpt>
      <trkpt lat="48.568342" lon="16.860431">
        <ele>211.067742</ele>
        <time>2020-07-04T04:43:57.690Z</time>
      </trkpt>
      <trkpt lat="48.568343" lon="16.860588">
        <ele>210.968271</ele>
        <time>2020-07-04T04:43:59.693Z</time>
      </trkpt>
      <trkpt lat="48.568346" lon="16.860743">
        <ele>210.870030</ele>
        <time>2020-07-04T04:44:01.681Z</time>
      </trkpt>
      <trkpt lat="48.568348" lon="16.860886">
        <ele>210.706626</ele>
        <time>2020-07-04T04:44:03.703Z</time>
      </trkpt>
      <trkpt lat="48.568342" lon="16.861070">
        <ele>210.495337</ele>
        <time>2020-07-04T04:44:06.680Z</time>
      </trkpt>
      <trkpt lat="48.568304" lon="16.861128">
        <ele>210.401726</ele>
        <time>2020-07-04T04:44:19.024Z</time>
      </trkpt>
      <trkpt lat="48.568361" lon="16.861378">
        <ele>210.098453</ele>
        <time>2020-07-04T04:51:27.702Z</time>
      </trkpt>
      <trkpt lat="48.568412" lon="16.861520">
        <ele>209.913148</ele>
        <time>2020-07-04T04:51:30.688Z</time>
      </trkpt>
      <trkpt lat="48.568497" lon="16.861644">
        <ele>209.708379</ele>
        <time>2020-07-04T04:51:33.724Z</time>
      </trkpt>
      <trkpt lat="48.568592" lon="16.861764">
        <ele>209.493778</ele>
        <time>2020-07-04T04:51:36.704Z</time>
      </trkpt>
      <trkpt lat="48.568670" lon="16.861834">
        <ele>209.336544</ele>
        <time>2020-07-04T04:51:38.696Z</time>
      </trkpt>
      <trkpt lat="48.568752" lon="16.861968">
        <ele>209.127215</ele>
        <time>2020-07-04T04:51:41.690Z</time>
      </trkpt>
      <trkpt lat="48.568684" lon="16.862137">
        <ele>208.900366</ele>
        <time>2020-07-04T04:51:44.680Z</time>
      </trkpt>
      <trkpt lat="48.568615" lon="16.862247">
        <ele>208.726531</ele>
        <time>2020-07-04T04:51:46.689Z</time>
      </trkpt>
      <trkpt lat="48.568546" lon="16.862372">
        <ele>208.539834</ele>
        <time>2020-07-04T04:51:48.702Z</time>
      </trkpt>
      <trkpt lat="48.568474" lon="16.862503">
        <ele>208.344521</ele>
        <time>2020-07-04T04:51:50.690Z</time>
      </trkpt>
      <trkpt lat="48.568388" lon="16.862651">
        <ele>208.118620</ele>
        <time>2020-07-04T04:51:52.682Z</time>
      </trkpt>
      <trkpt lat="48.568299" lon="16.862792">
        <ele>207.895131</ele>
        <time>2020-07-04T04:51:54.692Z</time>
      </trkpt>
      <trkpt lat="48.568210" lon="16.862913">
        <ele>207.730887</ele>
        <time>2020-07-04T04:51:56.690Z</time>
      </trkpt>
      <trkpt lat="48.568125" lon="16.863030">
        <ele>207.665974</ele>
        <time>2020-07-04T04:51:58.710Z</time>
      </trkpt>
      <trkpt lat="48.568043" lon="16.863148">
        <ele>207.602047</ele>
        <time>2020-07-04T04:52:00.695Z</time>
      </trkpt>
      <trkpt lat="48.567968" lon="16.863270">
        <ele>207.539834</ele>
        <time>2020-07-04T04:52:02.711Z</time>
      </trkpt>
      <trkpt lat="48.567902" lon="16.863382">
        <ele>207.483804</ele>
        <time>2020-07-04T04:52:04.702Z</time>
      </trkpt>
      <trkpt lat="48.567832" lon="16.863473">
        <ele>207.431673</ele>
        <time>2020-07-04T04:52:06.701Z</time>
      </trkpt>
      <trkpt lat="48.567721" lon="16.863378">
        <ele>207.359652</ele>
        <time>2020-07-04T04:52:09.704Z</time>
      </trkpt>
      <trkpt lat="48.567653" lon="16.863261">
        <ele>207.301474</ele>
        <time>2020-07-04T04:52:11.675Z</time>
      </trkpt>
      <trkpt lat="48.567580" lon="16.863151">
        <ele>207.243272</ele>
        <time>2020-07-04T04:52:13.677Z</time>
      </trkpt>
      <trkpt lat="48.567501" lon="16.863058">
        <ele>207.186734</ele>
        <time>2020-07-04T04:52:15.728Z</time>
      </trkpt>
      <trkpt lat="48.567427" lon="16.862966">
        <ele>207.132634</ele>
        <time>2020-07-04T04:52:17.703Z</time>
      </trkpt>
      <trkpt lat="48.567353" lon="16.862872">
        <ele>207.078055</ele>
        <time>2020-07-04T04:52:19.701Z</time>
      </trkpt>
      <trkpt lat="48.567287" lon="16.862778">
        <ele>207.026852</ele>
        <time>2020-07-04T04:52:21.712Z</time>
      </trkpt>
      <trkpt lat="48.567199" lon="16.862632">
        <ele>206.953070</ele>
        <time>2020-07-04T04:52:24.734Z</time>
      </trkpt>
      <trkpt lat="48.567174" lon="16.862447">
        <ele>206.882527</ele>
        <time>2020-07-04T04:52:27.680Z</time>
      </trkpt>
      <trkpt lat="48.567204" lon="16.862287">
        <ele>206.820396</ele>
        <time>2020-07-04T04:52:30.671Z</time>
      </trkpt>
      <trkpt lat="48.567216" lon="16.862242">
        <ele>206.802270</ele>
        <time>2020-07-04T04:52:52.704Z</time>
      </trkpt>
      <trkpt lat="48.567210" lon="16.862381">
        <ele>206.750229</ele>
        <time>2020-07-04T04:56:05.680Z</time>
      </trkpt>
      <trkpt lat="48.567203" lon="16.862533">
        <ele>206.664431</ele>
        <time>2020-07-04T04:56:08.691Z</time>
      </trkpt>
      <trkpt lat="48.567258" lon="16.862701">
        <ele>206.547385</ele>
        <time>2020-07-04T04:56:11.674Z</time>
      </trkpt>
      <trkpt lat="48.567321" lon="16.862801">
        <ele>206.461165</ele>
        <time>2020-07-04T04:56:13.680Z</time>
      </trkpt>
      <trkpt lat="48.567387" lon="16.862904">
        <ele>206.371632</ele>
        <time>2020-07-04T04:56:15.706Z</time>
      </trkpt>
      <trkpt lat="48.567456" lon="16.863010">
        <ele>206.278782</ele>
        <time>2020-07-04T04:56:17.686Z</time>
      </trkpt>
      <trkpt lat="48.567530" lon="16.863112">
        <ele>206.184266</ele>
        <time>2020-07-04T04:56:19.690Z</time>
      </trkpt>
      <trkpt lat="48.567614" lon="16.863210">
        <ele>206.084124</ele>
        <time>2020-07-04T04:56:21.684Z</time>
      </trkpt>
      <trkpt lat="48.567695" lon="16.863316">
        <ele>205.983010</ele>
        <time>2020-07-04T04:56:23.721Z</time>
      </trkpt>
      <trkpt lat="48.567767" lon="16.863413">
        <ele>205.891986</ele>
        <time>2020-07-04T04:56:25.676Z</time>
      </trkpt>
      <trkpt lat="48.567799" lon="16.863560">
        <ele>205.795352</ele>
        <time>2020-07-04T04:56:28.672Z</time>
      </trkpt>
      <trkpt lat="48.567717" lon="16.863651">
        <ele>205.699347</ele>
        <time>2020-07-04T04:56:32.675Z</time>
      </trkpt>
      <trkpt lat="48.567641" lon="16.863791">
        <ele>205.586270</ele>
        <time>2020-07-04T04:56:35.674Z</time>
      </trkpt>
      <trkpt lat="48.567555" lon="16.863921">
        <ele>205.471482</ele>
        <time>2020-07-04T04:56:38.677Z</time>
      </trkpt>
      <trkpt lat="48.567474" lon="16.864044">
        <ele>205.363121</ele>
        <time>2020-07-04T04:56:41.716Z</time>
      </trkpt>
      <trkpt lat="48.567397" lon="16.864167">
        <ele>205.257389</ele>
        <time>2020-07-04T04:56:44.680Z</time>
      </trkpt>
      <trkpt lat="48.567318" lon="16.864313">
        <ele>205.139619</ele>
        <time>2020-07-04T04:56:47.682Z</time>
      </trkpt>
      <trkpt lat="48.567273" lon="16.864452">
        <ele>205.042988</ele>
        <time>2020-07-04T04:56:49.677Z</time>
      </trkpt>
      <trkpt lat="48.567229" lon="16.864623">
        <ele>205.088477</ele>
        <time>2020-07-04T04:56:51.691Z</time>
      </trkpt>
      <trkpt lat="48.567191" lon="16.864802">
        <ele>205.141016</ele>
        <time>2020-07-04T04:56:53.670Z</time>
      </trkpt>
      <trkpt lat="48.567151" lon="16.864996">
        <ele>205.197807</ele>
        <time>2020-07-04T04:56:55.679Z</time>
      </trkpt>
      <trkpt lat="48.567111" lon="16.865192">
        <ele>205.255131</ele>
        <time>2020-07-04T04:56:57.690Z</time>
      </trkpt>
      <trkpt lat="48.567062" lon="16.865387">
        <ele>205.313427</ele>
        <time>2020-07-04T04:56:59.685Z</time>
      </trkpt>
      <trkpt lat="48.567013" lon="16.865578">
        <ele>205.370680</ele>
        <time>2020-07-04T04:57:01.682Z</time>
      </trkpt>
      <trkpt lat="48.566960" lon="16.865767">
        <ele>205.428049</ele>
        <time>2020-07-04T04:57:03.691Z</time>
      </trkpt>
      <trkpt lat="48.566910" lon="16.865955">
        <ele>205.484677</ele>
        <time>2020-07-04T04:57:05.692Z</time>
      </trkpt>
      <trkpt lat="48.566855" lon="16.866141">
        <ele>205.541615</ele>
        <time>2020-07-04T04:57:07.680Z</time>
      </trkpt>
      <trkpt lat="48.566804" lon="16.866329">
        <ele>205.598402</ele>
        <time>2020-07-04T04:57:09.682Z</time>
      </trkpt>
      <trkpt lat="48.566746" lon="16.866513">
        <ele>205.655363</ele>
        <time>2020-07-04T04:57:11.705Z</time>
      </trkpt>
      <trkpt lat="48.566693" lon="16.866701">
        <ele>205.712476</ele>
        <time>2020-07-04T04:57:13.701Z</time>
      </trkpt>
      <trkpt lat="48.566643" lon="16.866885">
        <ele>205.768068</ele>
        <time>2020-07-04T04:57:15.688Z</time>
      </trkpt>
      <trkpt lat="48.566590" lon="16.867055">
        <ele>205.779501</ele>
        <time>2020-07-04T04:57:17.684Z</time>
      </trkpt>
      <trkpt lat="48.566502" lon="16.867133">
        <ele>205.741944</ele>
        <time>2020-07-04T04:57:19.682Z</time>
      </trkpt>
      <trkpt lat="48.566394" lon="16.867044">
        <ele>205.696659</ele>
        <time>2020-07-04T04:57:21.677Z</time>
      </trkpt>
      <trkpt lat="48.566282" lon="16.866951">
        <ele>205.649614</ele>
        <time>2020-07-04T04:57:23.681Z</time>
      </trkpt>
      <trkpt lat="48.566169" lon="16.866864">
        <ele>205.602927</ele>
        <time>2020-07-04T04:57:25.713Z</time>
      </trkpt>
      <trkpt lat="48.566063" lon="16.866771">
        <ele>205.557805</ele>
        <time>2020-07-04T04:57:27.695Z</time>
      </trkpt>
      <trkpt lat="48.565957" lon="16.866663">
        <ele>205.510743</ele>
        <time>2020-07-04T04:57:29.698Z</time>
      </trkpt>
      <trkpt lat="48.565852" lon="16.866565">
        <ele>205.465311</ele>
        <time>2020-07-04T04:57:31.698Z</time>
      </trkpt>
      <trkpt lat="48.565750" lon="16.866471">
        <ele>205.421330</ele>
        <time>2020-07-04T04:57:33.704Z</time>
      </trkpt>
      <trkpt lat="48.565644" lon="16.866379">
        <ele>205.376329</ele>
        <time>2020-07-04T04:57:35.677Z</time>
      </trkpt>
      <trkpt lat="48.565545" lon="16.866290">
        <ele>205.333923</ele>
        <time>2020-07-04T04:57:37.682Z</time>
      </trkpt>
      <trkpt lat="48.565450" lon="16.866204">
        <ele>205.293155</ele>
        <time>2020-07-04T04:57:39.679Z</time>
      </trkpt>
      <trkpt lat="48.565357" lon="16.866122">
        <ele>205.253517</ele>
        <time>2020-07-04T04:57:41.682Z</time>
      </trkpt>
      <trkpt lat="48.565248" lon="16.866094">
        <ele>205.212816</ele>
        <time>2020-07-04T04:57:43.686Z</time>
      </trkpt>
      <trkpt lat="48.565162" lon="16.866182">
        <ele>205.174581</ele>
        <time>2020-07-04T04:57:45.688Z</time>
      </trkpt>
      <trkpt lat="48.565112" lon="16.866323">
        <ele>205.134583</ele>
        <time>2020-07-04T04:57:47.676Z</time>
      </trkpt>
      <trkpt lat="48.565068" lon="16.866480">
        <ele>205.045283</ele>
        <time>2020-07-04T04:57:49.715Z</time>
      </trkpt>
      <trkpt lat="48.565022" lon="16.866644">
        <ele>204.951989</ele>
        <time>2020-07-04T04:57:51.695Z</time>
      </trkpt>
      <trkpt lat="48.564979" lon="16.866809">
        <ele>204.859108</ele>
        <time>2020-07-04T04:57:53.689Z</time>
      </trkpt>
      <trkpt lat="48.564932" lon="16.866980">
        <ele>204.762127</ele>
        <time>2020-07-04T04:57:55.680Z</time>
      </trkpt>
      <trkpt lat="48.564882" lon="16.867151">
        <ele>204.664210</ele>
        <time>2020-07-04T04:57:57.681Z</time>
      </trkpt>
      <trkpt lat="48.564834" lon="16.867322">
        <ele>204.566923</ele>
        <time>2020-07-04T04:57:59.708Z</time>
      </trkpt>
      <trkpt lat="48.564783" lon="16.867488">
        <ele>204.471065</ele>
        <time>2020-07-04T04:58:01.684Z</time>
      </trkpt>
      <trkpt lat="48.564738" lon="16.867644">
        <ele>204.381932</ele>
        <time>2020-07-04T04:58:03.683Z</time>
      </trkpt>
      <trkpt lat="48.564671" lon="16.867788">
        <ele>204.289735</ele>
        <time>2020-07-04T04:58:05.678Z</time>
      </trkpt>
      <trkpt lat="48.564589" lon="16.867892">
        <ele>204.205005</ele>
        <time>2020-07-04T04:58:07.680Z</time>
      </trkpt>
      <trkpt lat="48.564493" lon="16.867979">
        <ele>204.116408</ele>
        <time>2020-07-04T04:58:09.669Z</time>
      </trkpt>
      <trkpt lat="48.564386" lon="16.868058">
        <ele>204.022154</ele>
        <time>2020-07-04T04:58:11.719Z</time>
      </trkpt>
      <trkpt lat="48.564275" lon="16.868124">
        <ele>203.927746</ele>
        <time>2020-07-04T04:58:13.709Z</time>
      </trkpt>
      <trkpt lat="48.564165" lon="16.868182">
        <ele>203.835537</ele>
        <time>2020-07-04T04:58:15.692Z</time>
      </trkpt>
      <trkpt lat="48.564058" lon="16.868233">
        <ele>203.746738</ele>
        <time>2020-07-04T04:58:17.679Z</time>
      </trkpt>
      <trkpt lat="48.563956" lon="16.868284">
        <ele>203.706560</ele>
        <time>2020-07-04T04:58:19.687Z</time>
      </trkpt>
      <trkpt lat="48.563864" lon="16.868335">
        <ele>203.696884</ele>
        <time>2020-07-04T04:58:21.685Z</time>
      </trkpt>
      <trkpt lat="48.563782" lon="16.868416">
        <ele>203.687212</ele>
        <time>2020-07-04T04:58:23.691Z</time>
      </trkpt>
      <trkpt lat="48.563703" lon="16.868527">
        <ele>203.676561</ele>
        <time>2020-07-04T04:58:25.684Z</time>
      </trkpt>
      <trkpt lat="48.563620" lon="16.868646">
        <ele>203.665264</ele>
        <time>2020-07-04T04:58:27.677Z</time>
      </trkpt>
      <trkpt lat="48.563538" lon="16.868773">
        <ele>203.653671</ele>
        <time>2020-07-04T04:58:29.666Z</time>
      </trkpt>
      <trkpt lat="48.563455" lon="16.868892">
        <ele>203.642374</ele>
        <time>2020-07-04T04:58:31.689Z</time>
      </trkpt>
      <trkpt lat="48.563373" lon="16.869015">
        <ele>203.630966</ele>
        <time>2020-07-04T04:58:33.706Z</time>
      </trkpt>
      <trkpt lat="48.563308" lon="16.869123">
        <ele>203.621428</ele>
        <time>2020-07-04T04:58:35.680Z</time>
      </trkpt>
      <trkpt lat="48.563216" lon="16.869240">
        <ele>203.609555</ele>
        <time>2020-07-04T04:58:38.687Z</time>
      </trkpt>
      <trkpt lat="48.563134" lon="16.869362">
        <ele>203.598193</ele>
        <time>2020-07-04T04:58:40.690Z</time>
      </trkpt>
      <trkpt lat="48.563059" lon="16.869492">
        <ele>203.586925</ele>
        <time>2020-07-04T04:58:42.700Z</time>
      </trkpt>
      <trkpt lat="48.562990" lon="16.869619">
        <ele>203.576188</ele>
        <time>2020-07-04T04:58:44.679Z</time>
      </trkpt>
      <trkpt lat="48.562937" lon="16.869742">
        <ele>203.566598</ele>
        <time>2020-07-04T04:58:46.695Z</time>
      </trkpt>
      <trkpt lat="48.562874" lon="16.869871">
        <ele>203.556122</ele>
        <time>2020-07-04T04:58:48.693Z</time>
      </trkpt>
      <trkpt lat="48.562815" lon="16.870002">
        <ele>203.545768</ele>
        <time>2020-07-04T04:58:50.680Z</time>
      </trkpt>
      <trkpt lat="48.562755" lon="16.870130">
        <ele>203.535519</ele>
        <time>2020-07-04T04:58:52.710Z</time>
      </trkpt>
      <trkpt lat="48.562694" lon="16.870259">
        <ele>203.476661</ele>
        <time>2020-07-04T04:58:54.686Z</time>
      </trkpt>
      <trkpt lat="48.562635" lon="16.870394">
        <ele>203.415866</ele>
        <time>2020-07-04T04:58:56.684Z</time>
      </trkpt>
      <trkpt lat="48.562567" lon="16.870541">
        <ele>203.348469</ele>
        <time>2020-07-04T04:58:58.673Z</time>
      </trkpt>
      <trkpt lat="48.562503" lon="16.870678">
        <ele>203.285453</ele>
        <time>2020-07-04T04:59:00.695Z</time>
      </trkpt>
      <trkpt lat="48.562441" lon="16.870814">
        <ele>203.223394</ele>
        <time>2020-07-04T04:59:02.688Z</time>
      </trkpt>
      <trkpt lat="48.562381" lon="16.870949">
        <ele>203.162285</ele>
        <time>2020-07-04T04:59:04.683Z</time>
      </trkpt>
      <trkpt lat="48.562316" lon="16.871086">
        <ele>203.098939</ele>
        <time>2020-07-04T04:59:06.687Z</time>
      </trkpt>
      <trkpt lat="48.562253" lon="16.871231">
        <ele>203.033756</ele>
        <time>2020-07-04T04:59:08.699Z</time>
      </trkpt>
      <trkpt lat="48.562183" lon="16.871388">
        <ele>202.962618</ele>
        <time>2020-07-04T04:59:10.688Z</time>
      </trkpt>
      <trkpt lat="48.562120" lon="16.871536">
        <ele>202.896490</ele>
        <time>2020-07-04T04:59:12.685Z</time>
      </trkpt>
      <trkpt lat="48.562056" lon="16.871679">
        <ele>202.831618</ele>
        <time>2020-07-04T04:59:14.709Z</time>
      </trkpt>
      <trkpt lat="48.561994" lon="16.871815">
        <ele>202.769559</ele>
        <time>2020-07-04T04:59:16.695Z</time>
      </trkpt>
      <trkpt lat="48.561927" lon="16.871951">
        <ele>202.705846</ele>
        <time>2020-07-04T04:59:18.705Z</time>
      </trkpt>
      <trkpt lat="48.561855" lon="16.872086">
        <ele>202.640692</ele>
        <time>2020-07-04T04:59:20.691Z</time>
      </trkpt>
      <trkpt lat="48.561779" lon="16.872210">
        <ele>202.577180</ele>
        <time>2020-07-04T04:59:22.682Z</time>
      </trkpt>
      <trkpt lat="48.561708" lon="16.872326">
        <ele>202.517804</ele>
        <time>2020-07-04T04:59:24.686Z</time>
      </trkpt>
      <trkpt lat="48.561640" lon="16.872451">
        <ele>202.512276</ele>
        <time>2020-07-04T04:59:26.687Z</time>
      </trkpt>
      <trkpt lat="48.561574" lon="16.872573">
        <ele>202.510424</ele>
        <time>2020-07-04T04:59:28.678Z</time>
      </trkpt>
      <trkpt lat="48.561508" lon="16.872692">
        <ele>202.508599</ele>
        <time>2020-07-04T04:59:30.672Z</time>
      </trkpt>
      <trkpt lat="48.561441" lon="16.872811">
        <ele>202.506762</ele>
        <time>2020-07-04T04:59:32.681Z</time>
      </trkpt>
      <trkpt lat="48.561374" lon="16.872934">
        <ele>202.504890</ele>
        <time>2020-07-04T04:59:34.695Z</time>
      </trkpt>
      <trkpt lat="48.561313" lon="16.873051">
        <ele>202.503139</ele>
        <time>2020-07-04T04:59:36.677Z</time>
      </trkpt>
      <trkpt lat="48.561253" lon="16.873172">
        <ele>202.501362</ele>
        <time>2020-07-04T04:59:38.696Z</time>
      </trkpt>
      <trkpt lat="48.561203" lon="16.873292">
        <ele>202.499695</ele>
        <time>2020-07-04T04:59:40.701Z</time>
      </trkpt>
      <trkpt lat="48.561148" lon="16.873431">
        <ele>202.497792</ele>
        <time>2020-07-04T04:59:42.679Z</time>
      </trkpt>
      <trkpt lat="48.561094" lon="16.873582">
        <ele>202.495774</ele>
        <time>2020-07-04T04:59:44.687Z</time>
      </trkpt>
      <trkpt lat="48.561040" lon="16.873737">
        <ele>202.493716</ele>
        <time>2020-07-04T04:59:46.688Z</time>
      </trkpt>
      <trkpt lat="48.560986" lon="16.873890">
        <ele>202.491677</ele>
        <time>2020-07-04T04:59:48.685Z</time>
      </trkpt>
      <trkpt lat="48.560926" lon="16.874049">
        <ele>202.489526</ele>
        <time>2020-07-04T04:59:50.686Z</time>
      </trkpt>
      <trkpt lat="48.560852" lon="16.874184">
        <ele>202.487466</ele>
        <time>2020-07-04T04:59:52.684Z</time>
      </trkpt>
      <trkpt lat="48.560752" lon="16.874193">
        <ele>202.485687</ele>
        <time>2020-07-04T04:59:54.679Z</time>
      </trkpt>
      <trkpt lat="48.560663" lon="16.874157">
        <ele>202.484050</ele>
        <time>2020-07-04T04:59:56.682Z</time>
      </trkpt>
      <trkpt lat="48.560542" lon="16.874103">
        <ele>202.502801</ele>
        <time>2020-07-04T04:59:59.674Z</time>
      </trkpt>
      <trkpt lat="48.560446" lon="16.874058">
        <ele>202.623071</ele>
        <time>2020-07-04T05:00:02.696Z</time>
      </trkpt>
      <trkpt lat="48.560355" lon="16.874033">
        <ele>202.733742</ele>
        <time>2020-07-04T05:00:05.728Z</time>
      </trkpt>
      <trkpt lat="48.560270" lon="16.873956">
        <ele>202.852328</ele>
        <time>2020-07-04T05:00:08.692Z</time>
      </trkpt>
      <trkpt lat="48.560237" lon="16.873791">
        <ele>202.988830</ele>
        <time>2020-07-04T05:00:11.689Z</time>
      </trkpt>
      <trkpt lat="48.560200" lon="16.873630">
        <ele>203.123797</ele>
        <time>2020-07-04T05:00:14.710Z</time>
      </trkpt>
      <trkpt lat="48.560173" lon="16.873458">
        <ele>203.263786</ele>
        <time>2020-07-04T05:00:17.693Z</time>
      </trkpt>
      <trkpt lat="48.560158" lon="16.873281">
        <ele>203.405100</ele>
        <time>2020-07-04T05:00:20.672Z</time>
      </trkpt>
      <trkpt lat="48.560131" lon="16.873107">
        <ele>203.546631</ele>
        <time>2020-07-04T05:00:23.684Z</time>
      </trkpt>
      <trkpt lat="48.560096" lon="16.872938">
        <ele>203.686865</ele>
        <time>2020-07-04T05:00:26.676Z</time>
      </trkpt>
      <trkpt lat="48.560030" lon="16.872825">
        <ele>203.806216</ele>
        <time>2020-07-04T05:00:29.680Z</time>
      </trkpt>
      <trkpt lat="48.559925" lon="16.872861">
        <ele>203.935048</ele>
        <time>2020-07-04T05:00:32.696Z</time>
      </trkpt>
      <trkpt lat="48.559847" lon="16.872979">
        <ele>204.067120</ele>
        <time>2020-07-04T05:00:35.678Z</time>
      </trkpt>
      <trkpt lat="48.559781" lon="16.873101">
        <ele>204.191904</ele>
        <time>2020-07-04T05:00:38.693Z</time>
      </trkpt>
      <trkpt lat="48.559727" lon="16.873220">
        <ele>204.306167</ele>
        <time>2020-07-04T05:00:41.694Z</time>
      </trkpt>
      <trkpt lat="48.559688" lon="16.873344">
        <ele>204.414890</ele>
        <time>2020-07-04T05:00:44.725Z</time>
      </trkpt>
      <trkpt lat="48.559633" lon="16.873484">
        <ele>204.543821</ele>
        <time>2020-07-04T05:00:48.684Z</time>
      </trkpt>
      <trkpt lat="48.559586" lon="16.873641">
        <ele>204.680613</ele>
        <time>2020-07-04T05:00:52.702Z</time>
      </trkpt>
      <trkpt lat="48.559551" lon="16.873786">
        <ele>204.803725</ele>
        <time>2020-07-04T05:00:56.694Z</time>
      </trkpt>
      <trkpt lat="48.559501" lon="16.873933">
        <ele>204.935558</ele>
        <time>2020-07-04T05:01:00.713Z</time>
      </trkpt>
      <trkpt lat="48.559445" lon="16.874061">
        <ele>205.057949</ele>
        <time>2020-07-04T05:01:04.692Z</time>
      </trkpt>
      <trkpt lat="48.559388" lon="16.874187">
        <ele>205.179688</ele>
        <time>2020-07-04T05:01:08.693Z</time>
      </trkpt>
      <trkpt lat="48.559328" lon="16.874296">
        <ele>205.292774</ele>
        <time>2020-07-04T05:01:12.672Z</time>
      </trkpt>
      <trkpt lat="48.559266" lon="16.874425">
        <ele>205.419941</ele>
        <time>2020-07-04T05:01:16.676Z</time>
      </trkpt>
      <trkpt lat="48.559204" lon="16.874538">
        <ele>205.537022</ele>
        <time>2020-07-04T05:01:20.684Z</time>
      </trkpt>
      <trkpt lat="48.559151" lon="16.874648">
        <ele>205.645552</ele>
        <time>2020-07-04T05:01:24.677Z</time>
      </trkpt>
      <trkpt lat="48.559088" lon="16.874781">
        <ele>205.776012</ele>
        <time>2020-07-04T05:01:28.694Z</time>
      </trkpt>
      <trkpt lat="48.559038" lon="16.874908">
        <ele>205.893884</ele>
        <time>2020-07-04T05:01:32.694Z</time>
      </trkpt>
      <trkpt lat="48.558984" lon="16.875053">
        <ele>206.026598</ele>
        <time>2020-07-04T05:01:37.691Z</time>
      </trkpt>
      <trkpt lat="48.558934" lon="16.875217">
        <ele>206.170626</ele>
        <time>2020-07-04T05:01:41.728Z</time>
      </trkpt>
      <trkpt lat="48.558868" lon="16.875368">
        <ele>206.314969</ele>
        <time>2020-07-04T05:01:44.705Z</time>
      </trkpt>
      <trkpt lat="48.558796" lon="16.875512">
        <ele>206.458926</ele>
        <time>2020-07-04T05:01:47.682Z</time>
      </trkpt>
      <trkpt lat="48.558716" lon="16.875662">
        <ele>206.612588</ele>
        <time>2020-07-04T05:01:50.688Z</time>
      </trkpt>
      <trkpt lat="48.558608" lon="16.875779">
        <ele>206.772751</ele>
        <time>2020-07-04T05:01:53.680Z</time>
      </trkpt>
      <trkpt lat="48.558538" lon="16.875868">
        <ele>206.851698</ele>
        <time>2020-07-04T05:01:55.684Z</time>
      </trkpt>
      <trkpt lat="48.558480" lon="16.875979">
        <ele>206.920891</ele>
        <time>2020-07-04T05:01:57.680Z</time>
      </trkpt>
      <trkpt lat="48.558433" lon="16.876097">
        <ele>206.988272</ele>
        <time>2020-07-04T05:01:59.677Z</time>
      </trkpt>
      <trkpt lat="48.558386" lon="16.876213">
        <ele>207.054816</ele>
        <time>2020-07-04T05:02:01.679Z</time>
      </trkpt>
      <trkpt lat="48.558334" lon="16.876324">
        <ele>207.121352</ele>
        <time>2020-07-04T05:02:03.679Z</time>
      </trkpt>
      <trkpt lat="48.558260" lon="16.876493">
        <ele>207.220494</ele>
        <time>2020-07-04T05:02:06.698Z</time>
      </trkpt>
      <trkpt lat="48.558175" lon="16.876640">
        <ele>207.315998</ele>
        <time>2020-07-04T05:02:09.702Z</time>
      </trkpt>
      <trkpt lat="48.558087" lon="16.876783">
        <ele>207.411532</ele>
        <time>2020-07-04T05:02:12.693Z</time>
      </trkpt>
      <trkpt lat="48.557999" lon="16.876915">
        <ele>207.503198</ele>
        <time>2020-07-04T05:02:15.682Z</time>
      </trkpt>
      <trkpt lat="48.557915" lon="16.877052">
        <ele>207.594570</ele>
        <time>2020-07-04T05:02:18.698Z</time>
      </trkpt>
      <trkpt lat="48.557830" lon="16.877191">
        <ele>207.687161</ele>
        <time>2020-07-04T05:02:21.680Z</time>
      </trkpt>
      <trkpt lat="48.557747" lon="16.877318">
        <ele>207.774486</ele>
        <time>2020-07-04T05:02:24.702Z</time>
      </trkpt>
      <trkpt lat="48.557650" lon="16.877455">
        <ele>207.872642</ele>
        <time>2020-07-04T05:02:27.704Z</time>
      </trkpt>
      <trkpt lat="48.557580" lon="16.877556">
        <ele>207.944193</ele>
        <time>2020-07-04T05:02:29.681Z</time>
      </trkpt>
      <trkpt lat="48.557513" lon="16.877661">
        <ele>208.015553</ele>
        <time>2020-07-04T05:02:31.708Z</time>
      </trkpt>
      <trkpt lat="48.557448" lon="16.877768">
        <ele>208.086613</ele>
        <time>2020-07-04T05:02:33.698Z</time>
      </trkpt>
      <trkpt lat="48.557372" lon="16.877885">
        <ele>208.187744</ele>
        <time>2020-07-04T05:02:35.689Z</time>
      </trkpt>
      <trkpt lat="48.557290" lon="16.878001">
        <ele>208.320153</ele>
        <time>2020-07-04T05:02:37.685Z</time>
      </trkpt>
      <trkpt lat="48.557208" lon="16.878130">
        <ele>208.459690</ele>
        <time>2020-07-04T05:02:39.676Z</time>
      </trkpt>
      <trkpt lat="48.557134" lon="16.878250">
        <ele>208.587645</ele>
        <time>2020-07-04T05:02:41.696Z</time>
      </trkpt>
      <trkpt lat="48.557055" lon="16.878376">
        <ele>208.723048</ele>
        <time>2020-07-04T05:02:43.685Z</time>
      </trkpt>
      <trkpt lat="48.556973" lon="16.878507">
        <ele>208.863715</ele>
        <time>2020-07-04T05:02:45.684Z</time>
      </trkpt>
      <trkpt lat="48.556887" lon="16.878637">
        <ele>209.007110</ele>
        <time>2020-07-04T05:02:47.694Z</time>
      </trkpt>
      <trkpt lat="48.556801" lon="16.878761">
        <ele>209.147233</ele>
        <time>2020-07-04T05:02:49.665Z</time>
      </trkpt>
      <trkpt lat="48.556715" lon="16.878889">
        <ele>209.289528</ele>
        <time>2020-07-04T05:02:51.689Z</time>
      </trkpt>
      <trkpt lat="48.556626" lon="16.879025">
        <ele>209.438736</ele>
        <time>2020-07-04T05:02:53.681Z</time>
      </trkpt>
      <trkpt lat="48.556536" lon="16.879159">
        <ele>209.587676</ele>
        <time>2020-07-04T05:02:55.686Z</time>
      </trkpt>
      <trkpt lat="48.556448" lon="16.879298">
        <ele>209.737740</ele>
        <time>2020-07-04T05:02:57.675Z</time>
      </trkpt>
      <trkpt lat="48.556356" lon="16.879436">
        <ele>209.890550</ele>
        <time>2020-07-04T05:02:59.684Z</time>
      </trkpt>
      <trkpt lat="48.556264" lon="16.879577">
        <ele>210.045019</ele>
        <time>2020-07-04T05:03:01.685Z</time>
      </trkpt>
      <trkpt lat="48.556172" lon="16.879720">
        <ele>210.200602</ele>
        <time>2020-07-04T05:03:03.680Z</time>
      </trkpt>
      <trkpt lat="48.556088" lon="16.879853">
        <ele>210.447655</ele>
        <time>2020-07-04T05:03:05.685Z</time>
      </trkpt>
      <trkpt lat="48.556000" lon="16.879994">
        <ele>210.768584</ele>
        <time>2020-07-04T05:03:07.706Z</time>
      </trkpt>
      <trkpt lat="48.555913" lon="16.880140">
        <ele>211.093907</ele>
        <time>2020-07-04T05:03:09.693Z</time>
      </trkpt>
      <trkpt lat="48.555827" lon="16.880285">
        <ele>211.416327</ele>
        <time>2020-07-04T05:03:11.710Z</time>
      </trkpt>
      <trkpt lat="48.555742" lon="16.880431">
        <ele>211.738325</ele>
        <time>2020-07-04T05:03:13.693Z</time>
      </trkpt>
      <trkpt lat="48.555652" lon="16.880582">
        <ele>212.074825</ele>
        <time>2020-07-04T05:03:15.686Z</time>
      </trkpt>
      <trkpt lat="48.555558" lon="16.880728">
        <ele>212.412119</ele>
        <time>2020-07-04T05:03:17.689Z</time>
      </trkpt>
      <trkpt lat="48.555470" lon="16.880870">
        <ele>212.734257</ele>
        <time>2020-07-04T05:03:19.680Z</time>
      </trkpt>
      <trkpt lat="48.555385" lon="16.881006">
        <ele>213.044015</ele>
        <time>2020-07-04T05:03:21.685Z</time>
      </trkpt>
      <trkpt lat="48.555296" lon="16.881146">
        <ele>213.365471</ele>
        <time>2020-07-04T05:03:23.685Z</time>
      </trkpt>
      <trkpt lat="48.555205" lon="16.881286">
        <ele>213.690414</ele>
        <time>2020-07-04T05:03:25.676Z</time>
      </trkpt>
      <trkpt lat="48.555116" lon="16.881423">
        <ele>214.008307</ele>
        <time>2020-07-04T05:03:27.675Z</time>
      </trkpt>
      <trkpt lat="48.555027" lon="16.881555">
        <ele>214.320344</ele>
        <time>2020-07-04T05:03:29.684Z</time>
      </trkpt>
      <trkpt lat="48.554939" lon="16.881685">
        <ele>214.628277</ele>
        <time>2020-07-04T05:03:31.688Z</time>
      </trkpt>
      <trkpt lat="48.554853" lon="16.881818">
        <ele>214.791122</ele>
        <time>2020-07-04T05:03:33.685Z</time>
      </trkpt>
      <trkpt lat="48.554767" lon="16.881947">
        <ele>214.855776</ele>
        <time>2020-07-04T05:03:35.678Z</time>
      </trkpt>
      <trkpt lat="48.554690" lon="16.882068">
        <ele>214.915048</ele>
        <time>2020-07-04T05:03:37.686Z</time>
      </trkpt>
      <trkpt lat="48.554617" lon="16.882188">
        <ele>214.972601</ele>
        <time>2020-07-04T05:03:39.683Z</time>
      </trkpt>
      <trkpt lat="48.554529" lon="16.882322">
        <ele>215.039258</ele>
        <time>2020-07-04T05:03:41.692Z</time>
      </trkpt>
      <trkpt lat="48.554433" lon="16.882471">
        <ele>215.112684</ele>
        <time>2020-07-04T05:03:43.684Z</time>
      </trkpt>
      <trkpt lat="48.554338" lon="16.882623">
        <ele>215.186506</ele>
        <time>2020-07-04T05:03:45.697Z</time>
      </trkpt>
      <trkpt lat="48.554237" lon="16.882779">
        <ele>215.263565</ele>
        <time>2020-07-04T05:03:47.680Z</time>
      </trkpt>
      <trkpt lat="48.554134" lon="16.882948">
        <ele>215.344688</ele>
        <time>2020-07-04T05:03:49.720Z</time>
      </trkpt>
      <trkpt lat="48.554039" lon="16.883111">
        <ele>215.421381</ele>
        <time>2020-07-04T05:03:51.686Z</time>
      </trkpt>
      <trkpt lat="48.553962" lon="16.883235">
        <ele>215.481422</ele>
        <time>2020-07-04T05:03:53.674Z</time>
      </trkpt>
      <trkpt lat="48.553899" lon="16.883354">
        <ele>215.535232</ele>
        <time>2020-07-04T05:03:57.683Z</time>
      </trkpt>
      <trkpt lat="48.553836" lon="16.883469">
        <ele>215.587946</ele>
        <time>2020-07-04T05:04:00.681Z</time>
      </trkpt>
      <trkpt lat="48.553760" lon="16.883642">
        <ele>215.661268</ele>
        <time>2020-07-04T05:04:03.672Z</time>
      </trkpt>
      <trkpt lat="48.553699" lon="16.883783">
        <ele>215.693347</ele>
        <time>2020-07-04T05:04:05.670Z</time>
      </trkpt>
      <trkpt lat="48.553624" lon="16.883932">
        <ele>215.566259</ele>
        <time>2020-07-04T05:04:07.683Z</time>
      </trkpt>
      <trkpt lat="48.553546" lon="16.884091">
        <ele>215.431895</ele>
        <time>2020-07-04T05:04:09.664Z</time>
      </trkpt>
      <trkpt lat="48.553460" lon="16.884266">
        <ele>215.283917</ele>
        <time>2020-07-04T05:04:11.702Z</time>
      </trkpt>
      <trkpt lat="48.553362" lon="16.884461">
        <ele>215.117690</ele>
        <time>2020-07-04T05:04:13.669Z</time>
      </trkpt>
      <trkpt lat="48.553250" lon="16.884664">
        <ele>214.938268</ele>
        <time>2020-07-04T05:04:15.691Z</time>
      </trkpt>
      <trkpt lat="48.553191" lon="16.884771">
        <ele>214.843718</ele>
        <time>2020-07-04T05:04:16.674Z</time>
      </trkpt>
      <trkpt lat="48.553132" lon="16.884883">
        <ele>214.746536</ele>
        <time>2020-07-04T05:04:17.672Z</time>
      </trkpt>
      <trkpt lat="48.553079" lon="16.884995">
        <ele>214.653062</ele>
        <time>2020-07-04T05:04:18.687Z</time>
      </trkpt>
      <trkpt lat="48.553016" lon="16.885106">
        <ele>214.553790</ele>
        <time>2020-07-04T05:04:19.683Z</time>
      </trkpt>
      <trkpt lat="48.552961" lon="16.885221">
        <ele>214.457464</ele>
        <time>2020-07-04T05:04:20.675Z</time>
      </trkpt>
      <trkpt lat="48.552907" lon="16.885338">
        <ele>214.360625</ele>
        <time>2020-07-04T05:04:21.687Z</time>
      </trkpt>
      <trkpt lat="48.552848" lon="16.885454">
        <ele>214.261303</ele>
        <time>2020-07-04T05:04:22.679Z</time>
      </trkpt>
      <trkpt lat="48.552795" lon="16.885572">
        <ele>214.164486</ele>
        <time>2020-07-04T05:04:23.667Z</time>
      </trkpt>
      <trkpt lat="48.552739" lon="16.885687">
        <ele>214.067556</ele>
        <time>2020-07-04T05:04:24.692Z</time>
      </trkpt>
      <trkpt lat="48.552678" lon="16.885796">
        <ele>213.970647</ele>
        <time>2020-07-04T05:04:25.680Z</time>
      </trkpt>
      <trkpt lat="48.552618" lon="16.885903">
        <ele>213.875437</ele>
        <time>2020-07-04T05:04:26.676Z</time>
      </trkpt>
      <trkpt lat="48.552559" lon="16.886010">
        <ele>213.783874</ele>
        <time>2020-07-04T05:04:27.681Z</time>
      </trkpt>
      <trkpt lat="48.552500" lon="16.886116">
        <ele>213.693126</ele>
        <time>2020-07-04T05:04:28.690Z</time>
      </trkpt>
      <trkpt lat="48.552442" lon="16.886222">
        <ele>213.603012</ele>
        <time>2020-07-04T05:04:29.682Z</time>
      </trkpt>
      <trkpt lat="48.552333" lon="16.886432">
        <ele>213.428149</ele>
        <time>2020-07-04T05:04:31.696Z</time>
      </trkpt>
      <trkpt lat="48.552225" lon="16.886631">
        <ele>213.259529</ele>
        <time>2020-07-04T05:04:33.678Z</time>
      </trkpt>
      <trkpt lat="48.552120" lon="16.886824">
        <ele>213.095832</ele>
        <time>2020-07-04T05:04:35.696Z</time>
      </trkpt>
      <trkpt lat="48.552019" lon="16.887011">
        <ele>212.937686</ele>
        <time>2020-07-04T05:04:37.672Z</time>
      </trkpt>
      <trkpt lat="48.551924" lon="16.887195">
        <ele>212.784780</ele>
        <time>2020-07-04T05:04:39.701Z</time>
      </trkpt>
      <trkpt lat="48.551829" lon="16.887379">
        <ele>212.631874</ele>
        <time>2020-07-04T05:04:41.689Z</time>
      </trkpt>
      <trkpt lat="48.551733" lon="16.887561">
        <ele>212.479384</ele>
        <time>2020-07-04T05:04:43.687Z</time>
      </trkpt>
      <trkpt lat="48.551633" lon="16.887739">
        <ele>212.326403</ele>
        <time>2020-07-04T05:04:45.687Z</time>
      </trkpt>
      <trkpt lat="48.551533" lon="16.887915">
        <ele>212.174419</ele>
        <time>2020-07-04T05:04:47.681Z</time>
      </trkpt>
      <trkpt lat="48.551428" lon="16.888087">
        <ele>212.042006</ele>
        <time>2020-07-04T05:04:49.672Z</time>
      </trkpt>
      <trkpt lat="48.551314" lon="16.888246">
        <ele>211.937866</ele>
        <time>2020-07-04T05:04:51.672Z</time>
      </trkpt>
      <trkpt lat="48.551195" lon="16.888395">
        <ele>211.834126</ele>
        <time>2020-07-04T05:04:53.681Z</time>
      </trkpt>
      <trkpt lat="48.551073" lon="16.888535">
        <ele>211.731294</ele>
        <time>2020-07-04T05:04:55.679Z</time>
      </trkpt>
      <trkpt lat="48.550952" lon="16.888672">
        <ele>211.629801</ele>
        <time>2020-07-04T05:04:57.680Z</time>
      </trkpt>
      <trkpt lat="48.550830" lon="16.888804">
        <ele>211.529080</ele>
        <time>2020-07-04T05:04:59.675Z</time>
      </trkpt>
      <trkpt lat="48.550713" lon="16.888934">
        <ele>211.431597</ele>
        <time>2020-07-04T05:05:01.697Z</time>
      </trkpt>
      <trkpt lat="48.550598" lon="16.889058">
        <ele>211.336765</ele>
        <time>2020-07-04T05:05:03.691Z</time>
      </trkpt>
      <trkpt lat="48.550486" lon="16.889181">
        <ele>211.243826</ele>
        <time>2020-07-04T05:05:05.681Z</time>
      </trkpt>
      <trkpt lat="48.550379" lon="16.889310">
        <ele>211.151941</ele>
        <time>2020-07-04T05:05:07.674Z</time>
      </trkpt>
      <trkpt lat="48.550271" lon="16.889433">
        <ele>211.061160</ele>
        <time>2020-07-04T05:05:09.683Z</time>
      </trkpt>
      <trkpt lat="48.550164" lon="16.889554">
        <ele>210.971449</ele>
        <time>2020-07-04T05:05:11.697Z</time>
      </trkpt>
      <trkpt lat="48.550058" lon="16.889672">
        <ele>210.883072</ele>
        <time>2020-07-04T05:05:13.672Z</time>
      </trkpt>
      <trkpt lat="48.549952" lon="16.889786">
        <ele>210.750141</ele>
        <time>2020-07-04T05:05:15.691Z</time>
      </trkpt>
      <trkpt lat="48.549848" lon="16.889900">
        <ele>210.616547</ele>
        <time>2020-07-04T05:05:17.676Z</time>
      </trkpt>
      <trkpt lat="48.549747" lon="16.890007">
        <ele>210.488291</ele>
        <time>2020-07-04T05:05:19.697Z</time>
      </trkpt>
      <trkpt lat="48.549648" lon="16.890121">
        <ele>210.358868</ele>
        <time>2020-07-04T05:05:21.710Z</time>
      </trkpt>
      <trkpt lat="48.549546" lon="16.890231">
        <ele>210.228570</ele>
        <time>2020-07-04T05:05:23.668Z</time>
      </trkpt>
      <trkpt lat="48.549442" lon="16.890340">
        <ele>210.096968</ele>
        <time>2020-07-04T05:05:25.696Z</time>
      </trkpt>
      <trkpt lat="48.549335" lon="16.890428">
        <ele>209.970303</ele>
        <time>2020-07-04T05:05:27.675Z</time>
      </trkpt>
      <trkpt lat="48.549236" lon="16.890527">
        <ele>209.846865</ele>
        <time>2020-07-04T05:05:29.716Z</time>
      </trkpt>
      <trkpt lat="48.549142" lon="16.890626">
        <ele>209.727728</ele>
        <time>2020-07-04T05:05:31.692Z</time>
      </trkpt>
      <trkpt lat="48.549048" lon="16.890730">
        <ele>209.606589</ele>
        <time>2020-07-04T05:05:33.703Z</time>
      </trkpt>
      <trkpt lat="48.548954" lon="16.890830">
        <ele>209.487057</ele>
        <time>2020-07-04T05:05:35.695Z</time>
      </trkpt>
      <trkpt lat="48.548859" lon="16.890929">
        <ele>209.367064</ele>
        <time>2020-07-04T05:05:37.680Z</time>
      </trkpt>
      <trkpt lat="48.548765" lon="16.891033">
        <ele>209.245926</ele>
        <time>2020-07-04T05:05:39.707Z</time>
      </trkpt>
      <trkpt lat="48.548675" lon="16.891138">
        <ele>209.127697</ele>
        <time>2020-07-04T05:05:41.709Z</time>
      </trkpt>
      <trkpt lat="48.548581" lon="16.891242">
        <ele>209.004697</ele>
        <time>2020-07-04T05:05:43.704Z</time>
      </trkpt>
      <trkpt lat="48.548483" lon="16.891345">
        <ele>208.776265</ele>
        <time>2020-07-04T05:05:45.695Z</time>
      </trkpt>
      <trkpt lat="48.548395" lon="16.891441">
        <ele>208.568571</ele>
        <time>2020-07-04T05:05:47.682Z</time>
      </trkpt>
      <trkpt lat="48.548313" lon="16.891530">
        <ele>208.375375</ele>
        <time>2020-07-04T05:05:49.681Z</time>
      </trkpt>
      <trkpt lat="48.548233" lon="16.891609">
        <ele>208.192499</ele>
        <time>2020-07-04T05:05:51.687Z</time>
      </trkpt>
      <trkpt lat="48.548141" lon="16.891539">
        <ele>207.995399</ele>
        <time>2020-07-04T05:05:54.665Z</time>
      </trkpt>
      <trkpt lat="48.548098" lon="16.891383">
        <ele>207.781358</ele>
        <time>2020-07-04T05:05:57.704Z</time>
      </trkpt>
      <trkpt lat="48.548055" lon="16.891206">
        <ele>207.542542</ele>
        <time>2020-07-04T05:06:00.695Z</time>
      </trkpt>
      <trkpt lat="48.548029" lon="16.891061">
        <ele>207.352260</ele>
        <time>2020-07-04T05:06:02.680Z</time>
      </trkpt>
      <trkpt lat="48.548006" lon="16.890907">
        <ele>207.152295</ele>
        <time>2020-07-04T05:06:04.689Z</time>
      </trkpt>
      <trkpt lat="48.547980" lon="16.890730">
        <ele>206.922645</ele>
        <time>2020-07-04T05:06:06.681Z</time>
      </trkpt>
      <trkpt lat="48.547953" lon="16.890543">
        <ele>206.680214</ele>
        <time>2020-07-04T05:06:08.679Z</time>
      </trkpt>
      <trkpt lat="48.547916" lon="16.890349">
        <ele>206.424490</ele>
        <time>2020-07-04T05:06:10.703Z</time>
      </trkpt>
      <trkpt lat="48.547881" lon="16.890159">
        <ele>206.174683</ele>
        <time>2020-07-04T05:06:12.681Z</time>
      </trkpt>
      <trkpt lat="48.547858" lon="16.889973">
        <ele>205.935011</ele>
        <time>2020-07-04T05:06:14.665Z</time>
      </trkpt>
      <trkpt lat="48.547836" lon="16.889781">
        <ele>205.688199</ele>
        <time>2020-07-04T05:06:16.690Z</time>
      </trkpt>
      <trkpt lat="48.547807" lon="16.889595">
        <ele>205.506845</ele>
        <time>2020-07-04T05:06:18.666Z</time>
      </trkpt>
      <trkpt lat="48.547788" lon="16.889408">
        <ele>205.387280</ele>
        <time>2020-07-04T05:06:20.673Z</time>
      </trkpt>
      <trkpt lat="48.547751" lon="16.889231">
        <ele>205.269974</ele>
        <time>2020-07-04T05:06:22.697Z</time>
      </trkpt>
      <trkpt lat="48.547716" lon="16.889053">
        <ele>205.152623</ele>
        <time>2020-07-04T05:06:24.666Z</time>
      </trkpt>
      <trkpt lat="48.547652" lon="16.888898">
        <ele>205.037173</ele>
        <time>2020-07-04T05:06:26.670Z</time>
      </trkpt>
      <trkpt lat="48.547558" lon="16.888779">
        <ele>204.920088</ele>
        <time>2020-07-04T05:06:28.675Z</time>
      </trkpt>
      <trkpt lat="48.547464" lon="16.888670">
        <ele>204.806958</ele>
        <time>2020-07-04T05:06:30.670Z</time>
      </trkpt>
      <trkpt lat="48.547372" lon="16.888597">
        <ele>204.707748</ele>
        <time>2020-07-04T05:06:32.684Z</time>
      </trkpt>
      <trkpt lat="48.547264" lon="16.888581">
        <ele>204.604150</ele>
        <time>2020-07-04T05:06:36.685Z</time>
      </trkpt>
      <trkpt lat="48.547145" lon="16.888603">
        <ele>204.489697</ele>
        <time>2020-07-04T05:08:16.691Z</time>
      </trkpt>
      <trkpt lat="48.547036" lon="16.888602">
        <ele>204.385636</ele>
        <time>2020-07-04T05:08:19.678Z</time>
      </trkpt>
      <trkpt lat="48.546918" lon="16.888611">
        <ele>204.272842</ele>
        <time>2020-07-04T05:08:22.675Z</time>
      </trkpt>
      <trkpt lat="48.546790" lon="16.888607">
        <ele>204.150619</ele>
        <time>2020-07-04T05:08:25.688Z</time>
      </trkpt>
      <trkpt lat="48.546664" lon="16.888591">
        <ele>204.029907</ele>
        <time>2020-07-04T05:08:28.681Z</time>
      </trkpt>
      <trkpt lat="48.546541" lon="16.888587">
        <ele>203.912455</ele>
        <time>2020-07-04T05:08:31.716Z</time>
      </trkpt>
      <trkpt lat="48.546409" lon="16.888580">
        <ele>203.812858</ele>
        <time>2020-07-04T05:08:34.688Z</time>
      </trkpt>
      <trkpt lat="48.546277" lon="16.888562">
        <ele>203.738868</ele>
        <time>2020-07-04T05:08:37.684Z</time>
      </trkpt>
      <trkpt lat="48.546187" lon="16.888553">
        <ele>203.688515</ele>
        <time>2020-07-04T05:08:39.683Z</time>
      </trkpt>
      <trkpt lat="48.546050" lon="16.888540">
        <ele>203.611883</ele>
        <time>2020-07-04T05:08:42.692Z</time>
      </trkpt>
      <trkpt lat="48.545956" lon="16.888534">
        <ele>203.559359</ele>
        <time>2020-07-04T05:08:44.693Z</time>
      </trkpt>
      <trkpt lat="48.545861" lon="16.888525">
        <ele>203.506220</ele>
        <time>2020-07-04T05:08:46.694Z</time>
      </trkpt>
      <trkpt lat="48.545766" lon="16.888513">
        <ele>203.453001</ele>
        <time>2020-07-04T05:08:48.683Z</time>
      </trkpt>
      <trkpt lat="48.545672" lon="16.888499">
        <ele>203.400270</ele>
        <time>2020-07-04T05:08:50.684Z</time>
      </trkpt>
      <trkpt lat="48.545580" lon="16.888484">
        <ele>203.348612</ele>
        <time>2020-07-04T05:08:52.684Z</time>
      </trkpt>
      <trkpt lat="48.545484" lon="16.888473">
        <ele>203.294865</ele>
        <time>2020-07-04T05:08:54.691Z</time>
      </trkpt>
      <trkpt lat="48.545386" lon="16.888470">
        <ele>203.240144</ele>
        <time>2020-07-04T05:08:56.678Z</time>
      </trkpt>
      <trkpt lat="48.545286" lon="16.888460">
        <ele>203.184196</ele>
        <time>2020-07-04T05:08:58.669Z</time>
      </trkpt>
      <trkpt lat="48.545188" lon="16.888452">
        <ele>203.129406</ele>
        <time>2020-07-04T05:09:00.675Z</time>
      </trkpt>
      <trkpt lat="48.545089" lon="16.888443">
        <ele>203.074039</ele>
        <time>2020-07-04T05:09:02.699Z</time>
      </trkpt>
      <trkpt lat="48.544990" lon="16.888445">
        <ele>203.018766</ele>
        <time>2020-07-04T05:09:04.719Z</time>
      </trkpt>
      <trkpt lat="48.544891" lon="16.888441">
        <ele>202.963478</ele>
        <time>2020-07-04T05:09:06.676Z</time>
      </trkpt>
      <trkpt lat="48.544789" lon="16.888431">
        <ele>202.906416</ele>
        <time>2020-07-04T05:09:08.710Z</time>
      </trkpt>
      <trkpt lat="48.544682" lon="16.888427">
        <ele>202.846664</ele>
        <time>2020-07-04T05:09:10.676Z</time>
      </trkpt>
      <trkpt lat="48.544574" lon="16.888420">
        <ele>202.885533</ele>
        <time>2020-07-04T05:09:12.679Z</time>
      </trkpt>
      <trkpt lat="48.544460" lon="16.888426">
        <ele>202.927602</ele>
        <time>2020-07-04T05:09:14.674Z</time>
      </trkpt>
      <trkpt lat="48.544345" lon="16.888422">
        <ele>202.970025</ele>
        <time>2020-07-04T05:09:16.681Z</time>
      </trkpt>
      <trkpt lat="48.544232" lon="16.888419">
        <ele>203.011706</ele>
        <time>2020-07-04T05:09:18.696Z</time>
      </trkpt>
      <trkpt lat="48.544121" lon="16.888406">
        <ele>203.052765</ele>
        <time>2020-07-04T05:09:20.689Z</time>
      </trkpt>
      <trkpt lat="48.544015" lon="16.888401">
        <ele>203.091877</ele>
        <time>2020-07-04T05:09:22.670Z</time>
      </trkpt>
      <trkpt lat="48.543909" lon="16.888394">
        <ele>203.131007</ele>
        <time>2020-07-04T05:09:24.670Z</time>
      </trkpt>
      <trkpt lat="48.543807" lon="16.888391">
        <ele>203.168632</ele>
        <time>2020-07-04T05:09:26.683Z</time>
      </trkpt>
      <trkpt lat="48.543706" lon="16.888388">
        <ele>203.205888</ele>
        <time>2020-07-04T05:09:28.681Z</time>
      </trkpt>
      <trkpt lat="48.543610" lon="16.888386">
        <ele>203.241296</ele>
        <time>2020-07-04T05:09:30.702Z</time>
      </trkpt>
      <trkpt lat="48.543517" lon="16.888384">
        <ele>203.275598</ele>
        <time>2020-07-04T05:09:32.669Z</time>
      </trkpt>
      <trkpt lat="48.543426" lon="16.888375">
        <ele>203.309231</ele>
        <time>2020-07-04T05:09:34.691Z</time>
      </trkpt>
      <trkpt lat="48.543335" lon="16.888366">
        <ele>203.342863</ele>
        <time>2020-07-04T05:09:36.675Z</time>
      </trkpt>
      <trkpt lat="48.543243" lon="16.888360">
        <ele>203.376825</ele>
        <time>2020-07-04T05:09:38.673Z</time>
      </trkpt>
      <trkpt lat="48.543147" lon="16.888354">
        <ele>203.412260</ele>
        <time>2020-07-04T05:09:40.688Z</time>
      </trkpt>
      <trkpt lat="48.543046" lon="16.888347">
        <ele>203.449548</ele>
        <time>2020-07-04T05:09:42.709Z</time>
      </trkpt>
      <trkpt lat="48.542942" lon="16.888340">
        <ele>203.487941</ele>
        <time>2020-07-04T05:09:44.687Z</time>
      </trkpt>
      <trkpt lat="48.542835" lon="16.888328">
        <ele>203.525188</ele>
        <time>2020-07-04T05:09:46.673Z</time>
      </trkpt>
      <trkpt lat="48.542726" lon="16.888322">
        <ele>203.560254</ele>
        <time>2020-07-04T05:09:48.676Z</time>
      </trkpt>
      <trkpt lat="48.542612" lon="16.888321">
        <ele>203.596905</ele>
        <time>2020-07-04T05:09:50.666Z</time>
      </trkpt>
      <trkpt lat="48.542502" lon="16.888310">
        <ele>203.632347</ele>
        <time>2020-07-04T05:09:52.686Z</time>
      </trkpt>
      <trkpt lat="48.542393" lon="16.888297">
        <ele>203.667499</ele>
        <time>2020-07-04T05:09:54.688Z</time>
      </trkpt>
      <trkpt lat="48.542271" lon="16.888293">
        <ele>203.706731</ele>
        <time>2020-07-04T05:09:56.682Z</time>
      </trkpt>
      <trkpt lat="48.542151" lon="16.888286">
        <ele>203.745339</ele>
        <time>2020-07-04T05:09:58.695Z</time>
      </trkpt>
      <trkpt lat="48.542034" lon="16.888277">
        <ele>203.783002</ele>
        <time>2020-07-04T05:10:00.692Z</time>
      </trkpt>
      <trkpt lat="48.541918" lon="16.888266">
        <ele>203.820369</ele>
        <time>2020-07-04T05:10:02.694Z</time>
      </trkpt>
      <trkpt lat="48.541800" lon="16.888263">
        <ele>203.858311</ele>
        <time>2020-07-04T05:10:04.671Z</time>
      </trkpt>
      <trkpt lat="48.541681" lon="16.888259">
        <ele>203.896578</ele>
        <time>2020-07-04T05:10:06.672Z</time>
      </trkpt>
      <trkpt lat="48.541561" lon="16.888259">
        <ele>203.935158</ele>
        <time>2020-07-04T05:10:08.673Z</time>
      </trkpt>
      <trkpt lat="48.541439" lon="16.888257">
        <ele>203.974382</ele>
        <time>2020-07-04T05:10:10.701Z</time>
      </trkpt>
      <trkpt lat="48.541319" lon="16.888252">
        <ele>204.012976</ele>
        <time>2020-07-04T05:10:12.672Z</time>
      </trkpt>
      <trkpt lat="48.541202" lon="16.888246">
        <ele>204.050613</ele>
        <time>2020-07-04T05:10:14.695Z</time>
      </trkpt>
      <trkpt lat="48.541085" lon="16.888234">
        <ele>204.088779</ele>
        <time>2020-07-04T05:10:16.687Z</time>
      </trkpt>
      <trkpt lat="48.540968" lon="16.888223">
        <ele>204.153069</ele>
        <time>2020-07-04T05:10:18.701Z</time>
      </trkpt>
      <trkpt lat="48.540850" lon="16.888217">
        <ele>204.217821</ele>
        <time>2020-07-04T05:10:20.673Z</time>
      </trkpt>
      <trkpt lat="48.540731" lon="16.888215">
        <ele>204.283088</ele>
        <time>2020-07-04T05:10:22.685Z</time>
      </trkpt>
      <trkpt lat="48.540610" lon="16.888213">
        <ele>204.349453</ele>
        <time>2020-07-04T05:10:24.681Z</time>
      </trkpt>
      <trkpt lat="48.540489" lon="16.888205">
        <ele>204.415876</ele>
        <time>2020-07-04T05:10:26.678Z</time>
      </trkpt>
      <trkpt lat="48.540368" lon="16.888198">
        <ele>204.482285</ele>
        <time>2020-07-04T05:10:28.696Z</time>
      </trkpt>
      <trkpt lat="48.540248" lon="16.888189">
        <ele>204.548178</ele>
        <time>2020-07-04T05:10:30.669Z</time>
      </trkpt>
      <trkpt lat="48.540129" lon="16.888181">
        <ele>204.613506</ele>
        <time>2020-07-04T05:10:32.678Z</time>
      </trkpt>
      <trkpt lat="48.540014" lon="16.888176">
        <ele>204.676602</ele>
        <time>2020-07-04T05:10:34.684Z</time>
      </trkpt>
      <trkpt lat="48.539903" lon="16.888166">
        <ele>204.737586</ele>
        <time>2020-07-04T05:10:36.678Z</time>
      </trkpt>
      <trkpt lat="48.539791" lon="16.888157">
        <ele>204.799097</ele>
        <time>2020-07-04T05:10:38.700Z</time>
      </trkpt>
      <trkpt lat="48.539695" lon="16.888148">
        <ele>204.851848</ele>
        <time>2020-07-04T05:10:40.679Z</time>
      </trkpt>
      <trkpt lat="48.539597" lon="16.888146">
        <ele>204.905599</ele>
        <time>2020-07-04T05:10:42.683Z</time>
      </trkpt>
      <trkpt lat="48.539498" lon="16.888149">
        <ele>204.959904</ele>
        <time>2020-07-04T05:10:44.670Z</time>
      </trkpt>
      <trkpt lat="48.539393" lon="16.888147">
        <ele>205.017494</ele>
        <time>2020-07-04T05:10:46.707Z</time>
      </trkpt>
      <trkpt lat="48.539289" lon="16.888127">
        <ele>205.073934</ele>
        <time>2020-07-04T05:10:48.668Z</time>
      </trkpt>
      <trkpt lat="48.539183" lon="16.888097">
        <ele>205.063806</ele>
        <time>2020-07-04T05:10:50.687Z</time>
      </trkpt>
      <trkpt lat="48.539078" lon="16.888073">
        <ele>205.053833</ele>
        <time>2020-07-04T05:10:52.676Z</time>
      </trkpt>
      <trkpt lat="48.538980" lon="16.888037">
        <ele>205.044361</ele>
        <time>2020-07-04T05:10:54.668Z</time>
      </trkpt>
      <trkpt lat="48.538885" lon="16.887988">
        <ele>205.034933</ele>
        <time>2020-07-04T05:10:56.668Z</time>
      </trkpt>
      <trkpt lat="48.538825" lon="16.887872">
        <ele>205.025780</ele>
        <time>2020-07-04T05:10:58.697Z</time>
      </trkpt>
      <trkpt lat="48.538795" lon="16.887739">
        <ele>205.017043</ele>
        <time>2020-07-04T05:11:00.684Z</time>
      </trkpt>
      <trkpt lat="48.538764" lon="16.887590">
        <ele>205.007332</ele>
        <time>2020-07-04T05:11:02.682Z</time>
      </trkpt>
      <trkpt lat="48.538731" lon="16.887441">
        <ele>204.997562</ele>
        <time>2020-07-04T05:11:04.695Z</time>
      </trkpt>
      <trkpt lat="48.538724" lon="16.887286">
        <ele>204.987902</ele>
        <time>2020-07-04T05:11:06.662Z</time>
      </trkpt>
      <trkpt lat="48.538735" lon="16.887142">
        <ele>204.978888</ele>
        <time>2020-07-04T05:11:08.662Z</time>
      </trkpt>
      <trkpt lat="48.538751" lon="16.886962">
        <ele>204.967595</ele>
        <time>2020-07-04T05:11:11.697Z</time>
      </trkpt>
      <trkpt lat="48.538772" lon="16.886769">
        <ele>204.955434</ele>
        <time>2020-07-04T05:11:14.662Z</time>
      </trkpt>
      <trkpt lat="48.538784" lon="16.886621">
        <ele>204.946162</ele>
        <time>2020-07-04T05:11:16.667Z</time>
      </trkpt>
      <trkpt lat="48.538809" lon="16.886439">
        <ele>204.934604</ele>
        <time>2020-07-04T05:11:19.688Z</time>
      </trkpt>
      <trkpt lat="48.538819" lon="16.886303">
        <ele>204.926096</ele>
        <time>2020-07-04T05:11:21.686Z</time>
      </trkpt>
      <trkpt lat="48.538830" lon="16.886164">
        <ele>204.917391</ele>
        <time>2020-07-04T05:11:23.678Z</time>
      </trkpt>
      <trkpt lat="48.538837" lon="16.886025">
        <ele>204.908723</ele>
        <time>2020-07-04T05:11:25.685Z</time>
      </trkpt>
      <trkpt lat="48.538849" lon="16.885885">
        <ele>204.927164</ele>
        <time>2020-07-04T05:11:27.681Z</time>
      </trkpt>
      <trkpt lat="48.538866" lon="16.885686">
        <ele>204.979644</ele>
        <time>2020-07-04T05:11:30.698Z</time>
      </trkpt>
      <trkpt lat="48.538882" lon="16.885545">
        <ele>205.017061</ele>
        <time>2020-07-04T05:11:32.675Z</time>
      </trkpt>
      <trkpt lat="48.538896" lon="16.885341">
        <ele>205.070704</ele>
        <time>2020-07-04T05:11:35.681Z</time>
      </trkpt>
      <trkpt lat="48.538904" lon="16.885187">
        <ele>205.111107</ele>
        <time>2020-07-04T05:11:37.682Z</time>
      </trkpt>
      <trkpt lat="48.538910" lon="16.885044">
        <ele>205.148584</ele>
        <time>2020-07-04T05:11:39.685Z</time>
      </trkpt>
      <trkpt lat="48.538916" lon="16.884907">
        <ele>205.184495</ele>
        <time>2020-07-04T05:11:41.676Z</time>
      </trkpt>
      <trkpt lat="48.538923" lon="16.884758">
        <ele>205.223565</ele>
        <time>2020-07-04T05:11:43.681Z</time>
      </trkpt>
      <trkpt lat="48.538924" lon="16.884615">
        <ele>205.260969</ele>
        <time>2020-07-04T05:11:45.672Z</time>
      </trkpt>
      <trkpt lat="48.538924" lon="16.884475">
        <ele>205.297586</ele>
        <time>2020-07-04T05:11:47.675Z</time>
      </trkpt>
      <trkpt lat="48.538924" lon="16.884337">
        <ele>205.333681</ele>
        <time>2020-07-04T05:11:49.688Z</time>
      </trkpt>
      <trkpt lat="48.538924" lon="16.884200">
        <ele>205.369514</ele>
        <time>2020-07-04T05:11:51.677Z</time>
      </trkpt>
      <trkpt lat="48.538924" lon="16.884063">
        <ele>205.405346</ele>
        <time>2020-07-04T05:11:53.659Z</time>
      </trkpt>
      <trkpt lat="48.538923" lon="16.883921">
        <ele>205.442489</ele>
        <time>2020-07-04T05:11:55.687Z</time>
      </trkpt>
      <trkpt lat="48.538925" lon="16.883774">
        <ele>205.480945</ele>
        <time>2020-07-04T05:11:57.707Z</time>
      </trkpt>
      <trkpt lat="48.538918" lon="16.883626">
        <ele>205.519754</ele>
        <time>2020-07-04T05:11:59.685Z</time>
      </trkpt>
      <trkpt lat="48.538913" lon="16.883481">
        <ele>205.557731</ele>
        <time>2020-07-04T05:12:01.673Z</time>
      </trkpt>
      <trkpt lat="48.538911" lon="16.883338">
        <ele>205.595141</ele>
        <time>2020-07-04T05:12:03.672Z</time>
      </trkpt>
      <trkpt lat="48.538910" lon="16.883195">
        <ele>205.669700</ele>
        <time>2020-07-04T05:12:05.688Z</time>
      </trkpt>
      <trkpt lat="48.538910" lon="16.882993">
        <ele>205.838995</ele>
        <time>2020-07-04T05:12:08.677Z</time>
      </trkpt>
      <trkpt lat="48.538908" lon="16.882794">
        <ele>206.005796</ele>
        <time>2020-07-04T05:12:11.664Z</time>
      </trkpt>
      <trkpt lat="48.538907" lon="16.882656">
        <ele>206.121460</ele>
        <time>2020-07-04T05:12:13.672Z</time>
      </trkpt>
      <trkpt lat="48.538906" lon="16.882517">
        <ele>206.237963</ele>
        <time>2020-07-04T05:12:15.658Z</time>
      </trkpt>
      <trkpt lat="48.538905" lon="16.882379">
        <ele>206.353627</ele>
        <time>2020-07-04T05:12:17.687Z</time>
      </trkpt>
      <trkpt lat="48.538906" lon="16.882183">
        <ele>206.517899</ele>
        <time>2020-07-04T05:12:20.680Z</time>
      </trkpt>
      <trkpt lat="48.538904" lon="16.881982">
        <ele>206.686375</ele>
        <time>2020-07-04T05:12:23.702Z</time>
      </trkpt>
      <trkpt lat="48.538902" lon="16.881843">
        <ele>206.802898</ele>
        <time>2020-07-04T05:12:25.671Z</time>
      </trkpt>
      <trkpt lat="48.538899" lon="16.881704">
        <ele>206.919456</ele>
        <time>2020-07-04T05:12:27.679Z</time>
      </trkpt>
      <trkpt lat="48.538889" lon="16.881561">
        <ele>207.039970</ele>
        <time>2020-07-04T05:12:29.669Z</time>
      </trkpt>
      <trkpt lat="48.538886" lon="16.881425">
        <ele>207.154015</ele>
        <time>2020-07-04T05:12:31.672Z</time>
      </trkpt>
      <trkpt lat="48.538898" lon="16.881221">
        <ele>207.325660</ele>
        <time>2020-07-04T05:12:34.675Z</time>
      </trkpt>
      <trkpt lat="48.538926" lon="16.881084">
        <ele>207.445825</ele>
        <time>2020-07-04T05:12:36.676Z</time>
      </trkpt>
      <trkpt lat="48.538964" lon="16.880950">
        <ele>207.567997</ele>
        <time>2020-07-04T05:12:38.706Z</time>
      </trkpt>
      <trkpt lat="48.539009" lon="16.880782">
        <ele>207.719883</ele>
        <time>2020-07-04T05:12:41.669Z</time>
      </trkpt>
      <trkpt lat="48.539014" lon="16.880633">
        <ele>207.844919</ele>
        <time>2020-07-04T05:12:44.700Z</time>
      </trkpt>
      <trkpt lat="48.539006" lon="16.880477">
        <ele>208.009145</ele>
        <time>2020-07-04T05:12:48.687Z</time>
      </trkpt>
      <trkpt lat="48.538968" lon="16.880340">
        <ele>208.182879</ele>
        <time>2020-07-04T05:12:51.671Z</time>
      </trkpt>
      <trkpt lat="48.538909" lon="16.880212">
        <ele>208.365300</ele>
        <time>2020-07-04T05:12:54.683Z</time>
      </trkpt>
      <trkpt lat="48.538850" lon="16.880051">
        <ele>208.580531</ele>
        <time>2020-07-04T05:12:57.695Z</time>
      </trkpt>
      <trkpt lat="48.538788" lon="16.879898">
        <ele>208.790343</ele>
        <time>2020-07-04T05:13:00.697Z</time>
      </trkpt>
      <trkpt lat="48.538755" lon="16.879726">
        <ele>208.999798</ele>
        <time>2020-07-04T05:13:03.678Z</time>
      </trkpt>
      <trkpt lat="48.538732" lon="16.879555">
        <ele>209.203893</ele>
        <time>2020-07-04T05:13:06.677Z</time>
      </trkpt>
      <trkpt lat="48.538711" lon="16.879380">
        <ele>209.411916</ele>
        <time>2020-07-04T05:13:09.692Z</time>
      </trkpt>
      <trkpt lat="48.538698" lon="16.879211">
        <ele>209.610916</ele>
        <time>2020-07-04T05:13:12.677Z</time>
      </trkpt>
      <trkpt lat="48.538685" lon="16.879058">
        <ele>209.791340</ele>
        <time>2020-07-04T05:13:15.663Z</time>
      </trkpt>
      <trkpt lat="48.538668" lon="16.878873">
        <ele>210.009799</ele>
        <time>2020-07-04T05:13:18.706Z</time>
      </trkpt>
      <trkpt lat="48.538656" lon="16.878698">
        <ele>210.215582</ele>
        <time>2020-07-04T05:13:21.704Z</time>
      </trkpt>
      <trkpt lat="48.538645" lon="16.878524">
        <ele>210.420027</ele>
        <time>2020-07-04T05:13:24.680Z</time>
      </trkpt>
      <trkpt lat="48.538635" lon="16.878349">
        <ele>210.625477</ele>
        <time>2020-07-04T05:13:27.686Z</time>
      </trkpt>
      <trkpt lat="48.538631" lon="16.878183">
        <ele>210.819767</ele>
        <time>2020-07-04T05:13:30.669Z</time>
      </trkpt>
      <trkpt lat="48.538614" lon="16.878007">
        <ele>211.027804</ele>
        <time>2020-07-04T05:13:33.684Z</time>
      </trkpt>
      <trkpt lat="48.538603" lon="16.877835">
        <ele>211.325085</ele>
        <time>2020-07-04T05:13:36.690Z</time>
      </trkpt>
      <trkpt lat="48.538590" lon="16.877665">
        <ele>211.644190</ele>
        <time>2020-07-04T05:13:39.690Z</time>
      </trkpt>
      <trkpt lat="48.538580" lon="16.877498">
        <ele>211.956864</ele>
        <time>2020-07-04T05:13:42.700Z</time>
      </trkpt>
      <trkpt lat="48.538564" lon="16.877328">
        <ele>212.277047</ele>
        <time>2020-07-04T05:13:45.687Z</time>
      </trkpt>
      <trkpt lat="48.538547" lon="16.877182">
        <ele>212.553470</ele>
        <time>2020-07-04T05:13:48.666Z</time>
      </trkpt>
      <trkpt lat="48.538477" lon="16.876934">
        <ele>213.056180</ele>
        <time>2020-07-04T05:15:35.703Z</time>
      </trkpt>
      <trkpt lat="48.538448" lon="16.876785">
        <ele>213.345775</ele>
        <time>2020-07-04T05:15:38.692Z</time>
      </trkpt>
      <trkpt lat="48.538417" lon="16.876610">
        <ele>213.683573</ele>
        <time>2020-07-04T05:15:41.693Z</time>
      </trkpt>
      <trkpt lat="48.538392" lon="16.876423">
        <ele>214.039308</ele>
        <time>2020-07-04T05:15:44.670Z</time>
      </trkpt>
      <trkpt lat="48.538359" lon="16.876231">
        <ele>214.409196</ele>
        <time>2020-07-04T05:15:47.683Z</time>
      </trkpt>
      <trkpt lat="48.538340" lon="16.876097">
        <ele>214.664731</ele>
        <time>2020-07-04T05:15:49.699Z</time>
      </trkpt>
      <trkpt lat="48.538317" lon="16.875902">
        <ele>215.034071</ele>
        <time>2020-07-04T05:15:52.693Z</time>
      </trkpt>
      <trkpt lat="48.538292" lon="16.875701">
        <ele>215.415432</ele>
        <time>2020-07-04T05:15:55.685Z</time>
      </trkpt>
      <trkpt lat="48.538277" lon="16.875553">
        <ele>215.694622</ele>
        <time>2020-07-04T05:15:57.675Z</time>
      </trkpt>
      <trkpt lat="48.538259" lon="16.875411">
        <ele>215.964218</ele>
        <time>2020-07-04T05:15:59.671Z</time>
      </trkpt>
      <trkpt lat="48.538248" lon="16.875251">
        <ele>216.195508</ele>
        <time>2020-07-04T05:16:02.686Z</time>
      </trkpt>
      <trkpt lat="48.538250" lon="16.875217">
        <ele>216.225265</ele>
        <time>2020-07-04T05:16:14.894Z</time>
      </trkpt>
      <trkpt lat="48.538223" lon="16.875047">
        <ele>216.377671</ele>
        <time>2020-07-04T05:17:31.692Z</time>
      </trkpt>
      <trkpt lat="48.538204" lon="16.874891">
        <ele>216.515950</ele>
        <time>2020-07-04T05:17:34.676Z</time>
      </trkpt>
      <trkpt lat="48.538175" lon="16.874714">
        <ele>216.674909</ele>
        <time>2020-07-04T05:17:37.706Z</time>
      </trkpt>
      <trkpt lat="48.538158" lon="16.874544">
        <ele>216.824793</ele>
        <time>2020-07-04T05:17:40.694Z</time>
      </trkpt>
      <trkpt lat="48.538139" lon="16.874361">
        <ele>216.986278</ele>
        <time>2020-07-04T05:17:43.691Z</time>
      </trkpt>
      <trkpt lat="48.538123" lon="16.874182">
        <ele>217.143742</ele>
        <time>2020-07-04T05:17:46.706Z</time>
      </trkpt>
      <trkpt lat="48.538097" lon="16.874049">
        <ele>217.264637</ele>
        <time>2020-07-04T05:17:48.679Z</time>
      </trkpt>
      <trkpt lat="48.538071" lon="16.873910">
        <ele>217.390557</ele>
        <time>2020-07-04T05:17:50.674Z</time>
      </trkpt>
      <trkpt lat="48.538041" lon="16.873776">
        <ele>217.513873</ele>
        <time>2020-07-04T05:17:52.712Z</time>
      </trkpt>
      <trkpt lat="48.538008" lon="16.873636">
        <ele>217.643426</ele>
        <time>2020-07-04T05:17:54.689Z</time>
      </trkpt>
      <trkpt lat="48.537973" lon="16.873498">
        <ele>217.772256</ele>
        <time>2020-07-04T05:17:56.691Z</time>
      </trkpt>
      <trkpt lat="48.537937" lon="16.873362">
        <ele>217.899942</ele>
        <time>2020-07-04T05:17:58.679Z</time>
      </trkpt>
      <trkpt lat="48.537892" lon="16.873220">
        <ele>218.037183</ele>
        <time>2020-07-04T05:18:00.677Z</time>
      </trkpt>
      <trkpt lat="48.537851" lon="16.873087">
        <ele>218.165081</ele>
        <time>2020-07-04T05:18:02.711Z</time>
      </trkpt>
      <trkpt lat="48.537811" lon="16.872962">
        <ele>218.286114</ele>
        <time>2020-07-04T05:18:04.688Z</time>
      </trkpt>
      <trkpt lat="48.537780" lon="16.872823">
        <ele>218.413981</ele>
        <time>2020-07-04T05:18:06.694Z</time>
      </trkpt>
      <trkpt lat="48.537747" lon="16.872693">
        <ele>218.523581</ele>
        <time>2020-07-04T05:18:08.689Z</time>
      </trkpt>
      <trkpt lat="48.537708" lon="16.872568">
        <ele>218.599661</ele>
        <time>2020-07-04T05:18:10.684Z</time>
      </trkpt>
      <trkpt lat="48.537666" lon="16.872441">
        <ele>218.677821</ele>
        <time>2020-07-04T05:18:12.706Z</time>
      </trkpt>
      <trkpt lat="48.537611" lon="16.872286">
        <ele>218.774643</ele>
        <time>2020-07-04T05:18:14.686Z</time>
      </trkpt>
      <trkpt lat="48.537552" lon="16.872134">
        <ele>218.871651</ele>
        <time>2020-07-04T05:18:16.687Z</time>
      </trkpt>
      <trkpt lat="48.537489" lon="16.871997">
        <ele>218.963487</ele>
        <time>2020-07-04T05:18:18.689Z</time>
      </trkpt>
      <trkpt lat="48.537423" lon="16.871883">
        <ele>219.046862</ele>
        <time>2020-07-04T05:18:20.700Z</time>
      </trkpt>
      <trkpt lat="48.537352" lon="16.871775">
        <ele>219.130656</ele>
        <time>2020-07-04T05:18:22.684Z</time>
      </trkpt>
      <trkpt lat="48.537278" lon="16.871666">
        <ele>219.216609</ele>
        <time>2020-07-04T05:18:24.682Z</time>
      </trkpt>
      <trkpt lat="48.537205" lon="16.871558">
        <ele>219.301582</ele>
        <time>2020-07-04T05:18:26.684Z</time>
      </trkpt>
      <trkpt lat="48.537132" lon="16.871452">
        <ele>219.385789</ele>
        <time>2020-07-04T05:18:28.693Z</time>
      </trkpt>
      <trkpt lat="48.537058" lon="16.871342">
        <ele>219.472127</ele>
        <time>2020-07-04T05:18:30.709Z</time>
      </trkpt>
      <trkpt lat="48.536987" lon="16.871229">
        <ele>219.557897</ele>
        <time>2020-07-04T05:18:32.707Z</time>
      </trkpt>
      <trkpt lat="48.536921" lon="16.871110">
        <ele>219.643364</ele>
        <time>2020-07-04T05:18:34.686Z</time>
      </trkpt>
      <trkpt lat="48.536856" lon="16.870989">
        <ele>219.729153</ele>
        <time>2020-07-04T05:18:36.681Z</time>
      </trkpt>
      <trkpt lat="48.536792" lon="16.870868">
        <ele>219.814420</ele>
        <time>2020-07-04T05:18:38.700Z</time>
      </trkpt>
      <trkpt lat="48.536729" lon="16.870744">
        <ele>219.900475</ele>
        <time>2020-07-04T05:18:40.696Z</time>
      </trkpt>
      <trkpt lat="48.536664" lon="16.870616">
        <ele>219.989290</ele>
        <time>2020-07-04T05:18:42.697Z</time>
      </trkpt>
      <trkpt lat="48.536605" lon="16.870481">
        <ele>220.013153</ele>
        <time>2020-07-04T05:18:44.687Z</time>
      </trkpt>
      <trkpt lat="48.536566" lon="16.870332">
        <ele>220.028871</ele>
        <time>2020-07-04T05:18:46.711Z</time>
      </trkpt>
      <trkpt lat="48.536532" lon="16.870183">
        <ele>220.044331</ele>
        <time>2020-07-04T05:18:48.700Z</time>
      </trkpt>
      <trkpt lat="48.536498" lon="16.870039">
        <ele>220.059329</ele>
        <time>2020-07-04T05:18:50.691Z</time>
      </trkpt>
      <trkpt lat="48.536463" lon="16.869892">
        <ele>220.074654</ele>
        <time>2020-07-04T05:18:52.691Z</time>
      </trkpt>
      <trkpt lat="48.536427" lon="16.869743">
        <ele>220.090214</ele>
        <time>2020-07-04T05:18:54.672Z</time>
      </trkpt>
      <trkpt lat="48.536388" lon="16.869598">
        <ele>220.105567</ele>
        <time>2020-07-04T05:18:56.673Z</time>
      </trkpt>
      <trkpt lat="48.536350" lon="16.869454">
        <ele>220.120775</ele>
        <time>2020-07-04T05:18:58.669Z</time>
      </trkpt>
      <trkpt lat="48.536317" lon="16.869301">
        <ele>220.136561</ele>
        <time>2020-07-04T05:19:00.673Z</time>
      </trkpt>
      <trkpt lat="48.536286" lon="16.869158">
        <ele>220.151322</ele>
        <time>2020-07-04T05:19:02.673Z</time>
      </trkpt>
      <trkpt lat="48.536260" lon="16.869025">
        <ele>220.164926</ele>
        <time>2020-07-04T05:19:04.677Z</time>
      </trkpt>
      <trkpt lat="48.536229" lon="16.868895">
        <ele>220.178481</ele>
        <time>2020-07-04T05:19:06.693Z</time>
      </trkpt>
      <trkpt lat="48.536199" lon="16.868762">
        <ele>220.192265</ele>
        <time>2020-07-04T05:19:08.674Z</time>
      </trkpt>
      <trkpt lat="48.536168" lon="16.868631">
        <ele>220.205913</ele>
        <time>2020-07-04T05:19:10.683Z</time>
      </trkpt>
      <trkpt lat="48.536139" lon="16.868503">
        <ele>220.219184</ele>
        <time>2020-07-04T05:19:12.672Z</time>
      </trkpt>
      <trkpt lat="48.536104" lon="16.868327">
        <ele>220.237212</ele>
        <time>2020-07-04T05:19:15.672Z</time>
      </trkpt>
      <trkpt lat="48.536068" lon="16.868178">
        <ele>220.252772</ele>
        <time>2020-07-04T05:19:18.688Z</time>
      </trkpt>
      <trkpt lat="48.536027" lon="16.868023">
        <ele>220.279815</ele>
        <time>2020-07-04T05:19:21.672Z</time>
      </trkpt>
      <trkpt lat="48.535990" lon="16.867882">
        <ele>220.338231</ele>
        <time>2020-07-04T05:19:24.686Z</time>
      </trkpt>
      <trkpt lat="48.535952" lon="16.867742">
        <ele>220.396508</ele>
        <time>2020-07-04T05:19:27.693Z</time>
      </trkpt>
      <trkpt lat="48.535917" lon="16.867602">
        <ele>220.454146</ele>
        <time>2020-07-04T05:19:30.681Z</time>
      </trkpt>
      <trkpt lat="48.535882" lon="16.867467">
        <ele>220.509986</ele>
        <time>2020-07-04T05:19:33.675Z</time>
      </trkpt>
      <trkpt lat="48.535846" lon="16.867329">
        <ele>220.567115</ele>
        <time>2020-07-04T05:19:36.697Z</time>
      </trkpt>
      <trkpt lat="48.535808" lon="16.867203">
        <ele>220.620442</ele>
        <time>2020-07-04T05:19:39.682Z</time>
      </trkpt>
      <trkpt lat="48.535773" lon="16.867076">
        <ele>220.673425</ele>
        <time>2020-07-04T05:19:42.717Z</time>
      </trkpt>
      <trkpt lat="48.535731" lon="16.866910">
        <ele>220.741870</ele>
        <time>2020-07-04T05:19:46.699Z</time>
      </trkpt>
      <trkpt lat="48.535689" lon="16.866745">
        <ele>220.809956</ele>
        <time>2020-07-04T05:19:50.686Z</time>
      </trkpt>
      <trkpt lat="48.535653" lon="16.866584">
        <ele>220.875407</ele>
        <time>2020-07-04T05:19:54.684Z</time>
      </trkpt>
      <trkpt lat="48.535619" lon="16.866424">
        <ele>220.940129</ele>
        <time>2020-07-04T05:19:58.705Z</time>
      </trkpt>
      <trkpt lat="48.535585" lon="16.866266">
        <ele>221.004118</ele>
        <time>2020-07-04T05:20:02.670Z</time>
      </trkpt>
      <trkpt lat="48.535549" lon="16.866118">
        <ele>221.064846</ele>
        <time>2020-07-04T05:20:06.682Z</time>
      </trkpt>
      <trkpt lat="48.535517" lon="16.865972">
        <ele>221.124081</ele>
        <time>2020-07-04T05:20:10.718Z</time>
      </trkpt>
      <trkpt lat="48.535480" lon="16.865832">
        <ele>221.182140</ele>
        <time>2020-07-04T05:20:14.705Z</time>
      </trkpt>
      <trkpt lat="48.535441" lon="16.865691">
        <ele>221.240996</ele>
        <time>2020-07-04T05:20:18.680Z</time>
      </trkpt>
      <trkpt lat="48.535406" lon="16.865550">
        <ele>221.298995</ele>
        <time>2020-07-04T05:20:22.694Z</time>
      </trkpt>
      <trkpt lat="48.535365" lon="16.865412">
        <ele>221.411225</ele>
        <time>2020-07-04T05:20:26.700Z</time>
      </trkpt>
      <trkpt lat="48.535326" lon="16.865253">
        <ele>221.553976</ele>
        <time>2020-07-04T05:20:30.679Z</time>
      </trkpt>
      <trkpt lat="48.535299" lon="16.865091">
        <ele>221.694618</ele>
        <time>2020-07-04T05:20:34.689Z</time>
      </trkpt>
      <trkpt lat="48.535275" lon="16.864918">
        <ele>221.843429</ele>
        <time>2020-07-04T05:20:38.689Z</time>
      </trkpt>
      <trkpt lat="48.535261" lon="16.864779">
        <ele>221.961799</ele>
        <time>2020-07-04T05:20:41.678Z</time>
      </trkpt>
      <trkpt lat="48.535246" lon="16.864644">
        <ele>222.077045</ele>
        <time>2020-07-04T05:20:44.682Z</time>
      </trkpt>
      <trkpt lat="48.535221" lon="16.864473">
        <ele>222.224477</ele>
        <time>2020-07-04T05:20:48.688Z</time>
      </trkpt>
      <trkpt lat="48.535198" lon="16.864339">
        <ele>222.341020</ele>
        <time>2020-07-04T05:20:51.720Z</time>
      </trkpt>
      <trkpt lat="48.535179" lon="16.864162">
        <ele>222.491982</ele>
        <time>2020-07-04T05:20:55.685Z</time>
      </trkpt>
      <trkpt lat="48.535187" lon="16.864022">
        <ele>222.610287</ele>
        <time>2020-07-04T05:20:58.686Z</time>
      </trkpt>
      <trkpt lat="48.535203" lon="16.863887">
        <ele>222.725749</ele>
        <time>2020-07-04T05:21:01.689Z</time>
      </trkpt>
      <trkpt lat="48.535238" lon="16.863749">
        <ele>222.850163</ele>
        <time>2020-07-04T05:21:04.679Z</time>
      </trkpt>
      <trkpt lat="48.535276" lon="16.863605">
        <ele>222.980669</ele>
        <time>2020-07-04T05:21:07.686Z</time>
      </trkpt>
      <trkpt lat="48.535326" lon="16.863451">
        <ele>223.125069</ele>
        <time>2020-07-04T05:21:10.685Z</time>
      </trkpt>
      <trkpt lat="48.535369" lon="16.863279">
        <ele>223.279852</ele>
        <time>2020-07-04T05:21:13.674Z</time>
      </trkpt>
      <trkpt lat="48.535412" lon="16.863110">
        <ele>223.432276</ele>
        <time>2020-07-04T05:21:16.697Z</time>
      </trkpt>
      <trkpt lat="48.535457" lon="16.862940">
        <ele>223.586411</ele>
        <time>2020-07-04T05:21:19.700Z</time>
      </trkpt>
      <trkpt lat="48.535502" lon="16.862769">
        <ele>223.688803</ele>
        <time>2020-07-04T05:21:22.711Z</time>
      </trkpt>
      <trkpt lat="48.535540" lon="16.862599">
        <ele>223.784263</ele>
        <time>2020-07-04T05:21:25.685Z</time>
      </trkpt>
      <trkpt lat="48.535585" lon="16.862412">
        <ele>223.890120</ele>
        <time>2020-07-04T05:21:28.713Z</time>
      </trkpt>
      <trkpt lat="48.535635" lon="16.862224">
        <ele>223.997909</ele>
        <time>2020-07-04T05:21:31.704Z</time>
      </trkpt>
      <trkpt lat="48.535669" lon="16.862098">
        <ele>224.070298</ele>
        <time>2020-07-04T05:21:33.697Z</time>
      </trkpt>
      <trkpt lat="48.535698" lon="16.861969">
        <ele>224.142778</ele>
        <time>2020-07-04T05:21:35.684Z</time>
      </trkpt>
      <trkpt lat="48.535730" lon="16.861839">
        <ele>224.216567</ele>
        <time>2020-07-04T05:21:37.678Z</time>
      </trkpt>
      <trkpt lat="48.535779" lon="16.861648">
        <ele>224.325545</ele>
        <time>2020-07-04T05:21:40.687Z</time>
      </trkpt>
      <trkpt lat="48.535818" lon="16.861516">
        <ele>224.402448</ele>
        <time>2020-07-04T05:21:42.684Z</time>
      </trkpt>
      <trkpt lat="48.535863" lon="16.861326">
        <ele>224.509806</ele>
        <time>2020-07-04T05:21:45.683Z</time>
      </trkpt>
      <trkpt lat="48.535908" lon="16.861130">
        <ele>224.620174</ele>
        <time>2020-07-04T05:21:48.706Z</time>
      </trkpt>
      <trkpt lat="48.535943" lon="16.861004">
        <ele>224.692870</ele>
        <time>2020-07-04T05:21:50.706Z</time>
      </trkpt>
      <trkpt lat="48.535993" lon="16.860828">
        <ele>224.794762</ele>
        <time>2020-07-04T05:21:53.681Z</time>
      </trkpt>
      <trkpt lat="48.536044" lon="16.860642">
        <ele>224.901868</ele>
        <time>2020-07-04T05:21:56.677Z</time>
      </trkpt>
      <trkpt lat="48.536080" lon="16.860513">
        <ele>224.976347</ele>
        <time>2020-07-04T05:21:58.684Z</time>
      </trkpt>
      <trkpt lat="48.536112" lon="16.860380">
        <ele>225.052738</ele>
        <time>2020-07-04T05:22:00.684Z</time>
      </trkpt>
      <trkpt lat="48.536152" lon="16.860191">
        <ele>225.173215</ele>
        <time>2020-07-04T05:22:03.720Z</time>
      </trkpt>
      <trkpt lat="48.536188" lon="16.860059">
        <ele>225.259894</ele>
        <time>2020-07-04T05:22:05.724Z</time>
      </trkpt>
      <trkpt lat="48.536222" lon="16.859930">
        <ele>225.344197</ele>
        <time>2020-07-04T05:22:07.726Z</time>
      </trkpt>
      <trkpt lat="48.536274" lon="16.859740">
        <ele>225.469027</ele>
        <time>2020-07-04T05:22:10.700Z</time>
      </trkpt>
      <trkpt lat="48.536317" lon="16.859552">
        <ele>225.589795</ele>
        <time>2020-07-04T05:22:13.703Z</time>
      </trkpt>
      <trkpt lat="48.536344" lon="16.859421">
        <ele>225.673099</ele>
        <time>2020-07-04T05:22:15.683Z</time>
      </trkpt>
      <trkpt lat="48.536374" lon="16.859291">
        <ele>225.756688</ele>
        <time>2020-07-04T05:22:17.703Z</time>
      </trkpt>
      <trkpt lat="48.536408" lon="16.859165">
        <ele>225.839302</ele>
        <time>2020-07-04T05:22:19.695Z</time>
      </trkpt>
      <trkpt lat="48.536437" lon="16.858974">
        <ele>225.958282</ele>
        <time>2020-07-04T05:22:22.701Z</time>
      </trkpt>
      <trkpt lat="48.536438" lon="16.858827">
        <ele>226.047541</ele>
        <time>2020-07-04T05:22:24.699Z</time>
      </trkpt>
      <trkpt lat="48.536436" lon="16.858684">
        <ele>226.134387</ele>
        <time>2020-07-04T05:22:26.697Z</time>
      </trkpt>
      <trkpt lat="48.536434" lon="16.858528">
        <ele>226.229124</ele>
        <time>2020-07-04T05:22:29.677Z</time>
      </trkpt>
      <trkpt lat="48.536414" lon="16.858345">
        <ele>226.341740</ele>
        <time>2020-07-04T05:23:15.664Z</time>
      </trkpt>
      <trkpt lat="48.536414" lon="16.858171">
        <ele>226.447389</ele>
        <time>2020-07-04T05:23:18.664Z</time>
      </trkpt>
      <trkpt lat="48.536412" lon="16.858033">
        <ele>226.531199</ele>
        <time>2020-07-04T05:23:20.687Z</time>
      </trkpt>
      <trkpt lat="48.536408" lon="16.857878">
        <ele>226.625383</ele>
        <time>2020-07-04T05:23:22.680Z</time>
      </trkpt>
      <trkpt lat="48.536410" lon="16.857715">
        <ele>226.712637</ele>
        <time>2020-07-04T05:23:24.692Z</time>
      </trkpt>
      <trkpt lat="48.536410" lon="16.857549">
        <ele>226.775569</ele>
        <time>2020-07-04T05:23:26.688Z</time>
      </trkpt>
      <trkpt lat="48.536407" lon="16.857378">
        <ele>226.840418</ele>
        <time>2020-07-04T05:23:28.694Z</time>
      </trkpt>
      <trkpt lat="48.536400" lon="16.857208">
        <ele>226.904990</ele>
        <time>2020-07-04T05:23:30.683Z</time>
      </trkpt>
      <trkpt lat="48.536389" lon="16.857036">
        <ele>226.970500</ele>
        <time>2020-07-04T05:23:32.692Z</time>
      </trkpt>
      <trkpt lat="48.536385" lon="16.856861">
        <ele>227.036883</ele>
        <time>2020-07-04T05:23:34.675Z</time>
      </trkpt>
      <trkpt lat="48.536379" lon="16.856694">
        <ele>227.100286</ele>
        <time>2020-07-04T05:23:36.693Z</time>
      </trkpt>
      <trkpt lat="48.536373" lon="16.856528">
        <ele>227.163311</ele>
        <time>2020-07-04T05:23:38.704Z</time>
      </trkpt>
      <trkpt lat="48.536367" lon="16.856366">
        <ele>227.224822</ele>
        <time>2020-07-04T05:23:40.712Z</time>
      </trkpt>
      <trkpt lat="48.536356" lon="16.856208">
        <ele>227.285051</ele>
        <time>2020-07-04T05:23:42.690Z</time>
      </trkpt>
      <trkpt lat="48.536346" lon="16.856050">
        <ele>227.345222</ele>
        <time>2020-07-04T05:23:44.686Z</time>
      </trkpt>
      <trkpt lat="48.536337" lon="16.855894">
        <ele>227.404587</ele>
        <time>2020-07-04T05:23:46.688Z</time>
      </trkpt>
      <trkpt lat="48.536328" lon="16.855736">
        <ele>227.464707</ele>
        <time>2020-07-04T05:23:48.702Z</time>
      </trkpt>
      <trkpt lat="48.536319" lon="16.855578">
        <ele>227.524826</ele>
        <time>2020-07-04T05:23:50.681Z</time>
      </trkpt>
      <trkpt lat="48.536310" lon="16.855423">
        <ele>227.583813</ele>
        <time>2020-07-04T05:23:52.679Z</time>
      </trkpt>
      <trkpt lat="48.536302" lon="16.855270">
        <ele>227.641997</ele>
        <time>2020-07-04T05:23:54.683Z</time>
      </trkpt>
      <trkpt lat="48.536292" lon="16.855121">
        <ele>227.698773</ele>
        <time>2020-07-04T05:23:56.695Z</time>
      </trkpt>
      <trkpt lat="48.536283" lon="16.854973">
        <ele>227.752983</ele>
        <time>2020-07-04T05:23:58.695Z</time>
      </trkpt>
      <trkpt lat="48.536275" lon="16.854825">
        <ele>227.805545</ele>
        <time>2020-07-04T05:24:00.699Z</time>
      </trkpt>
      <trkpt lat="48.536267" lon="16.854680">
        <ele>227.857049</ele>
        <time>2020-07-04T05:24:02.710Z</time>
      </trkpt>
      <trkpt lat="48.536259" lon="16.854534">
        <ele>227.908906</ele>
        <time>2020-07-04T05:24:04.694Z</time>
      </trkpt>
      <trkpt lat="48.536252" lon="16.854389">
        <ele>227.960368</ele>
        <time>2020-07-04T05:24:06.712Z</time>
      </trkpt>
      <trkpt lat="48.536245" lon="16.854245">
        <ele>228.011477</ele>
        <time>2020-07-04T05:24:08.720Z</time>
      </trkpt>
      <trkpt lat="48.536235" lon="16.854101">
        <ele>228.062729</ele>
        <time>2020-07-04T05:24:10.693Z</time>
      </trkpt>
      <trkpt lat="48.536227" lon="16.853959">
        <ele>228.113175</ele>
        <time>2020-07-04T05:24:12.699Z</time>
      </trkpt>
      <trkpt lat="48.536223" lon="16.853819">
        <ele>228.162777</ele>
        <time>2020-07-04T05:24:14.707Z</time>
      </trkpt>
      <trkpt lat="48.536218" lon="16.853679">
        <ele>228.212405</ele>
        <time>2020-07-04T05:24:16.673Z</time>
      </trkpt>
      <trkpt lat="48.536210" lon="16.853541">
        <ele>228.261441</ele>
        <time>2020-07-04T05:24:18.678Z</time>
      </trkpt>
      <trkpt lat="48.536204" lon="16.853402">
        <ele>228.310747</ele>
        <time>2020-07-04T05:24:20.690Z</time>
      </trkpt>
      <trkpt lat="48.536200" lon="16.853264">
        <ele>228.359642</ele>
        <time>2020-07-04T05:24:22.678Z</time>
      </trkpt>
      <trkpt lat="48.536202" lon="16.853124">
        <ele>228.409210</ele>
        <time>2020-07-04T05:24:24.680Z</time>
      </trkpt>
      <trkpt lat="48.536188" lon="16.852923">
        <ele>228.480751</ele>
        <time>2020-07-04T05:24:27.687Z</time>
      </trkpt>
      <trkpt lat="48.536186" lon="16.852779">
        <ele>228.531735</ele>
        <time>2020-07-04T05:24:29.689Z</time>
      </trkpt>
      <trkpt lat="48.536179" lon="16.852634">
        <ele>228.583197</ele>
        <time>2020-07-04T05:24:31.686Z</time>
      </trkpt>
      <trkpt lat="48.536160" lon="16.852496">
        <ele>228.633090</ele>
        <time>2020-07-04T05:24:33.672Z</time>
      </trkpt>
      <trkpt lat="48.536145" lon="16.852356">
        <ele>228.683291</ele>
        <time>2020-07-04T05:24:35.698Z</time>
      </trkpt>
      <trkpt lat="48.536109" lon="16.852162">
        <ele>228.763371</ele>
        <time>2020-07-04T05:24:38.712Z</time>
      </trkpt>
      <trkpt lat="48.536059" lon="16.851973">
        <ele>228.844414</ele>
        <time>2020-07-04T05:24:41.686Z</time>
      </trkpt>
      <trkpt lat="48.536030" lon="16.851837">
        <ele>228.901307</ele>
        <time>2020-07-04T05:24:43.688Z</time>
      </trkpt>
      <trkpt lat="48.536008" lon="16.851696">
        <ele>228.958990</ele>
        <time>2020-07-04T05:24:45.690Z</time>
      </trkpt>
      <trkpt lat="48.535983" lon="16.851565">
        <ele>229.013277</ele>
        <time>2020-07-04T05:24:47.686Z</time>
      </trkpt>
      <trkpt lat="48.535950" lon="16.851370">
        <ele>229.093420</ele>
        <time>2020-07-04T05:24:50.728Z</time>
      </trkpt>
      <trkpt lat="48.535914" lon="16.851185">
        <ele>229.170202</ele>
        <time>2020-07-04T05:24:53.697Z</time>
      </trkpt>
      <trkpt lat="48.535885" lon="16.851001">
        <ele>229.245516</ele>
        <time>2020-07-04T05:24:56.687Z</time>
      </trkpt>
      <trkpt lat="48.535846" lon="16.850825">
        <ele>229.319419</ele>
        <time>2020-07-04T05:24:59.690Z</time>
      </trkpt>
      <trkpt lat="48.535805" lon="16.850653">
        <ele>229.392211</ele>
        <time>2020-07-04T05:25:02.692Z</time>
      </trkpt>
      <trkpt lat="48.535764" lon="16.850475">
        <ele>229.467256</ele>
        <time>2020-07-04T05:25:05.684Z</time>
      </trkpt>
      <trkpt lat="48.535725" lon="16.850309">
        <ele>229.537394</ele>
        <time>2020-07-04T05:25:08.674Z</time>
      </trkpt>
      <trkpt lat="48.535687" lon="16.850146">
        <ele>229.606205</ele>
        <time>2020-07-04T05:25:11.687Z</time>
      </trkpt>
      <trkpt lat="48.535652" lon="16.849985">
        <ele>229.673681</ele>
        <time>2020-07-04T05:25:14.682Z</time>
      </trkpt>
      <trkpt lat="48.535620" lon="16.849826">
        <ele>229.739855</ele>
        <time>2020-07-04T05:25:17.706Z</time>
      </trkpt>
      <trkpt lat="48.535592" lon="16.849678">
        <ele>229.838372</ele>
        <time>2020-07-04T05:25:20.689Z</time>
      </trkpt>
      <trkpt lat="48.535572" lon="16.849537">
        <ele>229.956781</ele>
        <time>2020-07-04T05:25:23.674Z</time>
      </trkpt>
      <trkpt lat="48.535561" lon="16.849366">
        <ele>230.097860</ele>
        <time>2020-07-04T05:25:27.672Z</time>
      </trkpt>
      <trkpt lat="48.535543" lon="16.849208">
        <ele>230.229509</ele>
        <time>2020-07-04T05:25:31.676Z</time>
      </trkpt>
      <trkpt lat="48.535536" lon="16.849035">
        <ele>230.371833</ele>
        <time>2020-07-04T05:25:35.678Z</time>
      </trkpt>
      <trkpt lat="48.535540" lon="16.848866">
        <ele>230.510697</ele>
        <time>2020-07-04T05:25:39.678Z</time>
      </trkpt>
      <trkpt lat="48.535548" lon="16.848706">
        <ele>230.642456</ele>
        <time>2020-07-04T05:25:43.702Z</time>
      </trkpt>
      <trkpt lat="48.535551" lon="16.848565">
        <ele>230.758299</ele>
        <time>2020-07-04T05:25:47.693Z</time>
      </trkpt>
      <trkpt lat="48.535550" lon="16.848401">
        <ele>230.892974</ele>
        <time>2020-07-04T05:25:52.691Z</time>
      </trkpt>
      <trkpt lat="48.535541" lon="16.848234">
        <ele>231.030560</ele>
        <time>2020-07-04T05:25:57.685Z</time>
      </trkpt>
      <trkpt lat="48.535537" lon="16.848079">
        <ele>231.157936</ele>
        <time>2020-07-04T05:26:02.673Z</time>
      </trkpt>
      <trkpt lat="48.535526" lon="16.847925">
        <ele>231.285128</ele>
        <time>2020-07-04T05:26:07.698Z</time>
      </trkpt>
      <trkpt lat="48.535515" lon="16.847771">
        <ele>231.412319</ele>
        <time>2020-07-04T05:26:12.673Z</time>
      </trkpt>
      <trkpt lat="48.535501" lon="16.847605">
        <ele>231.549733</ele>
        <time>2020-07-04T05:26:17.676Z</time>
      </trkpt>
      <trkpt lat="48.535489" lon="16.847470">
        <ele>231.661583</ele>
        <time>2020-07-04T05:26:21.698Z</time>
      </trkpt>
      <trkpt lat="48.535472" lon="16.847313">
        <ele>231.792217</ele>
        <time>2020-07-04T05:26:26.667Z</time>
      </trkpt>
      <trkpt lat="48.535461" lon="16.847152">
        <ele>231.925125</ele>
        <time>2020-07-04T05:26:31.679Z</time>
      </trkpt>
      <trkpt lat="48.535447" lon="16.847004">
        <ele>232.101962</ele>
        <time>2020-07-04T05:26:36.690Z</time>
      </trkpt>
      <trkpt lat="48.535433" lon="16.846849">
        <ele>232.365956</ele>
        <time>2020-07-04T05:26:41.683Z</time>
      </trkpt>
      <trkpt lat="48.535418" lon="16.846692">
        <ele>232.633647</ele>
        <time>2020-07-04T05:26:46.703Z</time>
      </trkpt>
      <trkpt lat="48.535407" lon="16.846528">
        <ele>232.911823</ele>
        <time>2020-07-04T05:26:51.705Z</time>
      </trkpt>
      <trkpt lat="48.535401" lon="16.846385">
        <ele>233.153628</ele>
        <time>2020-07-04T05:26:56.690Z</time>
      </trkpt>
      <trkpt lat="48.535393" lon="16.846246">
        <ele>233.389084</ele>
        <time>2020-07-04T05:27:01.692Z</time>
      </trkpt>
      <trkpt lat="48.535371" lon="16.846102">
        <ele>233.638477</ele>
        <time>2020-07-04T05:27:06.683Z</time>
      </trkpt>
      <trkpt lat="48.535360" lon="16.845953">
        <ele>233.891482</ele>
        <time>2020-07-04T05:27:11.680Z</time>
      </trkpt>
      <trkpt lat="48.535348" lon="16.845814">
        <ele>234.128039</ele>
        <time>2020-07-04T05:27:15.684Z</time>
      </trkpt>
      <trkpt lat="48.535351" lon="16.845676">
        <ele>234.361048</ele>
        <time>2020-07-04T05:27:20.684Z</time>
      </trkpt>
      <trkpt lat="48.535342" lon="16.845538">
        <ele>234.595059</ele>
        <time>2020-07-04T05:27:25.674Z</time>
      </trkpt>
      <trkpt lat="48.535338" lon="16.845392">
        <ele>234.841654</ele>
        <time>2020-07-04T05:27:30.690Z</time>
      </trkpt>
      <trkpt lat="48.535328" lon="16.845251">
        <ele>235.080962</ele>
        <time>2020-07-04T05:27:35.680Z</time>
      </trkpt>
      <trkpt lat="48.535316" lon="16.845112">
        <ele>235.317518</ele>
        <time>2020-07-04T05:27:40.680Z</time>
      </trkpt>
      <trkpt lat="48.535310" lon="16.844970">
        <ele>235.557640</ele>
        <time>2020-07-04T05:27:45.693Z</time>
      </trkpt>
      <trkpt lat="48.535294" lon="16.844827">
        <ele>235.802383</ele>
        <time>2020-07-04T05:27:50.679Z</time>
      </trkpt>
      <trkpt lat="48.535276" lon="16.844678">
        <ele>236.057980</ele>
        <time>2020-07-04T05:27:55.688Z</time>
      </trkpt>
      <trkpt lat="48.535266" lon="16.844536">
        <ele>236.298966</ele>
        <time>2020-07-04T05:28:00.673Z</time>
      </trkpt>
      <trkpt lat="48.535255" lon="16.844400">
        <ele>236.530181</ele>
        <time>2020-07-04T05:28:05.686Z</time>
      </trkpt>
      <trkpt lat="48.535236" lon="16.844248">
        <ele>237.267779</ele>
        <time>2020-07-04T05:28:10.670Z</time>
      </trkpt>
      <trkpt lat="48.535224" lon="16.844087">
        <ele>238.159922</ele>
        <time>2020-07-04T05:28:15.699Z</time>
      </trkpt>
      <trkpt lat="48.535215" lon="16.843931">
        <ele>239.022188</ele>
        <time>2020-07-04T05:28:20.681Z</time>
      </trkpt>
      <trkpt lat="48.535217" lon="16.843794">
        <ele>239.776760</ele>
        <time>2020-07-04T05:28:24.680Z</time>
      </trkpt>
      <trkpt lat="48.535230" lon="16.843637">
        <ele>240.648011</ele>
        <time>2020-07-04T05:28:28.683Z</time>
      </trkpt>
      <trkpt lat="48.535236" lon="16.843468">
        <ele>241.579943</ele>
        <time>2020-07-04T05:28:32.676Z</time>
      </trkpt>
      <trkpt lat="48.535243" lon="16.843316">
        <ele>242.418950</ele>
        <time>2020-07-04T05:28:36.672Z</time>
      </trkpt>
      <trkpt lat="48.535258" lon="16.843162">
        <ele>243.276074</ele>
        <time>2020-07-04T05:28:40.698Z</time>
      </trkpt>
      <trkpt lat="48.535286" lon="16.843007">
        <ele>244.160770</ele>
        <time>2020-07-04T05:28:44.680Z</time>
      </trkpt>
      <trkpt lat="48.535305" lon="16.842857">
        <ele>245.001718</ele>
        <time>2020-07-04T05:28:48.689Z</time>
      </trkpt>
      <trkpt lat="48.535324" lon="16.842701">
        <ele>245.875139</ele>
        <time>2020-07-04T05:28:52.666Z</time>
      </trkpt>
      <trkpt lat="48.535331" lon="16.842544">
        <ele>246.741612</ele>
        <time>2020-07-04T05:28:56.692Z</time>
      </trkpt>
      <trkpt lat="48.535340" lon="16.842385">
        <ele>247.620335</ele>
        <time>2020-07-04T05:29:00.680Z</time>
      </trkpt>
      <trkpt lat="48.535350" lon="16.842218">
        <ele>248.543668</ele>
        <time>2020-07-04T05:29:04.687Z</time>
      </trkpt>
      <trkpt lat="48.535371" lon="16.842052">
        <ele>249.474274</ele>
        <time>2020-07-04T05:29:08.723Z</time>
      </trkpt>
      <trkpt lat="48.535382" lon="16.841877">
        <ele>250.442238</ele>
        <time>2020-07-04T05:29:12.671Z</time>
      </trkpt>
      <trkpt lat="48.535397" lon="16.841699">
        <ele>251.430295</ele>
        <time>2020-07-04T05:29:16.705Z</time>
      </trkpt>
      <trkpt lat="48.535416" lon="16.841525">
        <ele>252.954674</ele>
        <time>2020-07-04T05:29:20.684Z</time>
      </trkpt>
      <trkpt lat="48.535418" lon="16.841361">
        <ele>254.436780</ele>
        <time>2020-07-04T05:29:25.681Z</time>
      </trkpt>
      <trkpt lat="48.535415" lon="16.841293">
        <ele>255.052569</ele>
        <time>2020-07-04T05:29:38.786Z</time>
      </trkpt>
      <trkpt lat="48.535359" lon="16.841157">
        <ele>256.499649</ele>
        <time>2020-07-04T05:32:07.786Z</time>
      </trkpt>
      <trkpt lat="48.535362" lon="16.840811">
        <ele>259.626272</ele>
        <time>2020-07-04T05:32:37.700Z</time>
      </trkpt>
      <trkpt lat="48.535367" lon="16.840639">
        <ele>261.181911</ele>
        <time>2020-07-04T05:32:40.698Z</time>
      </trkpt>
      <trkpt lat="48.535369" lon="16.840449">
        <ele>262.898912</ele>
        <time>2020-07-04T05:32:43.689Z</time>
      </trkpt>
      <trkpt lat="48.535367" lon="16.840246">
        <ele>264.733364</ele>
        <time>2020-07-04T05:32:46.686Z</time>
      </trkpt>
      <trkpt lat="48.535365" lon="16.840097">
        <ele>266.079961</ele>
        <time>2020-07-04T05:32:48.683Z</time>
      </trkpt>
      <trkpt lat="48.535366" lon="16.839950">
        <ele>267.408280</ele>
        <time>2020-07-04T05:32:50.684Z</time>
      </trkpt>
      <trkpt lat="48.535367" lon="16.839802">
        <ele>268.745635</ele>
        <time>2020-07-04T05:32:52.696Z</time>
      </trkpt>
      <trkpt lat="48.535366" lon="16.839652">
        <ele>270.101060</ele>
        <time>2020-07-04T05:32:54.709Z</time>
      </trkpt>
      <trkpt lat="48.535368" lon="16.839502">
        <ele>271.456691</ele>
        <time>2020-07-04T05:32:56.725Z</time>
      </trkpt>
      <trkpt lat="48.535364" lon="16.839342">
        <ele>272.903434</ele>
        <time>2020-07-04T05:32:58.688Z</time>
      </trkpt>
      <trkpt lat="48.535363" lon="16.839182">
        <ele>274.349212</ele>
        <time>2020-07-04T05:33:00.711Z</time>
      </trkpt>
      <trkpt lat="48.535363" lon="16.839022">
        <ele>275.794925</ele>
        <time>2020-07-04T05:33:02.703Z</time>
      </trkpt>
      <trkpt lat="48.535358" lon="16.838857">
        <ele>276.012403</ele>
        <time>2020-07-04T05:33:04.688Z</time>
      </trkpt>
      <trkpt lat="48.535355" lon="16.838692">
        <ele>275.926178</ele>
        <time>2020-07-04T05:33:06.701Z</time>
      </trkpt>
      <trkpt lat="48.535353" lon="16.838530">
        <ele>275.841538</ele>
        <time>2020-07-04T05:33:08.716Z</time>
      </trkpt>
      <trkpt lat="48.535353" lon="16.838361">
        <ele>275.753255</ele>
        <time>2020-07-04T05:33:10.716Z</time>
      </trkpt>
      <trkpt lat="48.535354" lon="16.838191">
        <ele>275.664447</ele>
        <time>2020-07-04T05:33:12.680Z</time>
      </trkpt>
      <trkpt lat="48.535365" lon="16.838009">
        <ele>275.568978</ele>
        <time>2020-07-04T05:33:14.688Z</time>
      </trkpt>
      <trkpt lat="48.535380" lon="16.837838">
        <ele>275.478871</ele>
        <time>2020-07-04T05:33:16.691Z</time>
      </trkpt>
      <trkpt lat="48.535389" lon="16.837674">
        <ele>275.392907</ele>
        <time>2020-07-04T05:33:18.694Z</time>
      </trkpt>
      <trkpt lat="48.535406" lon="16.837506">
        <ele>275.304128</ele>
        <time>2020-07-04T05:33:20.695Z</time>
      </trkpt>
      <trkpt lat="48.535420" lon="16.837346">
        <ele>275.219820</ele>
        <time>2020-07-04T05:33:22.713Z</time>
      </trkpt>
      <trkpt lat="48.535439" lon="16.837187">
        <ele>275.135420</ele>
        <time>2020-07-04T05:33:24.677Z</time>
      </trkpt>
      <trkpt lat="48.535458" lon="16.837022">
        <ele>275.047934</ele>
        <time>2020-07-04T05:33:26.685Z</time>
      </trkpt>
      <trkpt lat="48.535472" lon="16.836871">
        <ele>274.968285</ele>
        <time>2020-07-04T05:33:28.683Z</time>
      </trkpt>
      <trkpt lat="48.535482" lon="16.836726">
        <ele>274.892130</ele>
        <time>2020-07-04T05:33:30.694Z</time>
      </trkpt>
      <trkpt lat="48.535494" lon="16.836581">
        <ele>274.815796</ele>
        <time>2020-07-04T05:33:32.688Z</time>
      </trkpt>
      <trkpt lat="48.535507" lon="16.836433">
        <ele>274.737807</ele>
        <time>2020-07-04T05:33:34.718Z</time>
      </trkpt>
      <trkpt lat="48.535519" lon="16.836262">
        <ele>274.674122</ele>
        <time>2020-07-04T05:33:36.701Z</time>
      </trkpt>
      <trkpt lat="48.535542" lon="16.836121">
        <ele>274.729223</ele>
        <time>2020-07-04T05:33:38.685Z</time>
      </trkpt>
      <trkpt lat="48.535572" lon="16.835962">
        <ele>274.791957</ele>
        <time>2020-07-04T05:33:40.691Z</time>
      </trkpt>
      <trkpt lat="48.535597" lon="16.835788">
        <ele>274.859517</ele>
        <time>2020-07-04T05:33:42.677Z</time>
      </trkpt>
      <trkpt lat="48.535624" lon="16.835601">
        <ele>274.932140</ele>
        <time>2020-07-04T05:33:44.697Z</time>
      </trkpt>
      <trkpt lat="48.535653" lon="16.835438">
        <ele>274.996183</ele>
        <time>2020-07-04T05:33:46.692Z</time>
      </trkpt>
      <trkpt lat="48.535676" lon="16.835252">
        <ele>275.067980</ele>
        <time>2020-07-04T05:33:48.684Z</time>
      </trkpt>
      <trkpt lat="48.535696" lon="16.835082">
        <ele>275.133496</ele>
        <time>2020-07-04T05:33:50.694Z</time>
      </trkpt>
      <trkpt lat="48.535712" lon="16.834907">
        <ele>275.200529</ele>
        <time>2020-07-04T05:33:52.680Z</time>
      </trkpt>
      <trkpt lat="48.535728" lon="16.834743">
        <ele>275.263430</ele>
        <time>2020-07-04T05:33:54.680Z</time>
      </trkpt>
      <trkpt lat="48.535745" lon="16.834587">
        <ele>275.323419</ele>
        <time>2020-07-04T05:33:56.687Z</time>
      </trkpt>
      <trkpt lat="48.535765" lon="16.834422">
        <ele>275.387068</ele>
        <time>2020-07-04T05:33:58.697Z</time>
      </trkpt>
      <trkpt lat="48.535785" lon="16.834276">
        <ele>275.443640</ele>
        <time>2020-07-04T05:34:00.712Z</time>
      </trkpt>
      <trkpt lat="48.535839" lon="16.834037">
        <ele>275.539461</ele>
        <time>2020-07-04T05:34:51.680Z</time>
      </trkpt>
      <trkpt lat="48.535863" lon="16.833852">
        <ele>275.610993</ele>
        <time>2020-07-04T05:34:54.681Z</time>
      </trkpt>
      <trkpt lat="48.535897" lon="16.833657">
        <ele>275.687506</ele>
        <time>2020-07-04T05:34:57.677Z</time>
      </trkpt>
      <trkpt lat="48.535917" lon="16.833508">
        <ele>275.667953</ele>
        <time>2020-07-04T05:34:59.694Z</time>
      </trkpt>
      <trkpt lat="48.535935" lon="16.833361">
        <ele>275.639377</ele>
        <time>2020-07-04T05:35:01.679Z</time>
      </trkpt>
      <trkpt lat="48.535956" lon="16.833202">
        <ele>275.608386</ele>
        <time>2020-07-04T05:35:03.683Z</time>
      </trkpt>
      <trkpt lat="48.535975" lon="16.833046">
        <ele>275.578066</ele>
        <time>2020-07-04T05:35:05.704Z</time>
      </trkpt>
      <trkpt lat="48.535998" lon="16.832895">
        <ele>275.548449</ele>
        <time>2020-07-04T05:35:07.688Z</time>
      </trkpt>
      <trkpt lat="48.536026" lon="16.832736">
        <ele>275.516999</ele>
        <time>2020-07-04T05:35:09.682Z</time>
      </trkpt>
      <trkpt lat="48.536051" lon="16.832577">
        <ele>275.485762</ele>
        <time>2020-07-04T05:35:11.670Z</time>
      </trkpt>
      <trkpt lat="48.536074" lon="16.832420">
        <ele>275.455025</ele>
        <time>2020-07-04T05:35:13.685Z</time>
      </trkpt>
      <trkpt lat="48.536098" lon="16.832262">
        <ele>275.424039</ele>
        <time>2020-07-04T05:35:15.678Z</time>
      </trkpt>
      <trkpt lat="48.536122" lon="16.832107">
        <ele>275.393612</ele>
        <time>2020-07-04T05:35:17.672Z</time>
      </trkpt>
      <trkpt lat="48.536147" lon="16.831947">
        <ele>275.362188</ele>
        <time>2020-07-04T05:35:19.680Z</time>
      </trkpt>
      <trkpt lat="48.536172" lon="16.831788">
        <ele>275.330950</ele>
        <time>2020-07-04T05:35:21.671Z</time>
      </trkpt>
      <trkpt lat="48.536200" lon="16.831622">
        <ele>275.298206</ele>
        <time>2020-07-04T05:35:23.671Z</time>
      </trkpt>
      <trkpt lat="48.536229" lon="16.831460">
        <ele>275.266129</ele>
        <time>2020-07-04T05:35:25.704Z</time>
      </trkpt>
      <trkpt lat="48.536259" lon="16.831296">
        <ele>275.233606</ele>
        <time>2020-07-04T05:35:27.681Z</time>
      </trkpt>
      <trkpt lat="48.536294" lon="16.831146">
        <ele>275.203206</ele>
        <time>2020-07-04T05:35:29.711Z</time>
      </trkpt>
      <trkpt lat="48.536343" lon="16.831006">
        <ele>275.168587</ele>
        <time>2020-07-04T05:35:31.693Z</time>
      </trkpt>
      <trkpt lat="48.536412" lon="16.830889">
        <ele>275.060145</ele>
        <time>2020-07-04T05:35:33.670Z</time>
      </trkpt>
      <trkpt lat="48.536492" lon="16.830791">
        <ele>274.952471</ele>
        <time>2020-07-04T05:35:35.702Z</time>
      </trkpt>
      <trkpt lat="48.536587" lon="16.830713">
        <ele>274.839442</ele>
        <time>2020-07-04T05:35:37.685Z</time>
      </trkpt>
      <trkpt lat="48.536694" lon="16.830651">
        <ele>274.719647</ele>
        <time>2020-07-04T05:35:39.680Z</time>
      </trkpt>
      <trkpt lat="48.536789" lon="16.830602">
        <ele>274.614713</ele>
        <time>2020-07-04T05:35:41.698Z</time>
      </trkpt>
      <trkpt lat="48.536882" lon="16.830541">
        <ele>274.508728</ele>
        <time>2020-07-04T05:35:43.696Z</time>
      </trkpt>
      <trkpt lat="48.536976" lon="16.830452">
        <ele>274.392759</ele>
        <time>2020-07-04T05:35:45.678Z</time>
      </trkpt>
      <trkpt lat="48.537070" lon="16.830341">
        <ele>274.268032</ele>
        <time>2020-07-04T05:35:47.691Z</time>
      </trkpt>
      <trkpt lat="48.537145" lon="16.830229">
        <ele>274.157782</ele>
        <time>2020-07-04T05:35:49.684Z</time>
      </trkpt>
      <trkpt lat="48.537216" lon="16.830132">
        <ele>274.057706</ele>
        <time>2020-07-04T05:35:51.708Z</time>
      </trkpt>
      <trkpt lat="48.537302" lon="16.830030">
        <ele>273.943404</ele>
        <time>2020-07-04T05:35:54.663Z</time>
      </trkpt>
      <trkpt lat="48.537372" lon="16.829928">
        <ele>273.841729</ele>
        <time>2020-07-04T05:35:56.676Z</time>
      </trkpt>
      <trkpt lat="48.537446" lon="16.829808">
        <ele>273.728234</ele>
        <time>2020-07-04T05:35:58.664Z</time>
      </trkpt>
      <trkpt lat="48.537546" lon="16.829674">
        <ele>273.588492</ele>
        <time>2020-07-04T05:36:00.677Z</time>
      </trkpt>
      <trkpt lat="48.537648" lon="16.829533">
        <ele>273.443954</ele>
        <time>2020-07-04T05:36:02.674Z</time>
      </trkpt>
      <trkpt lat="48.537744" lon="16.829403">
        <ele>273.309175</ele>
        <time>2020-07-04T05:36:04.692Z</time>
      </trkpt>
      <trkpt lat="48.537831" lon="16.829282">
        <ele>273.129214</ele>
        <time>2020-07-04T05:36:06.678Z</time>
      </trkpt>
      <trkpt lat="48.537916" lon="16.829160">
        <ele>272.943257</ele>
        <time>2020-07-04T05:36:08.678Z</time>
      </trkpt>
      <trkpt lat="48.537997" lon="16.829041">
        <ele>272.764057</ele>
        <time>2020-07-04T05:36:10.677Z</time>
      </trkpt>
      <trkpt lat="48.538081" lon="16.828920">
        <ele>272.579973</ele>
        <time>2020-07-04T05:36:12.677Z</time>
      </trkpt>
      <trkpt lat="48.538162" lon="16.828809">
        <ele>272.406525</ele>
        <time>2020-07-04T05:36:14.680Z</time>
      </trkpt>
      <trkpt lat="48.538236" lon="16.828684">
        <ele>272.230462</ele>
        <time>2020-07-04T05:36:16.686Z</time>
      </trkpt>
      <trkpt lat="48.538310" lon="16.828552">
        <ele>272.048854</ele>
        <time>2020-07-04T05:36:18.704Z</time>
      </trkpt>
      <trkpt lat="48.538383" lon="16.828414">
        <ele>271.863388</ele>
        <time>2020-07-04T05:36:20.697Z</time>
      </trkpt>
      <trkpt lat="48.538451" lon="16.828268">
        <ele>271.675958</ele>
        <time>2020-07-04T05:36:22.662Z</time>
      </trkpt>
      <trkpt lat="48.538519" lon="16.828117">
        <ele>271.484211</ele>
        <time>2020-07-04T05:36:24.680Z</time>
      </trkpt>
      <trkpt lat="48.538586" lon="16.827962">
        <ele>271.289849</ele>
        <time>2020-07-04T05:36:26.675Z</time>
      </trkpt>
      <trkpt lat="48.538653" lon="16.827805">
        <ele>271.093725</ele>
        <time>2020-07-04T05:36:28.690Z</time>
      </trkpt>
      <trkpt lat="48.538722" lon="16.827649">
        <ele>270.896739</ele>
        <time>2020-07-04T05:36:30.690Z</time>
      </trkpt>
      <trkpt lat="48.538794" lon="16.827500">
        <ele>270.703055</ele>
        <time>2020-07-04T05:36:32.689Z</time>
      </trkpt>
      <trkpt lat="48.538861" lon="16.827353">
        <ele>270.515671</ele>
        <time>2020-07-04T05:36:34.678Z</time>
      </trkpt>
      <trkpt lat="48.538923" lon="16.827212">
        <ele>269.877555</ele>
        <time>2020-07-04T05:36:36.665Z</time>
      </trkpt>
      <trkpt lat="48.538992" lon="16.827065">
        <ele>268.852454</ele>
        <time>2020-07-04T05:36:38.692Z</time>
      </trkpt>
      <trkpt lat="48.539060" lon="16.826904">
        <ele>267.766052</ele>
        <time>2020-07-04T05:36:40.681Z</time>
      </trkpt>
      <trkpt lat="48.539119" lon="16.826768">
        <ele>266.841074</ele>
        <time>2020-07-04T05:36:42.702Z</time>
      </trkpt>
      <trkpt lat="48.539194" lon="16.826623">
        <ele>265.794312</ele>
        <time>2020-07-04T05:36:45.663Z</time>
      </trkpt>
      <trkpt lat="48.539241" lon="16.826487">
        <ele>264.921571</ele>
        <time>2020-07-04T05:36:49.682Z</time>
      </trkpt>
      <trkpt lat="48.539288" lon="16.826370">
        <ele>264.143044</ele>
        <time>2020-07-04T05:36:51.689Z</time>
      </trkpt>
      <trkpt lat="48.539395" lon="16.826278">
        <ele>263.085149</ele>
        <time>2020-07-04T05:36:54.673Z</time>
      </trkpt>
      <trkpt lat="48.539500" lon="16.826175">
        <ele>262.009390</ele>
        <time>2020-07-04T05:36:57.673Z</time>
      </trkpt>
      <trkpt lat="48.539581" lon="16.826106">
        <ele>261.210362</ele>
        <time>2020-07-04T05:36:59.681Z</time>
      </trkpt>
      <trkpt lat="48.539664" lon="16.826039">
        <ele>260.401749</ele>
        <time>2020-07-04T05:37:01.703Z</time>
      </trkpt>
      <trkpt lat="48.539804" lon="16.826007">
        <ele>259.185155</ele>
        <time>2020-07-04T05:37:04.721Z</time>
      </trkpt>
      <trkpt lat="48.539940" lon="16.826000">
        <ele>258.015948</ele>
        <time>2020-07-04T05:37:06.662Z</time>
      </trkpt>
      <trkpt lat="48.540060" lon="16.825986">
        <ele>256.981822</ele>
        <time>2020-07-04T05:37:08.669Z</time>
      </trkpt>
      <trkpt lat="48.540164" lon="16.825963">
        <ele>256.078713</ele>
        <time>2020-07-04T05:37:10.668Z</time>
      </trkpt>
      <trkpt lat="48.540259" lon="16.825932">
        <ele>255.243628</ele>
        <time>2020-07-04T05:37:12.684Z</time>
      </trkpt>
      <trkpt lat="48.540357" lon="16.825898">
        <ele>254.664631</ele>
        <time>2020-07-04T05:37:14.678Z</time>
      </trkpt>
      <trkpt lat="48.540490" lon="16.825841">
        <ele>254.033206</ele>
        <time>2020-07-04T05:37:17.682Z</time>
      </trkpt>
      <trkpt lat="48.540607" lon="16.825799">
        <ele>253.483953</ele>
        <time>2020-07-04T05:37:19.685Z</time>
      </trkpt>
      <trkpt lat="48.540724" lon="16.825747">
        <ele>252.926930</ele>
        <time>2020-07-04T05:37:21.687Z</time>
      </trkpt>
      <trkpt lat="48.540817" lon="16.825683">
        <ele>252.460165</ele>
        <time>2020-07-04T05:37:23.686Z</time>
      </trkpt>
      <trkpt lat="48.540842" lon="16.825508">
        <ele>251.918802</ele>
        <time>2020-07-04T05:37:26.679Z</time>
      </trkpt>
      <trkpt lat="48.540800" lon="16.825354">
        <ele>251.415159</ele>
        <time>2020-07-04T05:37:28.683Z</time>
      </trkpt>
      <trkpt lat="48.540754" lon="16.825208">
        <ele>250.926228</ele>
        <time>2020-07-04T05:37:30.694Z</time>
      </trkpt>
      <trkpt lat="48.540708" lon="16.825052">
        <ele>250.409827</ele>
        <time>2020-07-04T05:37:32.703Z</time>
      </trkpt>
      <trkpt lat="48.540651" lon="16.824910">
        <ele>249.907677</ele>
        <time>2020-07-04T05:37:34.693Z</time>
      </trkpt>
      <trkpt lat="48.540572" lon="16.824786">
        <ele>249.387307</ele>
        <time>2020-07-04T05:37:36.700Z</time>
      </trkpt>
      <trkpt lat="48.540478" lon="16.824700">
        <ele>248.885364</ele>
        <time>2020-07-04T05:37:38.692Z</time>
      </trkpt>
      <trkpt lat="48.540362" lon="16.824647">
        <ele>248.331853</ele>
        <time>2020-07-04T05:37:40.690Z</time>
      </trkpt>
      <trkpt lat="48.540242" lon="16.824598">
        <ele>247.764107</ele>
        <time>2020-07-04T05:37:42.679Z</time>
      </trkpt>
      <trkpt lat="48.540126" lon="16.824564">
        <ele>247.224422</ele>
        <time>2020-07-04T05:37:44.660Z</time>
      </trkpt>
      <trkpt lat="48.540009" lon="16.824551">
        <ele>246.737156</ele>
        <time>2020-07-04T05:37:46.673Z</time>
      </trkpt>
      <trkpt lat="48.539896" lon="16.824545">
        <ele>246.517296</ele>
        <time>2020-07-04T05:37:48.674Z</time>
      </trkpt>
      <trkpt lat="48.539781" lon="16.824533">
        <ele>246.293151</ele>
        <time>2020-07-04T05:37:50.703Z</time>
      </trkpt>
      <trkpt lat="48.539668" lon="16.824530">
        <ele>246.073394</ele>
        <time>2020-07-04T05:37:52.661Z</time>
      </trkpt>
      <trkpt lat="48.539567" lon="16.824534">
        <ele>245.876936</ele>
        <time>2020-07-04T05:37:54.689Z</time>
      </trkpt>
      <trkpt lat="48.539468" lon="16.824545">
        <ele>245.683915</ele>
        <time>2020-07-04T05:37:56.689Z</time>
      </trkpt>
      <trkpt lat="48.539368" lon="16.824541">
        <ele>245.489402</ele>
        <time>2020-07-04T05:37:58.680Z</time>
      </trkpt>
      <trkpt lat="48.539262" lon="16.824509">
        <ele>245.279212</ele>
        <time>2020-07-04T05:38:00.687Z</time>
      </trkpt>
      <trkpt lat="48.539145" lon="16.824454">
        <ele>245.040946</ele>
        <time>2020-07-04T05:38:02.670Z</time>
      </trkpt>
      <trkpt lat="48.539034" lon="16.824394">
        <ele>244.811705</ele>
        <time>2020-07-04T05:38:04.701Z</time>
      </trkpt>
      <trkpt lat="48.538940" lon="16.824336">
        <ele>244.614262</ele>
        <time>2020-07-04T05:38:06.703Z</time>
      </trkpt>
      <trkpt lat="48.538852" lon="16.824273">
        <ele>244.424900</ele>
        <time>2020-07-04T05:38:08.664Z</time>
      </trkpt>
      <trkpt lat="48.538764" lon="16.824188">
        <ele>244.221787</ele>
        <time>2020-07-04T05:38:10.666Z</time>
      </trkpt>
      <trkpt lat="48.538684" lon="16.824117">
        <ele>244.041361</ele>
        <time>2020-07-04T05:38:12.681Z</time>
      </trkpt>
      <trkpt lat="48.538496" lon="16.823920">
        <ele>243.596435</ele>
        <time>2020-07-04T05:38:56.672Z</time>
      </trkpt>
      <trkpt lat="48.538457" lon="16.823771">
        <ele>243.390158</ele>
        <time>2020-07-04T05:38:59.678Z</time>
      </trkpt>
      <trkpt lat="48.538404" lon="16.823611">
        <ele>243.098330</ele>
        <time>2020-07-04T05:39:02.678Z</time>
      </trkpt>
      <trkpt lat="48.538346" lon="16.823439">
        <ele>242.718015</ele>
        <time>2020-07-04T05:39:05.696Z</time>
      </trkpt>
      <trkpt lat="48.538299" lon="16.823283">
        <ele>242.380320</ele>
        <time>2020-07-04T05:39:08.682Z</time>
      </trkpt>
      <trkpt lat="48.538241" lon="16.823100">
        <ele>241.980571</ele>
        <time>2020-07-04T05:39:11.701Z</time>
      </trkpt>
      <trkpt lat="48.538199" lon="16.822976">
        <ele>241.706138</ele>
        <time>2020-07-04T05:39:13.679Z</time>
      </trkpt>
      <trkpt lat="48.538153" lon="16.822844">
        <ele>241.412232</ele>
        <time>2020-07-04T05:39:15.685Z</time>
      </trkpt>
      <trkpt lat="48.538115" lon="16.822717">
        <ele>241.137636</ele>
        <time>2020-07-04T05:39:17.687Z</time>
      </trkpt>
      <trkpt lat="48.538074" lon="16.822570">
        <ele>240.823349</ele>
        <time>2020-07-04T05:39:19.684Z</time>
      </trkpt>
      <trkpt lat="48.538043" lon="16.822417">
        <ele>240.508089</ele>
        <time>2020-07-04T05:39:21.691Z</time>
      </trkpt>
      <trkpt lat="48.538025" lon="16.822282">
        <ele>240.236754</ele>
        <time>2020-07-04T05:39:23.673Z</time>
      </trkpt>
      <trkpt lat="48.537987" lon="16.822118">
        <ele>239.894405</ele>
        <time>2020-07-04T05:39:26.678Z</time>
      </trkpt>
      <trkpt lat="48.537940" lon="16.821997">
        <ele>239.617997</ele>
        <time>2020-07-04T05:39:28.670Z</time>
      </trkpt>
      <trkpt lat="48.537847" lon="16.821852">
        <ele>239.220237</ele>
        <time>2020-07-04T05:39:31.689Z</time>
      </trkpt>
      <trkpt lat="48.537741" lon="16.821727">
        <ele>238.820039</ele>
        <time>2020-07-04T05:39:34.714Z</time>
      </trkpt>
      <trkpt lat="48.537651" lon="16.821655">
        <ele>238.516966</ele>
        <time>2020-07-04T05:39:36.710Z</time>
      </trkpt>
      <trkpt lat="48.537527" lon="16.821620">
        <ele>238.141580</ele>
        <time>2020-07-04T05:39:39.658Z</time>
      </trkpt>
      <trkpt lat="48.537428" lon="16.821619">
        <ele>237.856203</ele>
        <time>2020-07-04T05:39:41.679Z</time>
      </trkpt>
      <trkpt lat="48.537304" lon="16.821614">
        <ele>237.531670</ele>
        <time>2020-07-04T05:39:44.684Z</time>
      </trkpt>
      <trkpt lat="48.537213" lon="16.821615">
        <ele>237.293584</ele>
        <time>2020-07-04T05:39:46.683Z</time>
      </trkpt>
      <trkpt lat="48.537123" lon="16.821609">
        <ele>237.057891</ele>
        <time>2020-07-04T05:39:48.689Z</time>
      </trkpt>
      <trkpt lat="48.536993" lon="16.821580">
        <ele>236.714086</ele>
        <time>2020-07-04T05:39:51.668Z</time>
      </trkpt>
      <trkpt lat="48.536892" lon="16.821453">
        <ele>236.370244</ele>
        <time>2020-07-04T05:39:54.671Z</time>
      </trkpt>
      <trkpt lat="48.536847" lon="16.821322">
        <ele>236.114587</ele>
        <time>2020-07-04T05:39:56.681Z</time>
      </trkpt>
      <trkpt lat="48.536809" lon="16.821167">
        <ele>235.828262</ele>
        <time>2020-07-04T05:39:58.694Z</time>
      </trkpt>
      <trkpt lat="48.536760" lon="16.820985">
        <ele>235.487911</ele>
        <time>2020-07-04T05:40:00.692Z</time>
      </trkpt>
      <trkpt lat="48.536708" lon="16.820801">
        <ele>235.141342</ele>
        <time>2020-07-04T05:40:02.690Z</time>
      </trkpt>
      <trkpt lat="48.536665" lon="16.820621">
        <ele>234.809848</ele>
        <time>2020-07-04T05:40:04.700Z</time>
      </trkpt>
      <trkpt lat="48.536630" lon="16.820442">
        <ele>234.486522</ele>
        <time>2020-07-04T05:40:06.695Z</time>
      </trkpt>
      <trkpt lat="48.536610" lon="16.820253">
        <ele>234.154956</ele>
        <time>2020-07-04T05:40:08.703Z</time>
      </trkpt>
      <trkpt lat="48.536628" lon="16.820058">
        <ele>233.813883</ele>
        <time>2020-07-04T05:40:10.682Z</time>
      </trkpt>
      <trkpt lat="48.536659" lon="16.819922">
        <ele>233.564716</ele>
        <time>2020-07-04T05:40:12.686Z</time>
      </trkpt>
      <trkpt lat="48.536751" lon="16.819796">
        <ele>233.239787</ele>
        <time>2020-07-04T05:40:15.677Z</time>
      </trkpt>
      <trkpt lat="48.536828" lon="16.819714">
        <ele>233.052576</ele>
        <time>2020-07-04T05:40:17.685Z</time>
      </trkpt>
      <trkpt lat="48.536932" lon="16.819599">
        <ele>232.804457</ele>
        <time>2020-07-04T05:40:20.720Z</time>
      </trkpt>
      <trkpt lat="48.537011" lon="16.819527">
        <ele>232.626841</ele>
        <time>2020-07-04T05:40:22.673Z</time>
      </trkpt>
      <trkpt lat="48.537092" lon="16.819465">
        <ele>232.452037</ele>
        <time>2020-07-04T05:40:24.677Z</time>
      </trkpt>
      <trkpt lat="48.537186" lon="16.819417">
        <ele>232.261028</ele>
        <time>2020-07-04T05:40:26.679Z</time>
      </trkpt>
      <trkpt lat="48.537277" lon="16.819384">
        <ele>232.080878</ele>
        <time>2020-07-04T05:40:28.688Z</time>
      </trkpt>
      <trkpt lat="48.537402" lon="16.819308">
        <ele>231.821493</ele>
        <time>2020-07-04T05:40:31.705Z</time>
      </trkpt>
      <trkpt lat="48.537486" lon="16.819170">
        <ele>231.582572</ele>
        <time>2020-07-04T05:40:34.684Z</time>
      </trkpt>
      <trkpt lat="48.537538" lon="16.819011">
        <ele>231.356542</ele>
        <time>2020-07-04T05:40:38.695Z</time>
      </trkpt>
      <trkpt lat="48.537550" lon="16.818856">
        <ele>231.157638</ele>
        <time>2020-07-04T05:40:42.679Z</time>
      </trkpt>
      <trkpt lat="48.537584" lon="16.818688">
        <ele>230.933732</ele>
        <time>2020-07-04T05:40:46.676Z</time>
      </trkpt>
      <trkpt lat="48.537593" lon="16.818534">
        <ele>230.736685</ele>
        <time>2020-07-04T05:40:51.692Z</time>
      </trkpt>
      <trkpt lat="48.537571" lon="16.818399">
        <ele>230.559484</ele>
        <time>2020-07-04T05:40:57.687Z</time>
      </trkpt>
      <trkpt lat="48.537527" lon="16.818265">
        <ele>230.368844</ele>
        <time>2020-07-04T05:41:03.685Z</time>
      </trkpt>
      <trkpt lat="48.537471" lon="16.818155">
        <ele>230.191990</ele>
        <time>2020-07-04T05:41:10.689Z</time>
      </trkpt>
      <trkpt lat="48.537419" lon="16.818044">
        <ele>230.018683</ele>
        <time>2020-07-04T05:41:16.703Z</time>
      </trkpt>
      <trkpt lat="48.537394" lon="16.817897">
        <ele>229.825239</ele>
        <time>2020-07-04T05:41:22.682Z</time>
      </trkpt>
      <trkpt lat="48.537368" lon="16.817765">
        <ele>229.833735</ele>
        <time>2020-07-04T05:41:29.692Z</time>
      </trkpt>
      <trkpt lat="48.537331" lon="16.817624">
        <ele>229.977162</ele>
        <time>2020-07-04T05:41:36.707Z</time>
      </trkpt>
      <trkpt lat="48.537298" lon="16.817474">
        <ele>230.126634</ele>
        <time>2020-07-04T05:41:44.670Z</time>
      </trkpt>
      <trkpt lat="48.537279" lon="16.817339">
        <ele>230.257149</ele>
        <time>2020-07-04T05:41:50.687Z</time>
      </trkpt>
      <trkpt lat="48.537257" lon="16.817206">
        <ele>230.386786</ele>
        <time>2020-07-04T05:41:56.705Z</time>
      </trkpt>
      <trkpt lat="48.537235" lon="16.817067">
        <ele>230.521935</ele>
        <time>2020-07-04T05:42:01.720Z</time>
      </trkpt>
      <trkpt lat="48.537231" lon="16.816904">
        <ele>230.676182</ele>
        <time>2020-07-04T05:42:07.679Z</time>
      </trkpt>
      <trkpt lat="48.537218" lon="16.816753">
        <ele>230.820178</ele>
        <time>2020-07-04T05:42:12.677Z</time>
      </trkpt>
      <trkpt lat="48.537207" lon="16.816602">
        <ele>230.963833</ele>
        <time>2020-07-04T05:42:17.668Z</time>
      </trkpt>
      <trkpt lat="48.537193" lon="16.816451">
        <ele>231.108020</ele>
        <time>2020-07-04T05:42:21.718Z</time>
      </trkpt>
      <trkpt lat="48.537171" lon="16.816303">
        <ele>231.251460</ele>
        <time>2020-07-04T05:42:25.682Z</time>
      </trkpt>
      <trkpt lat="48.537153" lon="16.816158">
        <ele>231.390969</ele>
        <time>2020-07-04T05:42:29.677Z</time>
      </trkpt>
      <trkpt lat="48.537153" lon="16.815998">
        <ele>231.542274</ele>
        <time>2020-07-04T05:42:33.686Z</time>
      </trkpt>
      <trkpt lat="48.537138" lon="16.815848">
        <ele>231.685731</ele>
        <time>2020-07-04T05:42:37.677Z</time>
      </trkpt>
      <trkpt lat="48.537121" lon="16.815695">
        <ele>231.832439</ele>
        <time>2020-07-04T05:42:41.665Z</time>
      </trkpt>
      <trkpt lat="48.537105" lon="16.815538">
        <ele>231.982655</ele>
        <time>2020-07-04T05:42:45.687Z</time>
      </trkpt>
      <trkpt lat="48.537099" lon="16.815385">
        <ele>232.127594</ele>
        <time>2020-07-04T05:42:49.687Z</time>
      </trkpt>
      <trkpt lat="48.537083" lon="16.815228">
        <ele>232.277810</ele>
        <time>2020-07-04T05:42:53.697Z</time>
      </trkpt>
      <trkpt lat="48.537067" lon="16.815064">
        <ele>232.463005</ele>
        <time>2020-07-04T05:42:57.699Z</time>
      </trkpt>
      <trkpt lat="48.537064" lon="16.814904">
        <ele>232.653351</ele>
        <time>2020-07-04T05:43:01.721Z</time>
      </trkpt>
      <trkpt lat="48.537044" lon="16.814738">
        <ele>232.853996</ele>
        <time>2020-07-04T05:43:05.690Z</time>
      </trkpt>
      <trkpt lat="48.537031" lon="16.814597">
        <ele>233.023289</ele>
        <time>2020-07-04T05:43:08.684Z</time>
      </trkpt>
      <trkpt lat="48.537026" lon="16.814417">
        <ele>233.237531</ele>
        <time>2020-07-04T05:43:12.669Z</time>
      </trkpt>
      <trkpt lat="48.537013" lon="16.814242">
        <ele>233.446943</ele>
        <time>2020-07-04T05:43:16.707Z</time>
      </trkpt>
      <trkpt lat="48.536996" lon="16.814106">
        <ele>233.611529</ele>
        <time>2020-07-04T05:43:19.679Z</time>
      </trkpt>
      <trkpt lat="48.536983" lon="16.813938">
        <ele>233.812672</ele>
        <time>2020-07-04T05:43:23.678Z</time>
      </trkpt>
      <trkpt lat="48.536977" lon="16.813789">
        <ele>233.990188</ele>
        <time>2020-07-04T05:43:26.693Z</time>
      </trkpt>
      <trkpt lat="48.536967" lon="16.813635">
        <ele>234.174201</ele>
        <time>2020-07-04T05:43:29.691Z</time>
      </trkpt>
      <trkpt lat="48.536951" lon="16.813482">
        <ele>234.358402</ele>
        <time>2020-07-04T05:43:32.716Z</time>
      </trkpt>
      <trkpt lat="48.536933" lon="16.813330">
        <ele>234.542026</ele>
        <time>2020-07-04T05:43:35.676Z</time>
      </trkpt>
      <trkpt lat="48.536925" lon="16.813171">
        <ele>234.731652</ele>
        <time>2020-07-04T05:43:38.716Z</time>
      </trkpt>
      <trkpt lat="48.536915" lon="16.813009">
        <ele>234.925135</ele>
        <time>2020-07-04T05:43:41.681Z</time>
      </trkpt>
      <trkpt lat="48.536898" lon="16.812840">
        <ele>235.128414</ele>
        <time>2020-07-04T05:43:44.688Z</time>
      </trkpt>
      <trkpt lat="48.536883" lon="16.812667">
        <ele>235.335899</ele>
        <time>2020-07-04T05:43:47.674Z</time>
      </trkpt>
      <trkpt lat="48.536875" lon="16.812489">
        <ele>235.548062</ele>
        <time>2020-07-04T05:43:50.713Z</time>
      </trkpt>
      <trkpt lat="48.536853" lon="16.812302">
        <ele>235.741453</ele>
        <time>2020-07-04T05:43:53.698Z</time>
      </trkpt>
      <trkpt lat="48.536835" lon="16.812105">
        <ele>235.942949</ele>
        <time>2020-07-04T05:43:56.679Z</time>
      </trkpt>
      <trkpt lat="48.536826" lon="16.811905">
        <ele>236.146061</ele>
        <time>2020-07-04T05:43:59.678Z</time>
      </trkpt>
      <trkpt lat="48.536809" lon="16.811703">
        <ele>236.352379</ele>
        <time>2020-07-04T05:44:02.688Z</time>
      </trkpt>
      <trkpt lat="48.536790" lon="16.811562">
        <ele>236.498172</ele>
        <time>2020-07-04T05:44:04.674Z</time>
      </trkpt>
      <trkpt lat="48.536772" lon="16.811391">
        <ele>236.673609</ele>
        <time>2020-07-04T05:44:06.676Z</time>
      </trkpt>
      <trkpt lat="48.536765" lon="16.811251">
        <ele>236.815864</ele>
        <time>2020-07-04T05:44:08.687Z</time>
      </trkpt>
      <trkpt lat="48.536755" lon="16.811087">
        <ele>236.982736</ele>
        <time>2020-07-04T05:44:10.680Z</time>
      </trkpt>
      <trkpt lat="48.536740" lon="16.810954">
        <ele>237.119435</ele>
        <time>2020-07-04T05:44:12.706Z</time>
      </trkpt>
      <trkpt lat="48.536723" lon="16.810813">
        <ele>237.264649</ele>
        <time>2020-07-04T05:44:14.668Z</time>
      </trkpt>
      <trkpt lat="48.536709" lon="16.810670">
        <ele>237.411115</ele>
        <time>2020-07-04T05:44:16.670Z</time>
      </trkpt>
      <trkpt lat="48.536698" lon="16.810526">
        <ele>237.557987</ele>
        <time>2020-07-04T05:44:18.670Z</time>
      </trkpt>
      <trkpt lat="48.536684" lon="16.810381">
        <ele>237.706459</ele>
        <time>2020-07-04T05:44:20.687Z</time>
      </trkpt>
      <trkpt lat="48.536669" lon="16.810234">
        <ele>237.857161</ele>
        <time>2020-07-04T05:44:22.692Z</time>
      </trkpt>
      <trkpt lat="48.536654" lon="16.810090">
        <ele>238.004860</ele>
        <time>2020-07-04T05:44:24.706Z</time>
      </trkpt>
      <trkpt lat="48.536640" lon="16.809943">
        <ele>238.155337</ele>
        <time>2020-07-04T05:44:26.706Z</time>
      </trkpt>
      <trkpt lat="48.536632" lon="16.809796">
        <ele>238.304784</ele>
        <time>2020-07-04T05:44:28.688Z</time>
      </trkpt>
      <trkpt lat="48.536623" lon="16.809653">
        <ele>238.394672</ele>
        <time>2020-07-04T05:44:30.678Z</time>
      </trkpt>
      <trkpt lat="48.536610" lon="16.809513">
        <ele>238.482358</ele>
        <time>2020-07-04T05:44:32.691Z</time>
      </trkpt>
      <trkpt lat="48.536595" lon="16.809371">
        <ele>238.571549</ele>
        <time>2020-07-04T05:44:34.683Z</time>
      </trkpt>
      <trkpt lat="48.536579" lon="16.809229">
        <ele>238.660893</ele>
        <time>2020-07-04T05:44:36.689Z</time>
      </trkpt>
      <trkpt lat="48.536565" lon="16.809064">
        <ele>238.764073</ele>
        <time>2020-07-04T05:44:38.686Z</time>
      </trkpt>
      <trkpt lat="48.536548" lon="16.808909">
        <ele>238.861523</ele>
        <time>2020-07-04T05:44:40.685Z</time>
      </trkpt>
      <trkpt lat="48.536534" lon="16.808765">
        <ele>238.951799</ele>
        <time>2020-07-04T05:44:42.705Z</time>
      </trkpt>
      <trkpt lat="48.536526" lon="16.808603">
        <ele>239.052560</ele>
        <time>2020-07-04T05:44:44.690Z</time>
      </trkpt>
      <trkpt lat="48.536510" lon="16.808425">
        <ele>239.163980</ele>
        <time>2020-07-04T05:44:46.671Z</time>
      </trkpt>
      <trkpt lat="48.536490" lon="16.808248">
        <ele>239.275353</ele>
        <time>2020-07-04T05:44:48.672Z</time>
      </trkpt>
      <trkpt lat="48.536473" lon="16.808076">
        <ele>239.383221</ele>
        <time>2020-07-04T05:44:50.688Z</time>
      </trkpt>
      <trkpt lat="48.536456" lon="16.807915">
        <ele>239.484345</ele>
        <time>2020-07-04T05:44:52.679Z</time>
      </trkpt>
      <trkpt lat="48.536441" lon="16.807746">
        <ele>239.590107</ele>
        <time>2020-07-04T05:44:54.708Z</time>
      </trkpt>
      <trkpt lat="48.536422" lon="16.807584">
        <ele>239.692154</ele>
        <time>2020-07-04T05:44:56.677Z</time>
      </trkpt>
      <trkpt lat="48.536402" lon="16.807446">
        <ele>239.779776</ele>
        <time>2020-07-04T05:44:58.684Z</time>
      </trkpt>
      <trkpt lat="48.536377" lon="16.807251">
        <ele>239.902974</ele>
        <time>2020-07-04T05:45:01.712Z</time>
      </trkpt>
      <trkpt lat="48.536357" lon="16.807053">
        <ele>240.022180</ele>
        <time>2020-07-04T05:45:04.670Z</time>
      </trkpt>
      <trkpt lat="48.536345" lon="16.806916">
        <ele>240.095758</ele>
        <time>2020-07-04T05:45:06.687Z</time>
      </trkpt>
      <trkpt lat="48.536337" lon="16.806777">
        <ele>240.170045</ele>
        <time>2020-07-04T05:45:08.693Z</time>
      </trkpt>
      <trkpt lat="48.536329" lon="16.806632">
        <ele>240.247514</ele>
        <time>2020-07-04T05:45:10.709Z</time>
      </trkpt>
      <trkpt lat="48.536319" lon="16.806481">
        <ele>240.328312</ele>
        <time>2020-07-04T05:45:12.679Z</time>
      </trkpt>
      <trkpt lat="48.536305" lon="16.806322">
        <ele>240.413714</ele>
        <time>2020-07-04T05:45:14.678Z</time>
      </trkpt>
      <trkpt lat="48.536292" lon="16.806166">
        <ele>240.497428</ele>
        <time>2020-07-04T05:45:16.685Z</time>
      </trkpt>
      <trkpt lat="48.536278" lon="16.806010">
        <ele>240.581246</ele>
        <time>2020-07-04T05:45:18.696Z</time>
      </trkpt>
      <trkpt lat="48.536264" lon="16.805851">
        <ele>240.666648</ele>
        <time>2020-07-04T05:45:20.683Z</time>
      </trkpt>
      <trkpt lat="48.536251" lon="16.805673">
        <ele>240.761995</ele>
        <time>2020-07-04T05:45:22.679Z</time>
      </trkpt>
      <trkpt lat="48.536239" lon="16.805529">
        <ele>240.839270</ele>
        <time>2020-07-04T05:45:24.675Z</time>
      </trkpt>
      <trkpt lat="48.536225" lon="16.805384">
        <ele>240.917289</ele>
        <time>2020-07-04T05:45:26.698Z</time>
      </trkpt>
      <trkpt lat="48.536211" lon="16.805238">
        <ele>240.995834</ele>
        <time>2020-07-04T05:45:28.673Z</time>
      </trkpt>
      <trkpt lat="48.536193" lon="16.805084">
        <ele>241.079096</ele>
        <time>2020-07-04T05:45:30.702Z</time>
      </trkpt>
      <trkpt lat="48.536174" lon="16.804926">
        <ele>241.164596</ele>
        <time>2020-07-04T05:45:32.680Z</time>
      </trkpt>
      <trkpt lat="48.536157" lon="16.804769">
        <ele>241.249298</ele>
        <time>2020-07-04T05:45:34.680Z</time>
      </trkpt>
      <trkpt lat="48.536146" lon="16.804610">
        <ele>241.334416</ele>
        <time>2020-07-04T05:45:36.684Z</time>
      </trkpt>
      <trkpt lat="48.536132" lon="16.804455">
        <ele>241.417707</ele>
        <time>2020-07-04T05:45:38.691Z</time>
      </trkpt>
      <trkpt lat="48.536115" lon="16.804300">
        <ele>241.480988</ele>
        <time>2020-07-04T05:45:40.701Z</time>
      </trkpt>
      <trkpt lat="48.536100" lon="16.804142">
        <ele>241.538655</ele>
        <time>2020-07-04T05:45:42.694Z</time>
      </trkpt>
      <trkpt lat="48.536088" lon="16.803986">
        <ele>241.595394</ele>
        <time>2020-07-04T05:45:44.678Z</time>
      </trkpt>
      <trkpt lat="48.536071" lon="16.803830">
        <ele>241.652512</ele>
        <time>2020-07-04T05:45:46.692Z</time>
      </trkpt>
      <trkpt lat="48.536056" lon="16.803663">
        <ele>241.713399</ele>
        <time>2020-07-04T05:45:48.698Z</time>
      </trkpt>
      <trkpt lat="48.536039" lon="16.803489">
        <ele>241.776943</ele>
        <time>2020-07-04T05:45:50.689Z</time>
      </trkpt>
      <trkpt lat="48.536028" lon="16.803308">
        <ele>241.842611</ele>
        <time>2020-07-04T05:45:52.677Z</time>
      </trkpt>
      <trkpt lat="48.536011" lon="16.803128">
        <ele>241.908300</ele>
        <time>2020-07-04T05:45:54.691Z</time>
      </trkpt>
      <trkpt lat="48.535991" lon="16.802937">
        <ele>241.978163</ele>
        <time>2020-07-04T05:45:56.696Z</time>
      </trkpt>
      <trkpt lat="48.535970" lon="16.802742">
        <ele>242.049539</ele>
        <time>2020-07-04T05:45:58.673Z</time>
      </trkpt>
      <trkpt lat="48.535951" lon="16.802549">
        <ele>242.120033</ele>
        <time>2020-07-04T05:46:00.684Z</time>
      </trkpt>
      <trkpt lat="48.535937" lon="16.802360">
        <ele>242.188742</ele>
        <time>2020-07-04T05:46:02.698Z</time>
      </trkpt>
      <trkpt lat="48.535921" lon="16.802175">
        <ele>242.256148</ele>
        <time>2020-07-04T05:46:04.677Z</time>
      </trkpt>
      <trkpt lat="48.535902" lon="16.801990">
        <ele>242.323784</ele>
        <time>2020-07-04T05:46:06.694Z</time>
      </trkpt>
      <trkpt lat="48.535883" lon="16.801805">
        <ele>242.391421</ele>
        <time>2020-07-04T05:46:08.673Z</time>
      </trkpt>
      <trkpt lat="48.535869" lon="16.801628">
        <ele>242.431614</ele>
        <time>2020-07-04T05:46:10.685Z</time>
      </trkpt>
      <trkpt lat="48.535856" lon="16.801461">
        <ele>242.452018</ele>
        <time>2020-07-04T05:46:12.691Z</time>
      </trkpt>
      <trkpt lat="48.535842" lon="16.801302">
        <ele>242.471481</ele>
        <time>2020-07-04T05:46:14.703Z</time>
      </trkpt>
      <trkpt lat="48.535825" lon="16.801144">
        <ele>242.490905</ele>
        <time>2020-07-04T05:46:16.684Z</time>
      </trkpt>
      <trkpt lat="48.535809" lon="16.800992">
        <ele>242.509581</ele>
        <time>2020-07-04T05:46:18.682Z</time>
      </trkpt>
      <trkpt lat="48.535792" lon="16.800843">
        <ele>242.527928</ele>
        <time>2020-07-04T05:46:20.700Z</time>
      </trkpt>
      <trkpt lat="48.535778" lon="16.800696">
        <ele>242.545949</ele>
        <time>2020-07-04T05:46:22.701Z</time>
      </trkpt>
      <trkpt lat="48.535765" lon="16.800548">
        <ele>242.564065</ele>
        <time>2020-07-04T05:46:24.684Z</time>
      </trkpt>
      <trkpt lat="48.535746" lon="16.800388">
        <ele>242.583789</ele>
        <time>2020-07-04T05:46:26.686Z</time>
      </trkpt>
      <trkpt lat="48.535729" lon="16.800214">
        <ele>242.605132</ele>
        <time>2020-07-04T05:46:28.684Z</time>
      </trkpt>
      <trkpt lat="48.535715" lon="16.800024">
        <ele>242.628330</ele>
        <time>2020-07-04T05:46:30.682Z</time>
      </trkpt>
      <trkpt lat="48.535703" lon="16.799817">
        <ele>242.653544</ele>
        <time>2020-07-04T05:46:32.676Z</time>
      </trkpt>
      <trkpt lat="48.535686" lon="16.799598">
        <ele>242.680300</ele>
        <time>2020-07-04T05:46:34.682Z</time>
      </trkpt>
      <trkpt lat="48.535664" lon="16.799376">
        <ele>242.707538</ele>
        <time>2020-07-04T05:46:36.691Z</time>
      </trkpt>
      <trkpt lat="48.535644" lon="16.799158">
        <ele>242.734244</ele>
        <time>2020-07-04T05:46:38.670Z</time>
      </trkpt>
      <trkpt lat="48.535624" lon="16.798949">
        <ele>242.840793</ele>
        <time>2020-07-04T05:46:40.674Z</time>
      </trkpt>
      <trkpt lat="48.535600" lon="16.798750">
        <ele>243.047818</ele>
        <time>2020-07-04T05:46:42.709Z</time>
      </trkpt>
      <trkpt lat="48.535578" lon="16.798558">
        <ele>243.247249</ele>
        <time>2020-07-04T05:46:44.703Z</time>
      </trkpt>
      <trkpt lat="48.535561" lon="16.798370">
        <ele>243.441451</ele>
        <time>2020-07-04T05:46:46.690Z</time>
      </trkpt>
      <trkpt lat="48.535545" lon="16.798186">
        <ele>243.631390</ele>
        <time>2020-07-04T05:46:48.718Z</time>
      </trkpt>
      <trkpt lat="48.535530" lon="16.798009">
        <ele>243.814026</ele>
        <time>2020-07-04T05:46:50.689Z</time>
      </trkpt>
      <trkpt lat="48.535508" lon="16.797841">
        <ele>243.989303</ele>
        <time>2020-07-04T05:46:52.671Z</time>
      </trkpt>
      <trkpt lat="48.535488" lon="16.797677">
        <ele>244.159978</ele>
        <time>2020-07-04T05:46:54.706Z</time>
      </trkpt>
      <trkpt lat="48.535476" lon="16.797510">
        <ele>244.331905</ele>
        <time>2020-07-04T05:46:56.679Z</time>
      </trkpt>
      <trkpt lat="48.535460" lon="16.797354">
        <ele>244.493474</ele>
        <time>2020-07-04T05:46:58.679Z</time>
      </trkpt>
      <trkpt lat="48.535441" lon="16.797198">
        <ele>244.655817</ele>
        <time>2020-07-04T05:47:00.684Z</time>
      </trkpt>
      <trkpt lat="48.535422" lon="16.797048">
        <ele>244.812125</ele>
        <time>2020-07-04T05:47:02.692Z</time>
      </trkpt>
      <trkpt lat="48.535406" lon="16.796909">
        <ele>244.956524</ele>
        <time>2020-07-04T05:47:04.690Z</time>
      </trkpt>
      <trkpt lat="48.535390" lon="16.796731">
        <ele>245.140377</ele>
        <time>2020-07-04T05:47:07.684Z</time>
      </trkpt>
      <trkpt lat="48.535367" lon="16.796558">
        <ele>245.320975</ele>
        <time>2020-07-04T05:47:10.696Z</time>
      </trkpt>
      <trkpt lat="48.535340" lon="16.796426">
        <ele>245.462375</ele>
        <time>2020-07-04T05:47:13.695Z</time>
      </trkpt>
      <trkpt lat="48.535319" lon="16.796286">
        <ele>245.670750</ele>
        <time>2020-07-04T05:47:16.703Z</time>
      </trkpt>
      <trkpt lat="48.535298" lon="16.796115">
        <ele>245.985224</ele>
        <time>2020-07-04T05:47:20.718Z</time>
      </trkpt>
      <trkpt lat="48.535286" lon="16.795969">
        <ele>246.251246</ele>
        <time>2020-07-04T05:47:23.682Z</time>
      </trkpt>
      <trkpt lat="48.535278" lon="16.795815">
        <ele>246.530564</ele>
        <time>2020-07-04T05:47:26.686Z</time>
      </trkpt>
      <trkpt lat="48.535263" lon="16.795649">
        <ele>246.833506</ele>
        <time>2020-07-04T05:47:29.676Z</time>
      </trkpt>
      <trkpt lat="48.535255" lon="16.795463">
        <ele>247.170540</ele>
        <time>2020-07-04T05:47:32.688Z</time>
      </trkpt>
      <trkpt lat="48.535246" lon="16.795280">
        <ele>247.502351</ele>
        <time>2020-07-04T05:47:35.691Z</time>
      </trkpt>
      <trkpt lat="48.535228" lon="16.795090">
        <ele>247.849407</ele>
        <time>2020-07-04T05:47:38.705Z</time>
      </trkpt>
      <trkpt lat="48.535204" lon="16.794916">
        <ele>248.170787</ele>
        <time>2020-07-04T05:47:41.684Z</time>
      </trkpt>
      <trkpt lat="48.535195" lon="16.794714">
        <ele>248.536869</ele>
        <time>2020-07-04T05:47:44.675Z</time>
      </trkpt>
      <trkpt lat="48.535185" lon="16.794533">
        <ele>248.865290</ele>
        <time>2020-07-04T05:47:47.699Z</time>
      </trkpt>
      <trkpt lat="48.535176" lon="16.794344">
        <ele>249.207922</ele>
        <time>2020-07-04T05:47:50.691Z</time>
      </trkpt>
      <trkpt lat="48.535166" lon="16.794143">
        <ele>249.572394</ele>
        <time>2020-07-04T05:47:53.671Z</time>
      </trkpt>
      <trkpt lat="48.535159" lon="16.793998">
        <ele>249.835279</ele>
        <time>2020-07-04T05:47:55.671Z</time>
      </trkpt>
      <trkpt lat="48.535153" lon="16.793851">
        <ele>250.101589</ele>
        <time>2020-07-04T05:47:57.692Z</time>
      </trkpt>
      <trkpt lat="48.535145" lon="16.793699">
        <ele>250.377302</ele>
        <time>2020-07-04T05:47:59.683Z</time>
      </trkpt>
      <trkpt lat="48.535134" lon="16.793545">
        <ele>250.430191</ele>
        <time>2020-07-04T05:48:01.695Z</time>
      </trkpt>
      <trkpt lat="48.535123" lon="16.793389">
        <ele>250.416298</ele>
        <time>2020-07-04T05:48:03.689Z</time>
      </trkpt>
      <trkpt lat="48.535119" lon="16.793230">
        <ele>250.402207</ele>
        <time>2020-07-04T05:48:05.672Z</time>
      </trkpt>
      <trkpt lat="48.535115" lon="16.793074">
        <ele>250.388382</ele>
        <time>2020-07-04T05:48:07.693Z</time>
      </trkpt>
      <trkpt lat="48.535111" lon="16.792919">
        <ele>250.374645</ele>
        <time>2020-07-04T05:48:09.703Z</time>
      </trkpt>
      <trkpt lat="48.535105" lon="16.792764">
        <ele>250.360896</ele>
        <time>2020-07-04T05:48:11.687Z</time>
      </trkpt>
      <trkpt lat="48.535094" lon="16.792611">
        <ele>250.347267</ele>
        <time>2020-07-04T05:48:13.702Z</time>
      </trkpt>
      <trkpt lat="48.535084" lon="16.792463">
        <ele>250.334093</ele>
        <time>2020-07-04T05:48:15.686Z</time>
      </trkpt>
      <trkpt lat="48.535074" lon="16.792316">
        <ele>250.321006</ele>
        <time>2020-07-04T05:48:17.682Z</time>
      </trkpt>
      <trkpt lat="48.535063" lon="16.792170">
        <ele>250.307994</ele>
        <time>2020-07-04T05:48:19.668Z</time>
      </trkpt>
      <trkpt lat="48.535054" lon="16.792024">
        <ele>250.295009</ele>
        <time>2020-07-04T05:48:21.683Z</time>
      </trkpt>
      <trkpt lat="48.535048" lon="16.791879">
        <ele>250.282143</ele>
        <time>2020-07-04T05:48:23.668Z</time>
      </trkpt>
      <trkpt lat="48.535042" lon="16.791734">
        <ele>250.269277</ele>
        <time>2020-07-04T05:48:25.697Z</time>
      </trkpt>
      <trkpt lat="48.535038" lon="16.791566">
        <ele>250.254390</ele>
        <time>2020-07-04T05:48:27.677Z</time>
      </trkpt>
      <trkpt lat="48.535035" lon="16.791361">
        <ele>250.236231</ele>
        <time>2020-07-04T05:48:30.718Z</time>
      </trkpt>
      <trkpt lat="48.535033" lon="16.791219">
        <ele>250.223654</ele>
        <time>2020-07-04T05:48:32.689Z</time>
      </trkpt>
      <trkpt lat="48.535028" lon="16.791073">
        <ele>250.210707</ele>
        <time>2020-07-04T05:48:34.684Z</time>
      </trkpt>
      <trkpt lat="48.535024" lon="16.790925">
        <ele>250.192804</ele>
        <time>2020-07-04T05:48:36.676Z</time>
      </trkpt>
      <trkpt lat="48.535016" lon="16.790772">
        <ele>250.154762</ele>
        <time>2020-07-04T05:48:38.682Z</time>
      </trkpt>
      <trkpt lat="48.535003" lon="16.790610">
        <ele>250.114313</ele>
        <time>2020-07-04T05:48:40.657Z</time>
      </trkpt>
      <trkpt lat="48.534991" lon="16.790438">
        <ele>250.071443</ele>
        <time>2020-07-04T05:48:42.670Z</time>
      </trkpt>
      <trkpt lat="48.534986" lon="16.790242">
        <ele>250.022825</ele>
        <time>2020-07-04T05:48:44.674Z</time>
      </trkpt>
      <trkpt lat="48.534983" lon="16.790040">
        <ele>249.972743</ele>
        <time>2020-07-04T05:48:46.670Z</time>
      </trkpt>
      <trkpt lat="48.534977" lon="16.789832">
        <ele>249.921137</ele>
        <time>2020-07-04T05:48:48.675Z</time>
      </trkpt>
      <trkpt lat="48.534959" lon="16.789607">
        <ele>249.864961</ele>
        <time>2020-07-04T05:48:50.669Z</time>
      </trkpt>
      <trkpt lat="48.534950" lon="16.789373">
        <ele>249.806861</ele>
        <time>2020-07-04T05:48:52.670Z</time>
      </trkpt>
      <trkpt lat="48.534938" lon="16.789129">
        <ele>249.746214</ele>
        <time>2020-07-04T05:48:54.667Z</time>
      </trkpt>
      <trkpt lat="48.534924" lon="16.788888">
        <ele>249.686248</ele>
        <time>2020-07-04T05:48:56.687Z</time>
      </trkpt>
      <trkpt lat="48.534915" lon="16.788665">
        <ele>249.630871</ele>
        <time>2020-07-04T05:48:58.684Z</time>
      </trkpt>
      <trkpt lat="48.534910" lon="16.788476">
        <ele>249.583986</ele>
        <time>2020-07-04T05:49:00.682Z</time>
      </trkpt>
      <trkpt lat="48.534903" lon="16.788312">
        <ele>249.543251</ele>
        <time>2020-07-04T05:49:02.692Z</time>
      </trkpt>
      <trkpt lat="48.534892" lon="16.788172">
        <ele>249.458633</ele>
        <time>2020-07-04T05:49:04.701Z</time>
      </trkpt>
      <trkpt lat="48.534875" lon="16.787982">
        <ele>249.284551</ele>
        <time>2020-07-04T05:49:07.693Z</time>
      </trkpt>
      <trkpt lat="48.534864" lon="16.787803">
        <ele>249.121325</ele>
        <time>2020-07-04T05:49:10.690Z</time>
      </trkpt>
      <trkpt lat="48.534855" lon="16.787626">
        <ele>248.960140</ele>
        <time>2020-07-04T05:49:13.676Z</time>
      </trkpt>
      <trkpt lat="48.534850" lon="16.787424">
        <ele>248.776602</ele>
        <time>2020-07-04T05:49:16.692Z</time>
      </trkpt>
      <trkpt lat="48.534852" lon="16.787253">
        <ele>248.621314</ele>
        <time>2020-07-04T05:49:18.677Z</time>
      </trkpt>
      <trkpt lat="48.534851" lon="16.787085">
        <ele>248.468768</ele>
        <time>2020-07-04T05:49:20.676Z</time>
      </trkpt>
      <trkpt lat="48.534845" lon="16.786909">
        <ele>248.308753</ele>
        <time>2020-07-04T05:49:22.677Z</time>
      </trkpt>
      <trkpt lat="48.534835" lon="16.786709">
        <ele>248.126641</ele>
        <time>2020-07-04T05:49:24.695Z</time>
      </trkpt>
      <trkpt lat="48.534824" lon="16.786501">
        <ele>247.937181</ele>
        <time>2020-07-04T05:49:26.703Z</time>
      </trkpt>
      <trkpt lat="48.534814" lon="16.786279">
        <ele>247.735145</ele>
        <time>2020-07-04T05:49:28.683Z</time>
      </trkpt>
      <trkpt lat="48.534807" lon="16.786049">
        <ele>247.526090</ele>
        <time>2020-07-04T05:49:30.665Z</time>
      </trkpt>
      <trkpt lat="48.534797" lon="16.785825">
        <ele>247.322242</ele>
        <time>2020-07-04T05:49:32.669Z</time>
      </trkpt>
      <trkpt lat="48.534792" lon="16.785612">
        <ele>247.128722</ele>
        <time>2020-07-04T05:49:34.675Z</time>
      </trkpt>
      <trkpt lat="48.534782" lon="16.785409">
        <ele>247.076818</ele>
        <time>2020-07-04T05:49:36.674Z</time>
      </trkpt>
      <trkpt lat="48.534766" lon="16.785214">
        <ele>247.101576</ele>
        <time>2020-07-04T05:49:38.709Z</time>
      </trkpt>
      <trkpt lat="48.534753" lon="16.785028">
        <ele>247.125143</ele>
        <time>2020-07-04T05:49:40.700Z</time>
      </trkpt>
      <trkpt lat="48.534748" lon="16.784849">
        <ele>247.147717</ele>
        <time>2020-07-04T05:49:42.686Z</time>
      </trkpt>
      <trkpt lat="48.534739" lon="16.784683">
        <ele>247.168703</ele>
        <time>2020-07-04T05:49:44.680Z</time>
      </trkpt>
      <trkpt lat="48.534732" lon="16.784531">
        <ele>247.187902</ele>
        <time>2020-07-04T05:49:46.688Z</time>
      </trkpt>
      <trkpt lat="48.534726" lon="16.784379">
        <ele>247.207088</ele>
        <time>2020-07-04T05:49:48.695Z</time>
      </trkpt>
      <trkpt lat="48.534723" lon="16.784243">
        <ele>247.224234</ele>
        <time>2020-07-04T05:49:50.725Z</time>
      </trkpt>
      <trkpt lat="48.534717" lon="16.784043">
        <ele>247.249460</ele>
        <time>2020-07-04T05:49:53.712Z</time>
      </trkpt>
      <trkpt lat="48.534712" lon="16.783850">
        <ele>247.273797</ele>
        <time>2020-07-04T05:49:56.676Z</time>
      </trkpt>
      <trkpt lat="48.534700" lon="16.783699">
        <ele>247.292960</ele>
        <time>2020-07-04T05:49:58.675Z</time>
      </trkpt>
      <trkpt lat="48.534679" lon="16.783513">
        <ele>247.316734</ele>
        <time>2020-07-04T05:50:01.695Z</time>
      </trkpt>
      <trkpt lat="48.534667" lon="16.783328">
        <ele>247.340156</ele>
        <time>2020-07-04T05:50:04.682Z</time>
      </trkpt>
      <trkpt lat="48.534657" lon="16.783129">
        <ele>247.365303</ele>
        <time>2020-07-04T05:50:07.684Z</time>
      </trkpt>
      <trkpt lat="48.534651" lon="16.782935">
        <ele>247.389774</ele>
        <time>2020-07-04T05:50:10.700Z</time>
      </trkpt>
      <trkpt lat="48.534646" lon="16.782741">
        <ele>247.469178</ele>
        <time>2020-07-04T05:50:13.696Z</time>
      </trkpt>
      <trkpt lat="48.534638" lon="16.782542">
        <ele>247.615811</ele>
        <time>2020-07-04T05:50:16.678Z</time>
      </trkpt>
      <trkpt lat="48.534641" lon="16.782403">
        <ele>247.718099</ele>
        <time>2020-07-04T05:50:18.670Z</time>
      </trkpt>
      <trkpt lat="48.534638" lon="16.782267">
        <ele>247.818182</ele>
        <time>2020-07-04T05:50:20.690Z</time>
      </trkpt>
      <trkpt lat="48.534635" lon="16.782130">
        <ele>247.919000</ele>
        <time>2020-07-04T05:50:22.700Z</time>
      </trkpt>
      <trkpt lat="48.534633" lon="16.781929">
        <ele>248.066851</ele>
        <time>2020-07-04T05:50:25.677Z</time>
      </trkpt>
      <trkpt lat="48.534623" lon="16.781737">
        <ele>248.208503</ele>
        <time>2020-07-04T05:50:28.694Z</time>
      </trkpt>
      <trkpt lat="48.534609" lon="16.781535">
        <ele>248.357884</ele>
        <time>2020-07-04T05:50:31.679Z</time>
      </trkpt>
      <trkpt lat="48.534607" lon="16.781337">
        <ele>248.503530</ele>
        <time>2020-07-04T05:50:34.687Z</time>
      </trkpt>
      <trkpt lat="48.534599" lon="16.781149">
        <ele>248.642088</ele>
        <time>2020-07-04T05:50:37.685Z</time>
      </trkpt>
      <trkpt lat="48.534600" lon="16.780957">
        <ele>248.783308</ele>
        <time>2020-07-04T05:50:40.669Z</time>
      </trkpt>
      <trkpt lat="48.534607" lon="16.780817">
        <ele>248.886570</ele>
        <time>2020-07-04T05:50:42.698Z</time>
      </trkpt>
      <trkpt lat="48.534607" lon="16.780615">
        <ele>249.035140</ele>
        <time>2020-07-04T05:50:45.714Z</time>
      </trkpt>
      <trkpt lat="48.534600" lon="16.780439">
        <ele>249.164821</ele>
        <time>2020-07-04T05:50:48.665Z</time>
      </trkpt>
      <trkpt lat="48.534578" lon="16.780249">
        <ele>249.306686</ele>
        <time>2020-07-04T05:50:51.675Z</time>
      </trkpt>
      <trkpt lat="48.534581" lon="16.780113">
        <ele>249.407096</ele>
        <time>2020-07-04T05:50:53.685Z</time>
      </trkpt>
      <trkpt lat="48.534581" lon="16.779971">
        <ele>249.517177</ele>
        <time>2020-07-04T05:50:55.660Z</time>
      </trkpt>
      <trkpt lat="48.534581" lon="16.779826">
        <ele>249.629584</ele>
        <time>2020-07-04T05:50:57.698Z</time>
      </trkpt>
      <trkpt lat="48.534577" lon="16.779684">
        <ele>249.739764</ele>
        <time>2020-07-04T05:50:59.679Z</time>
      </trkpt>
      <trkpt lat="48.534574" lon="16.779488">
        <ele>249.891747</ele>
        <time>2020-07-04T05:51:02.694Z</time>
      </trkpt>
      <trkpt lat="48.534574" lon="16.779343">
        <ele>250.004154</ele>
        <time>2020-07-04T05:51:04.705Z</time>
      </trkpt>
      <trkpt lat="48.534571" lon="16.779184">
        <ele>250.127464</ele>
        <time>2020-07-04T05:51:06.687Z</time>
      </trkpt>
      <trkpt lat="48.534562" lon="16.779046">
        <ele>250.234961</ele>
        <time>2020-07-04T05:51:08.712Z</time>
      </trkpt>
      <trkpt lat="48.534558" lon="16.778901">
        <ele>250.347465</ele>
        <time>2020-07-04T05:51:10.724Z</time>
      </trkpt>
      <trkpt lat="48.534558" lon="16.778707">
        <ele>250.497858</ele>
        <time>2020-07-04T05:51:13.683Z</time>
      </trkpt>
      <trkpt lat="48.534553" lon="16.778569">
        <ele>250.604998</ele>
        <time>2020-07-04T05:51:15.690Z</time>
      </trkpt>
      <trkpt lat="48.534544" lon="16.778427">
        <ele>250.715582</ele>
        <time>2020-07-04T05:51:17.694Z</time>
      </trkpt>
      <trkpt lat="48.534537" lon="16.778285">
        <ele>250.825968</ele>
        <time>2020-07-04T05:51:19.687Z</time>
      </trkpt>
      <trkpt lat="48.534532" lon="16.778139">
        <ele>250.939301</ele>
        <time>2020-07-04T05:51:21.681Z</time>
      </trkpt>
      <trkpt lat="48.534526" lon="16.777996">
        <ele>251.050379</ele>
        <time>2020-07-04T05:51:23.690Z</time>
      </trkpt>
      <trkpt lat="48.534524" lon="16.777851">
        <ele>251.162810</ele>
        <time>2020-07-04T05:51:25.706Z</time>
      </trkpt>
      <trkpt lat="48.534517" lon="16.777698">
        <ele>251.281702</ele>
        <time>2020-07-04T05:51:27.686Z</time>
      </trkpt>
      <trkpt lat="48.534504" lon="16.777543">
        <ele>251.402820</ele>
        <time>2020-07-04T05:51:29.664Z</time>
      </trkpt>
      <trkpt lat="48.534494" lon="16.777378">
        <ele>251.509840</ele>
        <time>2020-07-04T05:51:31.673Z</time>
      </trkpt>
      <trkpt lat="48.534490" lon="16.777211">
        <ele>251.527659</ele>
        <time>2020-07-04T05:51:33.689Z</time>
      </trkpt>
      <trkpt lat="48.534489" lon="16.777050">
        <ele>251.544827</ele>
        <time>2020-07-04T05:51:35.691Z</time>
      </trkpt>
      <trkpt lat="48.534487" lon="16.776891">
        <ele>251.561784</ele>
        <time>2020-07-04T05:51:37.681Z</time>
      </trkpt>
      <trkpt lat="48.534481" lon="16.776732">
        <ele>251.578765</ele>
        <time>2020-07-04T05:51:39.679Z</time>
      </trkpt>
      <trkpt lat="48.534472" lon="16.776574">
        <ele>251.595675</ele>
        <time>2020-07-04T05:51:41.673Z</time>
      </trkpt>
      <trkpt lat="48.534460" lon="16.776413">
        <ele>251.612951</ele>
        <time>2020-07-04T05:51:43.678Z</time>
      </trkpt>
      <trkpt lat="48.534448" lon="16.776252">
        <ele>251.630226</ele>
        <time>2020-07-04T05:51:45.687Z</time>
      </trkpt>
      <trkpt lat="48.534437" lon="16.776089">
        <ele>251.647697</ele>
        <time>2020-07-04T05:51:47.677Z</time>
      </trkpt>
      <trkpt lat="48.534432" lon="16.775913">
        <ele>251.666481</ele>
        <time>2020-07-04T05:51:49.689Z</time>
      </trkpt>
      <trkpt lat="48.534423" lon="16.775734">
        <ele>251.685622</ele>
        <time>2020-07-04T05:51:51.684Z</time>
      </trkpt>
      <trkpt lat="48.534415" lon="16.775539">
        <ele>251.706455</ele>
        <time>2020-07-04T05:51:53.678Z</time>
      </trkpt>
      <trkpt lat="48.534425" lon="16.775356">
        <ele>251.726035</ele>
        <time>2020-07-04T05:51:55.679Z</time>
      </trkpt>
      <trkpt lat="48.534466" lon="16.775176">
        <ele>251.746332</ele>
        <time>2020-07-04T05:51:57.672Z</time>
      </trkpt>
      <trkpt lat="48.534509" lon="16.775004">
        <ele>251.765935</ele>
        <time>2020-07-04T05:51:59.668Z</time>
      </trkpt>
      <trkpt lat="48.534542" lon="16.774830">
        <ele>251.785235</ele>
        <time>2020-07-04T05:52:01.706Z</time>
      </trkpt>
      <trkpt lat="48.534579" lon="16.774685">
        <ele>251.848600</ele>
        <time>2020-07-04T05:52:03.711Z</time>
      </trkpt>
      <trkpt lat="48.534619" lon="16.774552">
        <ele>251.991027</ele>
        <time>2020-07-04T05:52:05.679Z</time>
      </trkpt>
      <trkpt lat="48.534657" lon="16.774415">
        <ele>252.135850</ele>
        <time>2020-07-04T05:52:07.677Z</time>
      </trkpt>
      <trkpt lat="48.534703" lon="16.774235">
        <ele>252.323970</ele>
        <time>2020-07-04T05:52:10.689Z</time>
      </trkpt>
      <trkpt lat="48.534741" lon="16.774100">
        <ele>252.466997</ele>
        <time>2020-07-04T05:52:12.708Z</time>
      </trkpt>
      <trkpt lat="48.534781" lon="16.773966">
        <ele>252.610311</ele>
        <time>2020-07-04T05:52:14.670Z</time>
      </trkpt>
      <trkpt lat="48.534818" lon="16.773841">
        <ele>252.743811</ele>
        <time>2020-07-04T05:52:16.681Z</time>
      </trkpt>
      <trkpt lat="48.534876" lon="16.773648">
        <ele>252.950462</ele>
        <time>2020-07-04T05:52:19.664Z</time>
      </trkpt>
      <trkpt lat="48.534913" lon="16.773524">
        <ele>253.083072</ele>
        <time>2020-07-04T05:52:21.689Z</time>
      </trkpt>
      <trkpt lat="48.534970" lon="16.773344">
        <ele>253.277611</ele>
        <time>2020-07-04T05:52:24.674Z</time>
      </trkpt>
      <trkpt lat="48.535021" lon="16.773196">
        <ele>253.440283</ele>
        <time>2020-07-04T05:52:26.679Z</time>
      </trkpt>
      <trkpt lat="48.535063" lon="16.773066">
        <ele>253.581317</ele>
        <time>2020-07-04T05:52:28.688Z</time>
      </trkpt>
      <trkpt lat="48.535108" lon="16.772932">
        <ele>253.727810</ele>
        <time>2020-07-04T05:52:30.703Z</time>
      </trkpt>
      <trkpt lat="48.535148" lon="16.772808">
        <ele>253.862295</ele>
        <time>2020-07-04T05:52:32.676Z</time>
      </trkpt>
      <trkpt lat="48.535205" lon="16.772627">
        <ele>254.057713</ele>
        <time>2020-07-04T05:52:35.698Z</time>
      </trkpt>
      <trkpt lat="48.535255" lon="16.772452">
        <ele>254.243546</ele>
        <time>2020-07-04T05:52:38.707Z</time>
      </trkpt>
      <trkpt lat="48.535305" lon="16.772287">
        <ele>254.420468</ele>
        <time>2020-07-04T05:52:41.683Z</time>
      </trkpt>
      <trkpt lat="48.535362" lon="16.772119">
        <ele>254.437087</ele>
        <time>2020-07-04T05:52:44.690Z</time>
      </trkpt>
      <trkpt lat="48.535417" lon="16.771936">
        <ele>254.428011</ele>
        <time>2020-07-04T05:52:47.676Z</time>
      </trkpt>
      <trkpt lat="48.535456" lon="16.771810">
        <ele>254.421730</ele>
        <time>2020-07-04T05:52:49.696Z</time>
      </trkpt>
      <trkpt lat="48.535505" lon="16.771624">
        <ele>254.412690</ele>
        <time>2020-07-04T05:52:52.701Z</time>
      </trkpt>
      <trkpt lat="48.535550" lon="16.771439">
        <ele>254.403789</ele>
        <time>2020-07-04T05:52:55.663Z</time>
      </trkpt>
      <trkpt lat="48.535587" lon="16.771259">
        <ele>254.395278</ele>
        <time>2020-07-04T05:52:58.663Z</time>
      </trkpt>
      <trkpt lat="48.535622" lon="16.771129">
        <ele>254.388940</ele>
        <time>2020-07-04T05:53:00.671Z</time>
      </trkpt>
      <trkpt lat="48.535703" lon="16.771041">
        <ele>254.382135</ele>
        <time>2020-07-04T05:53:03.682Z</time>
      </trkpt>
      <trkpt lat="48.535820" lon="16.771099">
        <ele>254.373736</ele>
        <time>2020-07-04T05:53:06.667Z</time>
      </trkpt>
      <trkpt lat="48.535941" lon="16.771132">
        <ele>254.365350</ele>
        <time>2020-07-04T05:53:09.684Z</time>
      </trkpt>
      <trkpt lat="48.536056" lon="16.771120">
        <ele>254.357488</ele>
        <time>2020-07-04T05:53:12.688Z</time>
      </trkpt>
      <trkpt lat="48.536119" lon="16.770968">
        <ele>254.349390</ele>
        <time>2020-07-04T05:53:15.689Z</time>
      </trkpt>
      <trkpt lat="48.536133" lon="16.770829">
        <ele>254.343041</ele>
        <time>2020-07-04T05:53:17.672Z</time>
      </trkpt>
      <trkpt lat="48.536152" lon="16.770626">
        <ele>254.333782</ele>
        <time>2020-07-04T05:53:20.686Z</time>
      </trkpt>
      <trkpt lat="48.536166" lon="16.770483">
        <ele>254.327254</ele>
        <time>2020-07-04T05:53:22.692Z</time>
      </trkpt>
      <trkpt lat="48.536180" lon="16.770330">
        <ele>254.289976</ele>
        <time>2020-07-04T05:53:24.660Z</time>
      </trkpt>
      <trkpt lat="48.536205" lon="16.770156">
        <ele>254.124607</ele>
        <time>2020-07-04T05:53:27.688Z</time>
      </trkpt>
      <trkpt lat="48.536213" lon="16.769986">
        <ele>253.966315</ele>
        <time>2020-07-04T05:53:30.700Z</time>
      </trkpt>
      <trkpt lat="48.536275" lon="16.769862">
        <ele>253.821999</ele>
        <time>2020-07-04T05:53:33.676Z</time>
      </trkpt>
      <trkpt lat="48.536395" lon="16.769823">
        <ele>253.649823</ele>
        <time>2020-07-04T05:53:36.683Z</time>
      </trkpt>
      <trkpt lat="48.536499" lon="16.769818">
        <ele>253.503870</ele>
        <time>2020-07-04T05:53:38.682Z</time>
      </trkpt>
      <trkpt lat="48.536614" lon="16.769808">
        <ele>253.342294</ele>
        <time>2020-07-04T05:53:40.698Z</time>
      </trkpt>
      <trkpt lat="48.536732" lon="16.769792">
        <ele>253.176111</ele>
        <time>2020-07-04T05:53:42.671Z</time>
      </trkpt>
      <trkpt lat="48.536845" lon="16.769779">
        <ele>253.017148</ele>
        <time>2020-07-04T05:53:44.673Z</time>
      </trkpt>
      <trkpt lat="48.536956" lon="16.769763">
        <ele>252.860742</ele>
        <time>2020-07-04T05:53:46.711Z</time>
      </trkpt>
      <trkpt lat="48.537068" lon="16.769747">
        <ele>252.702940</ele>
        <time>2020-07-04T05:53:48.693Z</time>
      </trkpt>
      <trkpt lat="48.537178" lon="16.769731">
        <ele>252.547930</ele>
        <time>2020-07-04T05:53:50.675Z</time>
      </trkpt>
      <trkpt lat="48.537286" lon="16.769716">
        <ele>252.395800</ele>
        <time>2020-07-04T05:53:52.661Z</time>
      </trkpt>
      <trkpt lat="48.537383" lon="16.769704">
        <ele>252.259284</ele>
        <time>2020-07-04T05:53:54.689Z</time>
      </trkpt>
      <trkpt lat="48.537475" lon="16.769692">
        <ele>252.129756</ele>
        <time>2020-07-04T05:53:56.709Z</time>
      </trkpt>
      <trkpt lat="48.537575" lon="16.769697">
        <ele>251.989411</ele>
        <time>2020-07-04T05:53:58.708Z</time>
      </trkpt>
      <trkpt lat="48.537690" lon="16.769703">
        <ele>251.828006</ele>
        <time>2020-07-04T05:54:00.696Z</time>
      </trkpt>
      <trkpt lat="48.537792" lon="16.769699">
        <ele>251.670680</ele>
        <time>2020-07-04T05:54:02.661Z</time>
      </trkpt>
      <trkpt lat="48.537926" lon="16.769677">
        <ele>251.458059</ele>
        <time>2020-07-04T05:54:04.668Z</time>
      </trkpt>
      <trkpt lat="48.538059" lon="16.769655">
        <ele>251.247007</ele>
        <time>2020-07-04T05:54:06.691Z</time>
      </trkpt>
      <trkpt lat="48.538182" lon="16.769629">
        <ele>251.051092</ele>
        <time>2020-07-04T05:54:08.677Z</time>
      </trkpt>
      <trkpt lat="48.538309" lon="16.769601">
        <ele>250.848635</ele>
        <time>2020-07-04T05:54:10.721Z</time>
      </trkpt>
      <trkpt lat="48.538442" lon="16.769584">
        <ele>250.638087</ele>
        <time>2020-07-04T05:54:12.703Z</time>
      </trkpt>
      <trkpt lat="48.538571" lon="16.769547">
        <ele>250.430961</ele>
        <time>2020-07-04T05:54:14.673Z</time>
      </trkpt>
      <trkpt lat="48.538700" lon="16.769505">
        <ele>250.222798</ele>
        <time>2020-07-04T05:54:16.674Z</time>
      </trkpt>
      <trkpt lat="48.538827" lon="16.769433">
        <ele>250.008816</ele>
        <time>2020-07-04T05:54:18.699Z</time>
      </trkpt>
      <trkpt lat="48.538958" lon="16.769370">
        <ele>249.791949</ele>
        <time>2020-07-04T05:54:20.666Z</time>
      </trkpt>
      <trkpt lat="48.539089" lon="16.769312">
        <ele>249.576610</ele>
        <time>2020-07-04T05:54:22.680Z</time>
      </trkpt>
      <trkpt lat="48.539222" lon="16.769263">
        <ele>249.360660</ele>
        <time>2020-07-04T05:54:24.660Z</time>
      </trkpt>
      <trkpt lat="48.539350" lon="16.769218">
        <ele>249.153351</ele>
        <time>2020-07-04T05:54:26.688Z</time>
      </trkpt>
      <trkpt lat="48.539474" lon="16.769155">
        <ele>248.933648</ele>
        <time>2020-07-04T05:54:28.677Z</time>
      </trkpt>
      <trkpt lat="48.539595" lon="16.769085">
        <ele>248.543641</ele>
        <time>2020-07-04T05:54:30.686Z</time>
      </trkpt>
      <trkpt lat="48.539718" lon="16.769029">
        <ele>248.156962</ele>
        <time>2020-07-04T05:54:32.683Z</time>
      </trkpt>
      <trkpt lat="48.539843" lon="16.768973">
        <ele>247.764515</ele>
        <time>2020-07-04T05:54:34.671Z</time>
      </trkpt>
      <trkpt lat="48.539963" lon="16.768906">
        <ele>247.379431</ele>
        <time>2020-07-04T05:54:36.674Z</time>
      </trkpt>
      <trkpt lat="48.540085" lon="16.768849">
        <ele>246.995049</ele>
        <time>2020-07-04T05:54:38.662Z</time>
      </trkpt>
      <trkpt lat="48.540203" lon="16.768789">
        <ele>246.620288</ele>
        <time>2020-07-04T05:54:40.668Z</time>
      </trkpt>
      <trkpt lat="48.540323" lon="16.768735">
        <ele>246.243403</ele>
        <time>2020-07-04T05:54:42.661Z</time>
      </trkpt>
      <trkpt lat="48.540449" lon="16.768716">
        <ele>245.862264</ele>
        <time>2020-07-04T05:54:44.687Z</time>
      </trkpt>
      <trkpt lat="48.540566" lon="16.768670">
        <ele>245.498363</ele>
        <time>2020-07-04T05:54:46.680Z</time>
      </trkpt>
      <trkpt lat="48.540676" lon="16.768603">
        <ele>245.141360</ele>
        <time>2020-07-04T05:54:48.666Z</time>
      </trkpt>
      <trkpt lat="48.540790" lon="16.768548">
        <ele>244.781145</ele>
        <time>2020-07-04T05:54:50.663Z</time>
      </trkpt>
      <trkpt lat="48.540899" lon="16.768499">
        <ele>244.438837</ele>
        <time>2020-07-04T05:54:52.695Z</time>
      </trkpt>
      <trkpt lat="48.540981" lon="16.768380">
        <ele>244.096554</ele>
        <time>2020-07-04T05:54:54.672Z</time>
      </trkpt>
      <trkpt lat="48.541010" lon="16.768196">
        <ele>243.719625</ele>
        <time>2020-07-04T05:54:56.662Z</time>
      </trkpt>
      <trkpt lat="48.541034" lon="16.767995">
        <ele>243.382413</ele>
        <time>2020-07-04T05:54:58.672Z</time>
      </trkpt>
      <trkpt lat="48.541048" lon="16.767820">
        <ele>243.135382</ele>
        <time>2020-07-04T05:55:00.699Z</time>
      </trkpt>
      <trkpt lat="48.541062" lon="16.767637">
        <ele>242.877217</ele>
        <time>2020-07-04T05:55:03.680Z</time>
      </trkpt>
      <trkpt lat="48.541155" lon="16.767498">
        <ele>242.600278</ele>
        <time>2020-07-04T05:55:06.688Z</time>
      </trkpt>
      <trkpt lat="48.541257" lon="16.767428">
        <ele>242.363136</ele>
        <time>2020-07-04T05:55:08.675Z</time>
      </trkpt>
      <trkpt lat="48.541367" lon="16.767341">
        <ele>242.100311</ele>
        <time>2020-07-04T05:55:10.670Z</time>
      </trkpt>
      <trkpt lat="48.541469" lon="16.767261">
        <ele>241.857038</ele>
        <time>2020-07-04T05:55:12.688Z</time>
      </trkpt>
      <trkpt lat="48.541560" lon="16.767246">
        <ele>241.663277</ele>
        <time>2020-07-04T05:55:14.668Z</time>
      </trkpt>
      <trkpt lat="48.541655" lon="16.767324">
        <ele>241.434403</ele>
        <time>2020-07-04T05:55:16.679Z</time>
      </trkpt>
      <trkpt lat="48.541775" lon="16.767406">
        <ele>241.155617</ele>
        <time>2020-07-04T05:55:18.671Z</time>
      </trkpt>
      <trkpt lat="48.541889" lon="16.767442">
        <ele>240.909099</ele>
        <time>2020-07-04T05:55:20.667Z</time>
      </trkpt>
      <trkpt lat="48.542000" lon="16.767469">
        <ele>240.671122</ele>
        <time>2020-07-04T05:55:22.674Z</time>
      </trkpt>
      <trkpt lat="48.542113" lon="16.767484">
        <ele>240.431016</ele>
        <time>2020-07-04T05:55:24.681Z</time>
      </trkpt>
      <trkpt lat="48.542227" lon="16.767500">
        <ele>240.188676</ele>
        <time>2020-07-04T05:55:26.675Z</time>
      </trkpt>
      <trkpt lat="48.542337" lon="16.767504">
        <ele>239.955774</ele>
        <time>2020-07-04T05:55:28.690Z</time>
      </trkpt>
      <trkpt lat="48.542445" lon="16.767500">
        <ele>239.725761</ele>
        <time>2020-07-04T05:55:30.670Z</time>
      </trkpt>
      <trkpt lat="48.542556" lon="16.767493">
        <ele>239.467355</ele>
        <time>2020-07-04T05:55:32.675Z</time>
      </trkpt>
      <trkpt lat="48.542659" lon="16.767483">
        <ele>239.227287</ele>
        <time>2020-07-04T05:55:34.686Z</time>
      </trkpt>
      <trkpt lat="48.542753" lon="16.767516">
        <ele>239.002819</ele>
        <time>2020-07-04T05:55:36.704Z</time>
      </trkpt>
      <trkpt lat="48.542848" lon="16.767588">
        <ele>238.755597</ele>
        <time>2020-07-04T05:55:39.672Z</time>
      </trkpt>
      <trkpt lat="48.542953" lon="16.767585">
        <ele>238.511327</ele>
        <time>2020-07-04T05:55:44.671Z</time>
      </trkpt>
      <trkpt lat="48.543040" lon="16.767436">
        <ele>238.205394</ele>
        <time>2020-07-04T05:55:47.678Z</time>
      </trkpt>
      <trkpt lat="48.543104" lon="16.767310">
        <ele>237.960839</ele>
        <time>2020-07-04T05:55:50.672Z</time>
      </trkpt>
      <trkpt lat="48.543177" lon="16.767212">
        <ele>237.733673</ele>
        <time>2020-07-04T05:55:54.692Z</time>
      </trkpt>
      <trkpt lat="48.543417" lon="16.767168">
        <ele>237.171346</ele>
        <time>2020-07-04T05:57:01.680Z</time>
      </trkpt>
      <trkpt lat="48.543525" lon="16.767168">
        <ele>236.920143</ele>
        <time>2020-07-04T05:57:03.675Z</time>
      </trkpt>
      <trkpt lat="48.543636" lon="16.767165">
        <ele>236.661920</ele>
        <time>2020-07-04T05:57:05.674Z</time>
      </trkpt>
      <trkpt lat="48.543746" lon="16.767163">
        <ele>236.406046</ele>
        <time>2020-07-04T05:57:07.694Z</time>
      </trkpt>
      <trkpt lat="48.543861" lon="16.767174">
        <ele>236.138025</ele>
        <time>2020-07-04T05:57:09.714Z</time>
      </trkpt>
      <trkpt lat="48.543978" lon="16.767206">
        <ele>235.861463</ele>
        <time>2020-07-04T05:57:11.668Z</time>
      </trkpt>
      <trkpt lat="48.544087" lon="16.767255">
        <ele>235.596944</ele>
        <time>2020-07-04T05:57:13.666Z</time>
      </trkpt>
      <trkpt lat="48.544189" lon="16.767302">
        <ele>235.514934</ele>
        <time>2020-07-04T05:57:15.667Z</time>
      </trkpt>
      <trkpt lat="48.544285" lon="16.767357">
        <ele>235.466539</ele>
        <time>2020-07-04T05:57:17.666Z</time>
      </trkpt>
      <trkpt lat="48.544385" lon="16.767419">
        <ele>235.415589</ele>
        <time>2020-07-04T05:57:19.671Z</time>
      </trkpt>
      <trkpt lat="48.544480" lon="16.767480">
        <ele>235.366934</ele>
        <time>2020-07-04T05:57:21.669Z</time>
      </trkpt>
      <trkpt lat="48.544566" lon="16.767545">
        <ele>235.321607</ele>
        <time>2020-07-04T05:57:23.683Z</time>
      </trkpt>
      <trkpt lat="48.544664" lon="16.767682">
        <ele>235.258668</ele>
        <time>2020-07-04T05:57:26.679Z</time>
      </trkpt>
      <trkpt lat="48.544732" lon="16.767827">
        <ele>235.203220</ele>
        <time>2020-07-04T05:57:29.674Z</time>
      </trkpt>
      <trkpt lat="48.544889" lon="16.767847">
        <ele>235.128956</ele>
        <time>2020-07-04T05:58:16.685Z</time>
      </trkpt>
      <trkpt lat="48.544987" lon="16.767822">
        <ele>235.082111</ele>
        <time>2020-07-04T05:58:19.698Z</time>
      </trkpt>
      <trkpt lat="48.545083" lon="16.767771">
        <ele>235.034145</ele>
        <time>2020-07-04T05:58:22.677Z</time>
      </trkpt>
      <trkpt lat="48.545181" lon="16.767698">
        <ele>234.982642</ele>
        <time>2020-07-04T05:58:25.690Z</time>
      </trkpt>
      <trkpt lat="48.545262" lon="16.767599">
        <ele>234.933531</ele>
        <time>2020-07-04T05:58:28.668Z</time>
      </trkpt>
      <trkpt lat="48.545334" lon="16.767480">
        <ele>234.883226</ele>
        <time>2020-07-04T05:58:31.693Z</time>
      </trkpt>
      <trkpt lat="48.545375" lon="16.767328">
        <ele>234.832010</ele>
        <time>2020-07-04T05:58:34.683Z</time>
      </trkpt>
      <trkpt lat="48.545419" lon="16.767165">
        <ele>234.777082</ele>
        <time>2020-07-04T05:58:37.672Z</time>
      </trkpt>
      <trkpt lat="48.545459" lon="16.766988">
        <ele>234.718721</ele>
        <time>2020-07-04T05:58:40.668Z</time>
      </trkpt>
      <trkpt lat="48.545496" lon="16.766833">
        <ele>234.762466</ele>
        <time>2020-07-04T05:58:43.681Z</time>
      </trkpt>
      <trkpt lat="48.545530" lon="16.766681">
        <ele>234.825706</ele>
        <time>2020-07-04T05:58:46.668Z</time>
      </trkpt>
      <trkpt lat="48.545560" lon="16.766530">
        <ele>234.887846</ele>
        <time>2020-07-04T05:58:49.680Z</time>
      </trkpt>
      <trkpt lat="48.545594" lon="16.766386">
        <ele>234.948107</ele>
        <time>2020-07-04T05:58:52.665Z</time>
      </trkpt>
      <trkpt lat="48.545639" lon="16.766220">
        <ele>235.018810</ele>
        <time>2020-07-04T05:58:56.669Z</time>
      </trkpt>
      <trkpt lat="48.545692" lon="16.766062">
        <ele>235.088626</ele>
        <time>2020-07-04T05:59:00.681Z</time>
      </trkpt>
      <trkpt lat="48.545733" lon="16.765924">
        <ele>235.148246</ele>
        <time>2020-07-04T05:59:03.681Z</time>
      </trkpt>
      <trkpt lat="48.545782" lon="16.765807">
        <ele>235.202815</ele>
        <time>2020-07-04T05:59:06.679Z</time>
      </trkpt>
      <trkpt lat="48.545849" lon="16.765655">
        <ele>235.274793</ele>
        <time>2020-07-04T05:59:10.664Z</time>
      </trkpt>
      <trkpt lat="48.545908" lon="16.765525">
        <ele>235.336918</ele>
        <time>2020-07-04T05:59:13.658Z</time>
      </trkpt>
      <trkpt lat="48.546012" lon="16.765276">
        <ele>235.452963</ele>
        <time>2020-07-04T05:59:52.687Z</time>
      </trkpt>
      <trkpt lat="48.546093" lon="16.765110">
        <ele>235.534246</ele>
        <time>2020-07-04T05:59:55.674Z</time>
      </trkpt>
      <trkpt lat="48.546165" lon="16.764994">
        <ele>235.596921</ele>
        <time>2020-07-04T05:59:57.654Z</time>
      </trkpt>
      <trkpt lat="48.546244" lon="16.764879">
        <ele>235.662242</ele>
        <time>2020-07-04T05:59:59.650Z</time>
      </trkpt>
      <trkpt lat="48.546323" lon="16.764746">
        <ele>235.732673</ele>
        <time>2020-07-04T06:00:01.686Z</time>
      </trkpt>
      <trkpt lat="48.546395" lon="16.764602">
        <ele>235.793469</ele>
        <time>2020-07-04T06:00:03.712Z</time>
      </trkpt>
      <trkpt lat="48.546440" lon="16.764440">
        <ele>235.832352</ele>
        <time>2020-07-04T06:00:05.655Z</time>
      </trkpt>
      <trkpt lat="48.546467" lon="16.764277">
        <ele>235.869539</ele>
        <time>2020-07-04T06:00:07.661Z</time>
      </trkpt>
      <trkpt lat="48.546494" lon="16.764129">
        <ele>235.903516</ele>
        <time>2020-07-04T06:00:09.692Z</time>
      </trkpt>
      <trkpt lat="48.546522" lon="16.763980">
        <ele>235.937796</ele>
        <time>2020-07-04T06:00:11.679Z</time>
      </trkpt>
      <trkpt lat="48.546550" lon="16.763840">
        <ele>235.970164</ele>
        <time>2020-07-04T06:00:13.667Z</time>
      </trkpt>
      <trkpt lat="48.546572" lon="16.763698">
        <ele>236.002440</ele>
        <time>2020-07-04T06:00:15.661Z</time>
      </trkpt>
      <trkpt lat="48.546593" lon="16.763552">
        <ele>236.035507</ele>
        <time>2020-07-04T06:00:17.654Z</time>
      </trkpt>
      <trkpt lat="48.546617" lon="16.763407">
        <ele>236.068587</ele>
        <time>2020-07-04T06:00:19.651Z</time>
      </trkpt>
      <trkpt lat="48.546642" lon="16.763265">
        <ele>236.101106</ele>
        <time>2020-07-04T06:00:21.674Z</time>
      </trkpt>
      <trkpt lat="48.546668" lon="16.763121">
        <ele>236.134141</ele>
        <time>2020-07-04T06:00:23.673Z</time>
      </trkpt>
      <trkpt lat="48.546690" lon="16.762979">
        <ele>236.166417</ele>
        <time>2020-07-04T06:00:25.670Z</time>
      </trkpt>
      <trkpt lat="48.546712" lon="16.762836">
        <ele>236.198910</ele>
        <time>2020-07-04T06:00:27.676Z</time>
      </trkpt>
      <trkpt lat="48.546728" lon="16.762696">
        <ele>236.230353</ele>
        <time>2020-07-04T06:00:29.694Z</time>
      </trkpt>
      <trkpt lat="48.546751" lon="16.762558">
        <ele>236.261848</ele>
        <time>2020-07-04T06:00:31.675Z</time>
      </trkpt>
      <trkpt lat="48.546767" lon="16.762417">
        <ele>236.293509</ele>
        <time>2020-07-04T06:00:33.707Z</time>
      </trkpt>
      <trkpt lat="48.546765" lon="16.762274">
        <ele>236.325165</ele>
        <time>2020-07-04T06:00:35.658Z</time>
      </trkpt>
      <trkpt lat="48.546757" lon="16.762071">
        <ele>236.370173</ele>
        <time>2020-07-04T06:00:38.676Z</time>
      </trkpt>
      <trkpt lat="48.546732" lon="16.761878">
        <ele>236.423742</ele>
        <time>2020-07-04T06:00:41.672Z</time>
      </trkpt>
      <trkpt lat="48.546692" lon="16.761692">
        <ele>236.480551</ele>
        <time>2020-07-04T06:00:44.670Z</time>
      </trkpt>
      <trkpt lat="48.546651" lon="16.761509">
        <ele>236.536672</ele>
        <time>2020-07-04T06:00:47.665Z</time>
      </trkpt>
      <trkpt lat="48.546619" lon="16.761342">
        <ele>236.587173</ele>
        <time>2020-07-04T06:00:50.668Z</time>
      </trkpt>
      <trkpt lat="48.546577" lon="16.761183">
        <ele>236.636901</ele>
        <time>2020-07-04T06:00:53.678Z</time>
      </trkpt>
      <trkpt lat="48.546531" lon="16.761017">
        <ele>236.689176</ele>
        <time>2020-07-04T06:00:56.662Z</time>
      </trkpt>
      <trkpt lat="48.546484" lon="16.760856">
        <ele>236.740289</ele>
        <time>2020-07-04T06:00:59.668Z</time>
      </trkpt>
      <trkpt lat="48.546446" lon="16.760693">
        <ele>236.790488</ele>
        <time>2020-07-04T06:01:02.678Z</time>
      </trkpt>
      <trkpt lat="48.546407" lon="16.760552">
        <ele>236.834878</ele>
        <time>2020-07-04T06:01:05.662Z</time>
      </trkpt>
      <trkpt lat="48.546359" lon="16.760394">
        <ele>236.885376</ele>
        <time>2020-07-04T06:01:08.658Z</time>
      </trkpt>
      <trkpt lat="48.546303" lon="16.760261">
        <ele>236.931163</ele>
        <time>2020-07-04T06:01:11.655Z</time>
      </trkpt>
      <trkpt lat="48.546247" lon="16.760138">
        <ele>236.974526</ele>
        <time>2020-07-04T06:01:14.677Z</time>
      </trkpt>
      <trkpt lat="48.546183" lon="16.760037">
        <ele>237.015139</ele>
        <time>2020-07-04T06:01:17.697Z</time>
      </trkpt>
      <trkpt lat="48.546100" lon="16.759973">
        <ele>237.056030</ele>
        <time>2020-07-04T06:01:20.668Z</time>
      </trkpt>
      <trkpt lat="48.546017" lon="16.759918">
        <ele>237.095800</ele>
        <time>2020-07-04T06:01:23.670Z</time>
      </trkpt>
      <trkpt lat="48.545914" lon="16.759854">
        <ele>237.144669</ele>
        <time>2020-07-04T06:01:27.686Z</time>
      </trkpt>
      <trkpt lat="48.545810" lon="16.759792">
        <ele>237.233515</ele>
        <time>2020-07-04T06:01:31.655Z</time>
      </trkpt>
      <trkpt lat="48.545712" lon="16.759720">
        <ele>237.364241</ele>
        <time>2020-07-04T06:01:35.689Z</time>
      </trkpt>
      <trkpt lat="48.545617" lon="16.759660">
        <ele>237.487761</ele>
        <time>2020-07-04T06:01:39.677Z</time>
      </trkpt>
      <trkpt lat="48.545519" lon="16.759607">
        <ele>237.612627</ele>
        <time>2020-07-04T06:01:43.662Z</time>
      </trkpt>
      <trkpt lat="48.545437" lon="16.759543">
        <ele>237.723347</ele>
        <time>2020-07-04T06:01:47.692Z</time>
      </trkpt>
      <trkpt lat="48.545348" lon="16.759467">
        <ele>237.845989</ele>
        <time>2020-07-04T06:01:53.659Z</time>
      </trkpt>
      <trkpt lat="48.545257" lon="16.759432">
        <ele>237.958633</ele>
        <time>2020-07-04T06:01:58.653Z</time>
      </trkpt>
      <trkpt lat="48.545154" lon="16.759416">
        <ele>238.082841</ele>
        <time>2020-07-04T06:02:02.689Z</time>
      </trkpt>
      <trkpt lat="48.545040" lon="16.759370">
        <ele>238.224388</ele>
        <time>2020-07-04T06:02:06.657Z</time>
      </trkpt>
      <trkpt lat="48.544938" lon="16.759309">
        <ele>238.355986</ele>
        <time>2020-07-04T06:02:09.674Z</time>
      </trkpt>
      <trkpt lat="48.544838" lon="16.759201">
        <ele>238.503451</ele>
        <time>2020-07-04T06:02:12.681Z</time>
      </trkpt>
      <trkpt lat="48.544735" lon="16.759099">
        <ele>238.651194</ele>
        <time>2020-07-04T06:02:15.665Z</time>
      </trkpt>
      <trkpt lat="48.544634" lon="16.759008">
        <ele>238.792268</ele>
        <time>2020-07-04T06:02:18.659Z</time>
      </trkpt>
      <trkpt lat="48.544522" lon="16.758920">
        <ele>238.943710</ele>
        <time>2020-07-04T06:02:21.655Z</time>
      </trkpt>
      <trkpt lat="48.544446" lon="16.758848">
        <ele>239.051325</ele>
        <time>2020-07-04T06:02:23.650Z</time>
      </trkpt>
      <trkpt lat="48.544371" lon="16.758772">
        <ele>239.159663</ele>
        <time>2020-07-04T06:02:25.670Z</time>
      </trkpt>
      <trkpt lat="48.544292" lon="16.758688">
        <ele>239.275555</ele>
        <time>2020-07-04T06:02:27.684Z</time>
      </trkpt>
      <trkpt lat="48.544213" lon="16.758604">
        <ele>239.353946</ele>
        <time>2020-07-04T06:02:29.678Z</time>
      </trkpt>
      <trkpt lat="48.544129" lon="16.758536">
        <ele>239.400282</ele>
        <time>2020-07-04T06:02:31.670Z</time>
      </trkpt>
      <trkpt lat="48.544047" lon="16.758462">
        <ele>239.446722</ele>
        <time>2020-07-04T06:02:33.681Z</time>
      </trkpt>
      <trkpt lat="48.543964" lon="16.758364">
        <ele>239.497942</ele>
        <time>2020-07-04T06:02:35.664Z</time>
      </trkpt>
      <trkpt lat="48.543861" lon="16.758254">
        <ele>239.559271</ele>
        <time>2020-07-04T06:02:37.658Z</time>
      </trkpt>
      <trkpt lat="48.543755" lon="16.758140">
        <ele>239.622536</ele>
        <time>2020-07-04T06:02:39.676Z</time>
      </trkpt>
      <trkpt lat="48.543636" lon="16.758013">
        <ele>239.693376</ele>
        <time>2020-07-04T06:02:41.688Z</time>
      </trkpt>
      <trkpt lat="48.543465" lon="16.757937">
        <ele>239.780039</ele>
        <time>2020-07-04T06:02:43.666Z</time>
      </trkpt>
      <trkpt lat="48.543367" lon="16.757932">
        <ele>239.827712</ele>
        <time>2020-07-04T06:02:44.689Z</time>
      </trkpt>
      <trkpt lat="48.543265" lon="16.757926">
        <ele>239.877341</ele>
        <time>2020-07-04T06:02:45.666Z</time>
      </trkpt>
      <trkpt lat="48.543159" lon="16.757941">
        <ele>239.929102</ele>
        <time>2020-07-04T06:02:46.656Z</time>
      </trkpt>
      <trkpt lat="48.543058" lon="16.757956">
        <ele>239.978444</ele>
        <time>2020-07-04T06:02:47.677Z</time>
      </trkpt>
      <trkpt lat="48.542914" lon="16.757956">
        <ele>240.048454</ele>
        <time>2020-07-04T06:02:49.654Z</time>
      </trkpt>
      <trkpt lat="48.542800" lon="16.757893">
        <ele>240.107473</ele>
        <time>2020-07-04T06:02:52.670Z</time>
      </trkpt>
      <trkpt lat="48.542835" lon="16.757751">
        <ele>240.156245</ele>
        <time>2020-07-04T06:02:55.688Z</time>
      </trkpt>
      <trkpt lat="48.542865" lon="16.757593">
        <ele>240.226210</ele>
        <time>2020-07-04T06:02:58.682Z</time>
      </trkpt>
      <trkpt lat="48.542882" lon="16.757422">
        <ele>240.432839</ele>
        <time>2020-07-04T06:03:01.689Z</time>
      </trkpt>
      <trkpt lat="48.542909" lon="16.757263">
        <ele>240.628988</ele>
        <time>2020-07-04T06:03:04.669Z</time>
      </trkpt>
      <trkpt lat="48.542937" lon="16.757093">
        <ele>240.838324</ele>
        <time>2020-07-04T06:03:07.681Z</time>
      </trkpt>
      <trkpt lat="48.542954" lon="16.756926">
        <ele>241.040227</ele>
        <time>2020-07-04T06:03:10.663Z</time>
      </trkpt>
      <trkpt lat="48.542978" lon="16.756754">
        <ele>241.250275</ele>
        <time>2020-07-04T06:03:13.660Z</time>
      </trkpt>
      <trkpt lat="48.543004" lon="16.756597">
        <ele>241.443664</ele>
        <time>2020-07-04T06:03:16.673Z</time>
      </trkpt>
      <trkpt lat="48.543028" lon="16.756452">
        <ele>241.622265</ele>
        <time>2020-07-04T06:03:19.678Z</time>
      </trkpt>
      <trkpt lat="48.543049" lon="16.756316">
        <ele>241.789141</ele>
        <time>2020-07-04T06:03:24.687Z</time>
      </trkpt>
      <trkpt lat="48.543015" lon="16.756156">
        <ele>241.989941</ele>
        <time>2020-07-04T06:03:30.678Z</time>
      </trkpt>
      <trkpt lat="48.542909" lon="16.756085">
        <ele>242.199231</ele>
        <time>2020-07-04T06:03:34.686Z</time>
      </trkpt>
      <trkpt lat="48.542804" lon="16.756052">
        <ele>242.392806</ele>
        <time>2020-07-04T06:03:37.665Z</time>
      </trkpt>
      <trkpt lat="48.542682" lon="16.756012">
        <ele>242.618134</ele>
        <time>2020-07-04T06:03:40.693Z</time>
      </trkpt>
      <trkpt lat="48.542549" lon="16.755989">
        <ele>242.859756</ele>
        <time>2020-07-04T06:03:43.681Z</time>
      </trkpt>
      <trkpt lat="48.542459" lon="16.756001">
        <ele>243.022830</ele>
        <time>2020-07-04T06:03:45.662Z</time>
      </trkpt>
      <trkpt lat="48.542370" lon="16.756017">
        <ele>243.184601</ele>
        <time>2020-07-04T06:03:47.679Z</time>
      </trkpt>
      <trkpt lat="48.542244" lon="16.756020">
        <ele>243.412049</ele>
        <time>2020-07-04T06:03:50.691Z</time>
      </trkpt>
      <trkpt lat="48.542121" lon="16.756013">
        <ele>243.563255</ele>
        <time>2020-07-04T06:03:53.702Z</time>
      </trkpt>
      <trkpt lat="48.542011" lon="16.755942">
        <ele>243.696330</ele>
        <time>2020-07-04T06:03:56.672Z</time>
      </trkpt>
      <trkpt lat="48.541940" lon="16.755849">
        <ele>243.800878</ele>
        <time>2020-07-04T06:03:59.676Z</time>
      </trkpt>
      <trkpt lat="48.541907" lon="16.755699">
        <ele>243.917296</ele>
        <time>2020-07-04T06:04:03.669Z</time>
      </trkpt>
      <trkpt lat="48.541887" lon="16.755554">
        <ele>244.026385</ele>
        <time>2020-07-04T06:04:07.656Z</time>
      </trkpt>
      <trkpt lat="48.541870" lon="16.755399">
        <ele>244.142102</ele>
        <time>2020-07-04T06:04:12.651Z</time>
      </trkpt>
      <trkpt lat="48.541861" lon="16.755258">
        <ele>244.246433</ele>
        <time>2020-07-04T06:04:16.705Z</time>
      </trkpt>
      <trkpt lat="48.541829" lon="16.755093">
        <ele>244.373066</ele>
        <time>2020-07-04T06:04:21.681Z</time>
      </trkpt>
      <trkpt lat="48.541799" lon="16.754961">
        <ele>244.475856</ele>
        <time>2020-07-04T06:04:25.662Z</time>
      </trkpt>
      <trkpt lat="48.541773" lon="16.754827">
        <ele>244.578701</ele>
        <time>2020-07-04T06:04:29.689Z</time>
      </trkpt>
      <trkpt lat="48.541759" lon="16.754690">
        <ele>244.680800</ele>
        <time>2020-07-04T06:04:33.683Z</time>
      </trkpt>
      <trkpt lat="48.541739" lon="16.754548">
        <ele>244.787727</ele>
        <time>2020-07-04T06:04:37.683Z</time>
      </trkpt>
      <trkpt lat="48.541715" lon="16.754405">
        <ele>244.896382</ele>
        <time>2020-07-04T06:04:41.680Z</time>
      </trkpt>
      <trkpt lat="48.541701" lon="16.754259">
        <ele>245.005036</ele>
        <time>2020-07-04T06:04:45.692Z</time>
      </trkpt>
      <trkpt lat="48.541694" lon="16.754093">
        <ele>245.127547</ele>
        <time>2020-07-04T06:04:50.678Z</time>
      </trkpt>
      <trkpt lat="48.541680" lon="16.753952">
        <ele>245.232559</ele>
        <time>2020-07-04T06:04:54.655Z</time>
      </trkpt>
      <trkpt lat="48.541676" lon="16.753806">
        <ele>245.340184</ele>
        <time>2020-07-04T06:04:58.661Z</time>
      </trkpt>
      <trkpt lat="48.541678" lon="16.753663">
        <ele>245.445531</ele>
        <time>2020-07-04T06:05:02.670Z</time>
      </trkpt>
      <trkpt lat="48.541671" lon="16.753515">
        <ele>245.562212</ele>
        <time>2020-07-04T06:05:06.681Z</time>
      </trkpt>
      <trkpt lat="48.541671" lon="16.753359">
        <ele>245.685233</ele>
        <time>2020-07-04T06:05:10.693Z</time>
      </trkpt>
      <trkpt lat="48.541681" lon="16.753211">
        <ele>245.802551</ele>
        <time>2020-07-04T06:05:14.670Z</time>
      </trkpt>
      <trkpt lat="48.541690" lon="16.753069">
        <ele>245.915044</ele>
        <time>2020-07-04T06:05:18.692Z</time>
      </trkpt>
      <trkpt lat="48.541706" lon="16.752916">
        <ele>246.037194</ele>
        <time>2020-07-04T06:05:22.692Z</time>
      </trkpt>
      <trkpt lat="48.541726" lon="16.752752">
        <ele>246.168699</ele>
        <time>2020-07-04T06:05:26.694Z</time>
      </trkpt>
      <trkpt lat="48.541747" lon="16.752586">
        <ele>246.301974</ele>
        <time>2020-07-04T06:05:30.667Z</time>
      </trkpt>
      <trkpt lat="48.541760" lon="16.752411">
        <ele>246.440844</ele>
        <time>2020-07-04T06:05:34.662Z</time>
      </trkpt>
      <trkpt lat="48.541776" lon="16.752239">
        <ele>246.577814</ele>
        <time>2020-07-04T06:05:38.696Z</time>
      </trkpt>
      <trkpt lat="48.541801" lon="16.752074">
        <ele>246.711296</ele>
        <time>2020-07-04T06:05:42.668Z</time>
      </trkpt>
      <trkpt lat="48.541825" lon="16.751934">
        <ele>246.825339</ele>
        <time>2020-07-04T06:05:45.660Z</time>
      </trkpt>
      <trkpt lat="48.541838" lon="16.751775">
        <ele>246.951678</ele>
        <time>2020-07-04T06:05:49.689Z</time>
      </trkpt>
      <trkpt lat="48.541847" lon="16.751599">
        <ele>247.090883</ele>
        <time>2020-07-04T06:05:53.664Z</time>
      </trkpt>
      <trkpt lat="48.541875" lon="16.751465">
        <ele>247.201693</ele>
        <time>2020-07-04T06:05:56.669Z</time>
      </trkpt>
      <trkpt lat="48.541899" lon="16.751311">
        <ele>247.326455</ele>
        <time>2020-07-04T06:06:00.684Z</time>
      </trkpt>
      <trkpt lat="48.541912" lon="16.751145">
        <ele>247.458273</ele>
        <time>2020-07-04T06:06:04.673Z</time>
      </trkpt>
      <trkpt lat="48.541925" lon="16.750978">
        <ele>247.590875</ele>
        <time>2020-07-04T06:06:08.697Z</time>
      </trkpt>
      <trkpt lat="48.541923" lon="16.750820">
        <ele>247.776587</ele>
        <time>2020-07-04T06:06:12.665Z</time>
      </trkpt>
      <trkpt lat="48.541939" lon="16.750682">
        <ele>247.941955</ele>
        <time>2020-07-04T06:06:15.691Z</time>
      </trkpt>
      <trkpt lat="48.541963" lon="16.750516">
        <ele>248.142512</ele>
        <time>2020-07-04T06:06:19.667Z</time>
      </trkpt>
      <trkpt lat="48.541973" lon="16.750364">
        <ele>248.322809</ele>
        <time>2020-07-04T06:06:23.670Z</time>
      </trkpt>
      <trkpt lat="48.541978" lon="16.750205">
        <ele>248.510697</ele>
        <time>2020-07-04T06:06:27.662Z</time>
      </trkpt>
      <trkpt lat="48.541998" lon="16.750043">
        <ele>248.705211</ele>
        <time>2020-07-04T06:06:31.692Z</time>
      </trkpt>
      <trkpt lat="48.542022" lon="16.749880">
        <ele>248.902309</ele>
        <time>2020-07-04T06:06:35.688Z</time>
      </trkpt>
      <trkpt lat="48.542032" lon="16.749714">
        <ele>249.099057</ele>
        <time>2020-07-04T06:06:39.675Z</time>
      </trkpt>
      <trkpt lat="48.542050" lon="16.749549">
        <ele>249.296442</ele>
        <time>2020-07-04T06:06:43.686Z</time>
      </trkpt>
      <trkpt lat="48.542068" lon="16.749389">
        <ele>249.488005</ele>
        <time>2020-07-04T06:06:47.687Z</time>
      </trkpt>
      <trkpt lat="48.542088" lon="16.749219">
        <ele>249.691809</ele>
        <time>2020-07-04T06:06:51.685Z</time>
      </trkpt>
      <trkpt lat="48.542106" lon="16.749064">
        <ele>249.877556</ele>
        <time>2020-07-04T06:06:55.685Z</time>
      </trkpt>
      <trkpt lat="48.542134" lon="16.748902">
        <ele>250.075182</ele>
        <time>2020-07-04T06:06:59.712Z</time>
      </trkpt>
      <trkpt lat="48.542159" lon="16.748743">
        <ele>250.268078</ele>
        <time>2020-07-04T06:07:03.697Z</time>
      </trkpt>
      <trkpt lat="48.542182" lon="16.748591">
        <ele>250.452117</ele>
        <time>2020-07-04T06:07:07.692Z</time>
      </trkpt>
      <trkpt lat="48.542216" lon="16.748438">
        <ele>250.642612</ele>
        <time>2020-07-04T06:07:11.688Z</time>
      </trkpt>
      <trkpt lat="48.542250" lon="16.748280">
        <ele>250.835861</ele>
        <time>2020-07-04T06:07:15.694Z</time>
      </trkpt>
      <trkpt lat="48.542281" lon="16.748109">
        <ele>251.030041</ele>
        <time>2020-07-04T06:07:19.689Z</time>
      </trkpt>
      <trkpt lat="48.542323" lon="16.747946">
        <ele>251.221609</ele>
        <time>2020-07-04T06:07:23.684Z</time>
      </trkpt>
      <trkpt lat="48.542368" lon="16.747786">
        <ele>251.412004</ele>
        <time>2020-07-04T06:07:27.683Z</time>
      </trkpt>
      <trkpt lat="48.542402" lon="16.747621">
        <ele>251.601269</ele>
        <time>2020-07-04T06:07:31.688Z</time>
      </trkpt>
      <trkpt lat="48.542438" lon="16.747457">
        <ele>251.790503</ele>
        <time>2020-07-04T06:07:35.688Z</time>
      </trkpt>
      <trkpt lat="48.542484" lon="16.747292">
        <ele>251.986585</ele>
        <time>2020-07-04T06:07:39.690Z</time>
      </trkpt>
      <trkpt lat="48.542526" lon="16.747128">
        <ele>252.179174</ele>
        <time>2020-07-04T06:07:43.697Z</time>
      </trkpt>
      <trkpt lat="48.542557" lon="16.746967">
        <ele>252.362812</ele>
        <time>2020-07-04T06:07:47.709Z</time>
      </trkpt>
      <trkpt lat="48.542605" lon="16.746801">
        <ele>252.561205</ele>
        <time>2020-07-04T06:07:51.712Z</time>
      </trkpt>
      <trkpt lat="48.542655" lon="16.746647">
        <ele>252.749061</ele>
        <time>2020-07-04T06:07:55.720Z</time>
      </trkpt>
      <trkpt lat="48.542700" lon="16.746492">
        <ele>252.934426</ele>
        <time>2020-07-04T06:07:59.701Z</time>
      </trkpt>
      <trkpt lat="48.542736" lon="16.746349">
        <ele>253.101985</ele>
        <time>2020-07-04T06:08:03.669Z</time>
      </trkpt>
      <trkpt lat="48.542774" lon="16.746219">
        <ele>253.257625</ele>
        <time>2020-07-04T06:08:07.677Z</time>
      </trkpt>
      <trkpt lat="48.542820" lon="16.746065">
        <ele>253.442662</ele>
        <time>2020-07-04T06:08:12.688Z</time>
      </trkpt>
      <trkpt lat="48.542864" lon="16.745917">
        <ele>253.620348</ele>
        <time>2020-07-04T06:08:17.666Z</time>
      </trkpt>
      <trkpt lat="48.542922" lon="16.745784">
        <ele>253.796889</ele>
        <time>2020-07-04T06:08:22.665Z</time>
      </trkpt>
      <trkpt lat="48.542985" lon="16.745658">
        <ele>253.987979</ele>
        <time>2020-07-04T06:08:27.671Z</time>
      </trkpt>
      <trkpt lat="48.543045" lon="16.745521">
        <ele>254.186774</ele>
        <time>2020-07-04T06:08:32.688Z</time>
      </trkpt>
      <trkpt lat="48.543107" lon="16.745376">
        <ele>254.395674</ele>
        <time>2020-07-04T06:08:37.669Z</time>
      </trkpt>
      <trkpt lat="48.543172" lon="16.745245">
        <ele>254.593796</ele>
        <time>2020-07-04T06:08:42.684Z</time>
      </trkpt>
      <trkpt lat="48.543234" lon="16.745107">
        <ele>254.795631</ele>
        <time>2020-07-04T06:08:47.696Z</time>
      </trkpt>
      <trkpt lat="48.543299" lon="16.744983">
        <ele>254.987042</ele>
        <time>2020-07-04T06:08:52.678Z</time>
      </trkpt>
      <trkpt lat="48.543360" lon="16.744883">
        <ele>255.151603</ele>
        <time>2020-07-04T06:08:56.679Z</time>
      </trkpt>
      <trkpt lat="48.543410" lon="16.744768">
        <ele>255.318106</ele>
        <time>2020-07-04T06:09:00.698Z</time>
      </trkpt>
      <trkpt lat="48.543470" lon="16.744640">
        <ele>255.507911</ele>
        <time>2020-07-04T06:09:05.692Z</time>
      </trkpt>
      <trkpt lat="48.543538" lon="16.744509">
        <ele>255.709370</ele>
        <time>2020-07-04T06:09:10.656Z</time>
      </trkpt>
      <trkpt lat="48.543585" lon="16.744392">
        <ele>255.874992</ele>
        <time>2020-07-04T06:09:14.653Z</time>
      </trkpt>
      <trkpt lat="48.543642" lon="16.744256">
        <ele>256.069789</ele>
        <time>2020-07-04T06:09:19.653Z</time>
      </trkpt>
      <trkpt lat="48.543704" lon="16.744119">
        <ele>256.270623</ele>
        <time>2020-07-04T06:09:24.685Z</time>
      </trkpt>
      <trkpt lat="48.543743" lon="16.743993">
        <ele>256.438952</ele>
        <time>2020-07-04T06:09:28.668Z</time>
      </trkpt>
      <trkpt lat="48.543790" lon="16.743849">
        <ele>256.633249</ele>
        <time>2020-07-04T06:09:33.706Z</time>
      </trkpt>
      <trkpt lat="48.543824" lon="16.743723">
        <ele>256.797915</ele>
        <time>2020-07-04T06:09:37.672Z</time>
      </trkpt>
      <trkpt lat="48.543867" lon="16.743602">
        <ele>256.964113</ele>
        <time>2020-07-04T06:09:41.706Z</time>
      </trkpt>
      <trkpt lat="48.543915" lon="16.743455">
        <ele>257.160516</ele>
        <time>2020-07-04T06:09:46.707Z</time>
      </trkpt>
      <trkpt lat="48.543943" lon="16.743325">
        <ele>257.322717</ele>
        <time>2020-07-04T06:09:50.690Z</time>
      </trkpt>
      <trkpt lat="48.543977" lon="16.743191">
        <ele>257.492983</ele>
        <time>2020-07-04T06:09:54.692Z</time>
      </trkpt>
      <trkpt lat="48.544025" lon="16.743043">
        <ele>257.688521</ele>
        <time>2020-07-04T06:09:59.688Z</time>
      </trkpt>
      <trkpt lat="48.544051" lon="16.742877">
        <ele>257.890915</ele>
        <time>2020-07-04T06:10:04.654Z</time>
      </trkpt>
      <trkpt lat="48.544080" lon="16.742717">
        <ele>258.087738</ele>
        <time>2020-07-04T06:10:09.661Z</time>
      </trkpt>
      <trkpt lat="48.544105" lon="16.742586">
        <ele>258.249496</ele>
        <time>2020-07-04T06:10:13.689Z</time>
      </trkpt>
      <trkpt lat="48.544146" lon="16.742433">
        <ele>258.445336</ele>
        <time>2020-07-04T06:10:18.696Z</time>
      </trkpt>
      <trkpt lat="48.544188" lon="16.742274">
        <ele>258.648448</ele>
        <time>2020-07-04T06:10:23.666Z</time>
      </trkpt>
      <trkpt lat="48.544213" lon="16.742139">
        <ele>258.814772</ele>
        <time>2020-07-04T06:10:27.677Z</time>
      </trkpt>
      <trkpt lat="48.544255" lon="16.742003">
        <ele>258.992825</ele>
        <time>2020-07-04T06:10:31.668Z</time>
      </trkpt>
      <trkpt lat="48.544300" lon="16.741884">
        <ele>259.155426</ele>
        <time>2020-07-04T06:10:35.682Z</time>
      </trkpt>
      <trkpt lat="48.544346" lon="16.741737">
        <ele>259.348340</ele>
        <time>2020-07-04T06:10:40.687Z</time>
      </trkpt>
      <trkpt lat="48.544381" lon="16.741607">
        <ele>259.514849</ele>
        <time>2020-07-04T06:10:44.680Z</time>
      </trkpt>
      <trkpt lat="48.544419" lon="16.741455">
        <ele>259.707623</ele>
        <time>2020-07-04T06:10:49.686Z</time>
      </trkpt>
      <trkpt lat="48.544470" lon="16.741334">
        <ele>259.877813</ele>
        <time>2020-07-04T06:10:53.696Z</time>
      </trkpt>
      <trkpt lat="48.544532" lon="16.741215">
        <ele>260.057482</ele>
        <time>2020-07-04T06:10:57.691Z</time>
      </trkpt>
      <trkpt lat="48.544588" lon="16.741084">
        <ele>260.242496</ele>
        <time>2020-07-04T06:11:01.661Z</time>
      </trkpt>
      <trkpt lat="48.544647" lon="16.740965">
        <ele>260.423236</ele>
        <time>2020-07-04T06:11:05.656Z</time>
      </trkpt>
      <trkpt lat="48.544705" lon="16.740847">
        <ele>260.603310</ele>
        <time>2020-07-04T06:11:09.668Z</time>
      </trkpt>
      <trkpt lat="48.544754" lon="16.740718">
        <ele>260.785537</ele>
        <time>2020-07-04T06:11:13.679Z</time>
      </trkpt>
      <trkpt lat="48.544799" lon="16.740598">
        <ele>260.954517</ele>
        <time>2020-07-04T06:11:17.672Z</time>
      </trkpt>
      <trkpt lat="48.544862" lon="16.740457">
        <ele>261.162944</ele>
        <time>2020-07-04T06:11:22.655Z</time>
      </trkpt>
      <trkpt lat="48.544921" lon="16.740353">
        <ele>261.330756</ele>
        <time>2020-07-04T06:11:26.659Z</time>
      </trkpt>
      <trkpt lat="48.544972" lon="16.740237">
        <ele>261.501373</ele>
        <time>2020-07-04T06:11:30.683Z</time>
      </trkpt>
      <trkpt lat="48.545014" lon="16.740105">
        <ele>261.680816</ele>
        <time>2020-07-04T06:11:34.687Z</time>
      </trkpt>
      <trkpt lat="48.545056" lon="16.739978">
        <ele>261.854758</ele>
        <time>2020-07-04T06:11:38.671Z</time>
      </trkpt>
      <trkpt lat="48.545107" lon="16.739835">
        <ele>262.053776</ele>
        <time>2020-07-04T06:11:43.666Z</time>
      </trkpt>
      <trkpt lat="48.545158" lon="16.739690">
        <ele>262.254955</ele>
        <time>2020-07-04T06:11:48.697Z</time>
      </trkpt>
      <trkpt lat="48.545221" lon="16.739551">
        <ele>262.461354</ele>
        <time>2020-07-04T06:11:53.687Z</time>
      </trkpt>
      <trkpt lat="48.545267" lon="16.739431">
        <ele>262.631253</ele>
        <time>2020-07-04T06:11:57.672Z</time>
      </trkpt>
      <trkpt lat="48.545307" lon="16.739301">
        <ele>262.806898</ele>
        <time>2020-07-04T06:12:01.683Z</time>
      </trkpt>
      <trkpt lat="48.545352" lon="16.739171">
        <ele>262.986640</ele>
        <time>2020-07-04T06:12:05.655Z</time>
      </trkpt>
      <trkpt lat="48.545399" lon="16.739048">
        <ele>263.160647</ele>
        <time>2020-07-04T06:12:09.680Z</time>
      </trkpt>
      <trkpt lat="48.545430" lon="16.738908">
        <ele>263.341522</ele>
        <time>2020-07-04T06:12:13.678Z</time>
      </trkpt>
      <trkpt lat="48.545461" lon="16.738764">
        <ele>263.527051</ele>
        <time>2020-07-04T06:12:17.679Z</time>
      </trkpt>
      <trkpt lat="48.545497" lon="16.738610">
        <ele>263.715930</ele>
        <time>2020-07-04T06:12:21.694Z</time>
      </trkpt>
      <trkpt lat="48.545530" lon="16.738447">
        <ele>263.903907</ele>
        <time>2020-07-04T06:12:25.685Z</time>
      </trkpt>
      <trkpt lat="48.545562" lon="16.738280">
        <ele>264.095636</ele>
        <time>2020-07-04T06:12:29.661Z</time>
      </trkpt>
      <trkpt lat="48.545588" lon="16.738122">
        <ele>264.275183</ele>
        <time>2020-07-04T06:12:33.682Z</time>
      </trkpt>
      <trkpt lat="48.545624" lon="16.737968">
        <ele>264.455293</ele>
        <time>2020-07-04T06:12:37.687Z</time>
      </trkpt>
      <trkpt lat="48.545661" lon="16.737807">
        <ele>264.643239</ele>
        <time>2020-07-04T06:12:41.694Z</time>
      </trkpt>
      <trkpt lat="48.545700" lon="16.737645">
        <ele>264.833340</ele>
        <time>2020-07-04T06:12:45.690Z</time>
      </trkpt>
      <trkpt lat="48.545731" lon="16.737480">
        <ele>265.022490</ele>
        <time>2020-07-04T06:12:49.677Z</time>
      </trkpt>
      <trkpt lat="48.545769" lon="16.737318">
        <ele>265.212028</ele>
        <time>2020-07-04T06:12:53.680Z</time>
      </trkpt>
      <trkpt lat="48.545802" lon="16.737158">
        <ele>265.396842</ele>
        <time>2020-07-04T06:12:57.662Z</time>
      </trkpt>
      <trkpt lat="48.545842" lon="16.737004">
        <ele>265.579278</ele>
        <time>2020-07-04T06:13:01.672Z</time>
      </trkpt>
      <trkpt lat="48.545884" lon="16.736856">
        <ele>265.756857</ele>
        <time>2020-07-04T06:13:05.653Z</time>
      </trkpt>
      <trkpt lat="48.545921" lon="16.736700">
        <ele>265.939603</ele>
        <time>2020-07-04T06:13:09.680Z</time>
      </trkpt>
      <trkpt lat="48.545955" lon="16.736543">
        <ele>266.121771</ele>
        <time>2020-07-04T06:13:13.673Z</time>
      </trkpt>
      <trkpt lat="48.545993" lon="16.736390">
        <ele>266.301984</ele>
        <time>2020-07-04T06:13:17.653Z</time>
      </trkpt>
      <trkpt lat="48.546036" lon="16.736239">
        <ele>266.483260</ele>
        <time>2020-07-04T06:13:21.675Z</time>
      </trkpt>
      <trkpt lat="48.546084" lon="16.736082">
        <ele>266.675038</ele>
        <time>2020-07-04T06:13:25.684Z</time>
      </trkpt>
      <trkpt lat="48.546133" lon="16.735931">
        <ele>266.863632</ele>
        <time>2020-07-04T06:13:29.662Z</time>
      </trkpt>
      <trkpt lat="48.546188" lon="16.735798">
        <ele>267.039499</ele>
        <time>2020-07-04T06:13:33.671Z</time>
      </trkpt>
      <trkpt lat="48.546234" lon="16.735667">
        <ele>267.205800</ele>
        <time>2020-07-04T06:13:37.687Z</time>
      </trkpt>
      <trkpt lat="48.546290" lon="16.735520">
        <ele>267.396005</ele>
        <time>2020-07-04T06:13:41.672Z</time>
      </trkpt>
      <trkpt lat="48.546330" lon="16.735396">
        <ele>267.550699</ele>
        <time>2020-07-04T06:13:44.678Z</time>
      </trkpt>
      <trkpt lat="48.546378" lon="16.735267">
        <ele>267.716656</ele>
        <time>2020-07-04T06:13:47.697Z</time>
      </trkpt>
      <trkpt lat="48.546423" lon="16.735136">
        <ele>267.882170</ele>
        <time>2020-07-04T06:13:50.679Z</time>
      </trkpt>
      <trkpt lat="48.546476" lon="16.735002">
        <ele>268.057227</ele>
        <time>2020-07-04T06:13:53.673Z</time>
      </trkpt>
      <trkpt lat="48.546522" lon="16.734860">
        <ele>268.234520</ele>
        <time>2020-07-04T06:13:56.691Z</time>
      </trkpt>
      <trkpt lat="48.546567" lon="16.734720">
        <ele>268.409055</ele>
        <time>2020-07-04T06:13:59.709Z</time>
      </trkpt>
      <trkpt lat="48.546624" lon="16.734579">
        <ele>268.594334</ele>
        <time>2020-07-04T06:14:02.683Z</time>
      </trkpt>
      <trkpt lat="48.546680" lon="16.734440">
        <ele>268.776816</ele>
        <time>2020-07-04T06:14:05.695Z</time>
      </trkpt>
      <trkpt lat="48.546736" lon="16.734300">
        <ele>268.960257</ele>
        <time>2020-07-04T06:14:08.676Z</time>
      </trkpt>
      <trkpt lat="48.546789" lon="16.734158">
        <ele>269.143072</ele>
        <time>2020-07-04T06:14:11.696Z</time>
      </trkpt>
      <trkpt lat="48.546842" lon="16.734016">
        <ele>269.325887</ele>
        <time>2020-07-04T06:14:14.690Z</time>
      </trkpt>
      <trkpt lat="48.546900" lon="16.733876">
        <ele>269.511103</ele>
        <time>2020-07-04T06:14:17.709Z</time>
      </trkpt>
      <trkpt lat="48.546956" lon="16.733742">
        <ele>269.691988</ele>
        <time>2020-07-04T06:14:20.682Z</time>
      </trkpt>
      <trkpt lat="48.547011" lon="16.733600">
        <ele>269.895471</ele>
        <time>2020-07-04T06:14:23.679Z</time>
      </trkpt>
      <trkpt lat="48.547058" lon="16.733451">
        <ele>270.099610</ele>
        <time>2020-07-04T06:14:26.703Z</time>
      </trkpt>
      <trkpt lat="48.547103" lon="16.733308">
        <ele>270.295443</ele>
        <time>2020-07-04T06:14:29.694Z</time>
      </trkpt>
      <trkpt lat="48.547157" lon="16.733169">
        <ele>270.494780</ele>
        <time>2020-07-04T06:14:32.680Z</time>
      </trkpt>
      <trkpt lat="48.547212" lon="16.733029">
        <ele>270.696131</ele>
        <time>2020-07-04T06:14:35.667Z</time>
      </trkpt>
      <trkpt lat="48.547266" lon="16.732892">
        <ele>270.893337</ele>
        <time>2020-07-04T06:14:38.671Z</time>
      </trkpt>
      <trkpt lat="48.547314" lon="16.732747">
        <ele>271.093850</ele>
        <time>2020-07-04T06:14:41.662Z</time>
      </trkpt>
      <trkpt lat="48.547359" lon="16.732601">
        <ele>271.293039</ele>
        <time>2020-07-04T06:14:44.668Z</time>
      </trkpt>
      <trkpt lat="48.547407" lon="16.732468">
        <ele>271.480394</ele>
        <time>2020-07-04T06:14:47.688Z</time>
      </trkpt>
      <trkpt lat="48.547451" lon="16.732331">
        <ele>271.668728</ele>
        <time>2020-07-04T06:14:50.672Z</time>
      </trkpt>
      <trkpt lat="48.547494" lon="16.732197">
        <ele>271.852907</ele>
        <time>2020-07-04T06:14:53.664Z</time>
      </trkpt>
      <trkpt lat="48.547548" lon="16.732066">
        <ele>272.043774</ele>
        <time>2020-07-04T06:14:56.689Z</time>
      </trkpt>
      <trkpt lat="48.547604" lon="16.731931">
        <ele>272.240817</ele>
        <time>2020-07-04T06:14:59.678Z</time>
      </trkpt>
      <trkpt lat="48.547661" lon="16.731801">
        <ele>272.433673</ele>
        <time>2020-07-04T06:15:02.693Z</time>
      </trkpt>
      <trkpt lat="48.547717" lon="16.731679">
        <ele>272.617289</ele>
        <time>2020-07-04T06:15:05.670Z</time>
      </trkpt>
      <trkpt lat="48.547770" lon="16.731568">
        <ele>272.786560</ele>
        <time>2020-07-04T06:15:08.696Z</time>
      </trkpt>
      <trkpt lat="48.547842" lon="16.731431">
        <ele>273.002908</ele>
        <time>2020-07-04T06:15:12.710Z</time>
      </trkpt>
      <trkpt lat="48.547907" lon="16.731303">
        <ele>273.404939</ele>
        <time>2020-07-04T06:15:16.680Z</time>
      </trkpt>
      <trkpt lat="48.547970" lon="16.731172">
        <ele>273.825608</ele>
        <time>2020-07-04T06:15:20.683Z</time>
      </trkpt>
      <trkpt lat="48.548038" lon="16.731045">
        <ele>274.249971</ele>
        <time>2020-07-04T06:15:24.664Z</time>
      </trkpt>
      <trkpt lat="48.548101" lon="16.730929">
        <ele>274.639784</ele>
        <time>2020-07-04T06:15:28.683Z</time>
      </trkpt>
      <trkpt lat="48.548165" lon="16.730826">
        <ele>275.006790</ele>
        <time>2020-07-04T06:15:32.682Z</time>
      </trkpt>
      <trkpt lat="48.548241" lon="16.730706">
        <ele>275.438249</ele>
        <time>2020-07-04T06:15:37.667Z</time>
      </trkpt>
      <trkpt lat="48.548312" lon="16.730579">
        <ele>275.870112</ele>
        <time>2020-07-04T06:15:42.670Z</time>
      </trkpt>
      <trkpt lat="48.548383" lon="16.730446">
        <ele>276.313998</ele>
        <time>2020-07-04T06:15:47.655Z</time>
      </trkpt>
      <trkpt lat="48.548430" lon="16.730308">
        <ele>276.717188</ele>
        <time>2020-07-04T06:15:52.677Z</time>
      </trkpt>
      <trkpt lat="48.548481" lon="16.730172">
        <ele>277.123267</ele>
        <time>2020-07-04T06:15:57.709Z</time>
      </trkpt>
      <trkpt lat="48.548542" lon="16.730071">
        <ele>277.478461</ele>
        <time>2020-07-04T06:15:59.678Z</time>
      </trkpt>
      <trkpt lat="48.548598" lon="16.729953">
        <ele>277.855663</ele>
        <time>2020-07-04T06:16:03.690Z</time>
      </trkpt>
      <trkpt lat="48.548661" lon="16.729816">
        <ele>278.289036</ele>
        <time>2020-07-04T06:16:09.692Z</time>
      </trkpt>
      <trkpt lat="48.548715" lon="16.729681">
        <ele>278.698818</ele>
        <time>2020-07-04T06:16:15.681Z</time>
      </trkpt>
      <trkpt lat="48.548784" lon="16.729520">
        <ele>279.197097</ele>
        <time>2020-07-04T06:16:23.660Z</time>
      </trkpt>
      <trkpt lat="48.548836" lon="16.729380">
        <ele>279.614154</ele>
        <time>2020-07-04T06:16:29.656Z</time>
      </trkpt>
      <trkpt lat="48.548880" lon="16.729233">
        <ele>280.033281</ele>
        <time>2020-07-04T06:16:35.684Z</time>
      </trkpt>
      <trkpt lat="48.548926" lon="16.729096">
        <ele>281.029489</ele>
        <time>2020-07-04T06:16:41.672Z</time>
      </trkpt>
      <trkpt lat="48.548938" lon="16.728961">
        <ele>281.978438</ele>
        <time>2020-07-04T06:16:48.696Z</time>
      </trkpt>
      <trkpt lat="48.548950" lon="16.728803">
        <ele>283.086402</ele>
        <time>2020-07-04T06:16:52.659Z</time>
      </trkpt>
      <trkpt lat="48.548978" lon="16.728644">
        <ele>284.232636</ele>
        <time>2020-07-04T06:16:58.671Z</time>
      </trkpt>
      <trkpt lat="48.549019" lon="16.728520">
        <ele>285.198274</ele>
        <time>2020-07-04T06:17:04.659Z</time>
      </trkpt>
      <trkpt lat="48.549053" lon="16.728391">
        <ele>286.165593</ele>
        <time>2020-07-04T06:17:10.682Z</time>
      </trkpt>
      <trkpt lat="48.549089" lon="16.728260">
        <ele>287.153748</ele>
        <time>2020-07-04T06:17:17.674Z</time>
      </trkpt>
      <trkpt lat="48.549095" lon="16.728124">
        <ele>288.103321</ele>
        <time>2020-07-04T06:17:25.690Z</time>
      </trkpt>
      <trkpt lat="48.549130" lon="16.727997">
        <ele>289.061704</ele>
        <time>2020-07-04T06:17:31.698Z</time>
      </trkpt>
      <trkpt lat="48.549171" lon="16.727869">
        <ele>290.052348</ele>
        <time>2020-07-04T06:17:37.702Z</time>
      </trkpt>
      <trkpt lat="48.549212" lon="16.727740">
        <ele>291.049267</ele>
        <time>2020-07-04T06:17:42.678Z</time>
      </trkpt>
      <trkpt lat="48.549270" lon="16.727612">
        <ele>292.129904</ele>
        <time>2020-07-04T06:17:49.660Z</time>
      </trkpt>
      <trkpt lat="48.549309" lon="16.727485">
        <ele>293.105237</ele>
        <time>2020-07-04T06:17:54.685Z</time>
      </trkpt>
      <trkpt lat="48.549356" lon="16.727347">
        <ele>294.186418</ele>
        <time>2020-07-04T06:18:00.692Z</time>
      </trkpt>
      <trkpt lat="48.549413" lon="16.727231">
        <ele>295.192860</ele>
        <time>2020-07-04T06:18:06.668Z</time>
      </trkpt>
      <trkpt lat="48.549461" lon="16.727107">
        <ele>296.193582</ele>
        <time>2020-07-04T06:18:11.678Z</time>
      </trkpt>
      <trkpt lat="48.549513" lon="16.726977">
        <ele>297.251747</ele>
        <time>2020-07-04T06:18:16.666Z</time>
      </trkpt>
      <trkpt lat="48.549567" lon="16.726849">
        <ele>298.309172</ele>
        <time>2020-07-04T06:18:21.671Z</time>
      </trkpt>
      <trkpt lat="48.549612" lon="16.726730">
        <ele>299.211938</ele>
        <time>2020-07-04T06:18:25.691Z</time>
      </trkpt>
      <trkpt lat="48.549655" lon="16.726601">
        <ele>300.015042</ele>
        <time>2020-07-04T06:18:29.687Z</time>
      </trkpt>
      <trkpt lat="48.549701" lon="16.726481">
        <ele>300.786096</ele>
        <time>2020-07-04T06:18:33.683Z</time>
      </trkpt>
      <trkpt lat="48.549762" lon="16.726370">
        <ele>301.588273</ele>
        <time>2020-07-04T06:18:37.661Z</time>
      </trkpt>
      <trkpt lat="48.549819" lon="16.726240">
        <ele>302.455314</ele>
        <time>2020-07-04T06:18:41.663Z</time>
      </trkpt>
      <trkpt lat="48.549894" lon="16.726116">
        <ele>303.389275</ele>
        <time>2020-07-04T06:18:45.676Z</time>
      </trkpt>
      <trkpt lat="48.549966" lon="16.726004">
        <ele>304.257379</ele>
        <time>2020-07-04T06:18:49.684Z</time>
      </trkpt>
      <trkpt lat="48.550036" lon="16.725882">
        <ele>305.155107</ele>
        <time>2020-07-04T06:18:53.668Z</time>
      </trkpt>
      <trkpt lat="48.550121" lon="16.725757">
        <ele>306.151534</ele>
        <time>2020-07-04T06:18:57.689Z</time>
      </trkpt>
      <trkpt lat="48.550199" lon="16.725655">
        <ele>307.018102</ele>
        <time>2020-07-04T06:19:01.676Z</time>
      </trkpt>
      <trkpt lat="48.550275" lon="16.725542">
        <ele>307.913829</ele>
        <time>2020-07-04T06:19:05.680Z</time>
      </trkpt>
      <trkpt lat="48.550340" lon="16.725414">
        <ele>308.810857</ele>
        <time>2020-07-04T06:19:09.683Z</time>
      </trkpt>
      <trkpt lat="48.550407" lon="16.725270">
        <ele>309.789549</ele>
        <time>2020-07-04T06:19:13.650Z</time>
      </trkpt>
      <trkpt lat="48.550474" lon="16.725142">
        <ele>310.696899</ele>
        <time>2020-07-04T06:19:16.682Z</time>
      </trkpt>
      <trkpt lat="48.550530" lon="16.724996">
        <ele>311.635144</ele>
        <time>2020-07-04T06:19:19.706Z</time>
      </trkpt>
      <trkpt lat="48.550576" lon="16.724854">
        <ele>312.514187</ele>
        <time>2020-07-04T06:19:22.671Z</time>
      </trkpt>
      <trkpt lat="48.550637" lon="16.724701">
        <ele>313.507307</ele>
        <time>2020-07-04T06:19:25.670Z</time>
      </trkpt>
      <trkpt lat="48.550693" lon="16.724566">
        <ele>314.283430</ele>
        <time>2020-07-04T06:19:28.679Z</time>
      </trkpt>
      <trkpt lat="48.550747" lon="16.724429">
        <ele>314.820744</ele>
        <time>2020-07-04T06:19:31.673Z</time>
      </trkpt>
      <trkpt lat="48.550800" lon="16.724272">
        <ele>315.414634</ele>
        <time>2020-07-04T06:19:34.688Z</time>
      </trkpt>
      <trkpt lat="48.550847" lon="16.724119">
        <ele>315.983030</ele>
        <time>2020-07-04T06:19:37.682Z</time>
      </trkpt>
      <trkpt lat="48.550892" lon="16.723957">
        <ele>316.575060</ele>
        <time>2020-07-04T06:19:40.702Z</time>
      </trkpt>
      <trkpt lat="48.550934" lon="16.723775">
        <ele>317.224569</ele>
        <time>2020-07-04T06:19:43.663Z</time>
      </trkpt>
      <trkpt lat="48.550960" lon="16.723614">
        <ele>317.783023</ele>
        <time>2020-07-04T06:19:46.670Z</time>
      </trkpt>
      <trkpt lat="48.551007" lon="16.723440">
        <ele>318.416310</ele>
        <time>2020-07-04T06:19:49.686Z</time>
      </trkpt>
      <trkpt lat="48.551038" lon="16.723313">
        <ele>318.872446</ele>
        <time>2020-07-04T06:19:51.678Z</time>
      </trkpt>
      <trkpt lat="48.551066" lon="16.723182">
        <ele>319.336334</ele>
        <time>2020-07-04T06:19:53.677Z</time>
      </trkpt>
      <trkpt lat="48.551091" lon="16.723047">
        <ele>319.808726</ele>
        <time>2020-07-04T06:19:55.677Z</time>
      </trkpt>
      <trkpt lat="48.551121" lon="16.722909">
        <ele>320.298196</ele>
        <time>2020-07-04T06:19:57.676Z</time>
      </trkpt>
      <trkpt lat="48.551153" lon="16.722773">
        <ele>320.784582</ele>
        <time>2020-07-04T06:19:59.672Z</time>
      </trkpt>
      <trkpt lat="48.551177" lon="16.722640">
        <ele>321.249121</ele>
        <time>2020-07-04T06:20:01.693Z</time>
      </trkpt>
      <trkpt lat="48.551200" lon="16.722507">
        <ele>321.712348</ele>
        <time>2020-07-04T06:20:03.686Z</time>
      </trkpt>
      <trkpt lat="48.551224" lon="16.722370">
        <ele>322.189904</ele>
        <time>2020-07-04T06:20:05.662Z</time>
      </trkpt>
      <trkpt lat="48.551255" lon="16.722237">
        <ele>322.665061</ele>
        <time>2020-07-04T06:20:07.664Z</time>
      </trkpt>
      <trkpt lat="48.551295" lon="16.722114">
        <ele>323.126865</ele>
        <time>2020-07-04T06:20:09.697Z</time>
      </trkpt>
      <trkpt lat="48.551335" lon="16.721990">
        <ele>323.370991</ele>
        <time>2020-07-04T06:20:11.694Z</time>
      </trkpt>
      <trkpt lat="48.551376" lon="16.721859">
        <ele>323.523222</ele>
        <time>2020-07-04T06:20:13.678Z</time>
      </trkpt>
      <trkpt lat="48.551417" lon="16.721730">
        <ele>323.673556</ele>
        <time>2020-07-04T06:20:15.668Z</time>
      </trkpt>
      <trkpt lat="48.551471" lon="16.721560">
        <ele>323.871649</ele>
        <time>2020-07-04T06:20:18.668Z</time>
      </trkpt>
      <trkpt lat="48.551474" lon="16.721262">
        <ele>324.184750</ele>
        <time>2020-07-04T06:21:07.684Z</time>
      </trkpt>
      <trkpt lat="48.551396" lon="16.721188">
        <ele>324.330928</ele>
        <time>2020-07-04T06:21:09.689Z</time>
      </trkpt>
      <trkpt lat="48.551306" lon="16.721089">
        <ele>324.507618</ele>
        <time>2020-07-04T06:21:11.665Z</time>
      </trkpt>
      <trkpt lat="48.551215" lon="16.720976">
        <ele>324.694569</ele>
        <time>2020-07-04T06:21:13.695Z</time>
      </trkpt>
      <trkpt lat="48.551113" lon="16.720848">
        <ele>324.905017</ele>
        <time>2020-07-04T06:21:15.682Z</time>
      </trkpt>
      <trkpt lat="48.551012" lon="16.720718">
        <ele>325.115603</ele>
        <time>2020-07-04T06:21:17.681Z</time>
      </trkpt>
      <trkpt lat="48.550901" lon="16.720583">
        <ele>325.341763</ele>
        <time>2020-07-04T06:21:19.699Z</time>
      </trkpt>
      <trkpt lat="48.550802" lon="16.720436">
        <ele>325.562073</ele>
        <time>2020-07-04T06:21:21.671Z</time>
      </trkpt>
      <trkpt lat="48.550800" lon="16.720237">
        <ele>325.771160</ele>
        <time>2020-07-04T06:21:23.675Z</time>
      </trkpt>
      <trkpt lat="48.550841" lon="16.720067">
        <ele>325.961241</ele>
        <time>2020-07-04T06:21:25.674Z</time>
      </trkpt>
      <trkpt lat="48.550862" lon="16.719899">
        <ele>326.124915</ele>
        <time>2020-07-04T06:21:27.683Z</time>
      </trkpt>
      <trkpt lat="48.550893" lon="16.719763">
        <ele>326.118263</ele>
        <time>2020-07-04T06:21:29.669Z</time>
      </trkpt>
      <trkpt lat="48.550923" lon="16.719625">
        <ele>326.111545</ele>
        <time>2020-07-04T06:21:31.663Z</time>
      </trkpt>
      <trkpt lat="48.551015" lon="16.719508">
        <ele>326.103143</ele>
        <time>2020-07-04T06:21:33.664Z</time>
      </trkpt>
      <trkpt lat="48.551104" lon="16.719392">
        <ele>326.094931</ele>
        <time>2020-07-04T06:21:35.682Z</time>
      </trkpt>
      <trkpt lat="48.551189" lon="16.719280">
        <ele>326.087050</ele>
        <time>2020-07-04T06:21:37.679Z</time>
      </trkpt>
      <trkpt lat="48.551270" lon="16.719163">
        <ele>326.079221</ele>
        <time>2020-07-04T06:21:39.688Z</time>
      </trkpt>
      <trkpt lat="48.551351" lon="16.719043">
        <ele>326.071294</ele>
        <time>2020-07-04T06:21:41.688Z</time>
      </trkpt>
      <trkpt lat="48.551424" lon="16.718926">
        <ele>326.063858</ele>
        <time>2020-07-04T06:21:43.685Z</time>
      </trkpt>
      <trkpt lat="48.551499" lon="16.718815">
        <ele>326.056523</ele>
        <time>2020-07-04T06:21:45.674Z</time>
      </trkpt>
      <trkpt lat="48.551571" lon="16.718703">
        <ele>326.049302</ele>
        <time>2020-07-04T06:21:47.661Z</time>
      </trkpt>
      <trkpt lat="48.551639" lon="16.718587">
        <ele>326.042136</ele>
        <time>2020-07-04T06:21:49.699Z</time>
      </trkpt>
      <trkpt lat="48.551703" lon="16.718464">
        <ele>326.034901</ele>
        <time>2020-07-04T06:21:51.685Z</time>
      </trkpt>
      <trkpt lat="48.551776" lon="16.718340">
        <ele>326.027226</ele>
        <time>2020-07-04T06:21:53.666Z</time>
      </trkpt>
      <trkpt lat="48.551852" lon="16.718218">
        <ele>326.019478</ele>
        <time>2020-07-04T06:21:55.699Z</time>
      </trkpt>
      <trkpt lat="48.551928" lon="16.718091">
        <ele>326.011560</ele>
        <time>2020-07-04T06:21:57.659Z</time>
      </trkpt>
      <trkpt lat="48.551997" lon="16.717958">
        <ele>326.003745</ele>
        <time>2020-07-04T06:21:59.686Z</time>
      </trkpt>
      <trkpt lat="48.552067" lon="16.717822">
        <ele>326.041233</ele>
        <time>2020-07-04T06:22:01.689Z</time>
      </trkpt>
      <trkpt lat="48.552140" lon="16.717697">
        <ele>326.118083</ele>
        <time>2020-07-04T06:22:03.675Z</time>
      </trkpt>
      <trkpt lat="48.552215" lon="16.717572">
        <ele>326.195861</ele>
        <time>2020-07-04T06:22:05.687Z</time>
      </trkpt>
      <trkpt lat="48.552293" lon="16.717446">
        <ele>326.275395</ele>
        <time>2020-07-04T06:22:07.677Z</time>
      </trkpt>
      <trkpt lat="48.552365" lon="16.717316">
        <ele>326.353539</ele>
        <time>2020-07-04T06:22:09.686Z</time>
      </trkpt>
      <trkpt lat="48.552436" lon="16.717184">
        <ele>326.431952</ele>
        <time>2020-07-04T06:22:11.681Z</time>
      </trkpt>
      <trkpt lat="48.552501" lon="16.717050">
        <ele>326.508541</ele>
        <time>2020-07-04T06:22:13.686Z</time>
      </trkpt>
      <trkpt lat="48.552563" lon="16.716922">
        <ele>326.581663</ele>
        <time>2020-07-04T06:22:15.685Z</time>
      </trkpt>
      <trkpt lat="48.552627" lon="16.716802">
        <ele>326.652708</ele>
        <time>2020-07-04T06:22:17.671Z</time>
      </trkpt>
      <trkpt lat="48.552690" lon="16.716680">
        <ele>326.724043</ele>
        <time>2020-07-04T06:22:19.660Z</time>
      </trkpt>
      <trkpt lat="48.552752" lon="16.716559">
        <ele>326.794587</ele>
        <time>2020-07-04T06:22:21.677Z</time>
      </trkpt>
      <trkpt lat="48.552818" lon="16.716430">
        <ele>326.869752</ele>
        <time>2020-07-04T06:22:23.660Z</time>
      </trkpt>
      <trkpt lat="48.552885" lon="16.716304">
        <ele>326.944262</ele>
        <time>2020-07-04T06:22:25.685Z</time>
      </trkpt>
      <trkpt lat="48.552953" lon="16.716171">
        <ele>327.021738</ele>
        <time>2020-07-04T06:22:27.664Z</time>
      </trkpt>
      <trkpt lat="48.553027" lon="16.716038">
        <ele>327.101837</ele>
        <time>2020-07-04T06:22:29.674Z</time>
      </trkpt>
      <trkpt lat="48.553102" lon="16.715899">
        <ele>327.184511</ele>
        <time>2020-07-04T06:22:31.687Z</time>
      </trkpt>
      <trkpt lat="48.553165" lon="16.715758">
        <ele>327.259179</ele>
        <time>2020-07-04T06:22:33.678Z</time>
      </trkpt>
      <trkpt lat="48.553227" lon="16.715610">
        <ele>327.310483</ele>
        <time>2020-07-04T06:22:35.667Z</time>
      </trkpt>
      <trkpt lat="48.553298" lon="16.715464">
        <ele>327.363550</ele>
        <time>2020-07-04T06:22:37.677Z</time>
      </trkpt>
      <trkpt lat="48.553370" lon="16.715311">
        <ele>327.418537</ele>
        <time>2020-07-04T06:22:39.701Z</time>
      </trkpt>
      <trkpt lat="48.553442" lon="16.715151">
        <ele>327.475209</ele>
        <time>2020-07-04T06:22:41.700Z</time>
      </trkpt>
      <trkpt lat="48.553518" lon="16.714996">
        <ele>327.531710</ele>
        <time>2020-07-04T06:22:43.684Z</time>
      </trkpt>
      <trkpt lat="48.553595" lon="16.714840">
        <ele>327.588710</ele>
        <time>2020-07-04T06:22:45.696Z</time>
      </trkpt>
      <trkpt lat="48.553677" lon="16.714682">
        <ele>327.647520</ele>
        <time>2020-07-04T06:22:47.665Z</time>
      </trkpt>
      <trkpt lat="48.553754" lon="16.714519">
        <ele>327.706177</ele>
        <time>2020-07-04T06:22:49.714Z</time>
      </trkpt>
      <trkpt lat="48.553835" lon="16.714353">
        <ele>327.766584</ele>
        <time>2020-07-04T06:22:51.682Z</time>
      </trkpt>
      <trkpt lat="48.553915" lon="16.714183">
        <ele>327.827681</ele>
        <time>2020-07-04T06:22:53.686Z</time>
      </trkpt>
      <trkpt lat="48.553997" lon="16.714009">
        <ele>327.890246</ele>
        <time>2020-07-04T06:22:55.697Z</time>
      </trkpt>
      <trkpt lat="48.554079" lon="16.713831">
        <ele>327.953768</ele>
        <time>2020-07-04T06:22:57.699Z</time>
      </trkpt>
      <trkpt lat="48.554165" lon="16.713654">
        <ele>328.018082</ele>
        <time>2020-07-04T06:22:59.726Z</time>
      </trkpt>
      <trkpt lat="48.554257" lon="16.713479">
        <ele>328.029862</ele>
        <time>2020-07-04T06:23:01.709Z</time>
      </trkpt>
      <trkpt lat="48.554344" lon="16.713292">
        <ele>327.994047</ele>
        <time>2020-07-04T06:23:03.683Z</time>
      </trkpt>
      <trkpt lat="48.554430" lon="16.713104">
        <ele>327.958239</ele>
        <time>2020-07-04T06:23:05.690Z</time>
      </trkpt>
      <trkpt lat="48.554527" lon="16.712927">
        <ele>327.922233</ele>
        <time>2020-07-04T06:23:07.668Z</time>
      </trkpt>
      <trkpt lat="48.554614" lon="16.712733">
        <ele>327.885515</ele>
        <time>2020-07-04T06:23:09.677Z</time>
      </trkpt>
      <trkpt lat="48.554703" lon="16.712544">
        <ele>327.849171</ele>
        <time>2020-07-04T06:23:11.678Z</time>
      </trkpt>
      <trkpt lat="48.554791" lon="16.712356">
        <ele>327.813092</ele>
        <time>2020-07-04T06:23:13.697Z</time>
      </trkpt>
      <trkpt lat="48.554883" lon="16.712174">
        <ele>327.777210</ele>
        <time>2020-07-04T06:23:15.673Z</time>
      </trkpt>
      <trkpt lat="48.554967" lon="16.711987">
        <ele>327.741799</ele>
        <time>2020-07-04T06:23:17.661Z</time>
      </trkpt>
      <trkpt lat="48.555057" lon="16.711811">
        <ele>327.706950</ele>
        <time>2020-07-04T06:23:19.673Z</time>
      </trkpt>
      <trkpt lat="48.555147" lon="16.711640">
        <ele>327.672718</ele>
        <time>2020-07-04T06:23:21.688Z</time>
      </trkpt>
      <trkpt lat="48.555238" lon="16.711472">
        <ele>327.638704</ele>
        <time>2020-07-04T06:23:23.684Z</time>
      </trkpt>
      <trkpt lat="48.555325" lon="16.711295">
        <ele>327.567597</ele>
        <time>2020-07-04T06:23:25.713Z</time>
      </trkpt>
      <trkpt lat="48.555412" lon="16.711117">
        <ele>327.464875</ele>
        <time>2020-07-04T06:23:27.671Z</time>
      </trkpt>
      <trkpt lat="48.555501" lon="16.710941">
        <ele>327.362053</ele>
        <time>2020-07-04T06:23:29.686Z</time>
      </trkpt>
      <trkpt lat="48.555587" lon="16.710764">
        <ele>327.260120</ele>
        <time>2020-07-04T06:23:31.678Z</time>
      </trkpt>
      <trkpt lat="48.555671" lon="16.710584">
        <ele>327.157877</ele>
        <time>2020-07-04T06:23:33.688Z</time>
      </trkpt>
      <trkpt lat="48.555755" lon="16.710404">
        <ele>327.055633</ele>
        <time>2020-07-04T06:23:35.665Z</time>
      </trkpt>
      <trkpt lat="48.555842" lon="16.710226">
        <ele>326.952911</ele>
        <time>2020-07-04T06:23:37.660Z</time>
      </trkpt>
      <trkpt lat="48.555927" lon="16.710044">
        <ele>326.849505</ele>
        <time>2020-07-04T06:23:39.669Z</time>
      </trkpt>
      <trkpt lat="48.556008" lon="16.709861">
        <ele>326.747305</ele>
        <time>2020-07-04T06:23:41.661Z</time>
      </trkpt>
      <trkpt lat="48.556092" lon="16.709678">
        <ele>326.643921</ele>
        <time>2020-07-04T06:23:43.677Z</time>
      </trkpt>
      <trkpt lat="48.556175" lon="16.709489">
        <ele>326.538625</ele>
        <time>2020-07-04T06:23:45.667Z</time>
      </trkpt>
      <trkpt lat="48.556273" lon="16.709313">
        <ele>326.431854</ele>
        <time>2020-07-04T06:23:47.669Z</time>
      </trkpt>
      <trkpt lat="48.556377" lon="16.709145">
        <ele>326.310152</ele>
        <time>2020-07-04T06:23:49.664Z</time>
      </trkpt>
      <trkpt lat="48.556483" lon="16.708978">
        <ele>326.158470</ele>
        <time>2020-07-04T06:23:51.676Z</time>
      </trkpt>
      <trkpt lat="48.556589" lon="16.708811">
        <ele>326.006788</ele>
        <time>2020-07-04T06:23:53.687Z</time>
      </trkpt>
      <trkpt lat="48.556698" lon="16.708650">
        <ele>325.855810</ele>
        <time>2020-07-04T06:23:55.661Z</time>
      </trkpt>
      <trkpt lat="48.556809" lon="16.708499">
        <ele>325.707874</ele>
        <time>2020-07-04T06:23:57.658Z</time>
      </trkpt>
      <trkpt lat="48.556920" lon="16.708360">
        <ele>325.565082</ele>
        <time>2020-07-04T06:23:59.675Z</time>
      </trkpt>
      <trkpt lat="48.557032" lon="16.708231">
        <ele>325.425595</ele>
        <time>2020-07-04T06:24:01.686Z</time>
      </trkpt>
      <trkpt lat="48.557149" lon="16.708111">
        <ele>325.285535</ele>
        <time>2020-07-04T06:24:03.679Z</time>
      </trkpt>
      <trkpt lat="48.557268" lon="16.707989">
        <ele>325.143100</ele>
        <time>2020-07-04T06:24:05.678Z</time>
      </trkpt>
      <trkpt lat="48.557389" lon="16.707875">
        <ele>325.001866</ele>
        <time>2020-07-04T06:24:07.676Z</time>
      </trkpt>
      <trkpt lat="48.557509" lon="16.707764">
        <ele>324.862508</ele>
        <time>2020-07-04T06:24:09.682Z</time>
      </trkpt>
      <trkpt lat="48.557624" lon="16.707642">
        <ele>324.723334</ele>
        <time>2020-07-04T06:24:11.666Z</time>
      </trkpt>
      <trkpt lat="48.557737" lon="16.707522">
        <ele>324.586535</ele>
        <time>2020-07-04T06:24:13.691Z</time>
      </trkpt>
      <trkpt lat="48.557851" lon="16.707407">
        <ele>324.369678</ele>
        <time>2020-07-04T06:24:15.669Z</time>
      </trkpt>
      <trkpt lat="48.557963" lon="16.707298">
        <ele>324.154809</ele>
        <time>2020-07-04T06:24:17.661Z</time>
      </trkpt>
      <trkpt lat="48.558074" lon="16.707186">
        <ele>323.939533</ele>
        <time>2020-07-04T06:24:19.680Z</time>
      </trkpt>
      <trkpt lat="48.558181" lon="16.707074">
        <ele>323.729590</ele>
        <time>2020-07-04T06:24:21.676Z</time>
      </trkpt>
      <trkpt lat="48.558288" lon="16.706963">
        <ele>323.520255</ele>
        <time>2020-07-04T06:24:23.696Z</time>
      </trkpt>
      <trkpt lat="48.558402" lon="16.706876">
        <ele>323.314267</ele>
        <time>2020-07-04T06:24:25.677Z</time>
      </trkpt>
      <trkpt lat="48.558524" lon="16.706897">
        <ele>323.116228</ele>
        <time>2020-07-04T06:24:27.686Z</time>
      </trkpt>
      <trkpt lat="48.558631" lon="16.707020">
        <ele>322.899385</ele>
        <time>2020-07-04T06:24:29.666Z</time>
      </trkpt>
      <trkpt lat="48.558747" lon="16.707146">
        <ele>322.668966</ele>
        <time>2020-07-04T06:24:31.691Z</time>
      </trkpt>
      <trkpt lat="48.558868" lon="16.707291">
        <ele>322.419883</ele>
        <time>2020-07-04T06:24:33.690Z</time>
      </trkpt>
      <trkpt lat="48.559000" lon="16.707439">
        <ele>322.154773</ele>
        <time>2020-07-04T06:24:35.666Z</time>
      </trkpt>
      <trkpt lat="48.559142" lon="16.707595">
        <ele>321.871609</ele>
        <time>2020-07-04T06:24:37.667Z</time>
      </trkpt>
      <trkpt lat="48.559220" lon="16.707670">
        <ele>321.722494</ele>
        <time>2020-07-04T06:24:38.701Z</time>
      </trkpt>
      <trkpt lat="48.559304" lon="16.707747">
        <ele>321.564003</ele>
        <time>2020-07-04T06:24:39.661Z</time>
      </trkpt>
      <trkpt lat="48.559384" lon="16.707833">
        <ele>321.405610</ele>
        <time>2020-07-04T06:24:40.692Z</time>
      </trkpt>
      <trkpt lat="48.559465" lon="16.707921">
        <ele>321.244664</ele>
        <time>2020-07-04T06:24:41.666Z</time>
      </trkpt>
      <trkpt lat="48.559551" lon="16.708008">
        <ele>321.077698</ele>
        <time>2020-07-04T06:24:42.681Z</time>
      </trkpt>
      <trkpt lat="48.559638" lon="16.708104">
        <ele>320.903902</ele>
        <time>2020-07-04T06:24:43.664Z</time>
      </trkpt>
      <trkpt lat="48.559731" lon="16.708196">
        <ele>320.724573</ele>
        <time>2020-07-04T06:24:44.678Z</time>
      </trkpt>
      <trkpt lat="48.559832" lon="16.708289">
        <ele>320.533762</ele>
        <time>2020-07-04T06:24:45.690Z</time>
      </trkpt>
      <trkpt lat="48.559929" lon="16.708379">
        <ele>320.350128</ele>
        <time>2020-07-04T06:24:46.673Z</time>
      </trkpt>
      <trkpt lat="48.560013" lon="16.708459">
        <ele>320.189941</ele>
        <time>2020-07-04T06:24:47.664Z</time>
      </trkpt>
      <trkpt lat="48.560087" lon="16.708543">
        <ele>320.040624</ele>
        <time>2020-07-04T06:24:48.684Z</time>
      </trkpt>
      <trkpt lat="48.560219" lon="16.708690">
        <ele>319.776085</ele>
        <time>2020-07-04T06:24:50.696Z</time>
      </trkpt>
      <trkpt lat="48.560331" lon="16.708745">
        <ele>319.586097</ele>
        <time>2020-07-04T06:24:52.673Z</time>
      </trkpt>
      <trkpt lat="48.560446" lon="16.708663">
        <ele>319.380953</ele>
        <time>2020-07-04T06:24:54.677Z</time>
      </trkpt>
      <trkpt lat="48.560557" lon="16.708549">
        <ele>319.164432</ele>
        <time>2020-07-04T06:24:56.666Z</time>
      </trkpt>
      <trkpt lat="48.560675" lon="16.708437">
        <ele>318.939625</ele>
        <time>2020-07-04T06:24:58.687Z</time>
      </trkpt>
      <trkpt lat="48.560802" lon="16.708329">
        <ele>318.742614</ele>
        <time>2020-07-04T06:25:00.689Z</time>
      </trkpt>
      <trkpt lat="48.560930" lon="16.708218">
        <ele>318.629264</ele>
        <time>2020-07-04T06:25:02.684Z</time>
      </trkpt>
      <trkpt lat="48.561063" lon="16.708117">
        <ele>318.514939</ele>
        <time>2020-07-04T06:25:04.686Z</time>
      </trkpt>
      <trkpt lat="48.561186" lon="16.707994">
        <ele>318.401655</ele>
        <time>2020-07-04T06:25:06.683Z</time>
      </trkpt>
      <trkpt lat="48.561321" lon="16.707898">
        <ele>318.287060</ele>
        <time>2020-07-04T06:25:08.709Z</time>
      </trkpt>
      <trkpt lat="48.561453" lon="16.707804">
        <ele>318.174983</ele>
        <time>2020-07-04T06:25:10.677Z</time>
      </trkpt>
      <trkpt lat="48.561578" lon="16.707705">
        <ele>318.066589</ele>
        <time>2020-07-04T06:25:12.666Z</time>
      </trkpt>
      <trkpt lat="48.561699" lon="16.707610">
        <ele>317.961860</ele>
        <time>2020-07-04T06:25:14.702Z</time>
      </trkpt>
      <trkpt lat="48.561814" lon="16.707516">
        <ele>317.861439</ele>
        <time>2020-07-04T06:25:16.692Z</time>
      </trkpt>
      <trkpt lat="48.561939" lon="16.707453">
        <ele>317.760234</ele>
        <time>2020-07-04T06:25:18.707Z</time>
      </trkpt>
      <trkpt lat="48.562065" lon="16.707384">
        <ele>317.657302</ele>
        <time>2020-07-04T06:25:20.679Z</time>
      </trkpt>
      <trkpt lat="48.562190" lon="16.707304">
        <ele>317.553040</ele>
        <time>2020-07-04T06:25:22.660Z</time>
      </trkpt>
      <trkpt lat="48.562325" lon="16.707251">
        <ele>317.445912</ele>
        <time>2020-07-04T06:25:24.715Z</time>
      </trkpt>
      <trkpt lat="48.562466" lon="16.707216">
        <ele>317.261301</ele>
        <time>2020-07-04T06:25:26.671Z</time>
      </trkpt>
      <trkpt lat="48.562609" lon="16.707172">
        <ele>317.008495</ele>
        <time>2020-07-04T06:25:28.689Z</time>
      </trkpt>
      <trkpt lat="48.562752" lon="16.707120">
        <ele>316.753700</ele>
        <time>2020-07-04T06:25:30.677Z</time>
      </trkpt>
      <trkpt lat="48.562884" lon="16.707033">
        <ele>316.504226</ele>
        <time>2020-07-04T06:25:32.669Z</time>
      </trkpt>
      <trkpt lat="48.563002" lon="16.706927">
        <ele>316.266417</ele>
        <time>2020-07-04T06:25:34.671Z</time>
      </trkpt>
      <trkpt lat="48.563108" lon="16.706808">
        <ele>316.037657</ele>
        <time>2020-07-04T06:25:36.662Z</time>
      </trkpt>
      <trkpt lat="48.563214" lon="16.706698">
        <ele>315.814897</ele>
        <time>2020-07-04T06:25:38.684Z</time>
      </trkpt>
      <trkpt lat="48.563317" lon="16.706591">
        <ele>315.598368</ele>
        <time>2020-07-04T06:25:40.696Z</time>
      </trkpt>
      <trkpt lat="48.563419" lon="16.706492">
        <ele>315.388359</ele>
        <time>2020-07-04T06:25:42.696Z</time>
      </trkpt>
      <trkpt lat="48.563522" lon="16.706400">
        <ele>315.181088</ele>
        <time>2020-07-04T06:25:44.704Z</time>
      </trkpt>
      <trkpt lat="48.563614" lon="16.706293">
        <ele>314.979972</ele>
        <time>2020-07-04T06:25:46.672Z</time>
      </trkpt>
      <trkpt lat="48.563678" lon="16.706166">
        <ele>314.796968</ele>
        <time>2020-07-04T06:25:48.687Z</time>
      </trkpt>
      <trkpt lat="48.563689" lon="16.706006">
        <ele>314.612552</ele>
        <time>2020-07-04T06:25:50.694Z</time>
      </trkpt>
      <trkpt lat="48.563695" lon="16.705856">
        <ele>314.440274</ele>
        <time>2020-07-04T06:25:52.705Z</time>
      </trkpt>
      <trkpt lat="48.563700" lon="16.705699">
        <ele>314.221186</ele>
        <time>2020-07-04T06:25:54.680Z</time>
      </trkpt>
      <trkpt lat="48.563704" lon="16.705542">
        <ele>313.688759</ele>
        <time>2020-07-04T06:25:56.706Z</time>
      </trkpt>
      <trkpt lat="48.563726" lon="16.705394">
        <ele>313.174728</ele>
        <time>2020-07-04T06:25:58.680Z</time>
      </trkpt>
      <trkpt lat="48.563792" lon="16.705279">
        <ele>312.658891</ele>
        <time>2020-07-04T06:26:00.665Z</time>
      </trkpt>
      <trkpt lat="48.563885" lon="16.705185">
        <ele>312.085959</ele>
        <time>2020-07-04T06:26:02.679Z</time>
      </trkpt>
      <trkpt lat="48.563995" lon="16.705098">
        <ele>311.450202</ele>
        <time>2020-07-04T06:26:04.692Z</time>
      </trkpt>
      <trkpt lat="48.564110" lon="16.704996">
        <ele>310.767383</ele>
        <time>2020-07-04T06:26:06.685Z</time>
      </trkpt>
      <trkpt lat="48.564256" lon="16.705035">
        <ele>310.008183</ele>
        <time>2020-07-04T06:26:08.680Z</time>
      </trkpt>
      <trkpt lat="48.564336" lon="16.705099">
        <ele>309.544667</ele>
        <time>2020-07-04T06:26:09.679Z</time>
      </trkpt>
      <trkpt lat="48.564425" lon="16.705155">
        <ele>309.051002</ele>
        <time>2020-07-04T06:26:10.665Z</time>
      </trkpt>
      <trkpt lat="48.564519" lon="16.705214">
        <ele>308.529793</ele>
        <time>2020-07-04T06:26:11.674Z</time>
      </trkpt>
      <trkpt lat="48.564613" lon="16.705260">
        <ele>308.023845</ele>
        <time>2020-07-04T06:26:12.679Z</time>
      </trkpt>
      <trkpt lat="48.564704" lon="16.705303">
        <ele>307.535618</ele>
        <time>2020-07-04T06:26:13.674Z</time>
      </trkpt>
      <trkpt lat="48.564802" lon="16.705332">
        <ele>307.024267</ele>
        <time>2020-07-04T06:26:14.677Z</time>
      </trkpt>
      <trkpt lat="48.564905" lon="16.705347">
        <ele>306.494401</ele>
        <time>2020-07-04T06:26:15.689Z</time>
      </trkpt>
      <trkpt lat="48.565010" lon="16.705344">
        <ele>305.956642</ele>
        <time>2020-07-04T06:26:16.671Z</time>
      </trkpt>
      <trkpt lat="48.565111" lon="16.705301">
        <ele>305.419326</ele>
        <time>2020-07-04T06:26:17.691Z</time>
      </trkpt>
      <trkpt lat="48.565213" lon="16.705254">
        <ele>304.925494</ele>
        <time>2020-07-04T06:26:18.680Z</time>
      </trkpt>
      <trkpt lat="48.565321" lon="16.705236">
        <ele>304.516923</ele>
        <time>2020-07-04T06:26:19.671Z</time>
      </trkpt>
      <trkpt lat="48.565430" lon="16.705223">
        <ele>304.105781</ele>
        <time>2020-07-04T06:26:20.690Z</time>
      </trkpt>
      <trkpt lat="48.565530" lon="16.705244">
        <ele>303.726141</ele>
        <time>2020-07-04T06:26:21.677Z</time>
      </trkpt>
      <trkpt lat="48.565618" lon="16.705273">
        <ele>303.387461</ele>
        <time>2020-07-04T06:26:22.698Z</time>
      </trkpt>
      <trkpt lat="48.565781" lon="16.705294">
        <ele>302.772316</ele>
        <time>2020-07-04T06:26:24.678Z</time>
      </trkpt>
      <trkpt lat="48.565955" lon="16.705290">
        <ele>302.117956</ele>
        <time>2020-07-04T06:26:26.661Z</time>
      </trkpt>
      <trkpt lat="48.566125" lon="16.705245">
        <ele>301.468979</ele>
        <time>2020-07-04T06:26:28.680Z</time>
      </trkpt>
      <trkpt lat="48.566284" lon="16.705155">
        <ele>300.830530</ele>
        <time>2020-07-04T06:26:30.677Z</time>
      </trkpt>
      <trkpt lat="48.566425" lon="16.705025">
        <ele>300.209442</ele>
        <time>2020-07-04T06:26:32.663Z</time>
      </trkpt>
      <trkpt lat="48.566573" lon="16.704894">
        <ele>299.564483</ele>
        <time>2020-07-04T06:26:34.694Z</time>
      </trkpt>
      <trkpt lat="48.566716" lon="16.704733">
        <ele>298.893933</ele>
        <time>2020-07-04T06:26:36.666Z</time>
      </trkpt>
      <trkpt lat="48.566846" lon="16.704559">
        <ele>298.209804</ele>
        <time>2020-07-04T06:26:38.659Z</time>
      </trkpt>
      <trkpt lat="48.566971" lon="16.704378">
        <ele>297.249705</ele>
        <time>2020-07-04T06:26:40.689Z</time>
      </trkpt>
      <trkpt lat="48.567097" lon="16.704206">
        <ele>296.308047</ele>
        <time>2020-07-04T06:26:42.669Z</time>
      </trkpt>
      <trkpt lat="48.567217" lon="16.704032">
        <ele>295.385745</ele>
        <time>2020-07-04T06:26:44.691Z</time>
      </trkpt>
      <trkpt lat="48.567333" lon="16.703840">
        <ele>294.431631</ele>
        <time>2020-07-04T06:26:46.661Z</time>
      </trkpt>
      <trkpt lat="48.567447" lon="16.703637">
        <ele>293.454543</ele>
        <time>2020-07-04T06:26:48.698Z</time>
      </trkpt>
      <trkpt lat="48.567566" lon="16.703454">
        <ele>292.512971</ele>
        <time>2020-07-04T06:26:50.681Z</time>
      </trkpt>
      <trkpt lat="48.567657" lon="16.703228">
        <ele>291.542110</ele>
        <time>2020-07-04T06:26:52.690Z</time>
      </trkpt>
      <trkpt lat="48.567742" lon="16.703019">
        <ele>290.641835</ele>
        <time>2020-07-04T06:26:54.686Z</time>
      </trkpt>
      <trkpt lat="48.567813" lon="16.702823">
        <ele>289.821826</ele>
        <time>2020-07-04T06:26:56.687Z</time>
      </trkpt>
      <trkpt lat="48.567886" lon="16.702621">
        <ele>288.977177</ele>
        <time>2020-07-04T06:26:58.706Z</time>
      </trkpt>
      <trkpt lat="48.567952" lon="16.702422">
        <ele>288.105882</ele>
        <time>2020-07-04T06:27:00.659Z</time>
      </trkpt>
      <trkpt lat="48.567984" lon="16.702216">
        <ele>287.082657</ele>
        <time>2020-07-04T06:27:02.691Z</time>
      </trkpt>
      <trkpt lat="48.568023" lon="16.702020">
        <ele>286.092948</ele>
        <time>2020-07-04T06:27:04.684Z</time>
      </trkpt>
      <trkpt lat="48.568066" lon="16.701820">
        <ele>285.076051</ele>
        <time>2020-07-04T06:27:06.680Z</time>
      </trkpt>
      <trkpt lat="48.568104" lon="16.701619">
        <ele>284.065197</ele>
        <time>2020-07-04T06:27:08.677Z</time>
      </trkpt>
      <trkpt lat="48.568162" lon="16.701426">
        <ele>283.040185</ele>
        <time>2020-07-04T06:27:10.677Z</time>
      </trkpt>
      <trkpt lat="48.568231" lon="16.701245">
        <ele>282.030084</ele>
        <time>2020-07-04T06:27:12.676Z</time>
      </trkpt>
      <trkpt lat="48.568296" lon="16.701066">
        <ele>281.042742</ele>
        <time>2020-07-04T06:27:14.664Z</time>
      </trkpt>
      <trkpt lat="48.568367" lon="16.700893">
        <ele>280.058349</ele>
        <time>2020-07-04T06:27:16.660Z</time>
      </trkpt>
      <trkpt lat="48.568449" lon="16.700740">
        <ele>279.106275</ele>
        <time>2020-07-04T06:27:18.663Z</time>
      </trkpt>
      <trkpt lat="48.568541" lon="16.700607">
        <ele>278.175895</ele>
        <time>2020-07-04T06:27:20.697Z</time>
      </trkpt>
      <trkpt lat="48.568624" lon="16.700469">
        <ele>277.274127</ele>
        <time>2020-07-04T06:27:22.673Z</time>
      </trkpt>
      <trkpt lat="48.568682" lon="16.700301">
        <ele>276.357830</ele>
        <time>2020-07-04T06:27:24.665Z</time>
      </trkpt>
      <trkpt lat="48.568733" lon="16.700125">
        <ele>275.428742</ele>
        <time>2020-07-04T06:27:26.690Z</time>
      </trkpt>
      <trkpt lat="48.568788" lon="16.699943">
        <ele>274.624149</ele>
        <time>2020-07-04T06:27:28.700Z</time>
      </trkpt>
      <trkpt lat="48.568807" lon="16.699745">
        <ele>273.873614</ele>
        <time>2020-07-04T06:27:30.671Z</time>
      </trkpt>
      <trkpt lat="48.568801" lon="16.699542">
        <ele>273.111332</ele>
        <time>2020-07-04T06:27:32.679Z</time>
      </trkpt>
      <trkpt lat="48.568782" lon="16.699347">
        <ele>272.371932</ele>
        <time>2020-07-04T06:27:34.682Z</time>
      </trkpt>
      <trkpt lat="48.568763" lon="16.699171">
        <ele>271.702966</ele>
        <time>2020-07-04T06:27:36.677Z</time>
      </trkpt>
      <trkpt lat="48.568744" lon="16.699001">
        <ele>271.056205</ele>
        <time>2020-07-04T06:27:38.670Z</time>
      </trkpt>
      <trkpt lat="48.568713" lon="16.698847">
        <ele>270.452358</ele>
        <time>2020-07-04T06:27:40.656Z</time>
      </trkpt>
      <trkpt lat="48.568829" lon="16.698769">
        <ele>269.732585</ele>
        <time>2020-07-04T06:27:43.669Z</time>
      </trkpt>
      <trkpt lat="48.568941" lon="16.698780">
        <ele>269.096309</ele>
        <time>2020-07-04T06:27:45.677Z</time>
      </trkpt>
      <trkpt lat="48.569058" lon="16.698755">
        <ele>268.426429</ele>
        <time>2020-07-04T06:27:47.660Z</time>
      </trkpt>
      <trkpt lat="48.569138" lon="16.698622">
        <ele>267.752179</ele>
        <time>2020-07-04T06:27:49.698Z</time>
      </trkpt>
      <trkpt lat="48.569202" lon="16.698482">
        <ele>267.113855</ele>
        <time>2020-07-04T06:27:51.672Z</time>
      </trkpt>
      <trkpt lat="48.569284" lon="16.698391">
        <ele>266.537113</ele>
        <time>2020-07-04T06:27:53.674Z</time>
      </trkpt>
      <trkpt lat="48.569384" lon="16.698340">
        <ele>265.938793</ele>
        <time>2020-07-04T06:27:55.667Z</time>
      </trkpt>
      <trkpt lat="48.569484" lon="16.698302">
        <ele>265.354238</ele>
        <time>2020-07-04T06:27:57.687Z</time>
      </trkpt>
      <trkpt lat="48.569587" lon="16.698272">
        <ele>264.865633</ele>
        <time>2020-07-04T06:27:59.659Z</time>
      </trkpt>
      <trkpt lat="48.569679" lon="16.698251">
        <ele>264.579716</ele>
        <time>2020-07-04T06:28:01.661Z</time>
      </trkpt>
      <trkpt lat="48.569809" lon="16.698233">
        <ele>264.178561</ele>
        <time>2020-07-04T06:28:04.661Z</time>
      </trkpt>
      <trkpt lat="48.569906" lon="16.698231">
        <ele>263.880458</ele>
        <time>2020-07-04T06:28:06.666Z</time>
      </trkpt>
      <trkpt lat="48.569996" lon="16.698225">
        <ele>263.603625</ele>
        <time>2020-07-04T06:28:08.676Z</time>
      </trkpt>
      <trkpt lat="48.570091" lon="16.698218">
        <ele>263.311348</ele>
        <time>2020-07-04T06:28:10.662Z</time>
      </trkpt>
      <trkpt lat="48.570219" lon="16.698218">
        <ele>262.918012</ele>
        <time>2020-07-04T06:28:13.678Z</time>
      </trkpt>
      <trkpt lat="48.570349" lon="16.698231">
        <ele>262.517656</ele>
        <time>2020-07-04T06:28:16.666Z</time>
      </trkpt>
      <trkpt lat="48.570456" lon="16.698248">
        <ele>262.187040</ele>
        <time>2020-07-04T06:28:18.689Z</time>
      </trkpt>
      <trkpt lat="48.570564" lon="16.698265">
        <ele>261.853367</ele>
        <time>2020-07-04T06:28:20.702Z</time>
      </trkpt>
      <trkpt lat="48.570677" lon="16.698292">
        <ele>261.501812</ele>
        <time>2020-07-04T06:28:22.662Z</time>
      </trkpt>
      <trkpt lat="48.570800" lon="16.698303">
        <ele>261.123179</ele>
        <time>2020-07-04T06:28:24.679Z</time>
      </trkpt>
      <trkpt lat="48.570926" lon="16.698317">
        <ele>260.734943</ele>
        <time>2020-07-04T06:28:26.684Z</time>
      </trkpt>
      <trkpt lat="48.571049" lon="16.698369">
        <ele>260.342461</ele>
        <time>2020-07-04T06:28:28.673Z</time>
      </trkpt>
      <trkpt lat="48.571172" lon="16.698387">
        <ele>259.962722</ele>
        <time>2020-07-04T06:28:30.674Z</time>
      </trkpt>
      <trkpt lat="48.571291" lon="16.698406">
        <ele>259.595007</ele>
        <time>2020-07-04T06:28:32.661Z</time>
      </trkpt>
      <trkpt lat="48.571410" lon="16.698425">
        <ele>259.332888</ele>
        <time>2020-07-04T06:28:34.678Z</time>
      </trkpt>
      <trkpt lat="48.571528" lon="16.698438">
        <ele>259.131477</ele>
        <time>2020-07-04T06:28:36.664Z</time>
      </trkpt>
      <trkpt lat="48.571655" lon="16.698447">
        <ele>258.915039</ele>
        <time>2020-07-04T06:28:38.657Z</time>
      </trkpt>
      <trkpt lat="48.571777" lon="16.698446">
        <ele>258.707348</ele>
        <time>2020-07-04T06:28:40.658Z</time>
      </trkpt>
      <trkpt lat="48.571898" lon="16.698442">
        <ele>258.501314</ele>
        <time>2020-07-04T06:28:42.666Z</time>
      </trkpt>
      <trkpt lat="48.572017" lon="16.698438">
        <ele>258.298683</ele>
        <time>2020-07-04T06:28:44.678Z</time>
      </trkpt>
      <trkpt lat="48.572138" lon="16.698441">
        <ele>258.092669</ele>
        <time>2020-07-04T06:28:46.678Z</time>
      </trkpt>
      <trkpt lat="48.572257" lon="16.698439">
        <ele>257.890076</ele>
        <time>2020-07-04T06:28:48.667Z</time>
      </trkpt>
      <trkpt lat="48.572378" lon="16.698436">
        <ele>257.684063</ele>
        <time>2020-07-04T06:28:50.661Z</time>
      </trkpt>
      <trkpt lat="48.572496" lon="16.698424">
        <ele>257.482730</ele>
        <time>2020-07-04T06:28:52.671Z</time>
      </trkpt>
      <trkpt lat="48.572613" lon="16.698400">
        <ele>257.281728</ele>
        <time>2020-07-04T06:28:54.668Z</time>
      </trkpt>
      <trkpt lat="48.572737" lon="16.698371">
        <ele>257.068122</ele>
        <time>2020-07-04T06:28:56.668Z</time>
      </trkpt>
      <trkpt lat="48.572859" lon="16.698338">
        <ele>256.857134</ele>
        <time>2020-07-04T06:28:58.689Z</time>
      </trkpt>
      <trkpt lat="48.572968" lon="16.698303">
        <ele>256.667435</ele>
        <time>2020-07-04T06:29:00.669Z</time>
      </trkpt>
      <trkpt lat="48.573084" lon="16.698265">
        <ele>256.465376</ele>
        <time>2020-07-04T06:29:02.659Z</time>
      </trkpt>
      <trkpt lat="48.573203" lon="16.698213">
        <ele>256.343908</ele>
        <time>2020-07-04T06:29:04.662Z</time>
      </trkpt>
      <trkpt lat="48.573314" lon="16.698165">
        <ele>256.266415</ele>
        <time>2020-07-04T06:29:06.695Z</time>
      </trkpt>
      <trkpt lat="48.573427" lon="16.698115">
        <ele>256.187385</ele>
        <time>2020-07-04T06:29:08.668Z</time>
      </trkpt>
      <trkpt lat="48.573540" lon="16.698071">
        <ele>256.109062</ele>
        <time>2020-07-04T06:29:10.676Z</time>
      </trkpt>
      <trkpt lat="48.573653" lon="16.698026">
        <ele>256.030627</ele>
        <time>2020-07-04T06:29:12.685Z</time>
      </trkpt>
      <trkpt lat="48.573764" lon="16.697973">
        <ele>255.952494</ele>
        <time>2020-07-04T06:29:14.656Z</time>
      </trkpt>
      <trkpt lat="48.573876" lon="16.697927">
        <ele>255.874592</ele>
        <time>2020-07-04T06:29:16.660Z</time>
      </trkpt>
      <trkpt lat="48.573980" lon="16.697886">
        <ele>255.802451</ele>
        <time>2020-07-04T06:29:18.691Z</time>
      </trkpt>
      <trkpt lat="48.574085" lon="16.697848">
        <ele>255.729982</ele>
        <time>2020-07-04T06:29:20.657Z</time>
      </trkpt>
      <trkpt lat="48.574192" lon="16.697822">
        <ele>255.657241</ele>
        <time>2020-07-04T06:29:22.661Z</time>
      </trkpt>
      <trkpt lat="48.574299" lon="16.697791">
        <ele>255.584115</ele>
        <time>2020-07-04T06:29:24.664Z</time>
      </trkpt>
      <trkpt lat="48.574398" lon="16.697756">
        <ele>255.515872</ele>
        <time>2020-07-04T06:29:26.659Z</time>
      </trkpt>
      <trkpt lat="48.574498" lon="16.697716">
        <ele>255.446440</ele>
        <time>2020-07-04T06:29:28.674Z</time>
      </trkpt>
      <trkpt lat="48.574622" lon="16.697662">
        <ele>255.359825</ele>
        <time>2020-07-04T06:29:31.657Z</time>
      </trkpt>
      <trkpt lat="48.574692" lon="16.697536">
        <ele>255.286759</ele>
        <time>2020-07-04T06:29:35.679Z</time>
      </trkpt>
      <trkpt lat="48.574656" lon="16.697353">
        <ele>255.201973</ele>
        <time>2020-07-04T06:29:38.670Z</time>
      </trkpt>
      <trkpt lat="48.574640" lon="16.697219">
        <ele>255.287932</ele>
        <time>2020-07-04T06:29:40.679Z</time>
      </trkpt>
      <trkpt lat="48.574615" lon="16.697022">
        <ele>255.443366</ele>
        <time>2020-07-04T06:29:43.708Z</time>
      </trkpt>
      <trkpt lat="48.574570" lon="16.696837">
        <ele>255.596100</ele>
        <time>2020-07-04T06:29:46.680Z</time>
      </trkpt>
      <trkpt lat="48.574514" lon="16.696659">
        <ele>255.748827</ele>
        <time>2020-07-04T06:29:49.677Z</time>
      </trkpt>
      <trkpt lat="48.574476" lon="16.696534">
        <ele>255.855422</ele>
        <time>2020-07-04T06:29:51.694Z</time>
      </trkpt>
      <trkpt lat="48.574446" lon="16.696403">
        <ele>255.962841</ele>
        <time>2020-07-04T06:29:53.678Z</time>
      </trkpt>
      <trkpt lat="48.574419" lon="16.696224">
        <ele>256.105104</ele>
        <time>2020-07-04T06:29:56.666Z</time>
      </trkpt>
      <trkpt lat="48.574398" lon="16.696054">
        <ele>256.239110</ele>
        <time>2020-07-04T06:29:59.692Z</time>
      </trkpt>
      <trkpt lat="48.574376" lon="16.695885">
        <ele>256.372576</ele>
        <time>2020-07-04T06:30:02.652Z</time>
      </trkpt>
      <trkpt lat="48.574355" lon="16.695711">
        <ele>256.509631</ele>
        <time>2020-07-04T06:30:05.655Z</time>
      </trkpt>
      <trkpt lat="48.574334" lon="16.695546">
        <ele>256.639831</ele>
        <time>2020-07-04T06:30:08.703Z</time>
      </trkpt>
      <trkpt lat="48.574307" lon="16.695380">
        <ele>256.772291</ele>
        <time>2020-07-04T06:30:11.694Z</time>
      </trkpt>
      <trkpt lat="48.574280" lon="16.695219">
        <ele>256.900993</ele>
        <time>2020-07-04T06:30:14.687Z</time>
      </trkpt>
      <trkpt lat="48.574252" lon="16.695066">
        <ele>257.024002</ele>
        <time>2020-07-04T06:30:17.706Z</time>
      </trkpt>
      <trkpt lat="48.574227" lon="16.694920">
        <ele>257.140863</ele>
        <time>2020-07-04T06:30:20.680Z</time>
      </trkpt>
      <trkpt lat="48.574202" lon="16.694772">
        <ele>257.259225</ele>
        <time>2020-07-04T06:30:23.706Z</time>
      </trkpt>
      <trkpt lat="48.574180" lon="16.694637">
        <ele>257.303909</ele>
        <time>2020-07-04T06:30:26.682Z</time>
      </trkpt>
      <trkpt lat="48.574156" lon="16.694500">
        <ele>257.308239</ele>
        <time>2020-07-04T06:30:29.661Z</time>
      </trkpt>
      <trkpt lat="48.574137" lon="16.694363">
        <ele>257.312516</ele>
        <time>2020-07-04T06:30:32.676Z</time>
      </trkpt>
      <trkpt lat="48.574121" lon="16.694222">
        <ele>257.316887</ele>
        <time>2020-07-04T06:30:35.682Z</time>
      </trkpt>
      <trkpt lat="48.574102" lon="16.694082">
        <ele>257.321253</ele>
        <time>2020-07-04T06:30:38.675Z</time>
      </trkpt>
      <trkpt lat="48.574084" lon="16.693949">
        <ele>257.325401</ele>
        <time>2020-07-04T06:30:41.680Z</time>
      </trkpt>
      <trkpt lat="48.574066" lon="16.693806">
        <ele>257.329848</ele>
        <time>2020-07-04T06:30:44.676Z</time>
      </trkpt>
      <trkpt lat="48.574057" lon="16.693663">
        <ele>257.334237</ele>
        <time>2020-07-04T06:30:47.709Z</time>
      </trkpt>
      <trkpt lat="48.574046" lon="16.693520">
        <ele>257.338636</ele>
        <time>2020-07-04T06:30:50.677Z</time>
      </trkpt>
      <trkpt lat="48.574036" lon="16.693383">
        <ele>257.342847</ele>
        <time>2020-07-04T06:30:53.674Z</time>
      </trkpt>
      <trkpt lat="48.574018" lon="16.693243">
        <ele>257.347204</ele>
        <time>2020-07-04T06:30:56.687Z</time>
      </trkpt>
      <trkpt lat="48.574001" lon="16.693077">
        <ele>257.352336</ele>
        <time>2020-07-04T06:31:00.674Z</time>
      </trkpt>
      <trkpt lat="48.574024" lon="16.692916">
        <ele>257.357369</ele>
        <time>2020-07-04T06:31:04.718Z</time>
      </trkpt>
      <trkpt lat="48.574086" lon="16.692816">
        <ele>257.361556</ele>
        <time>2020-07-04T06:31:07.682Z</time>
      </trkpt>
      <trkpt lat="48.574149" lon="16.692701">
        <ele>257.366117</ele>
        <time>2020-07-04T06:31:10.672Z</time>
      </trkpt>
      <trkpt lat="48.574208" lon="16.692582">
        <ele>257.370661</ele>
        <time>2020-07-04T06:31:13.662Z</time>
      </trkpt>
      <trkpt lat="48.574260" lon="16.692459">
        <ele>257.375120</ele>
        <time>2020-07-04T06:31:16.667Z</time>
      </trkpt>
      <trkpt lat="48.574327" lon="16.692309">
        <ele>257.380650</ele>
        <time>2020-07-04T06:31:20.689Z</time>
      </trkpt>
      <trkpt lat="48.574381" lon="16.692188">
        <ele>257.387575</ele>
        <time>2020-07-04T06:31:23.680Z</time>
      </trkpt>
      <trkpt lat="48.574441" lon="16.692070">
        <ele>257.407434</ele>
        <time>2020-07-04T06:31:26.701Z</time>
      </trkpt>
      <trkpt lat="48.574504" lon="16.691947">
        <ele>257.428190</ele>
        <time>2020-07-04T06:31:29.672Z</time>
      </trkpt>
      <trkpt lat="48.574568" lon="16.691829">
        <ele>257.448550</ele>
        <time>2020-07-04T06:31:32.676Z</time>
      </trkpt>
      <trkpt lat="48.574620" lon="16.691700">
        <ele>257.468707</ele>
        <time>2020-07-04T06:31:35.695Z</time>
      </trkpt>
      <trkpt lat="48.574667" lon="16.691577">
        <ele>257.487660</ele>
        <time>2020-07-04T06:31:38.664Z</time>
      </trkpt>
      <trkpt lat="48.574727" lon="16.691456">
        <ele>257.507838</ele>
        <time>2020-07-04T06:31:41.694Z</time>
      </trkpt>
      <trkpt lat="48.574791" lon="16.691343">
        <ele>257.527686</ele>
        <time>2020-07-04T06:31:44.681Z</time>
      </trkpt>
      <trkpt lat="48.574849" lon="16.691224">
        <ele>257.547409</ele>
        <time>2020-07-04T06:31:47.683Z</time>
      </trkpt>
      <trkpt lat="48.574906" lon="16.691091">
        <ele>257.568554</ele>
        <time>2020-07-04T06:31:50.690Z</time>
      </trkpt>
      <trkpt lat="48.574967" lon="16.690971">
        <ele>257.588747</ele>
        <time>2020-07-04T06:31:53.680Z</time>
      </trkpt>
      <trkpt lat="48.575037" lon="16.690839">
        <ele>257.611320</ele>
        <time>2020-07-04T06:31:56.676Z</time>
      </trkpt>
      <trkpt lat="48.575098" lon="16.690694">
        <ele>257.634248</ele>
        <time>2020-07-04T06:31:59.670Z</time>
      </trkpt>
      <trkpt lat="48.575166" lon="16.690547">
        <ele>257.658183</ele>
        <time>2020-07-04T06:32:02.700Z</time>
      </trkpt>
      <trkpt lat="48.575237" lon="16.690402">
        <ele>257.682253</ele>
        <time>2020-07-04T06:32:05.701Z</time>
      </trkpt>
      <trkpt lat="48.575307" lon="16.690258">
        <ele>257.706097</ele>
        <time>2020-07-04T06:32:08.670Z</time>
      </trkpt>
      <trkpt lat="48.575379" lon="16.690099">
        <ele>257.731807</ele>
        <time>2020-07-04T06:32:11.680Z</time>
      </trkpt>
      <trkpt lat="48.575456" lon="16.689935">
        <ele>257.755947</ele>
        <time>2020-07-04T06:32:14.671Z</time>
      </trkpt>
      <trkpt lat="48.575513" lon="16.689821">
        <ele>257.770555</ele>
        <time>2020-07-04T06:32:16.664Z</time>
      </trkpt>
      <trkpt lat="48.575573" lon="16.689698">
        <ele>257.786177</ele>
        <time>2020-07-04T06:32:18.691Z</time>
      </trkpt>
      <trkpt lat="48.575633" lon="16.689570">
        <ele>257.802214</ele>
        <time>2020-07-04T06:32:20.677Z</time>
      </trkpt>
      <trkpt lat="48.575693" lon="16.689436">
        <ele>257.818754</ele>
        <time>2020-07-04T06:32:22.677Z</time>
      </trkpt>
      <trkpt lat="48.575755" lon="16.689299">
        <ele>257.835723</ele>
        <time>2020-07-04T06:32:24.679Z</time>
      </trkpt>
      <trkpt lat="48.575829" lon="16.689159">
        <ele>257.854041</ele>
        <time>2020-07-04T06:32:26.708Z</time>
      </trkpt>
      <trkpt lat="48.575900" lon="16.689016">
        <ele>257.872318</ele>
        <time>2020-07-04T06:32:28.673Z</time>
      </trkpt>
      <trkpt lat="48.575970" lon="16.688872">
        <ele>257.890585</ele>
        <time>2020-07-04T06:32:30.705Z</time>
      </trkpt>
      <trkpt lat="48.576041" lon="16.688716">
        <ele>257.909942</ele>
        <time>2020-07-04T06:32:32.672Z</time>
      </trkpt>
      <trkpt lat="48.576109" lon="16.688561">
        <ele>257.928954</ele>
        <time>2020-07-04T06:32:34.657Z</time>
      </trkpt>
      <trkpt lat="48.576187" lon="16.688391">
        <ele>257.950102</ele>
        <time>2020-07-04T06:32:36.667Z</time>
      </trkpt>
      <trkpt lat="48.576266" lon="16.688222">
        <ele>257.971256</ele>
        <time>2020-07-04T06:32:38.684Z</time>
      </trkpt>
      <trkpt lat="48.576348" lon="16.688052">
        <ele>257.992763</ele>
        <time>2020-07-04T06:32:40.684Z</time>
      </trkpt>
      <trkpt lat="48.576431" lon="16.687878">
        <ele>258.014691</ele>
        <time>2020-07-04T06:32:42.697Z</time>
      </trkpt>
      <trkpt lat="48.576514" lon="16.687702">
        <ele>258.072391</ele>
        <time>2020-07-04T06:32:44.693Z</time>
      </trkpt>
      <trkpt lat="48.576597" lon="16.687519">
        <ele>258.163786</ele>
        <time>2020-07-04T06:32:46.678Z</time>
      </trkpt>
      <trkpt lat="48.576680" lon="16.687342">
        <ele>258.253153</ele>
        <time>2020-07-04T06:32:48.698Z</time>
      </trkpt>
      <trkpt lat="48.576762" lon="16.687160">
        <ele>258.343856</ele>
        <time>2020-07-04T06:32:50.680Z</time>
      </trkpt>
      <trkpt lat="48.576843" lon="16.686982">
        <ele>258.432848</ele>
        <time>2020-07-04T06:32:52.699Z</time>
      </trkpt>
      <trkpt lat="48.576927" lon="16.686810">
        <ele>258.520910</ele>
        <time>2020-07-04T06:32:54.712Z</time>
      </trkpt>
      <trkpt lat="48.577002" lon="16.686637">
        <ele>258.606109</ele>
        <time>2020-07-04T06:32:56.679Z</time>
      </trkpt>
      <trkpt lat="48.577078" lon="16.686468">
        <ele>258.690283</ele>
        <time>2020-07-04T06:32:58.679Z</time>
      </trkpt>
      <trkpt lat="48.577158" lon="16.686306">
        <ele>258.773554</ele>
        <time>2020-07-04T06:33:00.686Z</time>
      </trkpt>
      <trkpt lat="48.577228" lon="16.686145">
        <ele>258.852912</ele>
        <time>2020-07-04T06:33:02.683Z</time>
      </trkpt>
      <trkpt lat="48.577298" lon="16.685985">
        <ele>258.931926</ele>
        <time>2020-07-04T06:33:04.661Z</time>
      </trkpt>
      <trkpt lat="48.577356" lon="16.685816">
        <ele>259.010349</ele>
        <time>2020-07-04T06:33:06.680Z</time>
      </trkpt>
      <trkpt lat="48.577411" lon="16.685641">
        <ele>259.090155</ele>
        <time>2020-07-04T06:33:08.681Z</time>
      </trkpt>
      <trkpt lat="48.577461" lon="16.685478">
        <ele>259.172639</ele>
        <time>2020-07-04T06:33:10.686Z</time>
      </trkpt>
      <trkpt lat="48.577511" lon="16.685313">
        <ele>259.280249</ele>
        <time>2020-07-04T06:33:12.695Z</time>
      </trkpt>
      <trkpt lat="48.577564" lon="16.685148">
        <ele>259.389006</ele>
        <time>2020-07-04T06:33:14.673Z</time>
      </trkpt>
      <trkpt lat="48.577614" lon="16.684984">
        <ele>259.496077</ele>
        <time>2020-07-04T06:33:16.679Z</time>
      </trkpt>
      <trkpt lat="48.577662" lon="16.684818">
        <ele>259.603495</ele>
        <time>2020-07-04T06:33:18.681Z</time>
      </trkpt>
      <trkpt lat="48.577707" lon="16.684662">
        <ele>259.704404</ele>
        <time>2020-07-04T06:33:20.689Z</time>
      </trkpt>
      <trkpt lat="48.577759" lon="16.684502">
        <ele>259.810103</ele>
        <time>2020-07-04T06:33:22.670Z</time>
      </trkpt>
      <trkpt lat="48.577809" lon="16.684345">
        <ele>259.913418</ele>
        <time>2020-07-04T06:33:24.695Z</time>
      </trkpt>
      <trkpt lat="48.577857" lon="16.684188">
        <ele>260.015969</ele>
        <time>2020-07-04T06:33:26.673Z</time>
      </trkpt>
      <trkpt lat="48.577912" lon="16.684039">
        <ele>260.117137</ele>
        <time>2020-07-04T06:33:28.684Z</time>
      </trkpt>
      <trkpt lat="48.577969" lon="16.683897">
        <ele>260.215620</ele>
        <time>2020-07-04T06:33:30.686Z</time>
      </trkpt>
      <trkpt lat="48.578018" lon="16.683754">
        <ele>260.311107</ele>
        <time>2020-07-04T06:33:32.659Z</time>
      </trkpt>
      <trkpt lat="48.578065" lon="16.683611">
        <ele>260.405784</ele>
        <time>2020-07-04T06:33:34.678Z</time>
      </trkpt>
      <trkpt lat="48.578112" lon="16.683470">
        <ele>260.499400</ele>
        <time>2020-07-04T06:33:36.669Z</time>
      </trkpt>
      <trkpt lat="48.578158" lon="16.683330">
        <ele>260.592084</ele>
        <time>2020-07-04T06:33:38.665Z</time>
      </trkpt>
      <trkpt lat="48.578199" lon="16.683182">
        <ele>260.687221</ele>
        <time>2020-07-04T06:33:40.689Z</time>
      </trkpt>
      <trkpt lat="48.578242" lon="16.683029">
        <ele>260.741412</ele>
        <time>2020-07-04T06:33:42.688Z</time>
      </trkpt>
      <trkpt lat="48.578286" lon="16.682872">
        <ele>260.687445</ele>
        <time>2020-07-04T06:33:44.677Z</time>
      </trkpt>
      <trkpt lat="48.578330" lon="16.682716">
        <ele>260.633768</ele>
        <time>2020-07-04T06:33:46.670Z</time>
      </trkpt>
      <trkpt lat="48.578376" lon="16.682553">
        <ele>260.577678</ele>
        <time>2020-07-04T06:33:48.672Z</time>
      </trkpt>
      <trkpt lat="48.578427" lon="16.682400">
        <ele>260.523452</ele>
        <time>2020-07-04T06:33:50.676Z</time>
      </trkpt>
      <trkpt lat="48.578475" lon="16.682243">
        <ele>260.468710</ele>
        <time>2020-07-04T06:33:52.683Z</time>
      </trkpt>
      <trkpt lat="48.578526" lon="16.682083">
        <ele>260.412496</ele>
        <time>2020-07-04T06:33:54.713Z</time>
      </trkpt>
      <trkpt lat="48.578577" lon="16.681915">
        <ele>260.353991</ele>
        <time>2020-07-04T06:33:56.670Z</time>
      </trkpt>
      <trkpt lat="48.578622" lon="16.681750">
        <ele>260.297503</ele>
        <time>2020-07-04T06:33:58.693Z</time>
      </trkpt>
      <trkpt lat="48.578670" lon="16.681591">
        <ele>260.242185</ele>
        <time>2020-07-04T06:34:00.673Z</time>
      </trkpt>
      <trkpt lat="48.578720" lon="16.681426">
        <ele>260.184743</ele>
        <time>2020-07-04T06:34:02.712Z</time>
      </trkpt>
      <trkpt lat="48.578770" lon="16.681257">
        <ele>260.126147</ele>
        <time>2020-07-04T06:34:04.702Z</time>
      </trkpt>
      <trkpt lat="48.578826" lon="16.681092">
        <ele>260.067451</ele>
        <time>2020-07-04T06:34:06.679Z</time>
      </trkpt>
      <trkpt lat="48.578876" lon="16.680923">
        <ele>260.008856</ele>
        <time>2020-07-04T06:34:08.701Z</time>
      </trkpt>
      <trkpt lat="48.578933" lon="16.680755">
        <ele>259.949097</ele>
        <time>2020-07-04T06:34:10.688Z</time>
      </trkpt>
      <trkpt lat="48.578990" lon="16.680590">
        <ele>259.889301</ele>
        <time>2020-07-04T06:34:12.659Z</time>
      </trkpt>
      <trkpt lat="48.579041" lon="16.680420">
        <ele>259.821805</ele>
        <time>2020-07-04T06:34:14.681Z</time>
      </trkpt>
      <trkpt lat="48.579098" lon="16.680251">
        <ele>259.753212</ele>
        <time>2020-07-04T06:34:16.703Z</time>
      </trkpt>
      <trkpt lat="48.579157" lon="16.680087">
        <ele>259.685709</ele>
        <time>2020-07-04T06:34:18.700Z</time>
      </trkpt>
      <trkpt lat="48.579232" lon="16.679928">
        <ele>259.615098</ele>
        <time>2020-07-04T06:34:20.696Z</time>
      </trkpt>
      <trkpt lat="48.579318" lon="16.679781">
        <ele>259.544142</ele>
        <time>2020-07-04T06:34:22.663Z</time>
      </trkpt>
      <trkpt lat="48.579405" lon="16.679634">
        <ele>259.472822</ele>
        <time>2020-07-04T06:34:24.685Z</time>
      </trkpt>
      <trkpt lat="48.579492" lon="16.679488">
        <ele>259.401772</ele>
        <time>2020-07-04T06:34:26.712Z</time>
      </trkpt>
      <trkpt lat="48.579576" lon="16.679342">
        <ele>259.331808</ele>
        <time>2020-07-04T06:34:28.680Z</time>
      </trkpt>
      <trkpt lat="48.579660" lon="16.679201">
        <ele>259.263199</ele>
        <time>2020-07-04T06:34:30.669Z</time>
      </trkpt>
      <trkpt lat="48.579744" lon="16.679065">
        <ele>259.195922</ele>
        <time>2020-07-04T06:34:32.668Z</time>
      </trkpt>
      <trkpt lat="48.579829" lon="16.678931">
        <ele>259.128795</ele>
        <time>2020-07-04T06:34:34.681Z</time>
      </trkpt>
      <trkpt lat="48.579915" lon="16.678794">
        <ele>259.060505</ele>
        <time>2020-07-04T06:34:36.662Z</time>
      </trkpt>
      <trkpt lat="48.580003" lon="16.678656">
        <ele>258.991199</ele>
        <time>2020-07-04T06:34:38.662Z</time>
      </trkpt>
      <trkpt lat="48.580095" lon="16.678515">
        <ele>258.919590</ele>
        <time>2020-07-04T06:34:40.668Z</time>
      </trkpt>
      <trkpt lat="48.580187" lon="16.678371">
        <ele>258.716765</ele>
        <time>2020-07-04T06:34:42.694Z</time>
      </trkpt>
      <trkpt lat="48.580276" lon="16.678225">
        <ele>258.503288</ele>
        <time>2020-07-04T06:34:44.700Z</time>
      </trkpt>
      <trkpt lat="48.580371" lon="16.678082">
        <ele>258.285374</ele>
        <time>2020-07-04T06:34:46.661Z</time>
      </trkpt>
      <trkpt lat="48.580468" lon="16.677943">
        <ele>258.068126</ele>
        <time>2020-07-04T06:34:48.684Z</time>
      </trkpt>
      <trkpt lat="48.580553" lon="16.677787">
        <ele>257.850812</ele>
        <time>2020-07-04T06:34:50.680Z</time>
      </trkpt>
      <trkpt lat="48.580640" lon="16.677633">
        <ele>257.633057</ele>
        <time>2020-07-04T06:34:52.666Z</time>
      </trkpt>
      <trkpt lat="48.580728" lon="16.677467">
        <ele>257.404322</ele>
        <time>2020-07-04T06:34:54.665Z</time>
      </trkpt>
      <trkpt lat="48.580794" lon="16.677260">
        <ele>257.157237</ele>
        <time>2020-07-04T06:34:56.653Z</time>
      </trkpt>
      <trkpt lat="48.580853" lon="16.677036">
        <ele>256.897986</ele>
        <time>2020-07-04T06:34:58.666Z</time>
      </trkpt>
      <trkpt lat="48.580894" lon="16.676802">
        <ele>256.637695</ele>
        <time>2020-07-04T06:35:00.654Z</time>
      </trkpt>
      <trkpt lat="48.580943" lon="16.676567">
        <ele>256.372751</ele>
        <time>2020-07-04T06:35:02.660Z</time>
      </trkpt>
      <trkpt lat="48.580992" lon="16.676329">
        <ele>256.104729</ele>
        <time>2020-07-04T06:35:04.674Z</time>
      </trkpt>
      <trkpt lat="48.581048" lon="16.676089">
        <ele>255.826888</ele>
        <time>2020-07-04T06:35:06.660Z</time>
      </trkpt>
      <trkpt lat="48.581096" lon="16.675838">
        <ele>255.538524</ele>
        <time>2020-07-04T06:35:08.664Z</time>
      </trkpt>
      <trkpt lat="48.581155" lon="16.675593">
        <ele>255.250766</ele>
        <time>2020-07-04T06:35:10.692Z</time>
      </trkpt>
      <trkpt lat="48.581202" lon="16.675352">
        <ele>254.973464</ele>
        <time>2020-07-04T06:35:12.679Z</time>
      </trkpt>
      <trkpt lat="48.581253" lon="16.675124">
        <ele>254.707832</ele>
        <time>2020-07-04T06:35:14.675Z</time>
      </trkpt>
      <trkpt lat="48.581300" lon="16.674905">
        <ele>254.453728</ele>
        <time>2020-07-04T06:35:16.707Z</time>
      </trkpt>
      <trkpt lat="48.581341" lon="16.674702">
        <ele>254.219474</ele>
        <time>2020-07-04T06:35:18.667Z</time>
      </trkpt>
      <trkpt lat="48.581385" lon="16.674513">
        <ele>253.998342</ele>
        <time>2020-07-04T06:35:20.680Z</time>
      </trkpt>
      <trkpt lat="48.581424" lon="16.674334">
        <ele>253.790347</ele>
        <time>2020-07-04T06:35:22.676Z</time>
      </trkpt>
      <trkpt lat="48.581457" lon="16.674156">
        <ele>253.586326</ele>
        <time>2020-07-04T06:35:24.704Z</time>
      </trkpt>
      <trkpt lat="48.581484" lon="16.673975">
        <ele>253.381547</ele>
        <time>2020-07-04T06:35:26.672Z</time>
      </trkpt>
      <trkpt lat="48.581516" lon="16.673794">
        <ele>253.174773</ele>
        <time>2020-07-04T06:35:28.694Z</time>
      </trkpt>
      <trkpt lat="48.581563" lon="16.673615">
        <ele>252.966907</ele>
        <time>2020-07-04T06:35:30.669Z</time>
      </trkpt>
      <trkpt lat="48.581600" lon="16.673428">
        <ele>252.788905</ele>
        <time>2020-07-04T06:35:32.674Z</time>
      </trkpt>
      <trkpt lat="48.581636" lon="16.673232">
        <ele>252.603398</ele>
        <time>2020-07-04T06:35:34.655Z</time>
      </trkpt>
      <trkpt lat="48.581672" lon="16.673031">
        <ele>252.413494</ele>
        <time>2020-07-04T06:35:36.667Z</time>
      </trkpt>
      <trkpt lat="48.581711" lon="16.672827">
        <ele>252.219841</ele>
        <time>2020-07-04T06:35:38.678Z</time>
      </trkpt>
      <trkpt lat="48.581751" lon="16.672621">
        <ele>252.024051</ele>
        <time>2020-07-04T06:35:40.686Z</time>
      </trkpt>
      <trkpt lat="48.581797" lon="16.672408">
        <ele>251.819715</ele>
        <time>2020-07-04T06:35:42.699Z</time>
      </trkpt>
      <trkpt lat="48.581844" lon="16.672190">
        <ele>251.610616</ele>
        <time>2020-07-04T06:35:44.687Z</time>
      </trkpt>
      <trkpt lat="48.581906" lon="16.671984">
        <ele>251.404224</ele>
        <time>2020-07-04T06:35:46.683Z</time>
      </trkpt>
      <trkpt lat="48.581974" lon="16.671789">
        <ele>251.203198</ele>
        <time>2020-07-04T06:35:48.677Z</time>
      </trkpt>
      <trkpt lat="48.582048" lon="16.671601">
        <ele>251.003697</ele>
        <time>2020-07-04T06:35:50.662Z</time>
      </trkpt>
      <trkpt lat="48.582130" lon="16.671424">
        <ele>250.806636</ele>
        <time>2020-07-04T06:35:52.659Z</time>
      </trkpt>
      <trkpt lat="48.582208" lon="16.671248">
        <ele>250.613443</ele>
        <time>2020-07-04T06:35:54.686Z</time>
      </trkpt>
      <trkpt lat="48.582294" lon="16.671086">
        <ele>250.428767</ele>
        <time>2020-07-04T06:35:56.721Z</time>
      </trkpt>
      <trkpt lat="48.582395" lon="16.670947">
        <ele>250.250905</ele>
        <time>2020-07-04T06:35:58.656Z</time>
      </trkpt>
      <trkpt lat="48.582501" lon="16.670807">
        <ele>250.067611</ele>
        <time>2020-07-04T06:36:00.687Z</time>
      </trkpt>
      <trkpt lat="48.582604" lon="16.670665">
        <ele>249.886084</ele>
        <time>2020-07-04T06:36:02.680Z</time>
      </trkpt>
      <trkpt lat="48.582707" lon="16.670522">
        <ele>249.703976</ele>
        <time>2020-07-04T06:36:04.667Z</time>
      </trkpt>
      <trkpt lat="48.582811" lon="16.670380">
        <ele>249.521485</ele>
        <time>2020-07-04T06:36:06.664Z</time>
      </trkpt>
      <trkpt lat="48.582912" lon="16.670232">
        <ele>249.338315</ele>
        <time>2020-07-04T06:36:08.678Z</time>
      </trkpt>
      <trkpt lat="48.583019" lon="16.670089">
        <ele>249.152337</ele>
        <time>2020-07-04T06:36:10.663Z</time>
      </trkpt>
      <trkpt lat="48.583127" lon="16.669950">
        <ele>248.967635</ele>
        <time>2020-07-04T06:36:12.668Z</time>
      </trkpt>
      <trkpt lat="48.583234" lon="16.669809">
        <ele>248.782794</ele>
        <time>2020-07-04T06:36:14.721Z</time>
      </trkpt>
      <trkpt lat="48.583341" lon="16.669677">
        <ele>248.602953</ele>
        <time>2020-07-04T06:36:16.679Z</time>
      </trkpt>
      <trkpt lat="48.583442" lon="16.669542">
        <ele>248.427394</ele>
        <time>2020-07-04T06:36:18.677Z</time>
      </trkpt>
      <trkpt lat="48.583542" lon="16.669406">
        <ele>248.252234</ele>
        <time>2020-07-04T06:36:20.690Z</time>
      </trkpt>
      <trkpt lat="48.583648" lon="16.669279">
        <ele>248.067148</ele>
        <time>2020-07-04T06:36:22.679Z</time>
      </trkpt>
      <trkpt lat="48.583754" lon="16.669149">
        <ele>247.871995</ele>
        <time>2020-07-04T06:36:24.668Z</time>
      </trkpt>
      <trkpt lat="48.583864" lon="16.669027">
        <ele>247.676937</ele>
        <time>2020-07-04T06:36:26.704Z</time>
      </trkpt>
      <trkpt lat="48.583974" lon="16.668904">
        <ele>247.481318</ele>
        <time>2020-07-04T06:36:28.667Z</time>
      </trkpt>
      <trkpt lat="48.584085" lon="16.668771">
        <ele>247.278813</ele>
        <time>2020-07-04T06:36:30.691Z</time>
      </trkpt>
      <trkpt lat="48.584198" lon="16.668640">
        <ele>247.075216</ele>
        <time>2020-07-04T06:36:32.690Z</time>
      </trkpt>
      <trkpt lat="48.584313" lon="16.668509">
        <ele>246.869343</ele>
        <time>2020-07-04T06:36:34.695Z</time>
      </trkpt>
      <trkpt lat="48.584427" lon="16.668378">
        <ele>246.664610</ele>
        <time>2020-07-04T06:36:36.686Z</time>
      </trkpt>
      <trkpt lat="48.584561" lon="16.668277">
        <ele>246.450534</ele>
        <time>2020-07-04T06:36:38.678Z</time>
      </trkpt>
      <trkpt lat="48.584693" lon="16.668168">
        <ele>246.235490</ele>
        <time>2020-07-04T06:36:40.671Z</time>
      </trkpt>
      <trkpt lat="48.584819" lon="16.668057">
        <ele>246.026988</ele>
        <time>2020-07-04T06:36:42.687Z</time>
      </trkpt>
      <trkpt lat="48.584946" lon="16.667951">
        <ele>245.819576</ele>
        <time>2020-07-04T06:36:44.696Z</time>
      </trkpt>
      <trkpt lat="48.585070" lon="16.667845">
        <ele>245.615909</ele>
        <time>2020-07-04T06:36:46.683Z</time>
      </trkpt>
      <trkpt lat="48.585189" lon="16.667744">
        <ele>245.417604</ele>
        <time>2020-07-04T06:36:48.673Z</time>
      </trkpt>
      <trkpt lat="48.585305" lon="16.667644">
        <ele>245.223213</ele>
        <time>2020-07-04T06:36:50.664Z</time>
      </trkpt>
      <trkpt lat="48.585419" lon="16.667545">
        <ele>245.031827</ele>
        <time>2020-07-04T06:36:52.668Z</time>
      </trkpt>
      <trkpt lat="48.585534" lon="16.667456">
        <ele>244.843756</ele>
        <time>2020-07-04T06:36:54.687Z</time>
      </trkpt>
      <trkpt lat="48.585648" lon="16.667373">
        <ele>244.659560</ele>
        <time>2020-07-04T06:36:56.674Z</time>
      </trkpt>
      <trkpt lat="48.585761" lon="16.667301">
        <ele>244.481048</ele>
        <time>2020-07-04T06:36:58.699Z</time>
      </trkpt>
      <trkpt lat="48.585875" lon="16.667222">
        <ele>244.298491</ele>
        <time>2020-07-04T06:37:00.678Z</time>
      </trkpt>
      <trkpt lat="48.585989" lon="16.667143">
        <ele>244.115933</ele>
        <time>2020-07-04T06:37:02.698Z</time>
      </trkpt>
      <trkpt lat="48.586100" lon="16.667057">
        <ele>243.934362</ele>
        <time>2020-07-04T06:37:04.687Z</time>
      </trkpt>
      <trkpt lat="48.586210" lon="16.666970">
        <ele>243.753641</ele>
        <time>2020-07-04T06:37:06.697Z</time>
      </trkpt>
      <trkpt lat="48.586319" lon="16.666873">
        <ele>243.569516</ele>
        <time>2020-07-04T06:37:08.670Z</time>
      </trkpt>
      <trkpt lat="48.586426" lon="16.666771">
        <ele>243.385372</ele>
        <time>2020-07-04T06:37:10.678Z</time>
      </trkpt>
      <trkpt lat="48.586535" lon="16.666673">
        <ele>243.200757</ele>
        <time>2020-07-04T06:37:12.699Z</time>
      </trkpt>
      <trkpt lat="48.586648" lon="16.666587">
        <ele>243.016591</ele>
        <time>2020-07-04T06:37:14.667Z</time>
      </trkpt>
      <trkpt lat="48.586764" lon="16.666498">
        <ele>242.858790</ele>
        <time>2020-07-04T06:37:16.683Z</time>
      </trkpt>
      <trkpt lat="48.586880" lon="16.666401">
        <ele>242.706297</ele>
        <time>2020-07-04T06:37:18.681Z</time>
      </trkpt>
      <trkpt lat="48.586994" lon="16.666304">
        <ele>242.555813</ele>
        <time>2020-07-04T06:37:20.684Z</time>
      </trkpt>
      <trkpt lat="48.587098" lon="16.666188">
        <ele>242.407139</ele>
        <time>2020-07-04T06:37:22.704Z</time>
      </trkpt>
      <trkpt lat="48.587196" lon="16.666062">
        <ele>242.259149</ele>
        <time>2020-07-04T06:37:24.684Z</time>
      </trkpt>
      <trkpt lat="48.587294" lon="16.665934">
        <ele>242.110168</ele>
        <time>2020-07-04T06:37:26.701Z</time>
      </trkpt>
      <trkpt lat="48.587387" lon="16.665801">
        <ele>241.962902</ele>
        <time>2020-07-04T06:37:28.678Z</time>
      </trkpt>
      <trkpt lat="48.587471" lon="16.665666">
        <ele>241.821872</ele>
        <time>2020-07-04T06:37:30.689Z</time>
      </trkpt>
      <trkpt lat="48.587551" lon="16.665528">
        <ele>241.682245</ele>
        <time>2020-07-04T06:37:32.716Z</time>
      </trkpt>
      <trkpt lat="48.587626" lon="16.665383">
        <ele>241.542185</ele>
        <time>2020-07-04T06:37:34.684Z</time>
      </trkpt>
      <trkpt lat="48.587705" lon="16.665235">
        <ele>241.397474</ele>
        <time>2020-07-04T06:37:36.683Z</time>
      </trkpt>
      <trkpt lat="48.587786" lon="16.665084">
        <ele>241.249543</ele>
        <time>2020-07-04T06:37:38.689Z</time>
      </trkpt>
      <trkpt lat="48.587866" lon="16.664929">
        <ele>241.099945</ele>
        <time>2020-07-04T06:37:40.716Z</time>
      </trkpt>
      <trkpt lat="48.587949" lon="16.664780">
        <ele>240.951721</ele>
        <time>2020-07-04T06:37:42.687Z</time>
      </trkpt>
      <trkpt lat="48.588026" lon="16.664621">
        <ele>240.809020</ele>
        <time>2020-07-04T06:37:44.697Z</time>
      </trkpt>
      <trkpt lat="48.588106" lon="16.664463">
        <ele>240.667878</ele>
        <time>2020-07-04T06:37:46.678Z</time>
      </trkpt>
      <trkpt lat="48.588184" lon="16.664306">
        <ele>240.528597</ele>
        <time>2020-07-04T06:37:48.670Z</time>
      </trkpt>
      <trkpt lat="48.588263" lon="16.664152">
        <ele>240.390358</ele>
        <time>2020-07-04T06:37:50.679Z</time>
      </trkpt>
      <trkpt lat="48.588338" lon="16.663992">
        <ele>240.251255</ele>
        <time>2020-07-04T06:37:52.699Z</time>
      </trkpt>
      <trkpt lat="48.588416" lon="16.663834">
        <ele>240.111407</ele>
        <time>2020-07-04T06:37:54.664Z</time>
      </trkpt>
      <trkpt lat="48.588499" lon="16.663674">
        <ele>239.967174</ele>
        <time>2020-07-04T06:37:56.687Z</time>
      </trkpt>
      <trkpt lat="48.588580" lon="16.663513">
        <ele>239.823691</ele>
        <time>2020-07-04T06:37:58.682Z</time>
      </trkpt>
      <trkpt lat="48.588659" lon="16.663353">
        <ele>239.682065</ele>
        <time>2020-07-04T06:38:00.681Z</time>
      </trkpt>
      <trkpt lat="48.588741" lon="16.663199">
        <ele>239.541832</ele>
        <time>2020-07-04T06:38:02.686Z</time>
      </trkpt>
      <trkpt lat="48.588820" lon="16.663044">
        <ele>239.403033</ele>
        <time>2020-07-04T06:38:04.678Z</time>
      </trkpt>
      <trkpt lat="48.588898" lon="16.662885">
        <ele>239.262617</ele>
        <time>2020-07-04T06:38:06.681Z</time>
      </trkpt>
      <trkpt lat="48.588975" lon="16.662722">
        <ele>239.120538</ele>
        <time>2020-07-04T06:38:08.669Z</time>
      </trkpt>
      <trkpt lat="48.589056" lon="16.662565">
        <ele>238.979011</ele>
        <time>2020-07-04T06:38:10.677Z</time>
      </trkpt>
      <trkpt lat="48.589132" lon="16.662407">
        <ele>238.762100</ele>
        <time>2020-07-04T06:38:12.700Z</time>
      </trkpt>
      <trkpt lat="48.589208" lon="16.662250">
        <ele>238.546086</ele>
        <time>2020-07-04T06:38:14.677Z</time>
      </trkpt>
      <trkpt lat="48.589282" lon="16.662094">
        <ele>238.332941</ele>
        <time>2020-07-04T06:38:16.695Z</time>
      </trkpt>
      <trkpt lat="48.589357" lon="16.661943">
        <ele>238.123279</ele>
        <time>2020-07-04T06:38:18.681Z</time>
      </trkpt>
      <trkpt lat="48.589431" lon="16.661795">
        <ele>237.917288</ele>
        <time>2020-07-04T06:38:20.673Z</time>
      </trkpt>
      <trkpt lat="48.589507" lon="16.661654">
        <ele>237.715338</ele>
        <time>2020-07-04T06:38:22.695Z</time>
      </trkpt>
      <trkpt lat="48.589590" lon="16.661525">
        <ele>237.515524</ele>
        <time>2020-07-04T06:38:24.699Z</time>
      </trkpt>
      <trkpt lat="48.589665" lon="16.661409">
        <ele>237.335420</ele>
        <time>2020-07-04T06:38:26.674Z</time>
      </trkpt>
      <trkpt lat="48.589746" lon="16.661261">
        <ele>237.122138</ele>
        <time>2020-07-04T06:38:29.694Z</time>
      </trkpt>
      <trkpt lat="48.589814" lon="16.661088">
        <ele>236.898701</ele>
        <time>2020-07-04T06:38:32.687Z</time>
      </trkpt>
      <trkpt lat="48.589832" lon="16.660948">
        <ele>236.740350</ele>
        <time>2020-07-04T06:38:34.681Z</time>
      </trkpt>
      <trkpt lat="48.589808" lon="16.660815">
        <ele>236.587284</ele>
        <time>2020-07-04T06:38:36.687Z</time>
      </trkpt>
      <trkpt lat="48.589745" lon="16.660698">
        <ele>236.419777</ele>
        <time>2020-07-04T06:38:38.673Z</time>
      </trkpt>
      <trkpt lat="48.589662" lon="16.660570">
        <ele>236.220757</ele>
        <time>2020-07-04T06:38:40.678Z</time>
      </trkpt>
      <trkpt lat="48.589568" lon="16.660414">
        <ele>235.986455</ele>
        <time>2020-07-04T06:38:42.686Z</time>
      </trkpt>
      <trkpt lat="48.589468" lon="16.660251">
        <ele>235.823781</ele>
        <time>2020-07-04T06:38:44.676Z</time>
      </trkpt>
      <trkpt lat="48.589374" lon="16.660093">
        <ele>235.677685</ele>
        <time>2020-07-04T06:38:46.684Z</time>
      </trkpt>
      <trkpt lat="48.589296" lon="16.659923">
        <ele>235.535448</ele>
        <time>2020-07-04T06:38:48.683Z</time>
      </trkpt>
      <trkpt lat="48.589229" lon="16.659749">
        <ele>235.397033</ele>
        <time>2020-07-04T06:38:50.684Z</time>
      </trkpt>
      <trkpt lat="48.589159" lon="16.659584">
        <ele>235.262271</ele>
        <time>2020-07-04T06:38:52.699Z</time>
      </trkpt>
      <trkpt lat="48.589089" lon="16.659420">
        <ele>235.128086</ele>
        <time>2020-07-04T06:38:54.686Z</time>
      </trkpt>
      <trkpt lat="48.589031" lon="16.659252">
        <ele>234.997803</ele>
        <time>2020-07-04T06:38:56.671Z</time>
      </trkpt>
      <trkpt lat="48.588973" lon="16.659085">
        <ele>234.868128</ele>
        <time>2020-07-04T06:38:58.679Z</time>
      </trkpt>
      <trkpt lat="48.588924" lon="16.658907">
        <ele>234.735581</ele>
        <time>2020-07-04T06:39:00.668Z</time>
      </trkpt>
      <trkpt lat="48.588881" lon="16.658734">
        <ele>234.608525</ele>
        <time>2020-07-04T06:39:02.680Z</time>
      </trkpt>
      <trkpt lat="48.588840" lon="16.658562">
        <ele>234.482833</ele>
        <time>2020-07-04T06:39:04.669Z</time>
      </trkpt>
      <trkpt lat="48.588807" lon="16.658387">
        <ele>234.357728</ele>
        <time>2020-07-04T06:39:06.693Z</time>
      </trkpt>
      <trkpt lat="48.588775" lon="16.658211">
        <ele>234.232242</ele>
        <time>2020-07-04T06:39:08.677Z</time>
      </trkpt>
      <trkpt lat="48.588742" lon="16.658034">
        <ele>234.105814</ele>
        <time>2020-07-04T06:39:10.678Z</time>
      </trkpt>
      <trkpt lat="48.588709" lon="16.657859">
        <ele>234.127164</ele>
        <time>2020-07-04T06:39:12.688Z</time>
      </trkpt>
      <trkpt lat="48.588682" lon="16.657683">
        <ele>234.167595</ele>
        <time>2020-07-04T06:39:14.680Z</time>
      </trkpt>
      <trkpt lat="48.588651" lon="16.657507">
        <ele>234.208353</ele>
        <time>2020-07-04T06:39:16.668Z</time>
      </trkpt>
      <trkpt lat="48.588640" lon="16.657325">
        <ele>234.249251</ele>
        <time>2020-07-04T06:39:18.691Z</time>
      </trkpt>
      <trkpt lat="48.588630" lon="16.657147">
        <ele>234.289227</ele>
        <time>2020-07-04T06:39:20.706Z</time>
      </trkpt>
      <trkpt lat="48.588619" lon="16.656967">
        <ele>234.329680</ele>
        <time>2020-07-04T06:39:22.685Z</time>
      </trkpt>
      <trkpt lat="48.588612" lon="16.656784">
        <ele>234.370700</ele>
        <time>2020-07-04T06:39:24.671Z</time>
      </trkpt>
      <trkpt lat="48.588606" lon="16.656601">
        <ele>234.411702</ele>
        <time>2020-07-04T06:39:26.680Z</time>
      </trkpt>
      <trkpt lat="48.588599" lon="16.656426">
        <ele>234.450936</ele>
        <time>2020-07-04T06:39:28.697Z</time>
      </trkpt>
      <trkpt lat="48.588591" lon="16.656247">
        <ele>234.491084</ele>
        <time>2020-07-04T06:39:30.676Z</time>
      </trkpt>
      <trkpt lat="48.588583" lon="16.656071">
        <ele>234.530563</ele>
        <time>2020-07-04T06:39:32.706Z</time>
      </trkpt>
      <trkpt lat="48.588574" lon="16.655897">
        <ele>234.569619</ele>
        <time>2020-07-04T06:39:34.678Z</time>
      </trkpt>
      <trkpt lat="48.588564" lon="16.655722">
        <ele>234.608927</ele>
        <time>2020-07-04T06:39:36.669Z</time>
      </trkpt>
      <trkpt lat="48.588555" lon="16.655545">
        <ele>234.648654</ele>
        <time>2020-07-04T06:39:38.673Z</time>
      </trkpt>
      <trkpt lat="48.588546" lon="16.655369">
        <ele>234.688157</ele>
        <time>2020-07-04T06:39:40.727Z</time>
      </trkpt>
      <trkpt lat="48.588536" lon="16.655199">
        <ele>234.712447</ele>
        <time>2020-07-04T06:39:42.674Z</time>
      </trkpt>
      <trkpt lat="48.588523" lon="16.655033">
        <ele>234.730336</ele>
        <time>2020-07-04T06:39:44.677Z</time>
      </trkpt>
      <trkpt lat="48.588513" lon="16.654859">
        <ele>234.749026</ele>
        <time>2020-07-04T06:39:46.683Z</time>
      </trkpt>
      <trkpt lat="48.588499" lon="16.654686">
        <ele>234.767678</ele>
        <time>2020-07-04T06:39:48.685Z</time>
      </trkpt>
      <trkpt lat="48.588481" lon="16.654517">
        <ele>234.785996</ele>
        <time>2020-07-04T06:39:50.686Z</time>
      </trkpt>
      <trkpt lat="48.588458" lon="16.654349">
        <ele>234.804356</ele>
        <time>2020-07-04T06:39:52.684Z</time>
      </trkpt>
      <trkpt lat="48.588422" lon="16.654177">
        <ele>234.823661</ele>
        <time>2020-07-04T06:39:54.686Z</time>
      </trkpt>
      <trkpt lat="48.588381" lon="16.653996">
        <ele>234.844135</ele>
        <time>2020-07-04T06:39:56.683Z</time>
      </trkpt>
      <trkpt lat="48.588330" lon="16.653817">
        <ele>234.864992</ele>
        <time>2020-07-04T06:39:58.674Z</time>
      </trkpt>
      <trkpt lat="48.588279" lon="16.653655">
        <ele>234.884192</ele>
        <time>2020-07-04T06:40:00.701Z</time>
      </trkpt>
      <trkpt lat="48.588228" lon="16.653502">
        <ele>234.902527</ele>
        <time>2020-07-04T06:40:02.691Z</time>
      </trkpt>
      <trkpt lat="48.588176" lon="16.653351">
        <ele>234.920745</ele>
        <time>2020-07-04T06:40:04.698Z</time>
      </trkpt>
      <trkpt lat="48.588127" lon="16.653210">
        <ele>234.937789</ele>
        <time>2020-07-04T06:40:06.696Z</time>
      </trkpt>
      <trkpt lat="48.588083" lon="16.653072">
        <ele>234.954184</ele>
        <time>2020-07-04T06:40:08.711Z</time>
      </trkpt>
      <trkpt lat="48.588010" lon="16.652900">
        <ele>234.976053</ele>
        <time>2020-07-04T06:40:11.686Z</time>
      </trkpt>
      <trkpt lat="48.587940" lon="16.652784">
        <ele>234.992798</ele>
        <time>2020-07-04T06:40:13.711Z</time>
      </trkpt>
      <trkpt lat="48.587855" lon="16.652661">
        <ele>235.011314</ele>
        <time>2020-07-04T06:40:15.670Z</time>
      </trkpt>
      <trkpt lat="48.587767" lon="16.652532">
        <ele>235.030603</ele>
        <time>2020-07-04T06:40:17.686Z</time>
      </trkpt>
      <trkpt lat="48.587682" lon="16.652396">
        <ele>235.050080</ele>
        <time>2020-07-04T06:40:19.698Z</time>
      </trkpt>
      <trkpt lat="48.587597" lon="16.652257">
        <ele>235.069785</ele>
        <time>2020-07-04T06:40:21.699Z</time>
      </trkpt>
      <trkpt lat="48.587510" lon="16.652118">
        <ele>235.089704</ele>
        <time>2020-07-04T06:40:23.690Z</time>
      </trkpt>
      <trkpt lat="48.587425" lon="16.651979">
        <ele>235.109409</ele>
        <time>2020-07-04T06:40:25.676Z</time>
      </trkpt>
      <trkpt lat="48.587342" lon="16.651843">
        <ele>235.128671</ele>
        <time>2020-07-04T06:40:27.679Z</time>
      </trkpt>
      <trkpt lat="48.587258" lon="16.651709">
        <ele>235.147888</ele>
        <time>2020-07-04T06:40:29.685Z</time>
      </trkpt>
      <trkpt lat="48.587170" lon="16.651573">
        <ele>235.167692</ele>
        <time>2020-07-04T06:40:31.680Z</time>
      </trkpt>
      <trkpt lat="48.587084" lon="16.651433">
        <ele>235.187580</ele>
        <time>2020-07-04T06:40:33.706Z</time>
      </trkpt>
      <trkpt lat="48.587000" lon="16.651297">
        <ele>235.206949</ele>
        <time>2020-07-04T06:40:35.692Z</time>
      </trkpt>
      <trkpt lat="48.586919" lon="16.651166">
        <ele>235.225615</ele>
        <time>2020-07-04T06:40:37.684Z</time>
      </trkpt>
      <trkpt lat="48.586837" lon="16.651043">
        <ele>235.243793</ele>
        <time>2020-07-04T06:40:39.689Z</time>
      </trkpt>
      <trkpt lat="48.586751" lon="16.650925">
        <ele>235.262070</ele>
        <time>2020-07-04T06:40:41.694Z</time>
      </trkpt>
      <trkpt lat="48.586662" lon="16.650809">
        <ele>235.297125</ele>
        <time>2020-07-04T06:40:43.683Z</time>
      </trkpt>
      <trkpt lat="48.586570" lon="16.650700">
        <ele>235.360201</ele>
        <time>2020-07-04T06:40:45.694Z</time>
      </trkpt>
      <trkpt lat="48.586472" lon="16.650608">
        <ele>235.422452</ele>
        <time>2020-07-04T06:40:47.692Z</time>
      </trkpt>
      <trkpt lat="48.586372" lon="16.650521">
        <ele>235.484713</ele>
        <time>2020-07-04T06:40:49.701Z</time>
      </trkpt>
      <trkpt lat="48.586272" lon="16.650444">
        <ele>235.545273</ele>
        <time>2020-07-04T06:40:51.699Z</time>
      </trkpt>
      <trkpt lat="48.586173" lon="16.650359">
        <ele>235.606711</ele>
        <time>2020-07-04T06:40:53.693Z</time>
      </trkpt>
      <trkpt lat="48.586070" lon="16.650281">
        <ele>235.668877</ele>
        <time>2020-07-04T06:40:55.709Z</time>
      </trkpt>
      <trkpt lat="48.585966" lon="16.650205">
        <ele>235.731212</ele>
        <time>2020-07-04T06:40:57.720Z</time>
      </trkpt>
      <trkpt lat="48.585859" lon="16.650126">
        <ele>235.795471</ele>
        <time>2020-07-04T06:40:59.704Z</time>
      </trkpt>
      <trkpt lat="48.585750" lon="16.650049">
        <ele>235.860396</ele>
        <time>2020-07-04T06:41:01.704Z</time>
      </trkpt>
      <trkpt lat="48.585642" lon="16.649973">
        <ele>235.924681</ele>
        <time>2020-07-04T06:41:03.688Z</time>
      </trkpt>
      <trkpt lat="48.585539" lon="16.649898">
        <ele>235.986374</ele>
        <time>2020-07-04T06:41:05.698Z</time>
      </trkpt>
      <trkpt lat="48.585438" lon="16.649815">
        <ele>236.048410</ele>
        <time>2020-07-04T06:41:07.684Z</time>
      </trkpt>
      <trkpt lat="48.585342" lon="16.649731">
        <ele>236.108266</ele>
        <time>2020-07-04T06:41:09.694Z</time>
      </trkpt>
      <trkpt lat="48.585249" lon="16.649639">
        <ele>236.168242</ele>
        <time>2020-07-04T06:41:11.682Z</time>
      </trkpt>
      <trkpt lat="48.585157" lon="16.649543">
        <ele>236.228567</ele>
        <time>2020-07-04T06:41:13.683Z</time>
      </trkpt>
      <trkpt lat="48.585069" lon="16.649447">
        <ele>236.244346</ele>
        <time>2020-07-04T06:41:15.709Z</time>
      </trkpt>
      <trkpt lat="48.584981" lon="16.649343">
        <ele>236.244346</ele>
        <time>2020-07-04T06:41:17.692Z</time>
      </trkpt>
      <trkpt lat="48.584890" lon="16.649233">
        <ele>236.244346</ele>
        <time>2020-07-04T06:41:19.705Z</time>
      </trkpt>
      <trkpt lat="48.584799" lon="16.649113">
        <ele>236.244346</ele>
        <time>2020-07-04T06:41:21.680Z</time>
      </trkpt>
      <trkpt lat="48.584715" lon="16.648993">
        <ele>236.244346</ele>
        <time>2020-07-04T06:41:23.697Z</time>
      </trkpt>
      <trkpt lat="48.584636" lon="16.648880">
        <ele>236.244346</ele>
        <time>2020-07-04T06:41:25.701Z</time>
      </trkpt>
      <trkpt lat="48.584559" lon="16.648762">
        <ele>236.244346</ele>
        <time>2020-07-04T06:41:27.705Z</time>
      </trkpt>
      <trkpt lat="48.584472" lon="16.648662">
        <ele>236.244346</ele>
        <time>2020-07-04T06:41:29.687Z</time>
      </trkpt>
      <trkpt lat="48.584361" lon="16.648700">
        <ele>236.244346</ele>
        <time>2020-07-04T06:41:31.681Z</time>
      </trkpt>
      <trkpt lat="48.584255" lon="16.648807">
        <ele>236.244346</ele>
        <time>2020-07-04T06:41:33.692Z</time>
      </trkpt>
      <trkpt lat="48.584154" lon="16.648910">
        <ele>236.244346</ele>
        <time>2020-07-04T06:41:35.682Z</time>
      </trkpt>
      <trkpt lat="48.584056" lon="16.649022">
        <ele>236.244346</ele>
        <time>2020-07-04T06:41:37.678Z</time>
      </trkpt>
      <trkpt lat="48.583968" lon="16.649092">
        <ele>236.244346</ele>
        <time>2020-07-04T06:41:39.679Z</time>
      </trkpt>
      <trkpt lat="48.583907" lon="16.649076">
        <ele>236.244346</ele>
        <time>2020-07-04T06:41:59.803Z</time>
      </trkpt>
    </trkseg>
  </trk>
</gpx>